XML Sitemap

This is a XML Sitemap which is supposed to be processed by search engines which follow the XML Sitemap standard like Ask.com, Bing, Google and Yahoo.
It was generated using the Blogging-Software WordPress and the Google Sitemap Generator Plugin by Arne Brachhold.
You can find more information about XML sitemaps on sitemaps.org and Google's list of sitemap programs.

URLPriorityChange frequencyLast modified (GMT)
http://www.hotnewdeal.com/2020/02/29/334070_40Count_Capri_Sun_Fruit_Punch_Juice_Drink_for_6/20%Monthly2020-02-29 23:54
http://www.hotnewdeal.com/2020/02/29/334069_S__B_Golden_Curry_Sauce_Mix_Medium_Hot_32_oz_/20%Monthly2020-02-29 23:54
http://www.hotnewdeal.com/2020/02/29/334068_Chef_Boyardee_Beefaroni_15_oz_24_Pack_as_low_as_/20%Monthly2020-02-29 23:51
http://www.hotnewdeal.com/2020/02/29/334067_Used__Like_New_Beam_Car_Phone_Mount_Holder_09/20%Monthly2020-02-29 23:37
http://www.hotnewdeal.com/2020/02/29/334066_Mentos_Clean_Breath_Hard_Mints_Sugar_Free_Candy_P/20%Monthly2020-02-29 23:22
http://www.hotnewdeal.com/2020/02/29/334065_Darford_Roasted_Chicken_Recipe_Dog_Treats_6oz_25/20%Monthly2020-02-29 23:06
http://www.hotnewdeal.com/2020/02/29/334064_1000Piece_Buffalo_Games_Aimee_Stewart_The_Family_/20%Monthly2020-02-29 22:44
http://www.hotnewdeal.com/2020/02/29/334063_ASUS__ImagineBook_MJ401TA_14_Laptop__Intel_Core_/20%Monthly2020-02-29 22:36
http://www.hotnewdeal.com/2020/02/29/334062_10_count_Capri_Sun_Pacific_Cooler_Mixed_Fruit_Flav/20%Monthly2020-02-29 22:14
http://www.hotnewdeal.com/2020/02/29/334061_18_pack_Kleenex_Expressions_Soothing_Lotion_Facial/20%Monthly2020-02-29 22:14
http://www.hotnewdeal.com/2020/02/29/334060_8_Cu_Ft_2265L_Kaytee_Aspen_Small_Pet_CageHabi/20%Monthly2020-02-29 22:05
http://www.hotnewdeal.com/2020/02/29/334059_Sigma_1835mm_F18_DC_HSM_ART_Lens_for_Canon_EF_w/20%Monthly2020-02-29 21:54
http://www.hotnewdeal.com/2020/02/29/334058_Digital_HD_Movies_The_Island_In_Time_The_Butter/20%Monthly2020-02-29 20:15
http://www.hotnewdeal.com/2020/02/29/334057_4oz_Alba_Botanica_Soothing_Sunscreen_Pure_Lavende/20%Monthly2020-02-29 20:15
http://www.hotnewdeal.com/2020/02/29/334056_Hyper_Sentinel_Nintendo_Switch_Digital_Download_/20%Monthly2020-02-29 19:55
http://www.hotnewdeal.com/2020/02/29/334055_77_LG_OLED_C9_OLED77C9PUB_4K_Ultra_HD_Smart_OLED_/20%Monthly2020-02-29 19:52
http://www.hotnewdeal.com/2020/02/29/334054_6Oz_OGX_Extra_Strength_Argan_Oil_Of_Morocco_Hair_/20%Monthly2020-02-29 19:38
http://www.hotnewdeal.com/2020/02/29/334053_240Count_Optimum_Nutrition_OptiMen_Mens_Daily_Mu/20%Monthly2020-02-29 19:35
http://www.hotnewdeal.com/2020/02/29/334052_Apple_AirPods_Pro__Amazon__235/20%Monthly2020-02-29 19:20
http://www.hotnewdeal.com/2020/02/29/334051_Mentos_Pure_Fresh_SugarFree_Chewing_Gum_with_Xyli/20%Monthly2020-02-29 19:07
http://www.hotnewdeal.com/2020/02/29/334050_mothers_powerball_at_Amazon_for_762_with_ss/20%Monthly2020-02-29 19:07
http://www.hotnewdeal.com/2020/02/29/334049_TCL_sound_bar_and_subwoofer_CLEARANCE_49/20%Monthly2020-02-29 18:54
http://www.hotnewdeal.com/2020/02/29/334048_Disney_Junior_Puppy_Dog_Pals_Doghouse_Playset_15/20%Monthly2020-02-29 18:37
http://www.hotnewdeal.com/2020/02/29/334047_12Pack_24oz_Nabisco_Oreo_Cookies_329_w_SS__/20%Monthly2020-02-29 18:30
http://www.hotnewdeal.com/2020/02/29/334046_KIND_Bars_Almond__Apricot_Gluten_Free_Low_Suga/20%Monthly2020-02-29 18:22
http://www.hotnewdeal.com/2020/02/29/334045_Pennsylvania_Makers_Mark_46_one_day_flash_sale_2/20%Monthly2020-02-29 17:55
http://www.hotnewdeal.com/2020/02/29/334044_Battlefield_Bad_Company_2__303_incl_PayPal_fe/20%Monthly2020-02-29 17:52
http://www.hotnewdeal.com/2020/02/29/334043_Dewalt_Portable_Band_Saw_Blades_4478Inch_020/20%Monthly2020-02-29 17:38
http://www.hotnewdeal.com/2020/02/29/334042_Yang_2020_Shop_60_OFF/20%Monthly2020-02-29 17:24
http://www.hotnewdeal.com/2020/02/29/334041_TinyPrints__4_sets_of_address_labels_free__199_/20%Monthly2020-02-29 17:24
http://www.hotnewdeal.com/2020/02/29/334040_16oz_Temptations_Classic_Crunchy_and_Soft_Cat_Tre/20%Monthly2020-02-29 17:21
http://www.hotnewdeal.com/2020/02/29/334039_Kohls__Nintendo_Switch_Gaming_Console_Bundle_wit/20%Monthly2020-02-29 16:55
http://www.hotnewdeal.com/2020/02/29/334038_Outward_Hound_HideASquirel_Interactive_Puzzle_Do/20%Monthly2020-02-29 16:55
http://www.hotnewdeal.com/2020/02/29/334037_Nads_Facial_Wax_Strips_Facial_Hair_Removal_for_Wo/20%Monthly2020-02-29 16:38
http://www.hotnewdeal.com/2020/02/29/334036_Veterinary_Formula_Clinical_Care__Hot_Spot_and_It/20%Monthly2020-02-29 16:38
http://www.hotnewdeal.com/2020/02/29/334035_AUKEY_USB_C_Power_Bank_10000mAh_Portable_Charger_/20%Monthly2020-02-29 16:31
http://www.hotnewdeal.com/2020/02/29/334034_Unlimited_Usenet_4_years_for_95_1_year_unlimited/20%Monthly2020-02-29 16:31
http://www.hotnewdeal.com/2020/02/29/334033_Pokemon_Trading_Cards_Ultra_Beast_Premium_GX_Box_f/20%Monthly2020-02-29 16:16
http://www.hotnewdeal.com/2020/02/29/334032_Cigar__5La_Gloria_Cubana_Serie_R_Esteli_64_Kit/20%Monthly2020-02-29 16:13
http://www.hotnewdeal.com/2020/02/29/334031_New_Chewy_Autoship_Customers_45lbs_Instinct_Orig/20%Monthly2020-02-29 16:06
http://www.hotnewdeal.com/2020/02/29/334030_Apple_iPad_Pro_11_in_64GB_Wifi_veterans_only_639/20%Monthly2020-02-29 16:04
http://www.hotnewdeal.com/2020/02/29/334029_Prana_Water_Repellant_Sherpa_Diva_Blanket_75_x_55/20%Monthly2020-02-29 16:04
http://www.hotnewdeal.com/2020/02/29/334028_EyeBuyDirect_BOGO__15_Off_2_Frames_with_Lenses_/20%Monthly2020-02-29 15:53
http://www.hotnewdeal.com/2020/02/29/334027_Moen_Tilson_Single_Handle_Bathroom_Faucet_in_Brush/20%Monthly2020-02-29 15:39
http://www.hotnewdeal.com/2020/02/29/334026_VUDU__Weekly_Deals_399/20%Monthly2020-02-29 15:39
http://www.hotnewdeal.com/2020/02/29/334025_Topping_D10_DAC_6499/20%Monthly2020-02-29 15:24
http://www.hotnewdeal.com/2020/02/29/334024_MSI_GE75_Raider_Gaming_Laptop__9th_Gen_Intel_Core/20%Monthly2020-02-29 15:24
http://www.hotnewdeal.com/2020/02/29/334023_Zukes_Puppy_Naturals_Dog_Treats_5oz_Lamb_227_/20%Monthly2020-02-29 15:07
http://www.hotnewdeal.com/2020/02/29/334022_AN_EXTRA_DAY_AN_EXTRA_LOBSTER_Leap_Year_Special_/20%Monthly2020-02-29 14:46
http://www.hotnewdeal.com/2020/02/29/334021_Lucid_Comfort_Collection_3Inch_Gel__Aloe_Infused/20%Monthly2020-02-29 14:43
http://www.hotnewdeal.com/2020/02/29/334020_LG_Gram_14_8gb_ram_256_SSD_10th_Gen_i7_2020_22/20%Monthly2020-02-29 14:38
http://www.hotnewdeal.com/2020/02/29/334019_2Count_15Oz_Suave_Men_Body_Wash_Refresh_263_/20%Monthly2020-02-29 14:31
http://www.hotnewdeal.com/2020/02/29/334018_The_Tao_of_Tea_Pearl_Green_Tea_Loose_Leaf_40_O/20%Monthly2020-02-29 14:31
http://www.hotnewdeal.com/2020/02/29/334017_ring_floodlight_2_pack__360/20%Monthly2020-02-29 14:31
http://www.hotnewdeal.com/2020/02/29/334016_Forever_21_Womens_Dresses_Jumpsuits__Rompers_Sa/20%Monthly2020-02-29 14:28
http://www.hotnewdeal.com/2020/02/29/334015_Calvin_Klein_Big__Tall_Mens_Prosper_XFit_Overco/20%Monthly2020-02-29 13:30
http://www.hotnewdeal.com/2020/02/29/334014_Choice_Hotel_Privileges_Stay_Twice_Earn_Free_Night/20%Monthly2020-02-29 13:24
http://www.hotnewdeal.com/2020/02/29/334012_1917_4K_preorder_14_at_FandangoNOW__Today_Only_w/20%Monthly2020-02-29 13:24
http://www.hotnewdeal.com/2020/02/29/334011_Dell_Inspiron_G5_5090_Desktop_Intel_Core_i59400/20%Monthly2020-02-29 13:24
http://www.hotnewdeal.com/2020/02/29/334010_swingline_stapler_407/20%Monthly2020-02-29 13:08
http://www.hotnewdeal.com/2020/02/29/334009_Whalen_Monroe_Writing_Desk_w_Drawer_dark_cherry_/20%Monthly2020-02-29 12:21
http://www.hotnewdeal.com/2020/02/29/334008_30Pack_845oz_Perrier_Carbonated_Mineral_Water_P/20%Monthly2020-02-29 12:14
http://www.hotnewdeal.com/2020/02/29/334007_Sony_Alpha_a6500_Mirrorless_Digital_Camera_with_16/20%Monthly2020-02-29 11:55
http://www.hotnewdeal.com/2020/02/29/334006_Lodge_Silicone_Cast_SlipOn_Handle_Cover_ASHH41MP/20%Monthly2020-02-29 11:37
http://www.hotnewdeal.com/2020/02/29/334005_Pokmon_Cards_TCG__GX_Boxes_for_999/20%Monthly2020-02-29 11:22
http://www.hotnewdeal.com/2020/02/29/334004_Hot_Wheels_id_HiWay_Hauler_30_Truck_4__Free_Shi/20%Monthly2020-02-29 11:07
http://www.hotnewdeal.com/2020/02/29/334003_Woot_Pair_of_Iron_Lab_2_Inch_Olympic_Barbell_Col/20%Monthly2020-02-29 10:54
http://www.hotnewdeal.com/2020/02/29/334002_FandangoNOW_29_off_ALL_rentals_purchases_preo/20%Monthly2020-02-29 10:22
http://www.hotnewdeal.com/2020/02/29/334001_Samsonite_Tectonic_Lifestyle_Crossfire_Business_Ba/20%Monthly2020-02-29 10:22
http://www.hotnewdeal.com/2020/02/29/334000_Edwin_Jagger_Double_Edge_Safety_Razor__5_Derby_bl/20%Monthly2020-02-29 10:15
http://www.hotnewdeal.com/2020/02/29/333999_Wahoo_ELEMNT_GPS_Bike_Computer_Elemnt_Bundle_29/20%Monthly2020-02-29 10:06
http://www.hotnewdeal.com/2020/02/29/333998_Mother_Daughter_Dog_Tag_Necklace_Sterling_Silver/20%Monthly2020-02-29 09:38
http://www.hotnewdeal.com/2020/02/29/333997_Amazon_SS_Culturelle_Kids_Chewable_Daily_Probiot/20%Monthly2020-02-29 09:38
http://www.hotnewdeal.com/2020/02/29/333996_LEGO_Classic_Bricks_and_Animals_11011_3476_for_/20%Monthly2020-02-29 09:23
http://www.hotnewdeal.com/2020/02/29/333995_Smoke_Hollow_WG600B_Pellet_Grill_12998__BJs_B/20%Monthly2020-02-29 09:07
http://www.hotnewdeal.com/2020/02/29/333994_Amazon_Brand__Solimo_Liquid_Hand_Soap_56_oz_refi/20%Monthly2020-02-29 08:54
http://www.hotnewdeal.com/2020/02/29/333993_DEWALT_DCB2062_20V_MAX_Premium_XR_Lithium_Ion_2/20%Monthly2020-02-29 08:22
http://www.hotnewdeal.com/2020/02/29/333992_Natures_Miracle_Advanced_Deep_Cleaning_Carpet_Sha/20%Monthly2020-02-29 08:07
http://www.hotnewdeal.com/2020/02/29/333989_Walmart__YMMV__Black_and_Decker_20V_MAX_2Tool_C/20%Monthly2020-02-29 07:35
http://www.hotnewdeal.com/2020/02/29/333988_Ring_Spotlight_Cam_Battery_HD_Security_Camera_with/20%Monthly2020-02-29 06:28
http://www.hotnewdeal.com/2020/02/29/333987_Great_Wolf_Lodge_Leap_Year_Promotion_29_Per_Perso/20%Monthly2020-02-29 06:28
http://www.hotnewdeal.com/2020/02/29/333986_WD_5TB_My_Passport_Portable_Hard_Drive_Newegg_99/20%Monthly2020-02-29 04:56
http://www.hotnewdeal.com/2020/02/29/333983_24Pack_16_x_12_Zwipes_Microfiber_Cleaning_Cloth/20%Monthly2020-02-29 04:30
http://www.hotnewdeal.com/2020/02/29/333982_Duck_Brand_Paper_Drywall_Joint_Tape_206_Inches_x/20%Monthly2020-02-29 03:29
http://www.hotnewdeal.com/2020/02/29/333981_New_Super_Luckys_Tale_Nintendo_Switch_2499__/20%Monthly2020-02-29 02:40
http://www.hotnewdeal.com/2020/02/29/333980_677oz_Bior_Charcoal_Acne_Clearing_Cleanser_for_O/20%Monthly2020-02-29 02:40
http://www.hotnewdeal.com/2020/02/29/333979_Unlocked_Samsung_S10_for_699_and_S10_for_599_on_S/20%Monthly2020-02-29 01:31
http://www.hotnewdeal.com/2020/02/29/333978_XOXO_Womens_Pascal_Combat_Boots_Black_1993_or/20%Monthly2020-02-29 01:31
http://www.hotnewdeal.com/2020/02/29/333977_Contigo_Bryon_Snapseal_20_oz_Stainless_Steel_Trave/20%Monthly2020-02-29 01:11
http://www.hotnewdeal.com/2020/02/29/333976_Enso_Rings_Coupon_40_Off_Select_Silicone_Rings__/20%Monthly2020-02-29 01:11
http://www.hotnewdeal.com/2020/02/29/333975_Nostalgia_Retro_2Slot_Hot_Dog_Toaster__1199__/20%Monthly2020-02-29 01:06
http://www.hotnewdeal.com/2020/02/28/333974_Kimtech_Kimwipes_75_off_60_Boxes_for_45__tax/20%Monthly2020-02-28 23:59
http://www.hotnewdeal.com/2020/02/28/333973_Metabo_HPT_10in_15Amp_Single_Bevel_Compound_Mite/20%Monthly2020-02-28 23:58
http://www.hotnewdeal.com/2020/02/28/333972_Brookside_Cara_Tufted_Upholstered_Platform_Bed_Tw/20%Monthly2020-02-28 23:26
http://www.hotnewdeal.com/2020/02/28/333971_Monolith_by_Monoprice_M12S_12_THX_Certified_Seal/20%Monthly2020-02-28 22:57
http://www.hotnewdeal.com/2020/02/28/333970_2Ct_Tommee_Tippee_Closer_to_Nature_Fun_Style_Ort/20%Monthly2020-02-28 22:57
http://www.hotnewdeal.com/2020/02/28/333969_Lifetime_150_gallon_deck_box_at_Costco_9999_YMMV/20%Monthly2020-02-28 22:48
http://www.hotnewdeal.com/2020/02/28/333968_Costco_AirPods_Pro_Back_In_Stock_23499/20%Monthly2020-02-28 22:35
http://www.hotnewdeal.com/2020/02/28/333967_Arlo_Pro_2_Security_Camera_System_w_4_Wireless_10/20%Monthly2020-02-28 22:35
http://www.hotnewdeal.com/2020/02/28/333966_7Eleven_Any_large_pizza_229_only_on_229202/20%Monthly2020-02-28 22:09
http://www.hotnewdeal.com/2020/02/28/333965_Serta_Sebring_Sleeper_Sofa_29249_Augustus_Dream/20%Monthly2020-02-28 21:59
http://www.hotnewdeal.com/2020/02/28/333964_Brookside_Emmie_DiamondTufted_HeightAdjustable_H/20%Monthly2020-02-28 21:59
http://www.hotnewdeal.com/2020/02/28/333963_1999_for_ZeroLemon_4Ports_PD_Charger60W18W_Po/20%Monthly2020-02-28 21:59
http://www.hotnewdeal.com/2020/02/28/333962_Libbys_Vienna_Sausage_in_Chicken_Broth_46_Ounce/20%Monthly2020-02-28 21:54
http://www.hotnewdeal.com/2020/02/28/333961_3Piece_Spot_On_Removable_Paint_Sample_Decal_Kit_/20%Monthly2020-02-28 21:41
http://www.hotnewdeal.com/2020/02/28/333960_Kohls_Cardholders_Disneys_Frozen_2_10_Anna_Pl/20%Monthly2020-02-28 21:10
http://www.hotnewdeal.com/2020/02/28/333959_Adams_Venture_Origins__Deluxe_Edition_019/20%Monthly2020-02-28 20:49
http://www.hotnewdeal.com/2020/02/28/333958_YMMV_Extra_10_Off_Preorder_Galaxy_S20_Phones/20%Monthly2020-02-28 20:21
http://www.hotnewdeal.com/2020/02/28/333957_Eddie_Bauer__Womens_Luna_Peak_Down_Parka_SML/20%Monthly2020-02-28 20:10
http://www.hotnewdeal.com/2020/02/28/333956_77_LG_OLED77C9PUB_4K_HDR_TV_3599_65_LG_OLED65C/20%Monthly2020-02-28 20:10
http://www.hotnewdeal.com/2020/02/28/333955_Frozen_2_2019_Digital_HD_Google_Play_Redeem_M/20%Monthly2020-02-28 19:59
http://www.hotnewdeal.com/2020/02/28/333954_Brainerd_24Pack_114in_Nickel_Plated_Soft_Close/20%Monthly2020-02-28 19:59
http://www.hotnewdeal.com/2020/02/28/333953_Revlon_Nail_Polish_Enamel_Totally_Toffee_1_w_S/20%Monthly2020-02-28 19:59
http://www.hotnewdeal.com/2020/02/28/333952_Xbox_One_X_1TB_NBA_2K20_Gaming_Console_Bundle_Kohl/20%Monthly2020-02-28 19:59
http://www.hotnewdeal.com/2020/02/28/333951_BOSTITCH_BT1855K_18Gauge_Brad_Nailer_2_18_Oil/20%Monthly2020-02-28 19:54
http://www.hotnewdeal.com/2020/02/28/333950_Ultra_Game_Mens_NFL_Full_Zip_Fleece_Hoodie_Letter/20%Monthly2020-02-28 19:54
http://www.hotnewdeal.com/2020/02/28/333949_Linens__Hutch_2_Pillowtop_Mattress_Topper_from_/20%Monthly2020-02-28 19:54
http://www.hotnewdeal.com/2020/02/28/333948_Stereophile_675_Astronomy_1299_Mens_Healt/20%Monthly2020-02-28 19:41
http://www.hotnewdeal.com/2020/02/28/333947_Stellaris_Galaxy_Edition__479_incl_PayPal_fee/20%Monthly2020-02-28 19:41
http://www.hotnewdeal.com/2020/02/28/333946_Bissell_SpinWave_Hard_Floor_Spin_Mop_New_2039A__7/20%Monthly2020-02-28 19:41
http://www.hotnewdeal.com/2020/02/28/333945_ASUS_TUF_Gaming_FX505DVNH74_156_16GB_RAM512GB_/20%Monthly2020-02-28 19:38
http://www.hotnewdeal.com/2020/02/28/333944_Brooks_Adrenaline_GTS_19_Running_Shoe_6450_Free/20%Monthly2020-02-28 19:27
http://www.hotnewdeal.com/2020/02/28/333943_110_count_Glad_Tall_Kitchen_Drawstring_Trash_Bags_/20%Monthly2020-02-28 19:27
http://www.hotnewdeal.com/2020/02/28/333942_Walmart_4_pack_Move_Free_Ultra_Turmeric__Tamar/20%Monthly2020-02-28 19:27
http://www.hotnewdeal.com/2020/02/28/333941_36Ct_218Ct_Always_Discreet_Incontinence__P/20%Monthly2020-02-28 19:22
http://www.hotnewdeal.com/2020/02/28/333940_Microsoft_Rewards_Members_Hot_Deal__10_Xbox_Gif/20%Monthly2020-02-28 18:57
http://www.hotnewdeal.com/2020/02/28/333939_Revlon_ColorStay_16hour_Eye_Shadow_Quad_Passiona/20%Monthly2020-02-28 18:57
http://www.hotnewdeal.com/2020/02/28/333938_Serta_Comfort_Air_Mattress_with_Electric_Pump__Do/20%Monthly2020-02-28 18:49
http://www.hotnewdeal.com/2020/02/28/333937_Marvel_Ultimate_Alliance_3__Nintendo_Switch_24x/20%Monthly2020-02-28 18:49
http://www.hotnewdeal.com/2020/02/28/333936_Revlon_ColorStay_Ultimate_Suede_Lipstick_Socialit/20%Monthly2020-02-28 18:42
http://www.hotnewdeal.com/2020/02/28/333934_14Ct_Zarbees_Naturals_96_Honey_Cough_Soothers_/20%Monthly2020-02-28 18:10
http://www.hotnewdeal.com/2020/02/28/333933_LG_Nano_8_Series_65_4K_Ultra_HD_LED_NanoCell_TV_/20%Monthly2020-02-28 17:59
http://www.hotnewdeal.com/2020/02/28/333932_Sony_PlayStation_Gold_Wireless_Headset_71_Surroun/20%Monthly2020-02-28 17:58
http://www.hotnewdeal.com/2020/02/28/333931_Star_Wars_30oz_Double_Walled_Stainless_Steel_Vacuu/20%Monthly2020-02-28 17:58
http://www.hotnewdeal.com/2020/02/28/333930_HP__207_LED_FHD_Monitor__Black__5999__Best/20%Monthly2020-02-28 17:54
http://www.hotnewdeal.com/2020/02/28/333929_Sony_PlayStation_4_Slim_1TB_Jet_Black_Console_Bran/20%Monthly2020-02-28 17:42
http://www.hotnewdeal.com/2020/02/28/333928_Portrait_of_a_Legend_19511964_LP__VINYL_1388/20%Monthly2020-02-28 17:37
http://www.hotnewdeal.com/2020/02/28/333927_2Pack_15ml_Bausch__Lomb_OpconA_Allergy_Relief_E/20%Monthly2020-02-28 17:27
http://www.hotnewdeal.com/2020/02/28/333926_Little_Tikes_Garden_Chair_7/20%Monthly2020-02-28 17:05
http://www.hotnewdeal.com/2020/02/28/333925_56Ct_Listerine_Ready_Tabs_Chewable_Tablets_Clea/20%Monthly2020-02-28 16:57
http://www.hotnewdeal.com/2020/02/28/333924_40Ct_Alba_Botanica_Acnedote_Pimple_Patches_438/20%Monthly2020-02-28 16:48
http://www.hotnewdeal.com/2020/02/28/333923_Reebok_Womens_AT_Crazy_2_Running_Shoes_29_Mens/20%Monthly2020-02-28 16:45
http://www.hotnewdeal.com/2020/02/28/333922_Lowes_Backpack_Style_Greenworks_Pro_60Volt_Max_Li/20%Monthly2020-02-28 16:38
http://www.hotnewdeal.com/2020/02/28/333921_65_LG_OLED65E9PUA_4K_HDR_AI_Smart_OLED_HDTV_2019/20%Monthly2020-02-28 16:38
http://www.hotnewdeal.com/2020/02/28/333920_101Oz_Joico_Color_Balance_Purple_Conditioner_for/20%Monthly2020-02-28 16:38
http://www.hotnewdeal.com/2020/02/28/333919_50_off_Orzly_Gaming_Bundle_2549/20%Monthly2020-02-28 16:38
http://www.hotnewdeal.com/2020/02/28/333918_Home_Decorators_Collection_Gordon_Tufted_Club_Chai/20%Monthly2020-02-28 16:20
http://www.hotnewdeal.com/2020/02/28/333917_Panasonic_Compact_Microwave_Oven_8495_Amazon/20%Monthly2020-02-28 16:13
http://www.hotnewdeal.com/2020/02/28/333916_Martha_Stewart_Beach_Collection_38_x_68_Beach_T/20%Monthly2020-02-28 16:13
http://www.hotnewdeal.com/2020/02/28/333915_Assassins_Creed_The_Ezio_Collection__Xbox_One_/20%Monthly2020-02-28 16:00
http://www.hotnewdeal.com/2020/02/28/333914_86_LG_86SM9070PUA_4K_HDR_Smart_LED_Nanocell_TV_2/20%Monthly2020-02-28 15:26
http://www.hotnewdeal.com/2020/02/28/333913_10_off_30__Hooters_with_promo_code/20%Monthly2020-02-28 15:26
http://www.hotnewdeal.com/2020/02/28/333912_30Ct_Natures_Miracle_Pet_Mess_Scrubbing_Wipes_w/20%Monthly2020-02-28 15:26
http://www.hotnewdeal.com/2020/02/28/333911_BALL_Trainmaster_Cannonball_Automatic_Chronograph_/20%Monthly2020-02-28 15:26
http://www.hotnewdeal.com/2020/02/28/333910_Deepwater_Horizon_4K_UHD__Bluray__Digital_10/20%Monthly2020-02-28 15:21
http://www.hotnewdeal.com/2020/02/28/333909_Samsung_Galaxy_S10_SMG975F_128GB_Smartphone_Unlo/20%Monthly2020-02-28 15:21
http://www.hotnewdeal.com/2020/02/28/333908_8TB_WD_BLACK_D10_Game_Drive_USB_32_Gen_1_External/20%Monthly2020-02-28 14:48
http://www.hotnewdeal.com/2020/02/28/333907_Refurbished_Beats_by_Dr_Dre_Powerbeats_Pro_Wirele/20%Monthly2020-02-28 14:48
http://www.hotnewdeal.com/2020/02/28/333906_JBL__31Channel_Soundbar_System_with_10_Wireles/20%Monthly2020-02-28 14:37
http://www.hotnewdeal.com/2020/02/28/333905_STANLEY_STHT71802_Folding_Star_Hex_Key_Set_8Piec/20%Monthly2020-02-28 14:27
http://www.hotnewdeal.com/2020/02/28/333904_Acer_Nitro_5_Laptop_Ryzen_5_2500U_156_1080p_IP/20%Monthly2020-02-28 14:09
http://www.hotnewdeal.com/2020/02/28/333903_Hisense_R6200F_70_4K_UHD_Roku_TV_for_449_at_Best/20%Monthly2020-02-28 14:09
http://www.hotnewdeal.com/2020/02/28/333902_12Count_13oz_EPIC_Bison_Bacon_Cranberry_Bars_16/20%Monthly2020-02-28 14:08
http://www.hotnewdeal.com/2020/02/28/333901_Wilson_Sporting_Goods_Smart_Core_Golf_Ball__Pack_/20%Monthly2020-02-28 13:58
http://www.hotnewdeal.com/2020/02/28/333900_3Pack_16Oz_Mr_Bubble_Original_Bubble_Bath_780/20%Monthly2020-02-28 13:58
http://www.hotnewdeal.com/2020/02/28/333899_Reebok_Classic_Slide_Royal_Black_1299__Free_S/20%Monthly2020-02-28 13:55
http://www.hotnewdeal.com/2020/02/28/333898_Refurbished_TCL_55_Class_4K_2160p_HDR_Roku_Smar/20%Monthly2020-02-28 13:41
http://www.hotnewdeal.com/2020/02/28/333897_NYX_Professional_Makeup_Eyebrow_Gel_Blonde_148/20%Monthly2020-02-28 13:41
http://www.hotnewdeal.com/2020/02/28/333896_Tracfone_583_Samsung_Galaxy_A10e_Smartphone_w_1/20%Monthly2020-02-28 13:41
http://www.hotnewdeal.com/2020/02/28/333895_Nautica_Voyage_Cologne_34oz_Amazon_954/20%Monthly2020-02-28 13:41
http://www.hotnewdeal.com/2020/02/28/333894_6Pack_7Oz_NIVEA_Mens_Sensitive_Skin_Shaving_Foa/20%Monthly2020-02-28 13:37
http://www.hotnewdeal.com/2020/02/28/333893_Deli_Snack_Station_Holder_003/20%Monthly2020-02-28 13:26
http://www.hotnewdeal.com/2020/02/28/333892_Moss_for_Oculus_Quest/20%Monthly2020-02-28 13:26
http://www.hotnewdeal.com/2020/02/28/333891_Extra_Thick_Reusable_Drinking_Glass_Straws_4_Pack/20%Monthly2020-02-28 13:12
http://www.hotnewdeal.com/2020/02/28/333890_32Oz_OUT_Advanced_Pet_Stain_and_Odor_Remover_w_/20%Monthly2020-02-28 13:01
http://www.hotnewdeal.com/2020/02/28/333889_Target_Leap_Year_Sale_Save_25_on_select_video_gam/20%Monthly2020-02-28 13:01
http://www.hotnewdeal.com/2020/02/28/333888_Samsung_4K_UHD_Smart_TV_Opened_Box_65_UN55RU80/20%Monthly2020-02-28 13:01
http://www.hotnewdeal.com/2020/02/28/333887_Costco_In_Warehouse_VIZIO_2017_36_51_SmartCast_/20%Monthly2020-02-28 12:55
http://www.hotnewdeal.com/2020/02/28/333886_Be_Quiet_BL040_Pure_Wings_2_140mm_PWM_Case_Fan__B/20%Monthly2020-02-28 12:52
http://www.hotnewdeal.com/2020/02/28/333885_Husky_18ampampampquot_rubber_bottom_tool_back/20%Monthly2020-02-28 12:45
http://www.hotnewdeal.com/2020/02/28/333884_Spyder_Core_Conduct_Gloves_697__Free_Shipping/20%Monthly2020-02-28 12:45
http://www.hotnewdeal.com/2020/02/28/333883_Carhartt_Coupon_Extra_20_Off_Clearance_Mens_Wo/20%Monthly2020-02-28 12:37
http://www.hotnewdeal.com/2020/02/28/333882_Amazon_4_x_180_Count_Trident_White_SugarFree_Gum/20%Monthly2020-02-28 12:31
http://www.hotnewdeal.com/2020/02/28/333881_12oz_Carols_Daughter_Rhassoul_Clay_SulfateFree_/20%Monthly2020-02-28 12:17
http://www.hotnewdeal.com/2020/02/28/333880_McDonalds_Free_Egg_McMuffin_Mobile_App_Required/20%Monthly2020-02-28 12:16
http://www.hotnewdeal.com/2020/02/28/333879_Kohls_Cardholders_LC_Lauren_Conrad_Travel_Access/20%Monthly2020-02-28 12:16
http://www.hotnewdeal.com/2020/02/28/333878_Kohls_Cardholders_Mens__Womens_Graphic_Tees_/20%Monthly2020-02-28 12:16
http://www.hotnewdeal.com/2020/02/28/333877_Kohls_Cardholders_Simply_Vera_Vera_Wang_Signatu/20%Monthly2020-02-28 12:16
http://www.hotnewdeal.com/2020/02/28/333876_Gap_Factory_Mens_Pique_Polo_or_Thermal_TShirt_/20%Monthly2020-02-28 12:06
http://www.hotnewdeal.com/2020/02/28/333875_Twin_Pack__Mitchum_Women_Gel_Antiperspirant_Deodo/20%Monthly2020-02-28 11:50
http://www.hotnewdeal.com/2020/02/28/333874_Aukey_60w_GaN_Power_Tech_USB_C_Charger_23_39ft_/20%Monthly2020-02-28 11:50
http://www.hotnewdeal.com/2020/02/28/333873_Kirkland_Signature_AllerFlo_5_Bottles_Generic_F/20%Monthly2020-02-28 11:50
http://www.hotnewdeal.com/2020/02/28/333871_Costco__Eddie_Bauer_2pack__Packable_Down_Alterna/20%Monthly2020-02-28 11:21
http://www.hotnewdeal.com/2020/02/28/333869_Subway__BOGO_Free_Footlongs_via_App_or_Website/20%Monthly2020-02-28 11:21
http://www.hotnewdeal.com/2020/02/28/333868_NOCO_Genius_G3500_for_3499__Free_Shipping_for_P/20%Monthly2020-02-28 11:20
http://www.hotnewdeal.com/2020/02/28/333867_ABKONCORE_True_100_AntiGhosting_Mechanical_Keybo/20%Monthly2020-02-28 11:20
http://www.hotnewdeal.com/2020/02/28/333866_HOME_DEPOT__5613__Milwaukee_M12_12Volt_Compac/20%Monthly2020-02-28 10:13
http://www.hotnewdeal.com/2020/02/28/333865_100_Microsoft_Xbox_Live_Gift_Card_Digital_Code_/20%Monthly2020-02-28 09:59
http://www.hotnewdeal.com/2020/02/28/333864_Swarovski_Rhodium_Plated_And_Yellow_Gold_Plated_Cr/20%Monthly2020-02-28 09:59
http://www.hotnewdeal.com/2020/02/28/333863_Amazon__Save_5_when_you_spend_25_24_pack_176o/20%Monthly2020-02-28 09:59
http://www.hotnewdeal.com/2020/02/28/333862_Kohls__Nintendo_Switch_Bundle_with_Mario_Party_/20%Monthly2020-02-28 09:43
http://www.hotnewdeal.com/2020/02/28/333861_Dewalt_MAXFIT_Telescoping_Ratcheting_MultiBit_Scr/20%Monthly2020-02-28 09:43
http://www.hotnewdeal.com/2020/02/28/333860_8_pack_Purina_Friskies_Lil_Soups_Cat_foods_12_o/20%Monthly2020-02-28 09:42
http://www.hotnewdeal.com/2020/02/28/333859_Traeger_Folding_Front_Shelf_for_20_Series_pellet_g/20%Monthly2020-02-28 09:09
http://www.hotnewdeal.com/2020/02/28/333858_Harry_Potter_8Film_Complete_Collection_Digital_4/20%Monthly2020-02-28 09:09
http://www.hotnewdeal.com/2020/02/28/333857_Converse_CouponAdditional_30_Off_Sale_Mens_or_/20%Monthly2020-02-28 09:09
http://www.hotnewdeal.com/2020/02/28/333856_70_Off_2Week_Emergency_Food_Supply_87/20%Monthly2020-02-28 09:06
http://www.hotnewdeal.com/2020/02/28/333854_1Year_Sony_PlayStation_Plus_Membership_Digital_D/20%Monthly2020-02-28 08:39
http://www.hotnewdeal.com/2020/02/28/333853_Coleman_Party_propane_Grill__Academycom_for_64/20%Monthly2020-02-28 08:18
http://www.hotnewdeal.com/2020/02/28/333852_WD_My_Book_12TB_USB_30_Desktop_Hard_Drive_Wester/20%Monthly2020-02-28 08:08
http://www.hotnewdeal.com/2020/02/28/333851_Mentos_Always_White_SugarFree_Chewing_Gum_with_Xy/20%Monthly2020-02-28 07:57
http://www.hotnewdeal.com/2020/02/28/333850_MASH_The_Complete_Series_1972_Digital_HD_TV_Sh/20%Monthly2020-02-28 07:57
http://www.hotnewdeal.com/2020/02/28/333849_Arlo_Pro_2_Home_Security_Camera_system_2pk_154_A/20%Monthly2020-02-28 07:40
http://www.hotnewdeal.com/2020/02/28/333848_Kohls_Cardholders_Mens_Croft__Barrow_RegularFi/20%Monthly2020-02-28 07:40
http://www.hotnewdeal.com/2020/02/28/333847_12Pack_Core_Power_Elite_High_Protein_Shake_Vanill/20%Monthly2020-02-28 07:40
http://www.hotnewdeal.com/2020/02/28/333846_30__10_off_50_at_Sherwin_Williams_ACs_Emerald/20%Monthly2020-02-28 07:26
http://www.hotnewdeal.com/2020/02/28/333845_4K_UHD_Digital_Movie_Rental_Zero_Dark_Thirty_12_/20%Monthly2020-02-28 07:26
http://www.hotnewdeal.com/2020/02/28/333844_169oz_ACT_Anticavity_and_Whitening_Mouthwash_2/20%Monthly2020-02-28 07:26
http://www.hotnewdeal.com/2020/02/28/333843_Xbox_LIVE_3_Month_Gold_Membership_US_Digital_Code/20%Monthly2020-02-28 06:57
http://www.hotnewdeal.com/2020/02/28/333842_1TB_Team_Group_GX2_25_SSD__9199__FS/20%Monthly2020-02-28 06:31
http://www.hotnewdeal.com/2020/02/28/333840_Philips_Hue_Play_HDMI_Sync_Box/20%Monthly2020-02-28 02:29
http://www.hotnewdeal.com/2020/02/28/333839_Code_Vein__PlayStation_4_2774/20%Monthly2020-02-28 02:29
http://www.hotnewdeal.com/2020/02/28/333838_Hartz_Just_For_Cats_BendAWand_Cat_Toy231_Ama/20%Monthly2020-02-28 02:29
http://www.hotnewdeal.com/2020/02/28/333837_GE_6_Outlet_Wall_Plug_Adapter_Power_Strip_499_Am/20%Monthly2020-02-28 02:21
http://www.hotnewdeal.com/2020/02/28/333836_CRAFTSMAN_950140_214_Ton_Floor_Jack_Set__214_/20%Monthly2020-02-28 02:11
http://www.hotnewdeal.com/2020/02/28/333835_Flexible_and_Expandable_10_shelf_storage_5268/20%Monthly2020-02-28 02:05
http://www.hotnewdeal.com/2020/02/28/333834_Sams_Club_members__CeraVe_Moisturizing_Cream_wit/20%Monthly2020-02-28 01:58
http://www.hotnewdeal.com/2020/02/28/333832_Pictek_Gaming_Keyboard_and_Mouse_Combo_Wired_LED_/20%Monthly2020-02-28 01:57
http://www.hotnewdeal.com/2020/02/28/333831_MyVegas_40M_mobile_chips/20%Monthly2020-02-28 01:40
http://www.hotnewdeal.com/2020/02/28/333830_Oclean_Air_Electric_Toothbrush_1979_AC__FSSS/20%Monthly2020-02-28 01:28
http://www.hotnewdeal.com/2020/02/28/333829_9Piece_FisherPrice_Medical_Pretend_Play_Patient_/20%Monthly2020-02-28 01:28
http://www.hotnewdeal.com/2020/02/28/333828_Dell_Inspiron_5493__i71065G7_14_1080p_IPS_8G/20%Monthly2020-02-28 01:28
http://www.hotnewdeal.com/2020/02/28/333827_10_pack_Justins_Honey_Peanut_Butter_Squeeze_Packs/20%Monthly2020-02-28 01:21
http://www.hotnewdeal.com/2020/02/28/333826_Digital_4K_UHD_Source_Code_District_9_Oblivion/20%Monthly2020-02-28 01:11
http://www.hotnewdeal.com/2020/02/28/333824_Master_Lock_Set_Your_Own_Word_Combination_TSA_Appr/20%Monthly2020-02-28 01:11
http://www.hotnewdeal.com/2020/02/27/333823_18Oz_Hartz_Groomers_Best_Conditioning_Dog_Shampo/20%Monthly2020-02-27 23:56
http://www.hotnewdeal.com/2020/02/27/333822_Universal_Monsters_The_Essential_Collection_8Di/20%Monthly2020-02-27 23:56
http://www.hotnewdeal.com/2020/02/27/333821_Buy_One_Get_One_Free_Tshirts_POP_Tee_The_Incre/20%Monthly2020-02-27 23:56
http://www.hotnewdeal.com/2020/02/27/333820_920Pc_LEGO_Technic_Compact_Crawler_Crane_42097_/20%Monthly2020-02-27 23:39
http://www.hotnewdeal.com/2020/02/27/333819_Petco_10_off_30_Coupon_starts_228_instore_only/20%Monthly2020-02-27 23:24
http://www.hotnewdeal.com/2020/02/27/333817_Fractal_Design_Meshify_C_White_Steel_Tempered_Glas/20%Monthly2020-02-27 23:04
http://www.hotnewdeal.com/2020/02/27/333816_Peets_Coffee_Nespresso_Capsules_Variety_Pack_40_/20%Monthly2020-02-27 22:33
http://www.hotnewdeal.com/2020/02/27/333815_Keter_High_Store_Storage_Shed_at_Home_Deport_BM_Y/20%Monthly2020-02-27 22:32
http://www.hotnewdeal.com/2020/02/27/333814_Canon_EOS_M6_Body__299__FS_Prime/20%Monthly2020-02-27 22:17
http://www.hotnewdeal.com/2020/02/27/333813_AmazonBasics_AA_15_Volt_Performance_Alkaline_Batt/20%Monthly2020-02-27 22:09
http://www.hotnewdeal.com/2020/02/27/333812_Hartz_Just_For_Cats_Catnip_Cat_Toy_Chirping_Bird/20%Monthly2020-02-27 21:25
http://www.hotnewdeal.com/2020/02/27/333811_Swift_3_Laptop__SF31441R3M0_37499/20%Monthly2020-02-27 20:50
http://www.hotnewdeal.com/2020/02/27/333810_6_count_Cetaphil_Gentle_Cleansing_Bar_for_DrySens/20%Monthly2020-02-27 20:46
http://www.hotnewdeal.com/2020/02/27/333809_Cyberpowerpc_VR_Ready_RX_5700XT_Ryzen_7_3700X_Li/20%Monthly2020-02-27 20:38
http://www.hotnewdeal.com/2020/02/27/333808_Charltotte_NC_to_Las_Vegas_or_Vice_Versa_92_RT_No/20%Monthly2020-02-27 20:38
http://www.hotnewdeal.com/2020/02/27/333807_FREE_BEER_after_rebate/20%Monthly2020-02-27 20:38
http://www.hotnewdeal.com/2020/02/27/333806_Board_Game_Clearance_at_Target_up_to_70_off_BM/20%Monthly2020-02-27 20:30
http://www.hotnewdeal.com/2020/02/27/333805_Touch__Glow_EZChange_Post_Light_Photoeye_379_a/20%Monthly2020-02-27 20:28
http://www.hotnewdeal.com/2020/02/27/333804_Frida_Kahlo_Signature_Box_Eye_Shadow_Palette_Set_/20%Monthly2020-02-27 20:28
http://www.hotnewdeal.com/2020/02/27/333803_Windshield_Washer_Fluid_for_97_cents_at_Home_Depot/20%Monthly2020-02-27 20:28
http://www.hotnewdeal.com/2020/02/27/333802_Arduino_Uno_Rev3_Microcontroller_for_1699__Free/20%Monthly2020-02-27 20:28
http://www.hotnewdeal.com/2020/02/27/333801_130Ct_Omega3_Krill_Oil_350mg_Supplement_1838_/20%Monthly2020-02-27 20:28
http://www.hotnewdeal.com/2020/02/27/333799_OfficeWorld_Compatible_Toner_Cartridge_Replacement/20%Monthly2020-02-27 20:28
http://www.hotnewdeal.com/2020/02/27/333798_Sams_Club_Members_Sportsman_800__1000_Watt_Inv/20%Monthly2020-02-27 20:27
http://www.hotnewdeal.com/2020/02/27/333797_The_Tales_of_Beedle_the_Bard_Audible_PreOrder/20%Monthly2020-02-27 19:50
http://www.hotnewdeal.com/2020/02/27/333796_9Pack_of_16Count_Dentyne_Ice_Sugar_Free_Gum_Pep/20%Monthly2020-02-27 19:26
http://www.hotnewdeal.com/2020/02/27/333795_LG_FIESTA_2_LTE_16GB_Smartphone__30Day_3GB_Prepa/20%Monthly2020-02-27 19:08
http://www.hotnewdeal.com/2020/02/27/333793_ASUS_TUF_Gaming_Laptop_156_144_Hz_FHD_IPSType/20%Monthly2020-02-27 19:08
http://www.hotnewdeal.com/2020/02/27/333792_HP_OMEN_15dc1052nr_156_Gaming_Laptop_Computer_/20%Monthly2020-02-27 18:56
http://www.hotnewdeal.com/2020/02/27/333791_Amerisleep_AS2_All_Foam_Twin_Mattress_for_250_/20%Monthly2020-02-27 18:56
http://www.hotnewdeal.com/2020/02/27/333790_Smith_Optics_Polarized__NonPolarized_Sunglasses_/20%Monthly2020-02-27 18:42
http://www.hotnewdeal.com/2020/02/27/333789_Samsung_Q90_75_4k_QN75Q90RAF_2660_free_ship_no_t/20%Monthly2020-02-27 18:25
http://www.hotnewdeal.com/2020/02/27/333788_50_Nintendo_eShop_GC__600_points_6_value_New/20%Monthly2020-02-27 18:08
http://www.hotnewdeal.com/2020/02/27/333787_CS_Lewis_The_Four_Loves_Kindle_Edition_199_/20%Monthly2020-02-27 17:52
http://www.hotnewdeal.com/2020/02/27/333786_Nest_detect_sensor_3700_at_home_Depot_clearance/20%Monthly2020-02-27 17:40
http://www.hotnewdeal.com/2020/02/27/333785_Aukey_Cables_6ft_Nylon_Braided_Lightning_Cable_/20%Monthly2020-02-27 17:25
http://www.hotnewdeal.com/2020/02/27/333783_Scivation_Xtend_BCAA_Powder_7g_BCAAs_Branched_Ch/20%Monthly2020-02-27 17:25
http://www.hotnewdeal.com/2020/02/27/333782_25_Amazon_eGift_Card_w_TracFoneTotal_WirelessS/20%Monthly2020-02-27 17:09
http://www.hotnewdeal.com/2020/02/27/333781_Reebok_PreSchoolGrade_School_Almotio_40_Running/20%Monthly2020-02-27 16:34
http://www.hotnewdeal.com/2020/02/27/333780_Target_Buy_One_Get_One_40_Off_All_Cat_Litter_3/20%Monthly2020-02-27 16:26
http://www.hotnewdeal.com/2020/02/27/333779_Grand_Theft_Auto_V__1069__CDKeys_PC__Rocksta/20%Monthly2020-02-27 16:26
http://www.hotnewdeal.com/2020/02/27/333778_Spectracide_Weed_Stop_PrePost_Granules_108lbs_YM/20%Monthly2020-02-27 16:26
http://www.hotnewdeal.com/2020/02/27/333777_6Pack_35oz_JELLO_Butterscotch_Pudding__Pie_Fil/20%Monthly2020-02-27 16:08
http://www.hotnewdeal.com/2020/02/27/333776_RAVPower_16750mAh_Power_Bank_HighSpeed_2_USB_Por/20%Monthly2020-02-27 15:58
http://www.hotnewdeal.com/2020/02/27/333775_Steam_Sale_Square_Enix_Publisher_weekend_Final_Fan/20%Monthly2020-02-27 15:42
http://www.hotnewdeal.com/2020/02/27/333774_Apple_iPad_Pro_11_WiFi_64GB_3rd_Generation_674_/20%Monthly2020-02-27 15:42
http://www.hotnewdeal.com/2020/02/27/333773_Apple_iPad_7th_Generation_102_Tablet_32GB_WiFi/20%Monthly2020-02-27 15:41
http://www.hotnewdeal.com/2020/02/27/333771_Sony_WF1000XM3_Wireless_InEar_Earphones_for_189/20%Monthly2020-02-27 15:21
http://www.hotnewdeal.com/2020/02/27/333770_Terraforming_Mars_Strategy_Interactive_Board_Game_/20%Monthly2020-02-27 15:09
http://www.hotnewdeal.com/2020/02/27/333769_HP_Pavilion_6900073w_Desktop_i59400F_8GB_RAM_/20%Monthly2020-02-27 15:09
http://www.hotnewdeal.com/2020/02/27/333768_Milwaukee_15_in_Ultimate_Jobsite_Backpack_7499/20%Monthly2020-02-27 15:09
http://www.hotnewdeal.com/2020/02/27/333767_Easy_Spirit_Stacking_Discounts_Womens_Leather_or/20%Monthly2020-02-27 14:47
http://www.hotnewdeal.com/2020/02/27/333766_Nivea_Sensitive_Shaving_Foam_Pack_of_6_1125/20%Monthly2020-02-27 14:17
http://www.hotnewdeal.com/2020/02/27/333765_Intruders_Hide_and_Seek_VR__Steams_lowest_ever_/20%Monthly2020-02-27 14:08
http://www.hotnewdeal.com/2020/02/27/333764_WyzeCam_black_on_clearance_YMMV_1304/20%Monthly2020-02-27 14:08
http://www.hotnewdeal.com/2020/02/27/333763_Apple_iPad_7__Silver_Late_2019_102_in_32_GB_/20%Monthly2020-02-27 14:03
http://www.hotnewdeal.com/2020/02/27/333762_EVGA_GeForce_RTX_2080_Super__675__FS_Amazon/20%Monthly2020-02-27 13:57
http://www.hotnewdeal.com/2020/02/27/333761_34_Alienware_AW3420DW_3440x1440_120Hz_Curved_IPS_/20%Monthly2020-02-27 13:40
http://www.hotnewdeal.com/2020/02/27/333760_Synology_DiskStation_DS1019_5Bay_NAS_58499/20%Monthly2020-02-27 13:40
http://www.hotnewdeal.com/2020/02/27/333759_Fossil_Mens_The_Minimalist_FS5308_Black_Stainless/20%Monthly2020-02-27 13:35
http://www.hotnewdeal.com/2020/02/27/333758_Zojirushi_BBCEC20_Home_Bakery_Supreme_2PoundLoa/20%Monthly2020-02-27 13:30
http://www.hotnewdeal.com/2020/02/27/333757_Kingdom_Hearts_III_PS4_1124__Free_Store_Picku/20%Monthly2020-02-27 13:30
http://www.hotnewdeal.com/2020/02/27/333756_One_day_sale_20_off_all_of_Olympus_refurbished_pr/20%Monthly2020-02-27 13:30
http://www.hotnewdeal.com/2020/02/27/333755_WEN_3417_3Speed_RemoteControlled_IndustrialStre/20%Monthly2020-02-27 13:30
http://www.hotnewdeal.com/2020/02/27/333754_104Count_Ziploc_Gallon_Slider_StandandFill_Stor/20%Monthly2020-02-27 13:30
http://www.hotnewdeal.com/2020/02/27/333753_116Ct_Airborne_Vitamin_C_1000mg_Citrus_Chewable_/20%Monthly2020-02-27 12:55
http://www.hotnewdeal.com/2020/02/27/333752_live_again_Amazon_Spend_50_on_Select_Househol/20%Monthly2020-02-27 12:55
http://www.hotnewdeal.com/2020/02/27/333751_Blink_XT2_Smart_Security_Camera_6999/20%Monthly2020-02-27 12:40
http://www.hotnewdeal.com/2020/02/27/333750_3Piece_Tools_of_the_Trade_8_9__11_Fry_Pan_Se/20%Monthly2020-02-27 12:24
http://www.hotnewdeal.com/2020/02/27/333749_LED_Light_Bar_Pods_4Inch_AmberWhite_1299/20%Monthly2020-02-27 12:17
http://www.hotnewdeal.com/2020/02/27/333748_RYOBI_ONE_18_Volt_LithiumIon_Jet_Fan_Blower_Kit_/20%Monthly2020-02-27 11:57
http://www.hotnewdeal.com/2020/02/27/333747_Aukey_DR02_1080p_Dashcam_w_GSensor__Clear_Night/20%Monthly2020-02-27 11:57
http://www.hotnewdeal.com/2020/02/27/333746_Microcenter_has_the_AMD_Ryzen_3950x_CPU_for_69999/20%Monthly2020-02-27 11:57
http://www.hotnewdeal.com/2020/02/27/333745_Death_Note_Complete_Series_BluRay_1496_via_A/20%Monthly2020-02-27 11:57
http://www.hotnewdeal.com/2020/02/27/333743_8_Ports_USB_Charging_Station_50W10A_1140_at_A/20%Monthly2020-02-27 11:52
http://www.hotnewdeal.com/2020/02/27/333742_20Page_Shutterfly_8x8_Hardcover_Photo_Book_77/20%Monthly2020-02-27 11:41
http://www.hotnewdeal.com/2020/02/27/333741_AmazonCommercial_Noncontact_Voltage_Tester_w_LCD/20%Monthly2020-02-27 11:40
http://www.hotnewdeal.com/2020/02/27/333740_2Pack_of_6_Xcentz_USBC_to_USBA_Durable_Nylon_B/20%Monthly2020-02-27 11:40
http://www.hotnewdeal.com/2020/02/27/333739_Xbox_One_X__Jedi_bundle_with_100_promo_card__De/20%Monthly2020-02-27 11:25
http://www.hotnewdeal.com/2020/02/27/333738_Patagonia_Nano_Puff_Jacket__Mens__Dicks_Sportin/20%Monthly2020-02-27 11:25
http://www.hotnewdeal.com/2020/02/27/333737_LEGO_Star_Wars_Kylo_Ren__Sith_Trooper_75232_Targ/20%Monthly2020-02-27 11:09
http://www.hotnewdeal.com/2020/02/27/333736_Dragon_Quest_XI_S_for_Nintendo_Switch_38_3562_/20%Monthly2020-02-27 10:56
http://www.hotnewdeal.com/2020/02/27/333735_Martin_Special_28_Style_Dreadnought_VTS_Acoustic_G/20%Monthly2020-02-27 10:47
http://www.hotnewdeal.com/2020/02/27/333734_live_again_9Pack_48oz_Tide_HE_Laundry_Detergent/20%Monthly2020-02-27 10:24
http://www.hotnewdeal.com/2020/02/27/333733_Vizio_M658G1_599/20%Monthly2020-02-27 10:18
http://www.hotnewdeal.com/2020/02/27/333732_Fire_Emblem_Three_Houses_still_4499_at_Target_N/20%Monthly2020-02-27 10:08
http://www.hotnewdeal.com/2020/02/27/333731_Acer_Chromebook_14_Intel_Atom_x5E8000_QuadCore_/20%Monthly2020-02-27 09:57
http://www.hotnewdeal.com/2020/02/27/333730_Walgreens_INSTORE_ONLY_Select_Sharpie_Paper_Mat/20%Monthly2020-02-27 09:57
http://www.hotnewdeal.com/2020/02/27/333729_Tradein_Current_Deodorant_Get_Free_17oz_Each__/20%Monthly2020-02-27 09:57
http://www.hotnewdeal.com/2020/02/27/333727_PCDD__Far_Cry_5_Gold__GamersGate_1912/20%Monthly2020-02-27 09:53
http://www.hotnewdeal.com/2020/02/27/333726_Reel_Fishing_Road_Trip_Adventure_Nintendo_Switch/20%Monthly2020-02-27 09:39
http://www.hotnewdeal.com/2020/02/27/333725_30_count_Popchips_Ridges_Potato_Chips_Variety_Pack/20%Monthly2020-02-27 09:25
http://www.hotnewdeal.com/2020/02/27/333724_Weetabix_Cereal_Whole_Grain_Biscuits_14_oz__3/20%Monthly2020-02-27 09:15
http://www.hotnewdeal.com/2020/02/27/333723_AMD_RYZEN_7_3700X_Processor_Newegg_29999/20%Monthly2020-02-27 09:15
http://www.hotnewdeal.com/2020/02/27/333722_10TB_WD_Elements_Desktop_Hard_Drive_Newegg_1549/20%Monthly2020-02-27 09:15
http://www.hotnewdeal.com/2020/02/27/333721_3Oz_Sensodyne_Pronamel_Strong__Bright_Enamel_Too/20%Monthly2020-02-27 09:15
http://www.hotnewdeal.com/2020/02/27/333720_Brother_PTouch_PTD600_Label_Maker_w_Color_Displa/20%Monthly2020-02-27 08:08
http://www.hotnewdeal.com/2020/02/27/333719_12_350W_Portable_Folding_Electric_Bike_W_Headlig/20%Monthly2020-02-27 07:25
http://www.hotnewdeal.com/2020/02/27/333718_RAVPower_10000mAh_Portable_Charger_Power_Bank_18W_/20%Monthly2020-02-27 07:25
http://www.hotnewdeal.com/2020/02/27/333717_16GB_2x_8_AData_XPG_SPECTRIX_D41_RGB_DDR4_3600_D/20%Monthly2020-02-27 07:09
http://www.hotnewdeal.com/2020/02/27/333716_New_Chewy_Autoship_Customers_27Oz_Greenies_Fresh/20%Monthly2020-02-27 06:57
http://www.hotnewdeal.com/2020/02/27/333715_Pack_of_12_Mentos_Clean_Breath_Hard_Mints_Sugar_Fr/20%Monthly2020-02-27 06:40
http://www.hotnewdeal.com/2020/02/27/333714_Ridgid_2_3Ah_Batteries_and_Charger_Kit__Bonus_i/20%Monthly2020-02-27 06:40
http://www.hotnewdeal.com/2020/02/27/333713_16GB_ASUS_ZenFone_Live_GSM_Unlocked_Smartphone_L1/20%Monthly2020-02-27 06:39
http://www.hotnewdeal.com/2020/02/27/333712_Power_Tools_at_Home_Depot_Ridgid_18V_Cordless_2T/20%Monthly2020-02-27 06:28
http://www.hotnewdeal.com/2020/02/27/333711_Panasonic_ErgoFit_InEar_Ergonomic_Comfort_Fit_Ear/20%Monthly2020-02-27 06:28
http://www.hotnewdeal.com/2020/02/27/333710_18Count_065Oz_Dove_100_Calories_Milk_Chocolate_/20%Monthly2020-02-27 06:28
http://www.hotnewdeal.com/2020/02/27/333709_2Count_15Oz_Suave_Men_Body_Wash_Refresh_263_o/20%Monthly2020-02-27 06:28
http://www.hotnewdeal.com/2020/02/27/333708_18_pack_Mug_Root_Beer_12_Fl_Oz_cans_As_low_as_3/20%Monthly2020-02-27 05:28
http://www.hotnewdeal.com/2020/02/27/333707_Death_Stranding_PrePurchase_PC_Digital_Download/20%Monthly2020-02-27 04:57
http://www.hotnewdeal.com/2020/02/27/333706_ASUS_RPAC1900_AC1900_Dual_Band_WiFi_Range_Extend/20%Monthly2020-02-27 04:27
http://www.hotnewdeal.com/2020/02/27/333705_1000_Bonus_with_75K_Chase_Account_Deposit/20%Monthly2020-02-27 03:56
http://www.hotnewdeal.com/2020/02/27/333704_Acer_315in_IPS_Monitor_15999/20%Monthly2020-02-27 03:32
http://www.hotnewdeal.com/2020/02/27/333703_Maxxus_Infrared_Plug__Play_Saunas_2Person_1249/20%Monthly2020-02-27 03:27
http://www.hotnewdeal.com/2020/02/27/333702_Eufy_BoostIQ_RoboVac_11S_Slim_Black_or_White_for/20%Monthly2020-02-27 02:56
http://www.hotnewdeal.com/2020/02/27/333701_Sony_MDRXB650BTB_Extra_Bass_Bluetooth_Headphones_/20%Monthly2020-02-27 02:39
http://www.hotnewdeal.com/2020/02/27/333700_Nintendo_switch_console_old_version_259_shipped/20%Monthly2020-02-27 02:11
http://www.hotnewdeal.com/2020/02/27/333699_Fossil_Mens_FS4775_Machine_Black_Stainless_Steel_/20%Monthly2020-02-27 02:11
http://www.hotnewdeal.com/2020/02/27/333698_Marbles_Tipsy_Board_Game__898_70_off__Target_/20%Monthly2020-02-27 01:56
http://www.hotnewdeal.com/2020/02/27/333697_Keter_High_Store_Storage_Shed_at_Costco__300/20%Monthly2020-02-27 01:39
http://www.hotnewdeal.com/2020/02/27/333696_live_again_8Count_Bounty_SelectASize_Doubles_/20%Monthly2020-02-27 01:26
http://www.hotnewdeal.com/2020/02/27/333695_LG_65_Class_E9_Series_4K_UHD_OLED_w_AI_ThinQ_20/20%Monthly2020-02-27 01:10
http://www.hotnewdeal.com/2020/02/27/333694_Miller_lite_case_of_beer_free_after_rebate_Februar/20%Monthly2020-02-27 01:04
http://www.hotnewdeal.com/2020/02/27/333693_Alienware_m15_R1_Gaming_156_240Hz_FHD_IPS_i7/20%Monthly2020-02-27 00:15
http://www.hotnewdeal.com/2020/02/26/333692_New_Alienware_Aurora_Ryzen_Edition_Ryzen_7_3700X/20%Monthly2020-02-26 23:56
http://www.hotnewdeal.com/2020/02/26/333691_Mentos_Pure_Fresh_SugarFree_Chewing_Gum_with_Xyli/20%Monthly2020-02-26 23:56
http://www.hotnewdeal.com/2020/02/26/333690_Falcon_DustOff_Electronics_Compressed_Gas_Duster_/20%Monthly2020-02-26 23:56
http://www.hotnewdeal.com/2020/02/26/333689_Klipsch_pair_Synergy_Black_Label_F300_Floors_/20%Monthly2020-02-26 23:56
http://www.hotnewdeal.com/2020/02/26/333688_live_again_36Count_Charmin_Ultra_Strong_Toilet_/20%Monthly2020-02-26 23:39
http://www.hotnewdeal.com/2020/02/26/333687_Purina_One_Purina_ONE_SmartBlend_Sensitive_Systems/20%Monthly2020-02-26 23:39
http://www.hotnewdeal.com/2020/02/26/333686_2Pack_LED_Drawer__Cabinet_Motion_Sensor_Lights_/20%Monthly2020-02-26 22:55
http://www.hotnewdeal.com/2020/02/26/333685_Galapagos_with_David_Attenborough_Season_1_Amazon/20%Monthly2020-02-26 22:46
http://www.hotnewdeal.com/2020/02/26/333684_1993_SEARS_Catalog__Last_Printed_Big_Book_Origin/20%Monthly2020-02-26 22:23
http://www.hotnewdeal.com/2020/02/26/333683_Ni_no_Kuni_Wrath_of_the_White_Witch__Nintendo_Sw/20%Monthly2020-02-26 22:23
http://www.hotnewdeal.com/2020/02/26/333682_EVGA_GeForce_RTX_2060_SC_GAMING_28999/20%Monthly2020-02-26 22:07
http://www.hotnewdeal.com/2020/02/26/333681_Nintendo_Switch_Digital_Games_Shovel_Knight_Spec/20%Monthly2020-02-26 21:56
http://www.hotnewdeal.com/2020/02/26/333680_Oculus_Quest__Back_in_Stock_at_Oculuscom/20%Monthly2020-02-26 21:56
http://www.hotnewdeal.com/2020/02/26/333679_Xiaomi_Mi_Box_S_4K_HDR_Android_TV_2999_w_free_in/20%Monthly2020-02-26 21:39
http://www.hotnewdeal.com/2020/02/26/333678_40Ct_13Gal_Glad_Tall_Kitchen_Drawstring_Trash_B/20%Monthly2020-02-26 21:39
http://www.hotnewdeal.com/2020/02/26/333677_Funkoverse_Board_Game_The_Golden_Girls_100_DC_C/20%Monthly2020-02-26 21:24
http://www.hotnewdeal.com/2020/02/26/333676_Garnier_SkinActive_Gel_Face_Moisturizer_with_Hyalu/20%Monthly2020-02-26 21:24
http://www.hotnewdeal.com/2020/02/26/333675_Walmart__Road_Runner_Ice_Melt_Blend__25__YMMV/20%Monthly2020-02-26 20:55
http://www.hotnewdeal.com/2020/02/26/333674_4Oz_OGX_Extra_Strength_Refreshing_Scalp__Tea_Tre/20%Monthly2020-02-26 20:55
http://www.hotnewdeal.com/2020/02/26/333673_Home_Depot_16_Husky_Plastic_Portable_Tool_Box_w_/20%Monthly2020-02-26 20:55
http://www.hotnewdeal.com/2020/02/26/333672_Samsung_RU8000_Series_75_4K_2160p_UHD_Smart_LED/20%Monthly2020-02-26 20:46
http://www.hotnewdeal.com/2020/02/26/333671_2Pack_Tomcat_Press_N_Set_Mouse_Trap_226__Free/20%Monthly2020-02-26 19:57
http://www.hotnewdeal.com/2020/02/26/333670_Ryobi_150p_drill_multi_pack_set_1004_clearance_I/20%Monthly2020-02-26 19:39
http://www.hotnewdeal.com/2020/02/26/333668_ADATA_XPG_SX8100_Series_2TB_PCIe_Gen3x4_M2_2280_/20%Monthly2020-02-26 19:39
http://www.hotnewdeal.com/2020/02/26/333666_ASUS_ROG_Strix_Radeon_RX_570_O4G_Gaming_OC_Edition/20%Monthly2020-02-26 19:39
http://www.hotnewdeal.com/2020/02/26/333664_Joyjoz_12_Pcs_Adventure_Kit_Outdoor_Explorer_Kit_/20%Monthly2020-02-26 19:24
http://www.hotnewdeal.com/2020/02/26/333663_2Pack_Cremo_Cooling_Concentrated_Shave_Cream_6O/20%Monthly2020-02-26 19:08
http://www.hotnewdeal.com/2020/02/26/333662_Regal_Cinemas_Earn_a_Free_Small_Popcorn__Extra_R/20%Monthly2020-02-26 19:04
http://www.hotnewdeal.com/2020/02/26/333661_ARRIS_Surfboard_Docsis_31_Gigabit_Cable_Modem_for/20%Monthly2020-02-26 18:55
http://www.hotnewdeal.com/2020/02/26/333660_Gapcom_Boys_PJ_Sweatshirt_639_HiTops_1039/20%Monthly2020-02-26 18:55
http://www.hotnewdeal.com/2020/02/26/333658_3Pack_ScotchBrite_Stainless_Steel_Scrubbers_16/20%Monthly2020-02-26 18:45
http://www.hotnewdeal.com/2020/02/26/333657_Gillette_Venus_Womens_Bikini_Precision_Battery_Po/20%Monthly2020-02-26 18:37
http://www.hotnewdeal.com/2020/02/26/333656_Rubbermaid_5_x_6_Backyard_Gardening__Tools_Stor/20%Monthly2020-02-26 18:22
http://www.hotnewdeal.com/2020/02/26/333655_Playmobil_Winter_Phoenix_750_Playmobil_Crystal_/20%Monthly2020-02-26 18:15
http://www.hotnewdeal.com/2020/02/26/333654_133_Wacom_One_Digital_Drawing_Tablet_DTC133W0A/20%Monthly2020-02-26 18:06
http://www.hotnewdeal.com/2020/02/26/333653_4Ct_Himalaya_Cheese_Dog_Treats_USA_Made_179_/20%Monthly2020-02-26 17:55
http://www.hotnewdeal.com/2020/02/26/333652_Indomie_Mi_Goreng_Instant_Stir_Fry_Noodles_Halal_/20%Monthly2020-02-26 17:55
http://www.hotnewdeal.com/2020/02/26/333651_126Ct_Efferdent_AntiBacterial_Denture_Cleanser_T/20%Monthly2020-02-26 17:07
http://www.hotnewdeal.com/2020/02/26/333649_WD_1TB_My_Passport_Ultra_USB_30_External_Hard_Dri/20%Monthly2020-02-26 17:07
http://www.hotnewdeal.com/2020/02/26/333648_Citizen_BL800054L_Calibre_8700_EcoDrive_Perpetua/20%Monthly2020-02-26 16:47
http://www.hotnewdeal.com/2020/02/26/333647_RAVPower_Fast_Wireless_Charger_10W_Max_with_QC_30/20%Monthly2020-02-26 16:22
http://www.hotnewdeal.com/2020/02/26/333646_Snapfish_4x6_photo_magnet_FREE__299_shipping/20%Monthly2020-02-26 16:22
http://www.hotnewdeal.com/2020/02/26/333645_Crest_Kids_Cavity_Protection_Fluoride_Toothpaste/20%Monthly2020-02-26 16:09
http://www.hotnewdeal.com/2020/02/26/333644_Campbells_Well_Yes_Tomato_Carrot_Bisque_166_oz/20%Monthly2020-02-26 15:58
http://www.hotnewdeal.com/2020/02/26/333643_Nespresso_Pixie_Espresso_Machine_by_DeLonghi_with/20%Monthly2020-02-26 15:58
http://www.hotnewdeal.com/2020/02/26/333642_Zojirushi_NLAAC18_10_Cup_Micom_Rice_Cooker_Uncoo/20%Monthly2020-02-26 15:58
http://www.hotnewdeal.com/2020/02/26/333641_Sony_XBR65A8G_65_BRAVIA_OLED_4K_HDR_TV__2099_S/20%Monthly2020-02-26 15:54
http://www.hotnewdeal.com/2020/02/26/333640_Generac_8000W_Running__10000W_Peak_Gasoline_Power/20%Monthly2020-02-26 15:41
http://www.hotnewdeal.com/2020/02/26/333639_Various_Pokemon_Featured_Films_Digital_HD_Rental/20%Monthly2020-02-26 15:41
http://www.hotnewdeal.com/2020/02/26/333638_Purina_Pro_Plan_Focus_All_Life_Stages_Dry_Dog_Food/20%Monthly2020-02-26 15:37
http://www.hotnewdeal.com/2020/02/26/333637_Get_50_off_your_order_with_promo_code_at_dickies/20%Monthly2020-02-26 15:23
http://www.hotnewdeal.com/2020/02/26/333636_Amazon_Digital__Planet_Earth_II_4K_UHD_for_14/20%Monthly2020-02-26 15:23
http://www.hotnewdeal.com/2020/02/26/333635_Lowes_Clearance__Gunmetal_Stool_now_2000_66_/20%Monthly2020-02-26 15:23
http://www.hotnewdeal.com/2020/02/26/333634_32Oz_Simple_Solution_Hardfloor_Pet_Stain__Odor_R/20%Monthly2020-02-26 15:23
http://www.hotnewdeal.com/2020/02/26/333633_Twin_Pack__Mitchum_Women_Gel_Antiperspirant_Deodo/20%Monthly2020-02-26 15:23
http://www.hotnewdeal.com/2020/02/26/333631_Michael_Kors_Pebbled_Leather_Convertible_Crossbod/20%Monthly2020-02-26 15:20
http://www.hotnewdeal.com/2020/02/26/333630_200Ct_Bags_On_Board_Hand_Armor_Extra_Thick_Dog_Wa/20%Monthly2020-02-26 15:06
http://www.hotnewdeal.com/2020/02/26/333629_Makita_XDT16Z_18V_LXT_LithiumIon_Brushless_Cordle/20%Monthly2020-02-26 15:06
http://www.hotnewdeal.com/2020/02/26/333628_Dell_Coupon_50_Off_125_Dell_Latitude_E7270_Se/20%Monthly2020-02-26 15:03
http://www.hotnewdeal.com/2020/02/26/333627_Womens_Apparel_RSQ_Wide_Leg_Olive_Womens_Crop_Je/20%Monthly2020-02-26 14:57
http://www.hotnewdeal.com/2020/02/26/333626_Amazon_Zukes_Mini_Naturals_Training_Dog_Treats_P/20%Monthly2020-02-26 14:43
http://www.hotnewdeal.com/2020/02/26/333625_Nike_Killshot_2_Sail_Oil_GreyGum_Yellow_72/20%Monthly2020-02-26 14:43
http://www.hotnewdeal.com/2020/02/26/333624_Jack_Links_Beef_Jerky_5_Count_Multipack_Teriyaki/20%Monthly2020-02-26 14:35
http://www.hotnewdeal.com/2020/02/26/333623_Vaseline_Lip_Therapy_Creme_Brulee_025_Ounce_Pa/20%Monthly2020-02-26 14:26
http://www.hotnewdeal.com/2020/02/26/333622_Deco_Gear_Xbox_3in1_Vertical_Stand__Cooling_Fan/20%Monthly2020-02-26 14:26
http://www.hotnewdeal.com/2020/02/26/333621_JBL_E55BT_Quincy_Edition_Wireless_overear_headpho/20%Monthly2020-02-26 14:14
http://www.hotnewdeal.com/2020/02/26/333619_Samsung_UN75RU8000FXZA_75Inch_4K_TV_with_HDR_and_/20%Monthly2020-02-26 14:08
http://www.hotnewdeal.com/2020/02/26/333618_WolfTac_Folding_Knife_749/20%Monthly2020-02-26 13:57
http://www.hotnewdeal.com/2020/02/26/333617_newegg_evga_1660_super_black_200_after_20_discou/20%Monthly2020-02-26 13:57
http://www.hotnewdeal.com/2020/02/26/333616_Nintendo_Switch_Games_by_BandaiNamco_up_to_75_of/20%Monthly2020-02-26 13:57
http://www.hotnewdeal.com/2020/02/26/333615_New_York_or_New_Jersey_to_San_Francisco_or_Vice_Ve/20%Monthly2020-02-26 13:54
http://www.hotnewdeal.com/2020/02/26/333614_Husky_2_piece_Max_adjust_groove_joint_pliers_In_st/20%Monthly2020-02-26 13:38
http://www.hotnewdeal.com/2020/02/26/333613_Rakuten__FURHAVEN_PET_DOG_BED__QUILTED_FAUX_FUR_/20%Monthly2020-02-26 13:38
http://www.hotnewdeal.com/2020/02/26/333612_Sigma_105mm_f14_DG_HSM_Art_Lens_for_Sony_E_BH_/20%Monthly2020-02-26 13:38
http://www.hotnewdeal.com/2020/02/26/333611_Car_and_Driver_magazine_4_yrs_for_12/20%Monthly2020-02-26 13:23
http://www.hotnewdeal.com/2020/02/26/333610_Amazon_Prime_Members_4Month_Magazine_Subscriptio/20%Monthly2020-02-26 13:23
http://www.hotnewdeal.com/2020/02/26/333609_Costco_In_Warehouse_3100_PSI_Gas_Pressure_Washer_/20%Monthly2020-02-26 13:23
http://www.hotnewdeal.com/2020/02/26/333608_Rylo_360_VideoAction_Camera_Shooting_Grip_and_Ad/20%Monthly2020-02-26 13:23
http://www.hotnewdeal.com/2020/02/26/333607_Toshiba_TRCS01_Rice_Cooker_1_L_White_11999/20%Monthly2020-02-26 13:23
http://www.hotnewdeal.com/2020/02/26/333606_Makita_XT506S_18V_LXT_LiIon_Cordless_5_Pc_Combo_/20%Monthly2020-02-26 13:06
http://www.hotnewdeal.com/2020/02/26/333605_Lacoste_Foldable_Sunglasses_35__Free_Shipping/20%Monthly2020-02-26 13:06
http://www.hotnewdeal.com/2020/02/26/333604_Intuit_TurboTax_Deluxe_2019_Federal_with_State__/20%Monthly2020-02-26 12:44
http://www.hotnewdeal.com/2020/02/26/333603_Dell_Inspiron_14_5485_2in1_Laptop_1080p_Ryzen_/20%Monthly2020-02-26 12:29
http://www.hotnewdeal.com/2020/02/26/333602_Sams_Club_Members_Apple_iPad_Pro_11_256GB_with_/20%Monthly2020-02-26 12:29
http://www.hotnewdeal.com/2020/02/26/333601_Womens_Nike_Benassi_JDI_Slide_whiteblack_print/20%Monthly2020-02-26 12:22
http://www.hotnewdeal.com/2020/02/26/333600_Killer_Bundle_12_Redux_PCDD_The_Surge_Sherlock/20%Monthly2020-02-26 12:15
http://www.hotnewdeal.com/2020/02/26/333599_Monoprice_Maker_Select_3D_Printer_v2_169_w_free_/20%Monthly2020-02-26 12:15
http://www.hotnewdeal.com/2020/02/26/333597_Amazon__CRAFTSMAN_Hammer_Fiberglass_16_oz_CMH/20%Monthly2020-02-26 11:57
http://www.hotnewdeal.com/2020/02/26/333596_10Oz_Burts_Bees_for_Dogs_Natural_Itch_Soothing_S/20%Monthly2020-02-26 11:56
http://www.hotnewdeal.com/2020/02/26/333595_Athleta_40_off_Winter_Clearance_Coupon_Cozy_Karm/20%Monthly2020-02-26 11:56
http://www.hotnewdeal.com/2020/02/26/333594_68oz_Pompeian_Robust_Extra_Virgin_Olive_Oil_100/20%Monthly2020-02-26 11:39
http://www.hotnewdeal.com/2020/02/26/333593_Rachio_Pro_Edition_16ZULWB_16Zone_Smart_Sprinkle/20%Monthly2020-02-26 11:39
http://www.hotnewdeal.com/2020/02/26/333592_Blindspotting_Digital_4K_UHD_499__Amazon/20%Monthly2020-02-26 11:24
http://www.hotnewdeal.com/2020/02/26/333591_Lifesmart_LS100_4Person_Spa_1999_Bahama_LS350DX/20%Monthly2020-02-26 11:24
http://www.hotnewdeal.com/2020/02/26/333590_Kreg_KHCPremium_Face_Clamp_15_at_Amazon/20%Monthly2020-02-26 11:09
http://www.hotnewdeal.com/2020/02/26/333589_55_Vizio_M556G4_Quantum_4K_UHD_HDR_Smart_LED_HDT/20%Monthly2020-02-26 10:54
http://www.hotnewdeal.com/2020/02/26/333588_Large_Dog_Chew_Toy_for_Aggressive_Chewers_for_Natu/20%Monthly2020-02-26 10:24
http://www.hotnewdeal.com/2020/02/26/333587_Kidde_KNCOPP3_Nighthawk_3Pack_5999/20%Monthly2020-02-26 10:18
http://www.hotnewdeal.com/2020/02/26/333586_Sony_PlayStation_4_Motion_Camera_1999_Used_at_/20%Monthly2020-02-26 10:08
http://www.hotnewdeal.com/2020/02/26/333585_Crawl_2019_Digital_HD_Movie_Rental_099_via_A/20%Monthly2020-02-26 10:08
http://www.hotnewdeal.com/2020/02/26/333584_Alienware_M15_R1_i79750H1080P_240HZRTX_2060_32/20%Monthly2020-02-26 09:57
http://www.hotnewdeal.com/2020/02/26/333583_AMD_Ryzen_7_3700X__Amazoncom_29999_tax_for_s/20%Monthly2020-02-26 09:57
http://www.hotnewdeal.com/2020/02/26/333582_PenGear_Copy_Paper_85_x_11_92_Bright_20lb_/20%Monthly2020-02-26 09:53
http://www.hotnewdeal.com/2020/02/26/333581_Hunter_Original_Womens_Tall_green_or_Short_Rain/20%Monthly2020-02-26 09:38
http://www.hotnewdeal.com/2020/02/26/333579_St_Johns_Bay_Mens_Short_Sleeve_Polo_Shirt_navy/20%Monthly2020-02-26 09:23
http://www.hotnewdeal.com/2020/02/26/333578_Thermaltake_Commander_C31_TG_ARGB_Edition_CA1N20/20%Monthly2020-02-26 09:07
http://www.hotnewdeal.com/2020/02/26/333577_Mens_or_Womens_Nike_Air_Zoom_Pegasus_36_FS__Nor/20%Monthly2020-02-26 09:07
http://www.hotnewdeal.com/2020/02/26/333576_TMobile_Customers_0303_Free_Redbox_3_Panera_B/20%Monthly2020-02-26 08:37
http://www.hotnewdeal.com/2020/02/26/333575_4K_UHD_Digital_Movies_Red_Apocalypse_Now_or_Twi/20%Monthly2020-02-26 08:22
http://www.hotnewdeal.com/2020/02/26/333574_Walgreens_Photo_App_8x10_Wood_Panel_Print_10_/20%Monthly2020-02-26 08:22
http://www.hotnewdeal.com/2020/02/26/333573_DuluthFlex_Mens_Ballroom_Standard_Fit_Jeans_28_o/20%Monthly2020-02-26 07:55
http://www.hotnewdeal.com/2020/02/26/333572_Nads_Facial_Wax_Strips__Hypoallergenic_All_Skin_/20%Monthly2020-02-26 07:38
http://www.hotnewdeal.com/2020/02/26/333571_Sneezy_the_Snowman_Paperback_249__FS_Prime_p/20%Monthly2020-02-26 07:07
http://www.hotnewdeal.com/2020/02/26/333570_Anker_ROAV_HydroClean_Electric_Pressure_Washer_wit/20%Monthly2020-02-26 06:10
http://www.hotnewdeal.com/2020/02/26/333569_Apple_MacBook_Air_13inch_16GHz_dualcore_Intel/20%Monthly2020-02-26 05:56
http://www.hotnewdeal.com/2020/02/26/333568_Nike_Heritage_Hip_Pack_879_Hudson_NASA_Worm_Fan/20%Monthly2020-02-26 04:28
http://www.hotnewdeal.com/2020/02/26/333567_Amazon_25_Off_Select_Office_Products_w_Promo_Co/20%Monthly2020-02-26 03:56
http://www.hotnewdeal.com/2020/02/26/333566_ASUS_VG248QG_24_GSync_165Hz_Full_HD_1080p__189/20%Monthly2020-02-26 03:27
http://www.hotnewdeal.com/2020/02/26/333564_Calbee_Baked_Shrimp_Chips_4_oz_Pack_of_12_196_/20%Monthly2020-02-26 01:39
http://www.hotnewdeal.com/2020/02/26/333563_Progress_Lighting_1Light_Nickel_Transitional_Vani/20%Monthly2020-02-26 01:27
http://www.hotnewdeal.com/2020/02/26/333562_OLFA_SVR2_Utility_Knife__203_Clearance_YMMV__/20%Monthly2020-02-26 01:10
http://www.hotnewdeal.com/2020/02/26/333561_Dell_G3_15in_Gaming_Laptop_GTX_1660Ti_156in_IPS/20%Monthly2020-02-26 01:10
http://www.hotnewdeal.com/2020/02/26/333560_Brookside_Emmie_Upholstered_Tufted_Headboard_Heig/20%Monthly2020-02-26 01:10
http://www.hotnewdeal.com/2020/02/26/333559_Diablo_5pcs_Sawzall_Carbide_Reciprocating_Blades_/20%Monthly2020-02-26 01:04
http://www.hotnewdeal.com/2020/02/26/333558_Graphic_Tees_The_Rolling_Stones_Womens_Tee_Atar/20%Monthly2020-02-26 00:15
http://www.hotnewdeal.com/2020/02/26/333557_Lowes_YMMV_Kreg_K4_master_system_pocket_hole_ji/20%Monthly2020-02-26 00:15
http://www.hotnewdeal.com/2020/02/26/333556_Corsair_iCUE_220T_RGB_Airflow_CC9011174WW_White_/20%Monthly2020-02-26 00:11
http://www.hotnewdeal.com/2020/02/25/333554_24Pack_12oz_Cans_of_Spindrift_Sparkling_Water_Le/20%Monthly2020-02-25 23:24
http://www.hotnewdeal.com/2020/02/25/333553_2_Officemate_Magnet_Plus_Magnetic_Organizer_Whit/20%Monthly2020-02-25 23:24
http://www.hotnewdeal.com/2020/02/25/333552_Aftershokz_Aeropex_Headphones_10077_AC/20%Monthly2020-02-25 23:24
http://www.hotnewdeal.com/2020/02/25/333551_The_Outer_Worlds__2999__Playstation_Store/20%Monthly2020-02-25 23:24
http://www.hotnewdeal.com/2020/02/25/333550_Plantronics_BackBeat_GO_600_NoiseIsolating_Blueto/20%Monthly2020-02-25 23:08
http://www.hotnewdeal.com/2020/02/25/333549_Green_Toys_Lightning_Deals_Orange_Tractor_Vehicle/20%Monthly2020-02-25 23:08
http://www.hotnewdeal.com/2020/02/25/333548_Chapin_Euro_Style_4_gal_Backpack_Sprayer__2999/20%Monthly2020-02-25 23:08
http://www.hotnewdeal.com/2020/02/25/333547_Samsung_Galaxy_Buds_Best_Buy_Geek_Squad_Certified/20%Monthly2020-02-25 22:55
http://www.hotnewdeal.com/2020/02/25/333546_Anker_Powerline_III_USBC_to_USBC_60W_PD_Fast_Cha/20%Monthly2020-02-25 22:31
http://www.hotnewdeal.com/2020/02/25/333545_24oz_McCormick_Premium_Taco_Seasoning_Mix_As_low_/20%Monthly2020-02-25 22:16
http://www.hotnewdeal.com/2020/02/25/333544_ESET_Internet_Security_3_PCs_Download_Newegg_2/20%Monthly2020-02-25 21:52
http://www.hotnewdeal.com/2020/02/25/333543_NYC_Only__Con_Edison_is_offering_20_pack_of_GE_A1/20%Monthly2020-02-25 21:39
http://www.hotnewdeal.com/2020/02/25/333542_Lenovo_Ideapad_S54014IWL_FHD_IPS_Touch_i58265U/20%Monthly2020-02-25 21:24
http://www.hotnewdeal.com/2020/02/25/333541_New_Dell_Inspiron_13_5391_FHD_IPS_i510210U_8GB/20%Monthly2020-02-25 21:08
http://www.hotnewdeal.com/2020/02/25/333540_CenterPoint_Primal_Recurve_Crossbow_140__free_s/20%Monthly2020-02-25 21:08
http://www.hotnewdeal.com/2020/02/25/333539_Epson_2100_Projector_1080P_Walmart_549/20%Monthly2020-02-25 20:38
http://www.hotnewdeal.com/2020/02/25/333538_Brookside_Cara_Upholstered_Platform_Bed_w_Tufted_/20%Monthly2020-02-25 20:07
http://www.hotnewdeal.com/2020/02/25/333537_Hanes_via_Ebay_Extra_20_Off_Select_Hanes_Champi/20%Monthly2020-02-25 20:07
http://www.hotnewdeal.com/2020/02/25/333535_2Count_Chuckit_Tennis_Ball_Dog_Toy_178_w_SS_/20%Monthly2020-02-25 19:56
http://www.hotnewdeal.com/2020/02/25/333534_Save_30_on_Ninja_Foodi_OP101__get_it_now_for_12/20%Monthly2020-02-25 19:56
http://www.hotnewdeal.com/2020/02/25/333533_CyberpowerPC_R9_3900X_2080Ti_1TB_NVME__2TB_HDD_1/20%Monthly2020-02-25 19:39
http://www.hotnewdeal.com/2020/02/25/333532_OshKoshBGosh_Up_to_50_Off_Sitewide_Sale_Girls_/20%Monthly2020-02-25 19:39
http://www.hotnewdeal.com/2020/02/25/333531_Jar_Wars_VR__Steam_PCDD_1/20%Monthly2020-02-25 19:39
http://www.hotnewdeal.com/2020/02/25/333530_Adidas_BUY_1_GET_1_AT_50_OFF_add_2_to_cart/20%Monthly2020-02-25 19:35
http://www.hotnewdeal.com/2020/02/25/333528_YMMV_RYOBI_18Volt_ONE_Cordless_Power_Inflator_/20%Monthly2020-02-25 19:24
http://www.hotnewdeal.com/2020/02/25/333526_3Piece_American_Tourister_Arona_Hardside_Spinner_/20%Monthly2020-02-25 19:24
http://www.hotnewdeal.com/2020/02/25/333525_WD_BLACK_8TB_D10_Game_Drive_USB_32_Gen_1_WDBA3P/20%Monthly2020-02-25 19:24
http://www.hotnewdeal.com/2020/02/25/333524_Nordstrom__Asics_Gel_Kayano_26_7996__Shipping_/20%Monthly2020-02-25 19:24
http://www.hotnewdeal.com/2020/02/25/333523_Adidas_Mens_UltraBOOST_All_Terrain_Running_Sneake/20%Monthly2020-02-25 19:24
http://www.hotnewdeal.com/2020/02/25/333522_338Oz_Matrix_Biolage_Shampoo_or_Conditioner_var/20%Monthly2020-02-25 18:55
http://www.hotnewdeal.com/2020/02/25/333521_ATT_DECT_60_Expandable_Cordless_Phone_with_Answe/20%Monthly2020-02-25 18:46
http://www.hotnewdeal.com/2020/02/25/333520_Lavish_Home_Full_Body_Maternity_Pillow_2499/20%Monthly2020-02-25 18:38
http://www.hotnewdeal.com/2020/02/25/333519_Carhartt_Mens_Cotton_Full_Swing_Chore_Coat_carha/20%Monthly2020-02-25 18:31
http://www.hotnewdeal.com/2020/02/25/333518_Wireless_Earbuds_Y9_Sport_Wireless_Headphones_12/20%Monthly2020-02-25 18:31
http://www.hotnewdeal.com/2020/02/25/333517_Rosewill_NEON_K42_RGB_Membrane_Mechanical_Gaming_K/20%Monthly2020-02-25 18:31
http://www.hotnewdeal.com/2020/02/25/333516_Microsoft_Bluetooth_Mouse_1499_Amazon_or_Best_/20%Monthly2020-02-25 18:23
http://www.hotnewdeal.com/2020/02/25/333515_Nishiki_Premium_Brown_Rice_5_lb_5_Walmart_store_p/20%Monthly2020-02-25 17:56
http://www.hotnewdeal.com/2020/02/25/333514_SteelSeries_Apex_7_Mechanical_Gaming_Keyboard_Ten/20%Monthly2020-02-25 17:56
http://www.hotnewdeal.com/2020/02/25/333513_Civilization_V_The_Complete_Edition__939__CDK/20%Monthly2020-02-25 17:56
http://www.hotnewdeal.com/2020/02/25/333512_Star_Wars_Jedi_Fallen_Order_PC_Digital_Download/20%Monthly2020-02-25 17:39
http://www.hotnewdeal.com/2020/02/25/333511_HP_V14_3TN62A8AC3_Full_HD_1920x1080_LED_Backlit_P/20%Monthly2020-02-25 17:39
http://www.hotnewdeal.com/2020/02/25/333510_Fujifilm_XF_60mm_f24_R_Macro_Lens__200_Adorama/20%Monthly2020-02-25 17:24
http://www.hotnewdeal.com/2020/02/25/333509_Westone_B30_Three_Driver_Earphones__BT_Cable_199/20%Monthly2020-02-25 17:24
http://www.hotnewdeal.com/2020/02/25/333508_Brooks_Launch_6_Running_Shoe_4798__Free_Shippin/20%Monthly2020-02-25 17:24
http://www.hotnewdeal.com/2020/02/25/333507_Toshiba_32LF221U19_32inch_720p_HD_Smart_LED_TV__/20%Monthly2020-02-25 17:08
http://www.hotnewdeal.com/2020/02/25/333506_Oliva_cigars_back_on_sale__1499_for_five_cigars/20%Monthly2020-02-25 17:08
http://www.hotnewdeal.com/2020/02/25/333505_Free_30Day_Sundance_Now_Streaming_Service_Subscri/20%Monthly2020-02-25 16:46
http://www.hotnewdeal.com/2020/02/25/333504_Sams_Club_Members_Members_Mark_10x10_Commerci/20%Monthly2020-02-25 16:46
http://www.hotnewdeal.com/2020/02/25/333503_24Pack_1115oz_SPellegrino_Essenza_Flavored_Mine/20%Monthly2020-02-25 16:31
http://www.hotnewdeal.com/2020/02/25/333502_675_River2Sea_Whopper_Plopper__Terminator_12_o/20%Monthly2020-02-25 15:56
http://www.hotnewdeal.com/2020/02/25/333501_Crest_ProHealth_Smooth_Formula_Toothpaste_Clean_/20%Monthly2020-02-25 15:56
http://www.hotnewdeal.com/2020/02/25/333500_Smashburger_BOGO_Beer_Battered_Pacific_Cod_sandwi/20%Monthly2020-02-25 15:56
http://www.hotnewdeal.com/2020/02/25/333499_3_Count_Mrs_Meyers_Clean_Day_Hand_Soap_Rosemary/20%Monthly2020-02-25 15:56
http://www.hotnewdeal.com/2020/02/25/333498_Dillards_Clearance_Sale_Permanently_Reduced_Item/20%Monthly2020-02-25 15:52
http://www.hotnewdeal.com/2020/02/25/333497_Dell_S3220DGF_32inch_1440p_165hz_34999__Free_Sh/20%Monthly2020-02-25 15:52
http://www.hotnewdeal.com/2020/02/25/333496_3000Watt2500Watt_Gasoline_Powered_Portable_In/20%Monthly2020-02-25 15:38
http://www.hotnewdeal.com/2020/02/25/333495_25Pack_Duck_Brand_Reusable_Flexible_Mailers_325/20%Monthly2020-02-25 15:26
http://www.hotnewdeal.com/2020/02/25/333494_Unigear_Balaclava_Ski_Mask_649/20%Monthly2020-02-25 15:25
http://www.hotnewdeal.com/2020/02/25/333492_Eureka_Instant_Clear_26_NEA120_Purifier_3in1_T/20%Monthly2020-02-25 14:37
http://www.hotnewdeal.com/2020/02/25/333491_Battlefield_4__499__Amazon_PC__Origin_key/20%Monthly2020-02-25 14:30
http://www.hotnewdeal.com/2020/02/25/333490_Yankee_Candle_Large_Jar_Scented_Candle_Enchanted_/20%Monthly2020-02-25 14:15
http://www.hotnewdeal.com/2020/02/25/333489_ThermoPro_TP07_Wireless_Remote_Digital_Cooking_Tu/20%Monthly2020-02-25 14:06
http://www.hotnewdeal.com/2020/02/25/333488_Echo_Plus_1st_Generation_with_builtin_Hub_Blac/20%Monthly2020-02-25 13:55
http://www.hotnewdeal.com/2020/02/25/333487_Arlo_VMS3130100NAS_Smart_Home_Security_Camera_1H/20%Monthly2020-02-25 13:38
http://www.hotnewdeal.com/2020/02/25/333486_Dell_Inspiron_15_3000_15_Laptop_Ryzen_5_2500U_4/20%Monthly2020-02-25 13:38
http://www.hotnewdeal.com/2020/02/25/333485_HP_OMEN_2019_15Inch_Gaming_Laptop_Intel_i79750H/20%Monthly2020-02-25 13:38
http://www.hotnewdeal.com/2020/02/25/333484_Vitamix_Certified_Reconditioned_5300_for_22995/20%Monthly2020-02-25 13:25
http://www.hotnewdeal.com/2020/02/25/333483_Open_Box_Samsung_101_Galaxy_Tab_A_128GB__Black/20%Monthly2020-02-25 13:25
http://www.hotnewdeal.com/2020/02/25/333482_Lasko_Ceramic_Tower_Indoor_Heater_Black_1500W_CT22/20%Monthly2020-02-25 13:24
http://www.hotnewdeal.com/2020/02/25/333481_Makeup_Mirror_99/20%Monthly2020-02-25 13:24
http://www.hotnewdeal.com/2020/02/25/333480_DOOM_1993_149_DOOM_II_149_DOOM_III_299_/20%Monthly2020-02-25 13:07
http://www.hotnewdeal.com/2020/02/25/333479_ThinkCentre_M75_409/20%Monthly2020-02-25 12:56
http://www.hotnewdeal.com/2020/02/25/333478_1Year_Sony_PlayStation_Plus_Membership_Digital_D/20%Monthly2020-02-25 12:56
http://www.hotnewdeal.com/2020/02/25/333477_3Pack_41oz_Crest_ProHealth_Gum_and_Sensitivity/20%Monthly2020-02-25 12:47
http://www.hotnewdeal.com/2020/02/25/333476_Large_499_Digital_HD_sale_at_Vudu_on_Indie_films/20%Monthly2020-02-25 12:39
http://www.hotnewdeal.com/2020/02/25/333475_10_lb_Wild_Bird_Feed__349/20%Monthly2020-02-25 12:39
http://www.hotnewdeal.com/2020/02/25/333474_Criterion_Collection_24_Hour_Flash_Sale_50_Off_D/20%Monthly2020-02-25 12:32
http://www.hotnewdeal.com/2020/02/25/333473_Dell_Inspiron_15_5593_Laptop_i51035G1_156_108/20%Monthly2020-02-25 12:32
http://www.hotnewdeal.com/2020/02/25/333471_SKIL_633502_70_Amp_12_In_Corded_Drill_30__Fr/20%Monthly2020-02-25 12:03
http://www.hotnewdeal.com/2020/02/25/333470_Community_The_Complete_Series_Bluray__Digital_/20%Monthly2020-02-25 11:55
http://www.hotnewdeal.com/2020/02/25/333469_Old_Navy_Mens_Slim_Uniform_Khakis_or_BuiltIn_Fl/20%Monthly2020-02-25 11:55
http://www.hotnewdeal.com/2020/02/25/333468_Funko_Pop__Funkoverse_Strategy_Game_Harry_Potte/20%Monthly2020-02-25 11:55
http://www.hotnewdeal.com/2020/02/25/333467_Chuck_E_Cheese__Free_Large_1_topping_pizza_when_y/20%Monthly2020-02-25 11:37
http://www.hotnewdeal.com/2020/02/25/333466_2020_Free_MLBTV_Subscription_For_TMobile_Custome/20%Monthly2020-02-25 11:22
http://www.hotnewdeal.com/2020/02/25/333465_Uniden_DC720_1080p_Dual_Lens_720_Degree_Dash_Camer/20%Monthly2020-02-25 11:22
http://www.hotnewdeal.com/2020/02/25/333464_LEGEND_OF_THE_FIVE_RINGS_Living_Card_Game_Core_Set/20%Monthly2020-02-25 10:53
http://www.hotnewdeal.com/2020/02/25/333463_RYOBI_ONE_18_Volt_Floating_SpeakerLight_Show_wit/20%Monthly2020-02-25 10:24
http://www.hotnewdeal.com/2020/02/25/333462_Peak_Design_Everyday_Sling_5L__Open_Box_BH_59/20%Monthly2020-02-25 10:24
http://www.hotnewdeal.com/2020/02/25/333461_Takeya_White_Originals_VacuumInsulated_Stainless/20%Monthly2020-02-25 10:21
http://www.hotnewdeal.com/2020/02/25/333460_Asmodee_Jamaica_2685/20%Monthly2020-02-25 09:54
http://www.hotnewdeal.com/2020/02/25/333458_Atolla_Quick_Charge_30_Fast_Charger_USB_40W_159/20%Monthly2020-02-25 09:38
http://www.hotnewdeal.com/2020/02/25/333457_SanDisk_64GB_and_32GB_microSD_cards_450_at_Walma/20%Monthly2020-02-25 09:23
http://www.hotnewdeal.com/2020/02/25/333456_PELONIS_Electric_1500W_Oil_Filled_Radiator_Heater_/20%Monthly2020-02-25 09:23
http://www.hotnewdeal.com/2020/02/25/333455_Suncast_Cascade_85_H_x_7_W_x_4_D_Vanilla_Resin/20%Monthly2020-02-25 09:23
http://www.hotnewdeal.com/2020/02/25/333454_PS1_Classic_Digital_Games_Chrono_Trigger_Chrono_/20%Monthly2020-02-25 08:54
http://www.hotnewdeal.com/2020/02/25/333453_City_of_Men_or_City_of_God_English_Subtitled_Di/20%Monthly2020-02-25 08:54
http://www.hotnewdeal.com/2020/02/25/333452_KitchenAid_Dishwasher_598_1149_MSRP/20%Monthly2020-02-25 08:54
http://www.hotnewdeal.com/2020/02/25/333451_Macys_Womens_Shoes_Flash_Sale_Easy_Street_Cleo_S/20%Monthly2020-02-25 08:46
http://www.hotnewdeal.com/2020/02/25/333450_303_Aerospace_UV_Protectant_Spray_32oz_852_or_7/20%Monthly2020-02-25 08:11
http://www.hotnewdeal.com/2020/02/25/333449_RAVPower_Luster_Mini_3350mAh_Power_Bank_695_FS/20%Monthly2020-02-25 08:06
http://www.hotnewdeal.com/2020/02/25/333448_Visible_TradeIn_Working_Android_Phone_Get_16GB_/20%Monthly2020-02-25 07:55
http://www.hotnewdeal.com/2020/02/25/333447_Razer_DeathAdder_Elite_Wired_Optical_Gaming_Mouse_/20%Monthly2020-02-25 07:38
http://www.hotnewdeal.com/2020/02/25/333446_Lenovo_Ideapad_S940_14_4K_IPS_500_Nits_i78565/20%Monthly2020-02-25 07:38
http://www.hotnewdeal.com/2020/02/25/333445_Dial_Antibacterial_Liquid_Hand_Soap_Gold_9375_O/20%Monthly2020-02-25 07:23
http://www.hotnewdeal.com/2020/02/25/333444_AMD_RYZEN_7_3800X_105W_8Core_AM4_Processor_Neweg/20%Monthly2020-02-25 07:06
http://www.hotnewdeal.com/2020/02/25/333443_Lowes_50_Gift_Card_Digital_Delivery_Newegg_4/20%Monthly2020-02-25 07:06
http://www.hotnewdeal.com/2020/02/25/333442_Use_code_EV2020_for_30_off_Aeropex_Aero_and_Tit/20%Monthly2020-02-25 06:24
http://www.hotnewdeal.com/2020/02/25/333441_28_ASUS_VP28UQG_4K_UHD_3840x2160_1ms_Adaptive_Syn/20%Monthly2020-02-25 05:24
http://www.hotnewdeal.com/2020/02/25/333439_Makita_Mac700_compressor_151_with_20_coupon_at_C/20%Monthly2020-02-25 01:55
http://www.hotnewdeal.com/2020/02/25/333438_PS4_Witcher_3_complete_edition_digital_copy_149/20%Monthly2020-02-25 01:55
http://www.hotnewdeal.com/2020/02/25/333437_Lowes__Kobalt_Ratcheting_Rapid_Adjust_1Piece_8i/20%Monthly2020-02-25 01:29
http://www.hotnewdeal.com/2020/02/25/333436_120Ct_Starbucks_Coffee_Single_Serve_KCups_vario/20%Monthly2020-02-25 01:26
http://www.hotnewdeal.com/2020/02/25/333435_90Count_ProSense_Multivitamin_for_All_Life_Stages/20%Monthly2020-02-25 01:09
http://www.hotnewdeal.com/2020/02/25/333434_6Pack_42Count_Cottonelle_GentlePlus_Flushable_Wi/20%Monthly2020-02-25 01:09
http://www.hotnewdeal.com/2020/02/25/333433_Everest10_110_Scale_Rock_Crawler__RTR_Remote_Co/20%Monthly2020-02-25 00:15
http://www.hotnewdeal.com/2020/02/24/333431_12Count_11_oz_Atkins_PLUS_Protein__Fiber_Shake_/20%Monthly2020-02-24 22:55
http://www.hotnewdeal.com/2020/02/24/333430_50Count_Playtex_Sport_Tampons_w_FlexFit_Technol/20%Monthly2020-02-24 22:55
http://www.hotnewdeal.com/2020/02/24/333429_UGG_Women_Classic_Mini_Fluff_Ankle_Boot_5998_m/20%Monthly2020-02-24 22:45
http://www.hotnewdeal.com/2020/02/24/333428_Cheap_Yozuri_fishing_lures_and_hardbaits_Walmart/20%Monthly2020-02-24 22:37
http://www.hotnewdeal.com/2020/02/24/333427_Valspar_Telescoping_Threaded_Extension_Poles_YMMV_/20%Monthly2020-02-24 22:37
http://www.hotnewdeal.com/2020/02/24/333426_36Count_Charmin_Ultra_Strong_Toilet_Paper_Super_/20%Monthly2020-02-24 21:56
http://www.hotnewdeal.com/2020/02/24/333425_AtAGlance_2020_Monthly_Desk_Pad_Calendar_525_/20%Monthly2020-02-24 21:39
http://www.hotnewdeal.com/2020/02/24/333424_Lego_10_off_50_on_select_LEGO_Star_Wars_Ninja/20%Monthly2020-02-24 21:39
http://www.hotnewdeal.com/2020/02/24/333423_60Count_Puritans_Pride_10mg_Melatonin_Rapid_Rele/20%Monthly2020-02-24 21:08
http://www.hotnewdeal.com/2020/02/24/333422_Costco_AirPods_Pro_Back_In_Stock_23499/20%Monthly2020-02-24 21:08
http://www.hotnewdeal.com/2020/02/24/333421_Mountain_Hardwear_Mens_Firefall2_Jacket_8749/20%Monthly2020-02-24 20:55
http://www.hotnewdeal.com/2020/02/24/333420_Bissell_Crosswave_Multisurface_wet_dry_vac_refurb_/20%Monthly2020-02-24 20:55
http://www.hotnewdeal.com/2020/02/24/333419_Macys_email_mystery_code_up_to_40_off/20%Monthly2020-02-24 20:55
http://www.hotnewdeal.com/2020/02/24/333418_23oz_Windex_Ammonia_Free_Glass_Cleaner_Crystal_R/20%Monthly2020-02-24 20:55
http://www.hotnewdeal.com/2020/02/24/333417_Garmin_Fenix_5_Plus_Premium_Multisport_GPS_Smartw/20%Monthly2020-02-24 20:31
http://www.hotnewdeal.com/2020/02/24/333416_Classic_Almond_Butter_Squeeze_Packs_by_Justins_P/20%Monthly2020-02-24 20:24
http://www.hotnewdeal.com/2020/02/24/333415_Set_of_2_Home_Beyond_Upholstered_Dining_Chairs_Sa/20%Monthly2020-02-24 20:24
http://www.hotnewdeal.com/2020/02/24/333414_Baby_Gap_Brannan_Bear_Bodysuits_from_349_Hoodi/20%Monthly2020-02-24 20:24
http://www.hotnewdeal.com/2020/02/24/333413_Sheba_Perfect_Portions_Pat_Wet_Cat_Food_Tray_Vari/20%Monthly2020-02-24 20:17
http://www.hotnewdeal.com/2020/02/24/333412_Xbox_One_Digital_Games_NieR_Automata_Become_as_G/20%Monthly2020-02-24 19:56
http://www.hotnewdeal.com/2020/02/24/333411_TetraFin_Balanced_Diet_Goldfish_Flake_Food__706_/20%Monthly2020-02-24 19:52
http://www.hotnewdeal.com/2020/02/24/333410_Select_B1G2_Free_Items_B2G1_Free_Item_or_B1G1_Fre/20%Monthly2020-02-24 19:39
http://www.hotnewdeal.com/2020/02/24/333409_Blacksad_Under_The_Skin_Limited_Edition__Nintend/20%Monthly2020-02-24 19:35
http://www.hotnewdeal.com/2020/02/24/333408_Real_Techniques_Ultra_Plush_Foundation_Base_Makeup/20%Monthly2020-02-24 19:24
http://www.hotnewdeal.com/2020/02/24/333407_GameStop_DOTD_Terraria_Nintendo_Switch_16/20%Monthly2020-02-24 19:20
http://www.hotnewdeal.com/2020/02/24/333406_34_LG_34WL550B_75Hz_2560x1080_FreeSync_HDR10_IPS/20%Monthly2020-02-24 18:46
http://www.hotnewdeal.com/2020/02/24/333405_Toshiba__55_Class__LED__2160p__Smart__4K_UHD/20%Monthly2020-02-24 18:46
http://www.hotnewdeal.com/2020/02/24/333404_WORX_WG512_TriVAC_12_Amp_Electric_3in1_Leaf_Blow/20%Monthly2020-02-24 18:39
http://www.hotnewdeal.com/2020/02/24/333403_S__B_Golden_Curry_Sauce_Mix_Medium_Hot_32_oz_/20%Monthly2020-02-24 18:16
http://www.hotnewdeal.com/2020/02/24/333402_UltraBOOST_19_Running_Sneakers_85/20%Monthly2020-02-24 18:16
http://www.hotnewdeal.com/2020/02/24/333401_Anker_Bolder_LC90_Rechargeable_Flashlight_2299_/20%Monthly2020-02-24 17:39
http://www.hotnewdeal.com/2020/02/24/333400_Anker_PowerLine_II_USB_C_to_Lightning_Cable_2Pac/20%Monthly2020-02-24 17:39
http://www.hotnewdeal.com/2020/02/24/333399_Royal_Oak_charcoal_briquettes__399__Lowes_YMM/20%Monthly2020-02-24 17:35
http://www.hotnewdeal.com/2020/02/24/333398_Sony_UBPX700_4K_UHD_WiFi_BluRay_Player_Refurbis/20%Monthly2020-02-24 17:08
http://www.hotnewdeal.com/2020/02/24/333397_Mitchum_Men_Antiperspirant__Deodorant_Ice_Fresh/20%Monthly2020-02-24 17:08
http://www.hotnewdeal.com/2020/02/24/333396_Buy_2_Pampers_Swaddlers_Diapers_Choose_Your_Size/20%Monthly2020-02-24 16:45
http://www.hotnewdeal.com/2020/02/24/333395_Resident_Evil_3_PrePurchase_PC_Digital_Download/20%Monthly2020-02-24 16:30
http://www.hotnewdeal.com/2020/02/24/333394_cyberpunk_2077_pre_order_4999/20%Monthly2020-02-24 16:15
http://www.hotnewdeal.com/2020/02/24/333393_Tfal_E765SH_Ultimate_Hard_Anodized_Nonstick_17_Pi/20%Monthly2020-02-24 16:15
http://www.hotnewdeal.com/2020/02/24/333392_3_count_Mrs_Meyers_Clean_Day_Liquid_Hand_Soap_H/20%Monthly2020-02-24 16:15
http://www.hotnewdeal.com/2020/02/24/333391_Microsoft_Office_365_Personal__1_Year_Subscriptio/20%Monthly2020-02-24 16:06
http://www.hotnewdeal.com/2020/02/24/333390_Prey__449__CDKeys_PC__Steam_key/20%Monthly2020-02-24 15:55
http://www.hotnewdeal.com/2020/02/24/333389_Reaper_Bundle_2_PCDD_STALKER_Call_of_Pri/20%Monthly2020-02-24 15:38
http://www.hotnewdeal.com/2020/02/24/333388_Disney_Baby_Winnie_The_Pooh_Bouncer_Dots_and_Hunn/20%Monthly2020-02-24 15:23
http://www.hotnewdeal.com/2020/02/24/333387_on_224_only_Seagate_One_Touch_external_SSD_1TB_/20%Monthly2020-02-24 15:23
http://www.hotnewdeal.com/2020/02/24/333386_Nongshim_Neoguri_Noodles_Spicy_Seafood_Ramen_10_Pa/20%Monthly2020-02-24 15:07
http://www.hotnewdeal.com/2020/02/24/333385_Modvel_Compression_Knee_Sleeve_Pair_S__L_8/20%Monthly2020-02-24 15:07
http://www.hotnewdeal.com/2020/02/24/333384_Amazon_Batteries_Extra_30_off_coupon__save_515/20%Monthly2020-02-24 14:54
http://www.hotnewdeal.com/2020/02/24/333383_Apple_iPhones_Refurb_iPhone_7_11999_7_Plus_/20%Monthly2020-02-24 14:54
http://www.hotnewdeal.com/2020/02/24/333382_Castles_of_Mad_King_Ludwig_Android_App_099__G/20%Monthly2020-02-24 14:44
http://www.hotnewdeal.com/2020/02/24/333380_ASUS_VP239HP_23_169_IPS_Monitor_BH_8999/20%Monthly2020-02-24 14:38
http://www.hotnewdeal.com/2020/02/24/333379_new_w_manufacturer_defects_eLuxurySupply_Bamboo/20%Monthly2020-02-24 14:22
http://www.hotnewdeal.com/2020/02/24/333378_Converse_Chuck_Taylor_Select_High_and_Low_Tops_ma/20%Monthly2020-02-24 14:22
http://www.hotnewdeal.com/2020/02/24/333377_Tascam_DR40_4Channel__4Track_Portable_Audio_Re/20%Monthly2020-02-24 14:14
http://www.hotnewdeal.com/2020/02/24/333376_iRobot_Roomba_960_Robot_Vacuum_Amazon_Renewed__/20%Monthly2020-02-24 14:05
http://www.hotnewdeal.com/2020/02/24/333375_Jabra_Elite_Active_65t_True_Wireless_Sport_Earbuds/20%Monthly2020-02-24 14:05
http://www.hotnewdeal.com/2020/02/24/333373_Google_Pixel_2_64GB_Fully_Unlocked_Refurb__9/20%Monthly2020-02-24 13:54
http://www.hotnewdeal.com/2020/02/24/333372_Instant_Omni_9_in_1_Rotisserie_Air_Fryer_62_Walma/20%Monthly2020-02-24 13:38
http://www.hotnewdeal.com/2020/02/24/333371_Rosewill_FBMX2400_mATX_Mini_Tower_Case_w400W_PS/20%Monthly2020-02-24 13:38
http://www.hotnewdeal.com/2020/02/24/333370_IRWIN_QUICKGRIP_OneHanded_Bar_ClampSpreader_SL3/20%Monthly2020-02-24 13:38
http://www.hotnewdeal.com/2020/02/24/333369_4Lbs_Dr_Earth_Organic_Azalea_Camellia_Rhododen/20%Monthly2020-02-24 13:23
http://www.hotnewdeal.com/2020/02/24/333368_62Count_Cascade_Platinum_Plus_Dishwasher_Detergen/20%Monthly2020-02-24 13:22
http://www.hotnewdeal.com/2020/02/24/333367_Seachem_Purigen_Organic_Filtration_Resin_100ml_for/20%Monthly2020-02-24 13:22
http://www.hotnewdeal.com/2020/02/24/333366_DEWALT_20V_MAX_512Inch_Circular_Saw_Metal_Cutt/20%Monthly2020-02-24 12:53
http://www.hotnewdeal.com/2020/02/24/333365_4Count_25oz_EPIC_Pink_Himalayan_Salt_Pork_Rinds_/20%Monthly2020-02-24 12:50
http://www.hotnewdeal.com/2020/02/24/333364_Funcl_W1S_True_Wireless_Bluetooth_50_Earphones_w/20%Monthly2020-02-24 12:37
http://www.hotnewdeal.com/2020/02/24/333363_Portable_Charger_RAVPower_20000mAh_60W_PD_30_USB_/20%Monthly2020-02-24 12:36
http://www.hotnewdeal.com/2020/02/24/333362_Lenovo_Legion_T530_90L30000US__i59400_GTX_1660_/20%Monthly2020-02-24 12:29
http://www.hotnewdeal.com/2020/02/24/333361_55_Samsung_UN55NU6900_4K_UHD_Smart_LED_HDTV_Refu/20%Monthly2020-02-24 11:56
http://www.hotnewdeal.com/2020/02/24/333360_Ace_Combat_7_Skies_Unknown__PlayStation_4_1999/20%Monthly2020-02-24 11:37
http://www.hotnewdeal.com/2020/02/24/333359_Sams_Club_in_store_has_Michelin_Rapid_Lighting_12/20%Monthly2020-02-24 11:37
http://www.hotnewdeal.com/2020/02/24/333358_960Ct_Dixie_Everyday_Paper_Plates_8_12_for_3/20%Monthly2020-02-24 11:22
http://www.hotnewdeal.com/2020/02/24/333357_Logitech_Ultimate_Ears_WONDERBOOM_2_50_Verizon_Wi/20%Monthly2020-02-24 11:06
http://www.hotnewdeal.com/2020/02/24/333356_4X_fuel_points_on_gift_cards_at_KrogerThurFriSa/20%Monthly2020-02-24 10:23
http://www.hotnewdeal.com/2020/02/24/333355_Audible_Great_Beginnings_Member_Sale/20%Monthly2020-02-24 10:23
http://www.hotnewdeal.com/2020/02/24/333354_Victorias_Secret_Coupon_Additional_25_off_Cleara/20%Monthly2020-02-24 10:20
http://www.hotnewdeal.com/2020/02/24/333353_Armitron_Sport_Mens_408284_Digital_Chronograph_W/20%Monthly2020-02-24 10:16
http://www.hotnewdeal.com/2020/02/24/333352_54Count_Quilted_Northern_Ultra_Plush_3Ply_Mega_R/20%Monthly2020-02-24 10:07
http://www.hotnewdeal.com/2020/02/24/333351_Costco_Members__Nintendo_Switch_Animal_Crossing_N/20%Monthly2020-02-24 09:56
http://www.hotnewdeal.com/2020/02/24/333350_3Pack_48oz_Tide_HE_Laundry_Detergent_Pouches_Fre/20%Monthly2020-02-24 09:39
http://www.hotnewdeal.com/2020/02/24/333349_Nintendo_Switch_Digital_Download_Tumblestone_20/20%Monthly2020-02-24 09:39
http://www.hotnewdeal.com/2020/02/24/333348_ASICS_GelKayano_25_Womens_5639_Mens_Nimbus_21/20%Monthly2020-02-24 09:36
http://www.hotnewdeal.com/2020/02/24/333347_ebay_bucks_8__ymmv/20%Monthly2020-02-24 09:24
http://www.hotnewdeal.com/2020/02/24/333346_Amazon_Spend_50_on_Select_Household_Goods_Get_/20%Monthly2020-02-24 09:24
http://www.hotnewdeal.com/2020/02/24/333345_Fruit_of_the_Loom_Mens_Essential_6_Pack_Casual_Cr/20%Monthly2020-02-24 09:24
http://www.hotnewdeal.com/2020/02/24/333344_6Count_ScotchBrite_NonScratch_Scrub_Sponges_3/20%Monthly2020-02-24 09:24
http://www.hotnewdeal.com/2020/02/24/333343_Cuisinart_Power_Advantage_Plus_9Speed_Hand_Mixer_/20%Monthly2020-02-24 09:21
http://www.hotnewdeal.com/2020/02/24/333342_Patagonia_Mens_Down_Sweater_Jacket__11450_Sel/20%Monthly2020-02-24 09:09
http://www.hotnewdeal.com/2020/02/24/333341_Citizen_EcoDrive_Sapphire_Collection_Mens_Watch/20%Monthly2020-02-24 08:56
http://www.hotnewdeal.com/2020/02/24/333340_ShopDisney_Up_to_40_Off_Select_Items_Disney_Kids/20%Monthly2020-02-24 08:32
http://www.hotnewdeal.com/2020/02/24/333339_WD_6TB_Elements_Desktop_Hard_Drive_Newegg_8999/20%Monthly2020-02-24 08:24
http://www.hotnewdeal.com/2020/02/24/333338_Fire_Emblem_Three_Houses_Nintendo_Switch_4499/20%Monthly2020-02-24 08:24
http://www.hotnewdeal.com/2020/02/24/333337_Digital_HD_Movies_at_Amazon_Mars_Attacks_Borat/20%Monthly2020-02-24 08:07
http://www.hotnewdeal.com/2020/02/24/333336_8Count_Bounty_SelectASize_Doubles_Plus_Rolls_Pa/20%Monthly2020-02-24 07:56
http://www.hotnewdeal.com/2020/02/24/333335_Silent_Hill_PS1_Classic_PS3PSP_Digital_Download/20%Monthly2020-02-24 07:39
http://www.hotnewdeal.com/2020/02/24/333334_Brother_DCPL2550DW_Wireless_Monochrome_Laser_All/20%Monthly2020-02-24 07:36
http://www.hotnewdeal.com/2020/02/24/333332_RAVPower_Mini_External_SSD_Hard_Drive_1TB_for_107/20%Monthly2020-02-24 06:08
http://www.hotnewdeal.com/2020/02/24/333331_TaoTronics_BH22_ANC_Over_Ear_Headphones_2279__F/20%Monthly2020-02-24 05:55
http://www.hotnewdeal.com/2020/02/24/333330_Twin_Peaks_The_Television_Collection_16Disc_Blu/20%Monthly2020-02-24 05:38
http://www.hotnewdeal.com/2020/02/24/333329_Milwaukee_DOTD_PowerHand_Tools__Accessories_M12/20%Monthly2020-02-24 05:25
http://www.hotnewdeal.com/2020/02/24/333328_SanDisk_iXpand_Wireless_Charger_128_GB_for_7999/20%Monthly2020-02-24 05:10
http://www.hotnewdeal.com/2020/02/24/333327_Lenovo_Yoga_C740_TS_Laptop_i710510U_14_inch_1T/20%Monthly2020-02-24 05:10
http://www.hotnewdeal.com/2020/02/24/333326_RAVPower_Prime_30_Quick_Charge_10000mAh_Portable/20%Monthly2020-02-24 04:55
http://www.hotnewdeal.com/2020/02/24/333325_24Pk_845oz_San_Pellegrino_Sparkling_Organic_Juic/20%Monthly2020-02-24 03:29
http://www.hotnewdeal.com/2020/02/24/333323_Collection_of_Mana_Nintendo_Switch_1499__Free/20%Monthly2020-02-24 02:26
http://www.hotnewdeal.com/2020/02/24/333322_Logitech_MX518_16k_HERO_3999/20%Monthly2020-02-24 01:57
http://www.hotnewdeal.com/2020/02/24/333321_The_Witcher_III_Wild_Hunt_Complete_Edition_PS4Xb/20%Monthly2020-02-24 01:39
http://www.hotnewdeal.com/2020/02/24/333320_Woot__DJI_Mavic_Mini__White__New__29999/20%Monthly2020-02-24 01:26
http://www.hotnewdeal.com/2020/02/24/333319_120Ct_Aleve_Pain_Reliever_Liquid_Gels_774_300/20%Monthly2020-02-24 01:26
http://www.hotnewdeal.com/2020/02/24/333318_B2G2F_PreOwned_Xbox_360_PlayStation_3_Nintendo_/20%Monthly2020-02-24 01:09
http://www.hotnewdeal.com/2020/02/24/333317_WEN_6550T_15Amp_2Blade_Benchtop_Wood_Planer_at_L/20%Monthly2020-02-24 01:09
http://www.hotnewdeal.com/2020/02/24/333316_MilitaryVeterans_Only_Xbox_One_X_Bundles_27999/20%Monthly2020-02-24 01:09
http://www.hotnewdeal.com/2020/02/24/333315_The_Last_Wish_Introducing_the_Witcher_Kindle_Edi/20%Monthly2020-02-24 01:06
http://www.hotnewdeal.com/2020/02/24/333314_4Pack_Tile_Mate_Tracker_2020_3999__Free_Ship/20%Monthly2020-02-24 01:05
http://www.hotnewdeal.com/2020/02/23/333313_Saeco_Incanto_Superauto_Espresso_Machine_with_Coup/20%Monthly2020-02-23 23:56
http://www.hotnewdeal.com/2020/02/23/333312_CRAFTSMAN_SELFLOCK_16ft_Auto_Lock_Tape_Measure_/20%Monthly2020-02-23 23:24
http://www.hotnewdeal.com/2020/02/23/333311_North_Face_Surge_40_off_free_shipping_7740/20%Monthly2020-02-23 23:24
http://www.hotnewdeal.com/2020/02/23/333310_Journey_to_the_Savage_Planet_PS4__Xbox_Amazon_/20%Monthly2020-02-23 23:24
http://www.hotnewdeal.com/2020/02/23/333309_Razor_A5_Lux_Kick_Scooter__Anodized_Aluminum_Scoo/20%Monthly2020-02-23 23:08
http://www.hotnewdeal.com/2020/02/23/333308_21Piece_Lego_Duplo_Disney_Pixar_Toy_Story_Train_S/20%Monthly2020-02-23 22:38
http://www.hotnewdeal.com/2020/02/23/333307_Dell_Outlet_14_off_XPS_laptops__Dell_XPS_13_9380/20%Monthly2020-02-23 22:38
http://www.hotnewdeal.com/2020/02/23/333306_Samsung_24_Full_HD_Monitor_w_HDMIVGA_inputs_/20%Monthly2020-02-23 22:31
http://www.hotnewdeal.com/2020/02/23/333305_2Count_9oz_Jack_Links_Beef_Jerky_Sweet__Hot_/20%Monthly2020-02-23 22:07
http://www.hotnewdeal.com/2020/02/23/333304_American_Standard_125_HP_Garbage_Disposal_Unit_6/20%Monthly2020-02-23 22:07
http://www.hotnewdeal.com/2020/02/23/333303_46Oz_Crest_Complete_MultiBenefit_Whitening_w_S/20%Monthly2020-02-23 22:07
http://www.hotnewdeal.com/2020/02/23/333302_Kobalt_Auto_Darkening_Variable_Shade_Hydrographic_/20%Monthly2020-02-23 21:56
http://www.hotnewdeal.com/2020/02/23/333301_Bosch_HC2163_1_In_x_10_In_SDSplus_Bulldog_Rotar/20%Monthly2020-02-23 21:38
http://www.hotnewdeal.com/2020/02/23/333299_Serta_Convertible_Sofas_Calgiri_Armless_from_114/20%Monthly2020-02-23 21:24
http://www.hotnewdeal.com/2020/02/23/333298_Girls_Mini_Backpacks_Rainbow_Flip_Sequin_Mini_Ba/20%Monthly2020-02-23 21:08
http://www.hotnewdeal.com/2020/02/23/333297_Apple_iPad_6th_Generation_32GB_WiFi_184__YMMV/20%Monthly2020-02-23 20:47
http://www.hotnewdeal.com/2020/02/23/333296_24oz_CamelBak_Podium_Chill_Water_Bottle_teal_9/20%Monthly2020-02-23 20:23
http://www.hotnewdeal.com/2020/02/23/333294_Turbotax_Premier_Mac__PC_Download_5488_No_sales/20%Monthly2020-02-23 20:08
http://www.hotnewdeal.com/2020/02/23/333293_Zojirushi_ECDAC50_Zutto_5Cup_Drip_Coffeemaker_5/20%Monthly2020-02-23 19:56
http://www.hotnewdeal.com/2020/02/23/333292_No_Mans_Sky__1739__CDKeys_PC__Steam_key/20%Monthly2020-02-23 19:56
http://www.hotnewdeal.com/2020/02/23/333291_Need_For_Speed__Payback_XBOX_One_499_tax/20%Monthly2020-02-23 19:28
http://www.hotnewdeal.com/2020/02/23/333290_Lowes_Utilitech_6Pack_65Watt_Equivalent_White_Di/20%Monthly2020-02-23 19:28
http://www.hotnewdeal.com/2020/02/23/333289_Glow_EZ_Lock_Deep_Parabolic_Quick_Softbox_54_for/20%Monthly2020-02-23 19:28
http://www.hotnewdeal.com/2020/02/23/333288_12Pack_15oz_Blue_Diamond_Almonds_Bold_Wasabi__/20%Monthly2020-02-23 18:47
http://www.hotnewdeal.com/2020/02/23/333287_Amazon_Warehouse_Starbucks_Decaf_Ground_Verona_cof/20%Monthly2020-02-23 18:37
http://www.hotnewdeal.com/2020/02/23/333286_Febreze_Products_Fabric_Refresher_Air_Effects_o/20%Monthly2020-02-23 18:37
http://www.hotnewdeal.com/2020/02/23/333285_8Pack_2176_ct_Nursery_Fresh_Refill_for_Diaper/20%Monthly2020-02-23 18:24
http://www.hotnewdeal.com/2020/02/23/333284_Honeywell_360_Surround_Indoor_Heater_15_Honeywel/20%Monthly2020-02-23 18:24
http://www.hotnewdeal.com/2020/02/23/333283_YMMV_Samsung_R60M_sound_bar_at_Walmart_100/20%Monthly2020-02-23 18:24
http://www.hotnewdeal.com/2020/02/23/333282_Escape_from_Tarkov_20_off/20%Monthly2020-02-23 18:17
http://www.hotnewdeal.com/2020/02/23/333281_90_count_Airheads_Bars_Chewy_Fruit_Taffy_Candy_V/20%Monthly2020-02-23 18:17
http://www.hotnewdeal.com/2020/02/23/333280_Apple_Watch_Series_4_GPSCellular_40mm_Nike_Wspo/20%Monthly2020-02-23 18:08
http://www.hotnewdeal.com/2020/02/23/333279_JBL_Partybox_300_refurbished__288/20%Monthly2020-02-23 18:08
http://www.hotnewdeal.com/2020/02/23/333278_ROBOTIME_3D_Wooden_DIY_Wooden_Craft_Kits_Waterwhee/20%Monthly2020-02-23 17:57
http://www.hotnewdeal.com/2020/02/23/333277_ALPS_Mountaineering_Cedar_Ridge_Rimrock_Tent_4_pe/20%Monthly2020-02-23 17:39
http://www.hotnewdeal.com/2020/02/23/333276_144oz_Lysol_Clean__Fresh_MultiSurface_Cleaner_/20%Monthly2020-02-23 17:28
http://www.hotnewdeal.com/2020/02/23/333275_MSI_RX580_Armor_X_Overclocked_8G_Video_Card_for_1/20%Monthly2020-02-23 17:28
http://www.hotnewdeal.com/2020/02/23/333274_3Pack_ScotchBrite_Stainless_Steel_Scrubbers_for_/20%Monthly2020-02-23 16:30
http://www.hotnewdeal.com/2020/02/23/333273_Roborock_S5_Robot_Vacuum_and_Mop_37999__Free_Sh/20%Monthly2020-02-23 16:30
http://www.hotnewdeal.com/2020/02/23/333272_4Count_OralB_ProHealth_Superior_Clean_Toothbrus/20%Monthly2020-02-23 16:22
http://www.hotnewdeal.com/2020/02/23/333271_TPLink_Deco_Whole_Home_Mesh_WiFi_System__M5_3_/20%Monthly2020-02-23 16:22
http://www.hotnewdeal.com/2020/02/23/333270_Levis_Boys_Boxer_Briefs_299_or_less_JCPenney_/20%Monthly2020-02-23 15:52
http://www.hotnewdeal.com/2020/02/23/333269_8Oz_Blue_Buffalo_Bayou_Biscuits_GrainFree_Dog_Tr/20%Monthly2020-02-23 15:39
http://www.hotnewdeal.com/2020/02/23/333268_Funko_Batman_DC_Collectors_Box_1499_YMMV/20%Monthly2020-02-23 15:25
http://www.hotnewdeal.com/2020/02/23/333267_24Pack_1125Oz_San_Pellegrino_Sparkling_Fruit_Be/20%Monthly2020-02-23 15:25
http://www.hotnewdeal.com/2020/02/23/333264_60Count_Puritans_Pride_Melatonin_Rapid_Release_C/20%Monthly2020-02-23 14:55
http://www.hotnewdeal.com/2020/02/23/333263_2Oz_Adams_3Way_SoothingHealing_Ointment_for_Dog/20%Monthly2020-02-23 14:55
http://www.hotnewdeal.com/2020/02/23/333262_Alessi_Traditional_Balsamic_Vinegar_Reduction_85/20%Monthly2020-02-23 14:55
http://www.hotnewdeal.com/2020/02/23/333261_Latitude_7390_133_i78650U_8gb_RAM_256gb_SSD_L/20%Monthly2020-02-23 14:45
http://www.hotnewdeal.com/2020/02/23/333260_Lenovo_Legion_C530_gaming_desktop__New_i59400_/20%Monthly2020-02-23 14:31
http://www.hotnewdeal.com/2020/02/23/333259_Nintendo_Switch_Animal_Crossing_New_Horizons_Offi/20%Monthly2020-02-23 14:22
http://www.hotnewdeal.com/2020/02/23/333258_Birch_Benders_Pancake__Waffle_Mix_12_oz_is_374/20%Monthly2020-02-23 14:15
http://www.hotnewdeal.com/2020/02/23/333257_Leisure_Classics_Harbor_Springs_50000_BTU_5_Piece_/20%Monthly2020-02-23 14:12
http://www.hotnewdeal.com/2020/02/23/333256_3Pack_75oz_Pepperidge_Farm_Milano_Cookies_Doubl/20%Monthly2020-02-23 14:07
http://www.hotnewdeal.com/2020/02/23/333255_Samsung_Galaxy_Watch_Active_from_99_or_Gear_Fit2_/20%Monthly2020-02-23 13:56
http://www.hotnewdeal.com/2020/02/23/333254_egg_cooker_799/20%Monthly2020-02-23 13:56
http://www.hotnewdeal.com/2020/02/23/333253_Proctor_Silex_Single_Serve_Coffee_Maker__Model_4/20%Monthly2020-02-23 13:56
http://www.hotnewdeal.com/2020/02/23/333252_50Oz_Arm__Hammer_2x_Concentrated_Laundry_Deterge/20%Monthly2020-02-23 13:39
http://www.hotnewdeal.com/2020/02/23/333251_JBL_T450_wired_1495/20%Monthly2020-02-23 13:39
http://www.hotnewdeal.com/2020/02/23/333250_Triton_3_14hp_Router_50_off_from_Amazon/20%Monthly2020-02-23 13:24
http://www.hotnewdeal.com/2020/02/23/333249_Molecule_12_in_AirEngineered_Memory_Foam_Mattres/20%Monthly2020-02-23 13:07
http://www.hotnewdeal.com/2020/02/23/333248_Brother_PTouch_PTM95_Label_Maker_10__Free_Ship/20%Monthly2020-02-23 12:59
http://www.hotnewdeal.com/2020/02/23/333247_Nutella_Chocolate_Hazelnut_Spread_265_Ounce_Pac/20%Monthly2020-02-23 12:59
http://www.hotnewdeal.com/2020/02/23/333246_12oz_Weiman_Gas_Range_Cleaner_and_Degreaser_299/20%Monthly2020-02-23 12:59
http://www.hotnewdeal.com/2020/02/23/333245_Sid_Meiers_Civilization_VI__Nintendo_Switch_phy/20%Monthly2020-02-23 12:52
http://www.hotnewdeal.com/2020/02/23/333244_SHURLINE_15in_x_3in_Paint_Edger_YMMV_172_plu/20%Monthly2020-02-23 12:11
http://www.hotnewdeal.com/2020/02/23/333243_63Count_12x5_Oracal_651_Vinyl_Sheets_assorted_/20%Monthly2020-02-23 12:11
http://www.hotnewdeal.com/2020/02/23/333242_Red_Bull_Media_House_Film_Collection_Bluray_10/20%Monthly2020-02-23 11:39
http://www.hotnewdeal.com/2020/02/23/333241_Silhouette_America_Cameo_4_Cutting_Machine_Black_/20%Monthly2020-02-23 11:09
http://www.hotnewdeal.com/2020/02/23/333240_Woot_Prime_members__Buy_a_Shirt_Get_a_Shirt_FRE/20%Monthly2020-02-23 10:54
http://www.hotnewdeal.com/2020/02/23/333239_Logitech_G604_Lightspeed_Wireless_Gaming_Mouse__/20%Monthly2020-02-23 10:45
http://www.hotnewdeal.com/2020/02/23/333238_YMMV_Husky_Double_Sided_Small_Parts_Organizer_wi/20%Monthly2020-02-23 10:38
http://www.hotnewdeal.com/2020/02/23/333237_3Count_36oz_Similac_ProAdvance_NonGMO_Infant_Fo/20%Monthly2020-02-23 10:31
http://www.hotnewdeal.com/2020/02/23/333236_Just_Dance_2020__Nintendo_Switch_Standard_Edition/20%Monthly2020-02-23 10:16
http://www.hotnewdeal.com/2020/02/23/333235_Amazon_Fire_TV_stick_25_4K_stick35_Cube_/20%Monthly2020-02-23 10:16
http://www.hotnewdeal.com/2020/02/23/333234_BISSELL_AutoMate_Lithium_Ion_Cordless_Handheld_car/20%Monthly2020-02-23 10:07
http://www.hotnewdeal.com/2020/02/23/333233_24__Prime_Shipping_Rockstar_Energy_Drink_Orange/20%Monthly2020-02-23 10:07
http://www.hotnewdeal.com/2020/02/23/333232_Mutant_Year_Zero_Road_to_Eden__Nintendo_Switch_/20%Monthly2020-02-23 09:56
http://www.hotnewdeal.com/2020/02/23/333231_STERILITE_Black_10119012_15GAL_Wastebasket_15_G/20%Monthly2020-02-23 09:56
http://www.hotnewdeal.com/2020/02/23/333230_JBL_308P_MkII_8_Powered_Monitor_Speaker_Single_/20%Monthly2020-02-23 09:56
http://www.hotnewdeal.com/2020/02/23/333229_Fire_Force_season_1_and_2_anime_simuldub_499/20%Monthly2020-02-23 09:51
http://www.hotnewdeal.com/2020/02/23/333228_General_International_MS3005_10_Sliding_Miter_Saw/20%Monthly2020-02-23 09:34
http://www.hotnewdeal.com/2020/02/23/333227_Nordic_Pure_20x25x1_MERV_12_Pleated_AC_Furnace_Air/20%Monthly2020-02-23 09:22
http://www.hotnewdeal.com/2020/02/23/333226_10_count_Larabar_Gluten_Free_Bar_Peanut_Butter_Co/20%Monthly2020-02-23 09:22
http://www.hotnewdeal.com/2020/02/23/333225_22Lb_Lavazza_Caffe_Espresso_Whole_Bean_Coffee_Bl/20%Monthly2020-02-23 09:06
http://www.hotnewdeal.com/2020/02/23/333224_Skip_Hop_Toddler_Backpack_Dinosaur_Unicorn_999/20%Monthly2020-02-23 08:55
http://www.hotnewdeal.com/2020/02/23/333223_50Pair_Macks_Ultra_Soft_Foam_Earplugs_32dB_NRR/20%Monthly2020-02-23 08:46
http://www.hotnewdeal.com/2020/02/23/333222_Lenovo_ThinkCentre_Tiny_M75q_Tiny_Ryzen_5_Pro_340/20%Monthly2020-02-23 08:37
http://www.hotnewdeal.com/2020/02/23/333221_Lodge_1025_preseasoned_skillet_1387_at_Amazon/20%Monthly2020-02-23 08:37
http://www.hotnewdeal.com/2020/02/23/333220_Southwest_Fly_3_roundtrips_before_53120_for_Ali/20%Monthly2020-02-23 08:16
http://www.hotnewdeal.com/2020/02/23/333219_Open_Box_Google_Wifi_160_at_Woot_15999/20%Monthly2020-02-23 07:22
http://www.hotnewdeal.com/2020/02/23/333218_Bath_Bliss_Stainless_Steel_Toilet_Brush__Holder_w/20%Monthly2020-02-23 07:06
http://www.hotnewdeal.com/2020/02/23/333217_Fruit_of_the_Loom_Mens_Classic_Midweight_Waffle_T/20%Monthly2020-02-23 06:37
http://www.hotnewdeal.com/2020/02/23/333216_Pyrex_24_piece_1641/20%Monthly2020-02-23 06:07
http://www.hotnewdeal.com/2020/02/23/333215_3Pack_64GB_Samsung_EVO_Select_U3_MicroSD_Memory_C/20%Monthly2020-02-23 04:54
http://www.hotnewdeal.com/2020/02/23/333214_bareMinerals_Coupon_Extra_30_Off_Sale_Moxie_Plu/20%Monthly2020-02-23 03:54
http://www.hotnewdeal.com/2020/02/23/333213_Sony_XBR77A9G_Bravia_4K_Ultra_High_Definition_Sma/20%Monthly2020-02-23 03:26
http://www.hotnewdeal.com/2020/02/23/333212_24_pack_SPellegrino_Essenza_Lemon__Lemon_Zest_Fl/20%Monthly2020-02-23 03:22
http://www.hotnewdeal.com/2020/02/23/333211_Ubiquiti_UniFi_Cloud_Key_Gen2_UCKG2_for_7999/20%Monthly2020-02-23 02:54
http://www.hotnewdeal.com/2020/02/23/333210_399__Amazon_Prime_Free_Shipping__Weiman_Stainl/20%Monthly2020-02-23 02:54
http://www.hotnewdeal.com/2020/02/23/333209_SafewayJustForYou_members_Free_12oz_Coke_Energy_/20%Monthly2020-02-23 02:36
http://www.hotnewdeal.com/2020/02/23/333208_4Pack_Jorgensen_3700_Series_Bar_Clamps_2x_6__2/20%Monthly2020-02-23 02:22
http://www.hotnewdeal.com/2020/02/23/333207_NETGEAR__Nighthawk_AC2600_DualBand_WiFi_Router_/20%Monthly2020-02-23 02:22
http://www.hotnewdeal.com/2020/02/23/333206_8_Irwin_ViceGrip_MIG_Welding_Pliers_6__Free_Sh/20%Monthly2020-02-23 02:06
http://www.hotnewdeal.com/2020/02/23/333205_QuietComfort_35_wireless_headphones_II_22095/20%Monthly2020-02-23 02:06
http://www.hotnewdeal.com/2020/02/23/333204_Vera_Bradley_30_Off_Outlet_Campus_Tech_Backpack_/20%Monthly2020-02-23 01:54
http://www.hotnewdeal.com/2020/02/23/333203_AUKEY_USB_Hub_Powered_Charging_7_Port_USB_30_Hub/20%Monthly2020-02-23 01:28
http://www.hotnewdeal.com/2020/02/23/333202_9999_Redback_power_tools_120V_lithium_ion_batte/20%Monthly2020-02-23 01:22
http://www.hotnewdeal.com/2020/02/23/333201_National_Margarita_Day__Saturday_222_2/20%Monthly2020-02-23 01:22
http://www.hotnewdeal.com/2020/02/23/333200_MSI_Radeon_RX_5500_XT_DirectX_12_RX_5500_XT_MECH_4/20%Monthly2020-02-23 01:08
http://www.hotnewdeal.com/2020/02/23/333199_55Oz_NUTrition_Antioxidant_Snack_Nuts_Mix_227_/20%Monthly2020-02-23 01:06
http://www.hotnewdeal.com/2020/02/23/333198_Contigo_Stainless_Steel_Water_Bottle_AUTOSPOUT_Ash/20%Monthly2020-02-23 01:06
http://www.hotnewdeal.com/2020/02/23/333197_Acer_ED242QR_Abidpx_24_FHD_144_Hz_VA_Curved_Free/20%Monthly2020-02-23 01:05
http://www.hotnewdeal.com/2020/02/23/333196_125oz_Mrs_Meyers_Clean_Day_Liquid_Hand_Soap_R/20%Monthly2020-02-23 00:13
http://www.hotnewdeal.com/2020/02/22/333195_Lutron_Maestro_LED_Dimmer_switch_with_motion_senso/20%Monthly2020-02-22 23:22
http://www.hotnewdeal.com/2020/02/22/333193_Costco_Members__Dell_Inspiron_14_5485_2in1_Touc/20%Monthly2020-02-22 23:06
http://www.hotnewdeal.com/2020/02/22/333192_30_pack_Perrier_LOrange_Flavored_Carbonated_Miner/20%Monthly2020-02-22 23:06
http://www.hotnewdeal.com/2020/02/22/333191_La_Gloria_Cubana_Esteli_Serie_R_Maduro_Giagante_1/20%Monthly2020-02-22 22:21
http://www.hotnewdeal.com/2020/02/22/333190_799_Pentel_Finito_felt_tip_blue_x12_and_Pentel/20%Monthly2020-02-22 22:14
http://www.hotnewdeal.com/2020/02/22/333189_Goodyear_Assurance_Comfortred_Touring_Radial__215/20%Monthly2020-02-22 22:14
http://www.hotnewdeal.com/2020/02/22/333188_Greenies_Feline_Natural_Dental_Care_Cat_Treats_55/20%Monthly2020-02-22 22:14
http://www.hotnewdeal.com/2020/02/22/333187_Jason_Bourne_4kBlurayDC_Steelbook__799_at_Bes/20%Monthly2020-02-22 22:05
http://www.hotnewdeal.com/2020/02/22/333186_PETCO_DEAL_30_off__FREE_shipping_on_your_first_/20%Monthly2020-02-22 22:05
http://www.hotnewdeal.com/2020/02/22/333185_Milwauke_M12_Fuel_14_Stubby_Impact_Wrench_104/20%Monthly2020-02-22 21:54
http://www.hotnewdeal.com/2020/02/22/333184_Samsung_The_Frame_30_65_Class_4K_UHD_Smart_QLED_/20%Monthly2020-02-22 21:22
http://www.hotnewdeal.com/2020/02/22/333183_Tropic_Thunder__Unrated_Directors_Cut_499_Amaz/20%Monthly2020-02-22 21:06
http://www.hotnewdeal.com/2020/02/22/333182_Colt_Ultrasonic_Competition_Grade_5000_green_clea/20%Monthly2020-02-22 20:39
http://www.hotnewdeal.com/2020/02/22/333181_Kids_Easter_Wear_Boys_ToddlerBaby_Short_Sleeve/20%Monthly2020-02-22 20:33
http://www.hotnewdeal.com/2020/02/22/333180_Natures_Miracle_Deodorizing_Bath_Wipes_For_Dogs_/20%Monthly2020-02-22 20:06
http://www.hotnewdeal.com/2020/02/22/333179_Delta_14_band_saw_20_off/20%Monthly2020-02-22 20:06
http://www.hotnewdeal.com/2020/02/22/333178_Epson_Workforce_WF2860_AllinOne_Wireless_Color_/20%Monthly2020-02-22 20:03
http://www.hotnewdeal.com/2020/02/22/333177_75Ct_30Gallon_Glad_ForceFlexPlus_Drawstring_Larg/20%Monthly2020-02-22 19:56
http://www.hotnewdeal.com/2020/02/22/333176_Metabo_HPT_Angle_Grinder_412_Includes_5_Grind/20%Monthly2020-02-22 19:56
http://www.hotnewdeal.com/2020/02/22/333175_Lucid_Comfort_Collection_12_in_SureCool_Gel_Memor/20%Monthly2020-02-22 19:56
http://www.hotnewdeal.com/2020/02/22/333173_Free_Key_at_MinuteKey_through_February_29th/20%Monthly2020-02-22 19:35
http://www.hotnewdeal.com/2020/02/22/333172_Mortal_Kombat_11__1563_incl_PayPal_fees_PC__/20%Monthly2020-02-22 19:35
http://www.hotnewdeal.com/2020/02/22/333171_Arm__Hammer_Laundry_Detergent_Clean_Burst_255_F/20%Monthly2020-02-22 19:12
http://www.hotnewdeal.com/2020/02/22/333170_44Oz_Neutrogena_TGel_Therapeutic_Stubborn_Itch_/20%Monthly2020-02-22 19:12
http://www.hotnewdeal.com/2020/02/22/333168_JBL_Flip_4_Black_Waterproof_portable_Bluetooth_/20%Monthly2020-02-22 19:11
http://www.hotnewdeal.com/2020/02/22/333166_MSI_Radeon_RX_580_DirectX_12_ARMOR_X_8GB_Video_Car/20%Monthly2020-02-22 18:29
http://www.hotnewdeal.com/2020/02/22/333165_Samsung_QN82Q90RAFXZA_QLED_Smart_4K_UHD_TV_2019_/20%Monthly2020-02-22 18:27
http://www.hotnewdeal.com/2020/02/22/333164_Samsung_82_Q60R_Series_QLED_4K_UHD_Smart_TV_QN82Q/20%Monthly2020-02-22 18:27
http://www.hotnewdeal.com/2020/02/22/333163_6oz_Glade_Solid_Air_Freshener_Lavender__Peach_B/20%Monthly2020-02-22 18:21
http://www.hotnewdeal.com/2020/02/22/333162_AUKEY_30000mAh_Power_Bank_w_Quick_Charge_30_and/20%Monthly2020-02-22 18:21
http://www.hotnewdeal.com/2020/02/22/333161_19_oz_Lindt_LINDOR_Holiday_Milk_Peppermint_Cookie_/20%Monthly2020-02-22 17:57
http://www.hotnewdeal.com/2020/02/22/333160_4oz_ProSense_Itch_Solutions_Hydrocortisone_Spray_f/20%Monthly2020-02-22 17:53
http://www.hotnewdeal.com/2020/02/22/333159_9_Life_of_Pets_2_PreStuffed_Snowball_Plush_108/20%Monthly2020-02-22 17:53
http://www.hotnewdeal.com/2020/02/22/333158_Logitech_Pro_MultiDevice_WirelessBluetooth_Mouse/20%Monthly2020-02-22 17:09
http://www.hotnewdeal.com/2020/02/22/333157_AmazonBasics_AAA_15_Volt_Performance_Alkaline_Bat/20%Monthly2020-02-22 17:05
http://www.hotnewdeal.com/2020/02/22/333156_12_inch_Bosch_sliding_miter_saw_47920_before_tax/20%Monthly2020-02-22 16:44
http://www.hotnewdeal.com/2020/02/22/333155_Adidas_Adilette_Boost_Ultraboost_Slides_triple_bl/20%Monthly2020-02-22 16:07
http://www.hotnewdeal.com/2020/02/22/333154_3Count_Hartz_Ultraguard_Ear_Mite_Treatment_For_Do/20%Monthly2020-02-22 16:07
http://www.hotnewdeal.com/2020/02/22/333153_Ryobi_18v_4Ah_2pk__7900/20%Monthly2020-02-22 15:56
http://www.hotnewdeal.com/2020/02/22/333152_Costco_AirPods_Pro_Back_In_Stock_23499/20%Monthly2020-02-22 15:40
http://www.hotnewdeal.com/2020/02/22/333151_4Oz_Burts_Bees_for_Dogs_AllNatural_Paw__Nose_L/20%Monthly2020-02-22 15:26
http://www.hotnewdeal.com/2020/02/22/333150_9Pack_Jobes_Evergreen_Fertilizer_Spikes_for_Ever/20%Monthly2020-02-22 15:10
http://www.hotnewdeal.com/2020/02/22/333149_8ct_1Box_Raid_Max_Double_Control_Ant_Baits_6/20%Monthly2020-02-22 15:10
http://www.hotnewdeal.com/2020/02/22/333148_Lands_End_Womens_Print_Quarter_Zip_Fleece_Pullov/20%Monthly2020-02-22 14:56
http://www.hotnewdeal.com/2020/02/22/333147_Dyson_Cyclone_V10_Absolute_Vacuum_Cleaner_w_Free_/20%Monthly2020-02-22 14:44
http://www.hotnewdeal.com/2020/02/22/333146_Roku_Streaming_Stick_2019__Amazon_3900_wFS/20%Monthly2020-02-22 14:16
http://www.hotnewdeal.com/2020/02/22/333145_OxiClean_Triple_Action_Dishwashing_Booster_184_o/20%Monthly2020-02-22 14:16
http://www.hotnewdeal.com/2020/02/22/333144_Eddie_Bauer_Mens_Cardinal__Womens_Peacock_A/20%Monthly2020-02-22 14:07
http://www.hotnewdeal.com/2020/02/22/333143_Airplane_in_HD_499__Amazon_Video/20%Monthly2020-02-22 14:07
http://www.hotnewdeal.com/2020/02/22/333142_Rosewill_AC600_WiFi_AdapterPCIE_Wireless_Adapter/20%Monthly2020-02-22 14:04
http://www.hotnewdeal.com/2020/02/22/333141_Costco_TPLink_Archer_AX11000_wireless_router_on_s/20%Monthly2020-02-22 13:26
http://www.hotnewdeal.com/2020/02/22/333140_Audible_Originals_for_March_Starting_to_Show_Up_f/20%Monthly2020-02-22 13:10
http://www.hotnewdeal.com/2020/02/22/333139_Bissell_Big_Green_Carpet_Cleaner_329/20%Monthly2020-02-22 13:06
http://www.hotnewdeal.com/2020/02/22/333138_5Pc_Elmers_Color_Changing_Slime_Kit_w_Color_Cha/20%Monthly2020-02-22 12:47
http://www.hotnewdeal.com/2020/02/22/333137_3_oz_Sensodyne_Pronamel_Strong_And_Bright_Enamel_T/20%Monthly2020-02-22 12:47
http://www.hotnewdeal.com/2020/02/22/333136_Escape_Plan_Triple_Feature_Bundle_UHD__VUDU_8/20%Monthly2020-02-22 12:39
http://www.hotnewdeal.com/2020/02/22/333135_Samsung_82_UN82NU800DFXZA_Class_815_Diag_4K_/20%Monthly2020-02-22 12:31
http://www.hotnewdeal.com/2020/02/22/333134_12Oz_Blue_Buffalo_Kitty_Cravings_Crunchy_Cat_Trea/20%Monthly2020-02-22 12:23
http://www.hotnewdeal.com/2020/02/22/333133_TSA_PreCheck_Application_Fee_Value_85_and_150_/20%Monthly2020-02-22 12:07
http://www.hotnewdeal.com/2020/02/22/333132_16oz_Vanicream_Moisturizing_Cream_with_Pump_895/20%Monthly2020-02-22 11:53
http://www.hotnewdeal.com/2020/02/22/333131_Panera_Unlimited_Coffee_Subscription/20%Monthly2020-02-22 11:41
http://www.hotnewdeal.com/2020/02/22/333130_Amazon_KH_LectroSoft_Outdoor_Heated_Pet_Bed_Sm/20%Monthly2020-02-22 11:22
http://www.hotnewdeal.com/2020/02/22/333129_Robotime_DIY_Dollhouse_Wooden_Mini_House_Kit_from_/20%Monthly2020-02-22 11:07
http://www.hotnewdeal.com/2020/02/22/333128_Turtle_Wax_Hybrid_Ceramic_Spray_Amazon_or_Walmart_/20%Monthly2020-02-22 10:59
http://www.hotnewdeal.com/2020/02/22/333127_Sheffield_10668_Folding_Lockback_Utility_Knife_5_/20%Monthly2020-02-22 10:50
http://www.hotnewdeal.com/2020/02/22/333126_Husky_Mechanics_Tool_Set_605Piece__549_Home_/20%Monthly2020-02-22 10:45
http://www.hotnewdeal.com/2020/02/22/333125_NETGEAR_8Port_Gigabit_Ethernet_Managed_Switch_GS/20%Monthly2020-02-22 10:26
http://www.hotnewdeal.com/2020/02/22/333124_16Count_Peets_Coffee_Decaf_House_Blend_KCups_D/20%Monthly2020-02-22 10:21
http://www.hotnewdeal.com/2020/02/22/333123_5599_CertifiedPreowned_RYOBI_RYOBI_ONE_18_Volt/20%Monthly2020-02-22 10:21
http://www.hotnewdeal.com/2020/02/22/333122_Libman_206_Precision_Angle_Broom_with_Dustpan__60/20%Monthly2020-02-22 10:09
http://www.hotnewdeal.com/2020/02/22/333121_Eddie_Bauer_60_Off_Clearance_with_Free_Shipping_/20%Monthly2020-02-22 09:25
http://www.hotnewdeal.com/2020/02/22/333120_10_Off_Woot_Purchases_by_Using_the_Woot_App__Tod/20%Monthly2020-02-22 07:54
http://www.hotnewdeal.com/2020/02/22/333119_6_pack_Nissin_Souper_Meal_Chicken_43_Ounce_3_/20%Monthly2020-02-22 07:41
http://www.hotnewdeal.com/2020/02/22/333117_Screencheat_Unplugged__80_OFF_Nintendo_Switch_/20%Monthly2020-02-22 07:26
http://www.hotnewdeal.com/2020/02/22/333116_55Ounce_Planters_NUTrition_Essential_Nutrients_N/20%Monthly2020-02-22 06:39
http://www.hotnewdeal.com/2020/02/22/333115_4Piece_Pillowfort_Forest_Friends_Sheet_Set_Queen/20%Monthly2020-02-22 06:39
http://www.hotnewdeal.com/2020/02/22/333114_Zotac_2080ti_refurbished_video_cards_74999799/20%Monthly2020-02-22 06:11
http://www.hotnewdeal.com/2020/02/22/333113_Pennzoil__25_back_by_mail_with_qualifying_1quar/20%Monthly2020-02-22 06:10
http://www.hotnewdeal.com/2020/02/22/333112_3_Tubs_of_96_Tide_PODS_Laundry_Detergent_Liquid_Pa/20%Monthly2020-02-22 06:10
http://www.hotnewdeal.com/2020/02/22/333111_Hello_Kitty_Lil_Turbo_Pedal_Go_Kart_49__Free_Sh/20%Monthly2020-02-22 06:07
http://www.hotnewdeal.com/2020/02/22/333110_32oz_CamelBak_Chute_Mag_Insulated_Stainless_Steel/20%Monthly2020-02-22 03:54
http://www.hotnewdeal.com/2020/02/22/333109_EVGA_GeForce_RTX_2060_Super_SC_Black_Gaming__Amaz/20%Monthly2020-02-22 01:55
http://www.hotnewdeal.com/2020/02/22/333108_TwinTwin_XL_or_FullQueen_Buy_1_Get_1_Free__Main/20%Monthly2020-02-22 01:19
http://www.hotnewdeal.com/2020/02/22/333107_Opal_Rutgers_or_Mozay_Backpack_w_10000Mah_Power_/20%Monthly2020-02-22 01:09
http://www.hotnewdeal.com/2020/02/22/333106_WORX_14_Electric_Chainsaw__8_Amp_25/20%Monthly2020-02-22 01:09
http://www.hotnewdeal.com/2020/02/22/333105_LG_77_Class_C9_Series_4K_OLED_Smart_TV_OLED77C9PU/20%Monthly2020-02-22 01:09
http://www.hotnewdeal.com/2020/02/22/333104_Bear_Naked_Triple_Berry_Fit_Granola__NonGMO_Kos/20%Monthly2020-02-22 00:15
http://www.hotnewdeal.com/2020/02/21/333103_Jordan_AJ_Skyline_Backpack_WheatBrown_10__Fre/20%Monthly2020-02-21 23:56
http://www.hotnewdeal.com/2020/02/21/333102_3Pack_Kittys_WonderBox_Disposable_Litter_Box_Me/20%Monthly2020-02-21 23:38
http://www.hotnewdeal.com/2020/02/21/333101_Exergen_Temporal_Artery_Thermometer_free_after_reb/20%Monthly2020-02-21 23:38
http://www.hotnewdeal.com/2020/02/21/333100_Reebok_Select_Mens__Womens_Speed_TR_Flexweave_T/20%Monthly2020-02-21 23:38
http://www.hotnewdeal.com/2020/02/21/333099_PoKMoN_45_Battle_Feature_Figure__Charizard_5/20%Monthly2020-02-21 23:38
http://www.hotnewdeal.com/2020/02/21/333098_Free_Month_of_CBS_AllAccess_for_New_Subscribers_O/20%Monthly2020-02-21 23:38
http://www.hotnewdeal.com/2020/02/21/333097_ConditionRefurbished_DYSON_HP01_PURE_HOT__COOL_P/20%Monthly2020-02-21 23:23
http://www.hotnewdeal.com/2020/02/21/333096_38_in_and_14_in_Drive_SAEMetric_Ratchet_and_S/20%Monthly2020-02-21 22:54
http://www.hotnewdeal.com/2020/02/21/333095_YMMV_Sharpie_40_count_holiday_pack_997_Costco_In/20%Monthly2020-02-21 22:45
http://www.hotnewdeal.com/2020/02/21/333094_195Oz_OGX_Extra_Creamy__Coconut_Miracle_Oil_Ult/20%Monthly2020-02-21 22:37
http://www.hotnewdeal.com/2020/02/21/333091_Big_Boys_Irish_Dino_Graphic_Tee_416_2__free_/20%Monthly2020-02-21 22:06
http://www.hotnewdeal.com/2020/02/21/333090_Beast_10000Watt_Surge_All_Weather_Electric_Start/20%Monthly2020-02-21 21:55
http://www.hotnewdeal.com/2020/02/21/333089_Saucony_Mens_Triumph_ISO_5_Running_Shoes_45__fr/20%Monthly2020-02-21 21:55
http://www.hotnewdeal.com/2020/02/21/333087_Home_Decorators_Collection_21_W_x_4_H_Engineered/20%Monthly2020-02-21 21:38
http://www.hotnewdeal.com/2020/02/21/333086_YMVV_Discover_Credit_Card__Spend_50_or_more_Get_/20%Monthly2020-02-21 21:24
http://www.hotnewdeal.com/2020/02/21/333085_Razer_panthera_dragon_ball_fighterz_edition_arcade/20%Monthly2020-02-21 21:24
http://www.hotnewdeal.com/2020/02/21/333084_Hisense__55_Class__LED__H6500F__Smart__4K_UH/20%Monthly2020-02-21 21:24
http://www.hotnewdeal.com/2020/02/21/333083_Dockers_Mens_Classic_Fit_Downtime_Khaki_Smart_360/20%Monthly2020-02-21 21:16
http://www.hotnewdeal.com/2020/02/21/333082_Parallels_Premium_Mac_App_Bundle__10_Mac_Apps_79/20%Monthly2020-02-21 21:16
http://www.hotnewdeal.com/2020/02/21/333081_Apple_AirPods_with_Wired_Charging_Case_2nd_Genera/20%Monthly2020-02-21 21:07
http://www.hotnewdeal.com/2020/02/21/333080_IRWIN_Tools_STRAITLINE_66202_Barrier_Tape_Roll_D/20%Monthly2020-02-21 20:24
http://www.hotnewdeal.com/2020/02/21/333079_65_LG_OLED65E9PUA_4K_HDR_Smart_OLED_HDTV_2019_/20%Monthly2020-02-21 20:24
http://www.hotnewdeal.com/2020/02/21/333077_Sprint_Pixel_3_XL_300/20%Monthly2020-02-21 19:58
http://www.hotnewdeal.com/2020/02/21/333076_88Oz_Sabatino_Tartufi_Truffle_Maple_Syrup_1749/20%Monthly2020-02-21 19:41
http://www.hotnewdeal.com/2020/02/21/333075_Cheyenne_Products_Gunmetal_Counter_Stool_20__Fre/20%Monthly2020-02-21 19:25
http://www.hotnewdeal.com/2020/02/21/333074_Razer_Panthera_Evo_11099__Amazon/20%Monthly2020-02-21 19:25
http://www.hotnewdeal.com/2020/02/21/333073_Alienware_m17_Gaming_Laptop_17_4K_i7_9750H_16GB_/20%Monthly2020-02-21 19:09
http://www.hotnewdeal.com/2020/02/21/333072_13_Marvels_Avengers_Endgame_Shield_Blast_Captain/20%Monthly2020-02-21 18:54
http://www.hotnewdeal.com/2020/02/21/333071_75_LG_75SM9070PUA_4K_HDR_Smart_LED_Nanocell_TV_1/20%Monthly2020-02-21 18:54
http://www.hotnewdeal.com/2020/02/21/333070_Flight_Deal_Los_Angeles_to_Paris_249_Roundtrip/20%Monthly2020-02-21 18:48
http://www.hotnewdeal.com/2020/02/21/333069_Samsung_Galaxy_S10_New_Factory_Unlocked_Phone_with/20%Monthly2020-02-21 18:48
http://www.hotnewdeal.com/2020/02/21/333068_6oz_Alba_Botanica_Tropical_Fruit_Clear_Spray_Kids_/20%Monthly2020-02-21 18:44
http://www.hotnewdeal.com/2020/02/21/333067_Xbox_LIVE_3_Month_Gold_Membership_US_Digital_Code/20%Monthly2020-02-21 18:27
http://www.hotnewdeal.com/2020/02/21/333066_IRIS_Airtight_Pet_Food_Storage_Container_Combo_Gr/20%Monthly2020-02-21 18:08
http://www.hotnewdeal.com/2020/02/21/333065_Affresh_Cooktop_Cleaning_Kit_Cleaner_Scraper_5_/20%Monthly2020-02-21 18:08
http://www.hotnewdeal.com/2020/02/21/333064_Bushnell_2000_lumen_rechargeable_flashlight_1499/20%Monthly2020-02-21 17:58
http://www.hotnewdeal.com/2020/02/21/333063_WiredPop_Science_775_Sound__Vision_575_Rot/20%Monthly2020-02-21 17:38
http://www.hotnewdeal.com/2020/02/21/333062_9Oz_Tree_Hut_bare_Shave_Prep_Sugar_Scrub_3_w_S/20%Monthly2020-02-21 17:38
http://www.hotnewdeal.com/2020/02/21/333061_Timberland_Mens_Boots_Mt_Maddsen_Lite_Low_Boots/20%Monthly2020-02-21 17:27
http://www.hotnewdeal.com/2020/02/21/333060_64Oz_Rug_Doctor_Pure_Power_w_Oxy_Carpet_Cleaner_/20%Monthly2020-02-21 17:27
http://www.hotnewdeal.com/2020/02/21/333059_Amazon_Digital_HD_Movies_Space_Jam_Rush_Hour_S/20%Monthly2020-02-21 17:27
http://www.hotnewdeal.com/2020/02/21/333058_Samsung_75_Class_Q70_Series_4K_UHD_QLED_Smart_TV_/20%Monthly2020-02-21 17:08
http://www.hotnewdeal.com/2020/02/21/333056_Nike_Air_Zoom_Structure_22_Running_Shoe_6398__F/20%Monthly2020-02-21 16:56
http://www.hotnewdeal.com/2020/02/21/333055_Motorola_Z3_play_64GB_Unlocked_Super_YMMV_Walmart_/20%Monthly2020-02-21 16:48
http://www.hotnewdeal.com/2020/02/21/333054_EufyCam_E_Wireless_2_Camera_System_with_1Year_Bat/20%Monthly2020-02-21 16:42
http://www.hotnewdeal.com/2020/02/21/333053_Xbox_One_X_2K20_Bundle_w_Extra_Wired_Controller_/20%Monthly2020-02-21 16:33
http://www.hotnewdeal.com/2020/02/21/333052_Amazon_Prime_Members_Valerian_and_the_City_of_a_T/20%Monthly2020-02-21 16:33
http://www.hotnewdeal.com/2020/02/21/333051_Arlo_Pro_2__1_Camera_1080P_Kit_Includes_Base_1/20%Monthly2020-02-21 16:16
http://www.hotnewdeal.com/2020/02/21/333050_Undertale__399__GOG_PC/20%Monthly2020-02-21 16:16
http://www.hotnewdeal.com/2020/02/21/333049_NinetyGo_Lightweight_Hardshell_Suitcase_with_Brake/20%Monthly2020-02-21 16:16
http://www.hotnewdeal.com/2020/02/21/333048_Tamron_16300mm_f3563_Di_II_VC_PZD_Macro_Lens_/20%Monthly2020-02-21 16:07
http://www.hotnewdeal.com/2020/02/21/333047_LG_65_Class_E9_Series_4K_UHD_OLED_w_AI_ThinQ_20/20%Monthly2020-02-21 15:55
http://www.hotnewdeal.com/2020/02/21/333046_Amazon_Prime_Members_2pack_Belkin_Conserve_Ene/20%Monthly2020-02-21 15:38
http://www.hotnewdeal.com/2020/02/21/333045_55_TCL_55R615_6_Series_4K_UHD_HDR_Roku_Smart_HDTV/20%Monthly2020-02-21 15:38
http://www.hotnewdeal.com/2020/02/21/333044_Targus_156_Metro_Roller_Laptop_Bag_5250__FS/20%Monthly2020-02-21 15:38
http://www.hotnewdeal.com/2020/02/21/333043_Amazon_Prime_Members_Digital_HD_Movies_The_Mummy/20%Monthly2020-02-21 15:07
http://www.hotnewdeal.com/2020/02/21/333042_50_OFF_HR_Block_2019_Tax_Software_Digital_Downl/20%Monthly2020-02-21 15:07
http://www.hotnewdeal.com/2020/02/21/333041_13Lb_Purina_Cat_Chow_Naturals_Original_w_Real_Ch/20%Monthly2020-02-21 14:54
http://www.hotnewdeal.com/2020/02/21/333040_Amope_Splashproof_Electronic_Foot_File_Foot_Spa_Pe/20%Monthly2020-02-21 14:36
http://www.hotnewdeal.com/2020/02/21/333039_Nest_White_Thermostat_with_BuiltIn_WiFi__Room_Se/20%Monthly2020-02-21 14:28
http://www.hotnewdeal.com/2020/02/21/333037_The_Witcher_3_Game_of_the_Year_Edition__1499__/20%Monthly2020-02-21 14:14
http://www.hotnewdeal.com/2020/02/21/333036_Prime_Members_25_SEGA_Classic_Games_on_Fire_TV_D/20%Monthly2020-02-21 13:38
http://www.hotnewdeal.com/2020/02/21/333035_Theyre_Back_Again_HDX_50_ft_163_LightDuty_Ind/20%Monthly2020-02-21 13:23
http://www.hotnewdeal.com/2020/02/21/333034_Bora_50ampampquot_parallel_clamps/20%Monthly2020-02-21 13:23
http://www.hotnewdeal.com/2020/02/21/333033_DEWALT_Thickness_Planer_Two_Speed_13Inch_DW735/20%Monthly2020-02-21 13:23
http://www.hotnewdeal.com/2020/02/21/333032_Bella__Pro_Series_Belgian_Flip_Waffle_Maker_Stai/20%Monthly2020-02-21 13:23
http://www.hotnewdeal.com/2020/02/21/333031_AUKEY_10000mAh_Power_Delivery_Power_Bank_18W__21/20%Monthly2020-02-21 13:06
http://www.hotnewdeal.com/2020/02/21/333030_Onkyo_72Channel_Network_AV_Receiver_TXNR696__/20%Monthly2020-02-21 13:06
http://www.hotnewdeal.com/2020/02/21/333029_Cuisinart_TOB260N1_Chefs_Convection_Toaster_Oven/20%Monthly2020-02-21 12:53
http://www.hotnewdeal.com/2020/02/21/333028_RoomMates_Disney_Star_Wars_Peel__Stick_Wall_Decal/20%Monthly2020-02-21 12:44
http://www.hotnewdeal.com/2020/02/21/333027_Microsoft_Xbox_One_Wireless_Adapter_for_Windows_V/20%Monthly2020-02-21 12:05
http://www.hotnewdeal.com/2020/02/21/333026_70Count_Centrum_Men_MultiGummies_Multivitamin_3/20%Monthly2020-02-21 11:54
http://www.hotnewdeal.com/2020/02/21/333025_Hole_Dozer_General_Purpose_BiMetal_Hole_Saw_Set_/20%Monthly2020-02-21 11:23
http://www.hotnewdeal.com/2020/02/21/333024_Rosetta_Stone_Lifetime_Access__ALL_LANGUAGES__1/20%Monthly2020-02-21 11:23
http://www.hotnewdeal.com/2020/02/21/333023_Snowboard_Clearance_at_Sierracom_Limited_Quantit/20%Monthly2020-02-21 11:23
http://www.hotnewdeal.com/2020/02/21/333022_Sams_Club_Members_Druxe_Freestanding_Icemaker_in/20%Monthly2020-02-21 11:23
http://www.hotnewdeal.com/2020/02/21/333021_2Ct_OralB_Charcoal_Whitening_Therapy_Toothbrush_/20%Monthly2020-02-21 11:06
http://www.hotnewdeal.com/2020/02/21/333020_National_Audubon_Society_10lb_Wild_Bird_Readyto/20%Monthly2020-02-21 11:06
http://www.hotnewdeal.com/2020/02/21/333019_HP_Pavillion_TP010066_Ryzen_7_3700X_256gb_SSD_R/20%Monthly2020-02-21 10:54
http://www.hotnewdeal.com/2020/02/21/333018_120Count_Carefree_ActiFresh_Regular_Panty_Liners/20%Monthly2020-02-21 10:22
http://www.hotnewdeal.com/2020/02/21/333017_48_count_Kelloggs_Breakfast_Cereal_SingleServe/20%Monthly2020-02-21 10:06
http://www.hotnewdeal.com/2020/02/21/333015_16GB_Crucial_Ballistix_Sport_LT_DDR4_3000MHz_Deskt/20%Monthly2020-02-21 10:06
http://www.hotnewdeal.com/2020/02/21/333014_Alamo_Drafthouse_Unveils_Monthly_Subscription_Serv/20%Monthly2020-02-21 10:06
http://www.hotnewdeal.com/2020/02/21/333013_1Year_Sony_PlayStation_Plus_Membership_Digital_D/20%Monthly2020-02-21 09:56
http://www.hotnewdeal.com/2020/02/21/333012_Ultra_Game_NFL_Mens_Full_Zip_Fleece_Hoodie_Letter/20%Monthly2020-02-21 09:41
http://www.hotnewdeal.com/2020/02/21/333011_Merrell_Mens_Moab_Rover_Leather_Work_Shoes_w_Com/20%Monthly2020-02-21 09:40
http://www.hotnewdeal.com/2020/02/21/333010_80Ct_13Gal_Glad_Odorshield_Tall_Kitchen_Drawstri/20%Monthly2020-02-21 09:25
http://www.hotnewdeal.com/2020/02/21/333008_Military_Only__My_Navy_Exchange_Arcade1Up_machine/20%Monthly2020-02-21 09:08
http://www.hotnewdeal.com/2020/02/21/333006_RYOBI_ONE_18_Volt_JobPlus_Base_with_MultiTool_He/20%Monthly2020-02-21 08:46
http://www.hotnewdeal.com/2020/02/21/333005_24Count_91oz_Ferrero_Rocher_Fine_Hazelnut_Milk_/20%Monthly2020-02-21 08:46
http://www.hotnewdeal.com/2020/02/21/333002_499_VUDU_Weekend_Flash_Sale_Digital_HD4K_Spa/20%Monthly2020-02-21 08:15
http://www.hotnewdeal.com/2020/02/21/333001_5oz_Blue_Diamond_Almonds_Gourmet_Rosemary_and_Sea/20%Monthly2020-02-21 08:05
http://www.hotnewdeal.com/2020/02/21/333000_RayBan_and_Oakley_Sunglasses__4999__9299/20%Monthly2020-02-21 07:38
http://www.hotnewdeal.com/2020/02/21/332999_Costco_TMobile_S20_BOGO_add_a_line_89999/20%Monthly2020-02-21 07:38
http://www.hotnewdeal.com/2020/02/21/332998_Golds_Gym_XRS_20_Adjustable_Olympic_Workout_Bench/20%Monthly2020-02-21 07:38
http://www.hotnewdeal.com/2020/02/21/332997_WD_My_Book_10TB_USB_30_Desktop_Hard_Drive_Newegg/20%Monthly2020-02-21 07:22
http://www.hotnewdeal.com/2020/02/21/332996_Wera_Tools_6Pc_160i6_Insulated_Professional_Scr/20%Monthly2020-02-21 06:54
http://www.hotnewdeal.com/2020/02/21/332995_Bosch_GLM20_laser_measure_and_GLL_2_cross_line_la/20%Monthly2020-02-21 06:54
http://www.hotnewdeal.com/2020/02/21/332994_StatGear_Slinger_EDC_Knife_for_2999/20%Monthly2020-02-21 06:54
http://www.hotnewdeal.com/2020/02/21/332993_LEGO_BrickHeadz_Star_Wars_Mandalorian__Baby_Yoda_/20%Monthly2020-02-21 06:37
http://www.hotnewdeal.com/2020/02/21/332992_192Piece_DeWALT_Chrome_Vanadium_Mechanics_Tool_Se/20%Monthly2020-02-21 06:24
http://www.hotnewdeal.com/2020/02/21/332991_South_Park_The_Stick_of_Truth_PC_Digital_Downloa/20%Monthly2020-02-21 05:55
http://www.hotnewdeal.com/2020/02/21/332990_55_Hisense_55H8F_4K_UHD_HDR_Android_Smart_LED_HDT/20%Monthly2020-02-21 05:55
http://www.hotnewdeal.com/2020/02/21/332989_Borderlands_3_PS4_or_Xbox_One_20_via_AmazonWal/20%Monthly2020-02-21 05:09
http://www.hotnewdeal.com/2020/02/21/332988_XPG_EMIX_H30_SE_Wired_PC_Gaming_Headset_w_SOLOX_F/20%Monthly2020-02-21 05:09
http://www.hotnewdeal.com/2020/02/21/332987_The_XFiles_Seasons_111_Digital_HD_TV_Show_24/20%Monthly2020-02-21 03:54
http://www.hotnewdeal.com/2020/02/21/332986_Disney_Plushies_various_or_Womens__Kids_Sleep/20%Monthly2020-02-21 03:26
http://www.hotnewdeal.com/2020/02/21/332985_6oz_Glade_Solid_Air_Freshener_Lavender__Peach_B/20%Monthly2020-02-21 03:25
http://www.hotnewdeal.com/2020/02/21/332984_ESR_Cases_for_iPhone_11XRXSXXS_Max_from_299/20%Monthly2020-02-21 03:25
http://www.hotnewdeal.com/2020/02/21/332983_Columbia_Apparel_Select_Mens__Womens_Bugaboo_J/20%Monthly2020-02-21 03:08
http://www.hotnewdeal.com/2020/02/21/332982_Philips_Norelco_PhiliShaver_Dry_Mens_Rechargeable/20%Monthly2020-02-21 02:54
http://www.hotnewdeal.com/2020/02/21/332981_Razer_Huntsman_Tournament_Edition_TKL_Tenkeyless_G/20%Monthly2020-02-21 02:51
http://www.hotnewdeal.com/2020/02/21/332980_Xbox_One_X_w_Star_Wars_Jedi_Fallen_Order_Bundle_f/20%Monthly2020-02-21 02:27
http://www.hotnewdeal.com/2020/02/21/332979_Saucony_Mens_Triumph_ISO_5_Running_Shoes_45_Men/20%Monthly2020-02-21 02:23
http://www.hotnewdeal.com/2020/02/21/332978_Linens__Hutch_Urban_Arrows_Patterned_Sheet_Sets_/20%Monthly2020-02-21 01:55
http://www.hotnewdeal.com/2020/02/21/332977_Digital_HD_Movies_Blazing_Saddles_Tropic_Thunder/20%Monthly2020-02-21 01:08
http://www.hotnewdeal.com/2020/02/21/332976_Microsoft_Xbox_One_X_Gears_5_Star_Wars_Jedi_Fal/20%Monthly2020-02-21 01:08
http://www.hotnewdeal.com/2020/02/21/332975_CBS_All_Access_resubscribe_1_month_free_trial_YMM/20%Monthly2020-02-21 01:08
http://www.hotnewdeal.com/2020/02/21/332974_Womens_Sandals_Qupid_Desmond22x_Slide_Sandals_/20%Monthly2020-02-21 01:08
http://www.hotnewdeal.com/2020/02/21/332973_12Pack_BSN_Protein_Crisp_Bar_Smores_Flavor_10/20%Monthly2020-02-21 00:14
http://www.hotnewdeal.com/2020/02/20/332972_Kidkraft_Tiny_chefs_Pro_Kitchen_Toy_5399_Free/20%Monthly2020-02-20 23:55
http://www.hotnewdeal.com/2020/02/20/332971_Big_in_Japan_Sale_PS4_Digital_Games_NieR_Automa/20%Monthly2020-02-20 23:06
http://www.hotnewdeal.com/2020/02/20/332970_ASICS_GT1000_7_Womens_Running_Shoe_40_Free_Shi/20%Monthly2020-02-20 22:54
http://www.hotnewdeal.com/2020/02/20/332969_RAVPower_40W_3A_Car_Charger_w_Dual_Quick_Charge_3/20%Monthly2020-02-20 22:44
http://www.hotnewdeal.com/2020/02/20/332968_Heads_Up_Contigo_issues_Recall_for_select_bottles/20%Monthly2020-02-20 22:37
http://www.hotnewdeal.com/2020/02/20/332967_iSpring_RCC7PAK_Boosted_Performance_Under_Sink_6/20%Monthly2020-02-20 22:36
http://www.hotnewdeal.com/2020/02/20/332966_AMAZON_PreOrder__Hasbro_Animatronic_Baby_Yoda__/20%Monthly2020-02-20 22:17
http://www.hotnewdeal.com/2020/02/20/332965_Revlon_Super_Lustrous_Lip_Gloss_Sugar_Violet_1/20%Monthly2020-02-20 21:57
http://www.hotnewdeal.com/2020/02/20/332964_Final_Fantasy_XII_The_Zodiac_Age_Collectors_Edit/20%Monthly2020-02-20 21:57
http://www.hotnewdeal.com/2020/02/20/332963_18_pack_Mug_Root_Beer_12_Fl_Oz_cans_As_low_as_3/20%Monthly2020-02-20 21:40
http://www.hotnewdeal.com/2020/02/20/332962_55_Samsung_QN55Q60RA_Q60_QLED_Smart_4K_UHD_TV__W/20%Monthly2020-02-20 20:56
http://www.hotnewdeal.com/2020/02/20/332961_Celeste_or_TowerFall_Nintendo_Switch_Digital_Down/20%Monthly2020-02-20 20:56
http://www.hotnewdeal.com/2020/02/20/332960_Xbox_One_Digital_Games_Doom_599_Prey_Digital_/20%Monthly2020-02-20 20:47
http://www.hotnewdeal.com/2020/02/20/332959_Fruit_of_the_Loom_Mens_Classic_Midweight_Waffle_T/20%Monthly2020-02-20 20:40
http://www.hotnewdeal.com/2020/02/20/332957_8oz_Maui_Moisture_Thicken__Restore__Bamboo_Fibe/20%Monthly2020-02-20 20:24
http://www.hotnewdeal.com/2020/02/20/332956_KH_Pet_Products_via_Amazon_Small_14x18_LectroS/20%Monthly2020-02-20 20:10
http://www.hotnewdeal.com/2020/02/20/332955_Asus_VivoBook_15_156_FHD_Ryzen_5_3500U_8GB_D/20%Monthly2020-02-20 20:10
http://www.hotnewdeal.com/2020/02/20/332954_16lb_Bag_of_Purina_ONE_Tender_Selects_Blend_Adult_/20%Monthly2020-02-20 19:59
http://www.hotnewdeal.com/2020/02/20/332953_DEWALT_Tough_Grip_70Piece_Steel_Hex_Shank_Screwdr/20%Monthly2020-02-20 19:55
http://www.hotnewdeal.com/2020/02/20/332952_Monoprice_ZWave_Plus_PIR_Multi_Sensor_Temperatur/20%Monthly2020-02-20 19:42
http://www.hotnewdeal.com/2020/02/20/332951_Woodlore_Cedar_Shoe_Tree_Sale_BOGO_Mens_Combinat/20%Monthly2020-02-20 19:38
http://www.hotnewdeal.com/2020/02/20/332950_Epson_PowerLite_Home_Cinema_5030UB_2D3D_1080p_3LC/20%Monthly2020-02-20 19:38
http://www.hotnewdeal.com/2020/02/20/332949_Ring_Peephole_Cam_with_Doorbell_99__free_sh/20%Monthly2020-02-20 19:27
http://www.hotnewdeal.com/2020/02/20/332948_Klipsch_pair_F300_Floors_299_pair_F300__/20%Monthly2020-02-20 19:27
http://www.hotnewdeal.com/2020/02/20/332947_Rivers_Edge_Products_Adults_Bass_Fish_Sandals__/20%Monthly2020-02-20 19:09
http://www.hotnewdeal.com/2020/02/20/332946_Cock_and_Bull_HD_movie_199/20%Monthly2020-02-20 19:05
http://www.hotnewdeal.com/2020/02/20/332945_4Pack_Milwaukee_M18_18Volt_LithiumIon_XC_Extend/20%Monthly2020-02-20 18:46
http://www.hotnewdeal.com/2020/02/20/332944_HP_27_Curved_LED_Monitor_14499/20%Monthly2020-02-20 18:04
http://www.hotnewdeal.com/2020/02/20/332943_Samsung_55_Class__740D_Series__4K_UHD_LED_LCD_T/20%Monthly2020-02-20 17:58
http://www.hotnewdeal.com/2020/02/20/332942_42oz_LOreal_BLOW_DRY_IT_Quick_Dry_Primer_Spray_/20%Monthly2020-02-20 17:58
http://www.hotnewdeal.com/2020/02/20/332941_STABIL_22275_32_Ounces_Ethanol_Treatment__966_/20%Monthly2020-02-20 17:58
http://www.hotnewdeal.com/2020/02/20/332940_Postmate_FREE_delivery_for_two_months_with_code_AT/20%Monthly2020-02-20 17:41
http://www.hotnewdeal.com/2020/02/20/332939_Brookside_Cara_Tufted_Upholstered_Platform_Bed_Tw/20%Monthly2020-02-20 17:41
http://www.hotnewdeal.com/2020/02/20/332938_CORSAIR__Hydro_Series_H100i_RGB_Platinum_120mm_Pr/20%Monthly2020-02-20 17:41
http://www.hotnewdeal.com/2020/02/20/332937_26_x_34_Hotel_Collection_Ultimate_MicroCotton_Tu/20%Monthly2020-02-20 17:21
http://www.hotnewdeal.com/2020/02/20/332936_Staples_4Pack_32GB_USB_20_Flash_Drives_20__Fre/20%Monthly2020-02-20 17:05
http://www.hotnewdeal.com/2020/02/20/332934_500_Pieces_Windows_and_Doors_Brick_House_Building/20%Monthly2020-02-20 16:46
http://www.hotnewdeal.com/2020/02/20/332932_Dr_Scholls_AirPillo_Insoles_for_Men_or_Women_1/20%Monthly2020-02-20 16:23
http://www.hotnewdeal.com/2020/02/20/332931_Under_Armour_Mens_Surge_SE_Athletic_Shoes_for_23/20%Monthly2020-02-20 16:04
http://www.hotnewdeal.com/2020/02/20/332930_Select_Amazon_Accounts_2Months_Kindle_Unlimited_/20%Monthly2020-02-20 15:39
http://www.hotnewdeal.com/2020/02/20/332929_Free_MLS_Soccer_game_tickets_for_Audi_owners/20%Monthly2020-02-20 15:39
http://www.hotnewdeal.com/2020/02/20/332928_Amazon_Optoma_UHD51A_4K_UHD_Smart_Home_Theater_Pr/20%Monthly2020-02-20 15:39
http://www.hotnewdeal.com/2020/02/20/332927_Microsoft_via_Ebay_Tom_Clancys_The_Division_2_Da/20%Monthly2020-02-20 15:39
http://www.hotnewdeal.com/2020/02/20/332926_Forever_21_Coupon_30_Off_Sale__20_Off_Womens/20%Monthly2020-02-20 15:24
http://www.hotnewdeal.com/2020/02/20/332925_Ghiradelli_60_Bittersweet_Baking_Chocolate_Chips_/20%Monthly2020-02-20 15:08
http://www.hotnewdeal.com/2020/02/20/332924_Jackery_Portable_Power_Station_Explorer_500_518Wh/20%Monthly2020-02-20 15:08
http://www.hotnewdeal.com/2020/02/20/332923_Intex_Comfort_Plush_Elevated_DuraBeam_Airbed_with/20%Monthly2020-02-20 15:08
http://www.hotnewdeal.com/2020/02/20/332922_Target_Spend_50_on_Select_Household_Essentials/20%Monthly2020-02-20 14:46
http://www.hotnewdeal.com/2020/02/20/332921_Rakuten__LENOVO_IDEAPAD_S54014IWL_140_FHD_IPS/20%Monthly2020-02-20 14:46
http://www.hotnewdeal.com/2020/02/20/332920_2Count_12oz_ZzzQuil_Nighttime_Liquid_Sleep_Aid_b/20%Monthly2020-02-20 14:35
http://www.hotnewdeal.com/2020/02/20/332919_New_Balance_Sneakers_Mens_247_V2_Casual_Sneakers/20%Monthly2020-02-20 14:20
http://www.hotnewdeal.com/2020/02/20/332918_Hagen_Tufted_TrackArm_Push_Back_Chenille_Recliner/20%Monthly2020-02-20 14:20
http://www.hotnewdeal.com/2020/02/20/332917_Samsung_Galaxy_S9_G960U_64GB_Unlocked_GSM_4G_LTE_M/20%Monthly2020-02-20 14:16
http://www.hotnewdeal.com/2020/02/20/332916_CHASING_GLADIUS_MINI_Underwater_ROV_Kit_BH_999/20%Monthly2020-02-20 14:13
http://www.hotnewdeal.com/2020/02/20/332915_5lb_Optimum_Nutrition_Gold_Standard_Whey_Protein_/20%Monthly2020-02-20 14:07
http://www.hotnewdeal.com/2020/02/20/332913_EA_Publisher_sale_Xbox_Madden_20_24_and_more/20%Monthly2020-02-20 13:53
http://www.hotnewdeal.com/2020/02/20/332912_Costco_Natural_Blind_Green_3piece_Deluxe_Ghillie/20%Monthly2020-02-20 13:24
http://www.hotnewdeal.com/2020/02/20/332911_82_Samsung_UN82RU8000FXZA_4K_HDR_TV_1648__free_/20%Monthly2020-02-20 13:24
http://www.hotnewdeal.com/2020/02/20/332910_HDX_Alkaline_Battery_AA_60Pack_787_homedepot/20%Monthly2020-02-20 13:08
http://www.hotnewdeal.com/2020/02/20/332909_Team_TForce_DDR4_4000_BDie_16GB_100/20%Monthly2020-02-20 13:08
http://www.hotnewdeal.com/2020/02/20/332908_RHEEM_Performance_Plus_Outdoor_Tankless_Water_Heat/20%Monthly2020-02-20 12:54
http://www.hotnewdeal.com/2020/02/20/332907_Duck_Galaxy_Brand_283039_Printed_Duct_Tape_188/20%Monthly2020-02-20 12:46
http://www.hotnewdeal.com/2020/02/20/332906_9Count_of_125oz_Jack_Links_Beef_Jerky_Variety_P/20%Monthly2020-02-20 12:31
http://www.hotnewdeal.com/2020/02/20/332905_Nordic_ware_3_piece_baking_set__1497_shipped__/20%Monthly2020-02-20 12:16
http://www.hotnewdeal.com/2020/02/20/332904_240Count_WaterWipes_Sensitive_Baby_Wipes_Unscent/20%Monthly2020-02-20 11:40
http://www.hotnewdeal.com/2020/02/20/332903_Makita_XT614SX1_18V_LXT_LithiumIon_6Piece_Cordle/20%Monthly2020-02-20 11:40
http://www.hotnewdeal.com/2020/02/20/332902_HR_BLOCK_Tax_Software_Premium_2019_boxed__DL_/20%Monthly2020-02-20 11:40
http://www.hotnewdeal.com/2020/02/20/332901_Staples_Weekly_Ad_223__229__No_purchase_fee_w/20%Monthly2020-02-20 11:25
http://www.hotnewdeal.com/2020/02/20/332900_Acer__Nitro_5_156_FHD_Laptop__Intel_Core_i593/20%Monthly2020-02-20 11:21
http://www.hotnewdeal.com/2020/02/20/332899_66Lbs_Impact_Whey_Isolate_in_various_flavors_3x/20%Monthly2020-02-20 10:53
http://www.hotnewdeal.com/2020/02/20/332898_AMD_Ryzen_5_3600_Processor_Newegg_16999/20%Monthly2020-02-20 10:53
http://www.hotnewdeal.com/2020/02/20/332897_Defiant_100_Lumens_LED_Headlight_Combo_3Pack_9/20%Monthly2020-02-20 10:46
http://www.hotnewdeal.com/2020/02/20/332896_4oz_STABIL_22205_Fuel_Stabilizer__196_Amazon/20%Monthly2020-02-20 10:42
http://www.hotnewdeal.com/2020/02/20/332895_Lego_Lego_Movie_2_Emmet_and_Bennys_Build_and_Fix/20%Monthly2020-02-20 10:36
http://www.hotnewdeal.com/2020/02/20/332894_28_count_Zebra_2_Mechanical_Pencil_07mm_Point_S/20%Monthly2020-02-20 10:36
http://www.hotnewdeal.com/2020/02/20/332893_3_pack_Carnation_Malted_Milk_Original_13Ounce_J/20%Monthly2020-02-20 10:24
http://www.hotnewdeal.com/2020/02/20/332892_Animal_Crossing_New_Horizons__Free_Tote_Bag_with_/20%Monthly2020-02-20 10:13
http://www.hotnewdeal.com/2020/02/20/332891_Oakley_Mens_Sliver_XL_Sunglasses__52__Free_Shi/20%Monthly2020-02-20 09:57
http://www.hotnewdeal.com/2020/02/20/332890_Death_Squared_Nintendo_Switch_Digital_Download_/20%Monthly2020-02-20 09:40
http://www.hotnewdeal.com/2020/02/20/332889_14_in_and_38_in_Drive_Universal_Mechanics_Tool/20%Monthly2020-02-20 09:37
http://www.hotnewdeal.com/2020/02/20/332888_Penn_Battle_3000_spinning_reel_77/20%Monthly2020-02-20 09:22
http://www.hotnewdeal.com/2020/02/20/332887_Master_Forge_SAE_or_Metric_9_piece_combination_wre/20%Monthly2020-02-20 09:09
http://www.hotnewdeal.com/2020/02/20/332886_Yamaha_TSR7850R_72Ch_4K_Atmos_DTS_AV_Receiver_/20%Monthly2020-02-20 08:32
http://www.hotnewdeal.com/2020/02/20/332885_Hubitat_Elevation_Smart_Hub_6995/20%Monthly2020-02-20 08:32
http://www.hotnewdeal.com/2020/02/20/332884_PlayStation_Plus_1_Year_Membership__Email_Delive/20%Monthly2020-02-20 08:24
http://www.hotnewdeal.com/2020/02/20/332883_KN_PS7021_oil_filter_281_KN_PS1010_ProSer/20%Monthly2020-02-20 08:17
http://www.hotnewdeal.com/2020/02/20/332882_SK_hynix_Gold_S31_1TB_SATA_SSD__85_at_Amazon/20%Monthly2020-02-20 08:08
http://www.hotnewdeal.com/2020/02/20/332881_Cosco_Shifter_300lb_Capacity_MultiPosition_Foldin/20%Monthly2020-02-20 08:08
http://www.hotnewdeal.com/2020/02/20/332880_Crysis_Trilogy__799_at_Amazon_PC__Origin_key/20%Monthly2020-02-20 07:25
http://www.hotnewdeal.com/2020/02/20/332879_Gigabyte_AERO_15_4K_OLED_Laptop_i79750H_156_4/20%Monthly2020-02-20 07:25
http://www.hotnewdeal.com/2020/02/20/332878_Elgato_Stream_Deck_XL_32Hot_Keys_Wired_Keypad_w_/20%Monthly2020-02-20 07:09
http://www.hotnewdeal.com/2020/02/20/332877_Apple_AirPods_1st_gen_8999/20%Monthly2020-02-20 05:40
http://www.hotnewdeal.com/2020/02/20/332876_8oz_Maui_Moisture_Curl_Quench__Coconut_Oil_Curl_/20%Monthly2020-02-20 05:11
http://www.hotnewdeal.com/2020/02/20/332875_LG_Ultra_Slim_Portable_USB_DVDRW_Drive_Black_11/20%Monthly2020-02-20 04:57
http://www.hotnewdeal.com/2020/02/20/332873_Carls_Jr_Printable_Coupon_Buy_One_Get_One_Free/20%Monthly2020-02-20 03:58
http://www.hotnewdeal.com/2020/02/20/332872_3M_ScotchMount_Molding_Tape_12x15_428_w_S/20%Monthly2020-02-20 02:28
http://www.hotnewdeal.com/2020/02/20/332871_19Count_Purex_4in1_Laundry_Detergent_Pacs_1__/20%Monthly2020-02-20 02:24
http://www.hotnewdeal.com/2020/02/20/332870_AMD_Ryzen_5_3600_for_15999__MicroCenter/20%Monthly2020-02-20 01:55
http://www.hotnewdeal.com/2020/02/20/332869_Sony_55_Class_X950G_Series_4K_Smart_LED_TV_with_H/20%Monthly2020-02-20 01:55
http://www.hotnewdeal.com/2020/02/20/332867_Lenovo_LEGION_Y740_Gaming_Laptop_i79750H_RTX_20/20%Monthly2020-02-20 01:38
http://www.hotnewdeal.com/2020/02/20/332866_Logitech_G903_SE_Wireless_Optical_Gaming_Mouse_59/20%Monthly2020-02-20 01:29
http://www.hotnewdeal.com/2020/02/20/332865_2Pack_OralB_Pulsar_3d_White_Advanced_Vivid_Soft_/20%Monthly2020-02-20 01:24
http://www.hotnewdeal.com/2020/02/20/332864_MPM6_Iron_Hide_4999/20%Monthly2020-02-20 01:08
http://www.hotnewdeal.com/2020/02/20/332863_5Pack_Carters_Baby_Boys_Bodysuits_509_1_eac/20%Monthly2020-02-20 00:15
http://www.hotnewdeal.com/2020/02/19/332862_Digital_HD_Movies_Tombstone_Pirates_of_the_Ca/20%Monthly2020-02-19 23:56
http://www.hotnewdeal.com/2020/02/19/332861_1000Piece_Aquarius_Harry_Potter_Hogwarts_Express_/20%Monthly2020-02-19 23:56
http://www.hotnewdeal.com/2020/02/19/332860_Adidas_Comfort_Slides/20%Monthly2020-02-19 23:39
http://www.hotnewdeal.com/2020/02/19/332859_75Pack_1oz_Crayola_Model_Magic_Modeling_Clay_Com/20%Monthly2020-02-19 23:39
http://www.hotnewdeal.com/2020/02/19/332858_LG_65_LED_UM6900PUA_Series_4K_Ultra_HD_HDR_Smart_/20%Monthly2020-02-19 23:20
http://www.hotnewdeal.com/2020/02/19/332857_16_oz_Rockstar_Energy_Drink_Orange_Recovery_or_P/20%Monthly2020-02-19 23:08
http://www.hotnewdeal.com/2020/02/19/332856_16oz_Just_Hemp_Foods_Hemp_Protein_Powder_Plus_Fib/20%Monthly2020-02-19 23:08
http://www.hotnewdeal.com/2020/02/19/332855_Jamo_S_807_HCS_Complete_50_Home_Theater_System_fo/20%Monthly2020-02-19 23:08
http://www.hotnewdeal.com/2020/02/19/332854_Buy_100_Netflix_Gift_Card_get_a_10_Best_Buy_eGi/20%Monthly2020-02-19 23:08
http://www.hotnewdeal.com/2020/02/19/332853_Marvel_Comics_80th_Anniversary_Legends_Series__Ir/20%Monthly2020-02-19 22:45
http://www.hotnewdeal.com/2020/02/19/332852_iRobot_Roomba_e5_5150_WiFi_Connected_Robot_Vacu/20%Monthly2020-02-19 22:30
http://www.hotnewdeal.com/2020/02/19/332851_Alfred_Hitchcock_17Disc_Ultimate_DVD_Box_Set_Col/20%Monthly2020-02-19 22:16
http://www.hotnewdeal.com/2020/02/19/332850_Anker_USB_C_Power_Strip_with_30W_Power_Delivery_2/20%Monthly2020-02-19 22:16
http://www.hotnewdeal.com/2020/02/19/332848_Amazon__Hitachi_KC10DFL2_12V_Peak_Cordless_Lithiu/20%Monthly2020-02-19 22:07
http://www.hotnewdeal.com/2020/02/19/332847_3Pack_Glade_PlugIns_Scented_Oil_Air_Freshener_Ref/20%Monthly2020-02-19 21:56
http://www.hotnewdeal.com/2020/02/19/332846_Subaru_Test_Drive_get_a_50_VISA_Gift_Card/20%Monthly2020-02-19 21:56
http://www.hotnewdeal.com/2020/02/19/332845_Rosewill_Height_Adjustable_SitStand_Desk_Computer/20%Monthly2020-02-19 21:56
http://www.hotnewdeal.com/2020/02/19/332844_Kroger_2_day_sale_Friday__Saturday__12_ct_Priva/20%Monthly2020-02-19 21:39
http://www.hotnewdeal.com/2020/02/19/332843_NeilMed_Naspira_NasalOral_Aspirator_Infant__Todd/20%Monthly2020-02-19 21:08
http://www.hotnewdeal.com/2020/02/19/332842_SKIL_2Tool_Combo_Kit_PWRCore_12_Brushless_12V_1/20%Monthly2020-02-19 21:08
http://www.hotnewdeal.com/2020/02/19/332841_6Ct_Crayola_Take_Note_Dual_Tip_Highlighter_Pen_/20%Monthly2020-02-19 20:34
http://www.hotnewdeal.com/2020/02/19/332840_Eureka_Copper_Canyon_8_Person_Tent_8_Person_19/20%Monthly2020-02-19 20:23
http://www.hotnewdeal.com/2020/02/19/332839_34_oz_Revlon_Charlie_Eau_De_Toilette_Spray_for_Wo/20%Monthly2020-02-19 20:23
http://www.hotnewdeal.com/2020/02/19/332838_Netgear_Orbi_RBK59_AC3000_Mesh_WiFi_2_pack__Certi/20%Monthly2020-02-19 19:58
http://www.hotnewdeal.com/2020/02/19/332837_WoodWick_Candles_YMMV__10oz_450_16oz_5/20%Monthly2020-02-19 19:58
http://www.hotnewdeal.com/2020/02/19/332836_44oz_Neutrogena_TGel_Therapeutic_Stubborn_Itch_S/20%Monthly2020-02-19 19:52
http://www.hotnewdeal.com/2020/02/19/332835_Clarisonic_brush_with_2_extra_brushes_for_79_plus/20%Monthly2020-02-19 19:52
http://www.hotnewdeal.com/2020/02/19/332833_MAXFIT_Telescoping_Ratcheting_MultiBit_Screwdrive/20%Monthly2020-02-19 19:08
http://www.hotnewdeal.com/2020/02/19/332832_Anker_USB_Surge_protector_12_Outlets__3_USB_Ports/20%Monthly2020-02-19 19:08
http://www.hotnewdeal.com/2020/02/19/332831_RAVPower_NPFW50_Camera_Batteries_Charger_Set_16/20%Monthly2020-02-19 19:08
http://www.hotnewdeal.com/2020/02/19/332830_Bath__Body_Works_Deep_Cleansing_Foaming_or_Nou/20%Monthly2020-02-19 19:08
http://www.hotnewdeal.com/2020/02/19/332829_Dyson_Light_Ball_Origin_Upright_Vacuum__Iron_179/20%Monthly2020-02-19 19:08
http://www.hotnewdeal.com/2020/02/19/332828_Samsung_32_Curved_1920x1080_HDMI_60hz_4ms_FHD_LCD/20%Monthly2020-02-19 18:55
http://www.hotnewdeal.com/2020/02/19/332827_Insignia_Phone_Tripod_w_Bluetooth_Shutter_Remote_/20%Monthly2020-02-19 18:55
http://www.hotnewdeal.com/2020/02/19/332826_Sony_PlayStation_4_Pro_at_Amazon_for_29999/20%Monthly2020-02-19 18:55
http://www.hotnewdeal.com/2020/02/19/332825_14_EGO_Power_56Volt_LithiumIon_Cordless_Chain_/20%Monthly2020-02-19 18:55
http://www.hotnewdeal.com/2020/02/19/332824_18Pack_144Count_Kleenex_Trusted_Care_Everyday_Fa/20%Monthly2020-02-19 18:46
http://www.hotnewdeal.com/2020/02/19/332823_10Pack_Fruit_of_the_Loom_Mens_TShirts_mystery_/20%Monthly2020-02-19 18:45
http://www.hotnewdeal.com/2020/02/19/332822_Venn_Mobile_Unlimited_Minutes_Texts_and_4G_LTE_D/20%Monthly2020-02-19 18:16
http://www.hotnewdeal.com/2020/02/19/332821_Swann__8Channel_8Camera_IndoorOutdoor_Wired_4/20%Monthly2020-02-19 18:16
http://www.hotnewdeal.com/2020/02/19/332820_18Cans_12oz_Diet_Mountain_Dew_475_5_wss__Fr/20%Monthly2020-02-19 18:07
http://www.hotnewdeal.com/2020/02/19/332819_2_pack_Pantene_Shampoo_ProV_Daily_Moisture_Rene/20%Monthly2020-02-19 18:06
http://www.hotnewdeal.com/2020/02/19/332818_75_Vizio_PX75G1_PSeries_Quantum_X_4K_UHD_HDR_Sm/20%Monthly2020-02-19 17:56
http://www.hotnewdeal.com/2020/02/19/332817_Woot_45_OFF_on_First_Alert_HOME1_Rechargeable_S/20%Monthly2020-02-19 17:38
http://www.hotnewdeal.com/2020/02/19/332816_Anker_Roav_Portable_Jump_Starter_Pro_1000A_12800m/20%Monthly2020-02-19 17:38
http://www.hotnewdeal.com/2020/02/19/332815_Hasbro_Deal_of_the_Day_Sale_at_Amazon_on_many_Hasb/20%Monthly2020-02-19 17:24
http://www.hotnewdeal.com/2020/02/19/332814_Dyson_AM09_Fan_Heater__BlackSilver_19999_AC_F/20%Monthly2020-02-19 17:24
http://www.hotnewdeal.com/2020/02/19/332813_Costco_Dell_Inspiron_15_3000_Series_Touchscreen_L/20%Monthly2020-02-19 17:24
http://www.hotnewdeal.com/2020/02/19/332812_Costco_Linksys_Velop_TriBand_Whole_Home_WiFi_Sys/20%Monthly2020-02-19 17:24
http://www.hotnewdeal.com/2020/02/19/332811_Westone_ALPHA_Crossover_InEarphones_w_Mic__Shu/20%Monthly2020-02-19 16:55
http://www.hotnewdeal.com/2020/02/19/332810_Altos_Odyssey_or_Altos_Adventure_iOS_Game_App_/20%Monthly2020-02-19 16:55
http://www.hotnewdeal.com/2020/02/19/332809_LOL_Surprise_Fashion_Plates_Fashion_Design_Ac/20%Monthly2020-02-19 16:45
http://www.hotnewdeal.com/2020/02/19/332808_Home_Depot_Up_to_50_Off_Select_Dyson_and_bObswee/20%Monthly2020-02-19 16:42
http://www.hotnewdeal.com/2020/02/19/332807_Cooks_43_Quart_Stainless_Steel_Air_Fryer_JCPenny_/20%Monthly2020-02-19 16:30
http://www.hotnewdeal.com/2020/02/19/332806_64GB_105_Apple_iPad_Air_WiFi_Tablet_Latest_Mode/20%Monthly2020-02-19 15:57
http://www.hotnewdeal.com/2020/02/19/332805_44Count_Crystal_Light_On_The_Go_Packets_Variety_/20%Monthly2020-02-19 15:57
http://www.hotnewdeal.com/2020/02/19/332803_Genuine_Joe_Multifold_Paper_Towels_250_sheets_per/20%Monthly2020-02-19 15:57
http://www.hotnewdeal.com/2020/02/19/332802_REI_Up_to_40_Off_Past_Season_Styles_from_The_Nor/20%Monthly2020-02-19 15:39
http://www.hotnewdeal.com/2020/02/19/332801_Old_Navy_Extra_40_Select_Baby__Toddler_Clearanc/20%Monthly2020-02-19 15:39
http://www.hotnewdeal.com/2020/02/19/332800_Barilla_Whole_Grain_Pasta_Spaghetti_and_other_vari/20%Monthly2020-02-19 15:10
http://www.hotnewdeal.com/2020/02/19/332799_24_Dell_SE2417HGX_1920x1080_FreeSync_LED_Monitor_/20%Monthly2020-02-19 15:10
http://www.hotnewdeal.com/2020/02/19/332798_32_ASUS_ProArt_PA32UC_Wide_Gamut_IPS_Monitor_100/20%Monthly2020-02-19 15:10
http://www.hotnewdeal.com/2020/02/19/332797_Persol_Pilot_Sunglasses_polarized_and_nonpolariz/20%Monthly2020-02-19 14:59
http://www.hotnewdeal.com/2020/02/19/332796_EVGA_GeForce_GTX_1660_Ti_SC_ULTRA_240_AR/20%Monthly2020-02-19 14:42
http://www.hotnewdeal.com/2020/02/19/332795_Kids_Toys_at_Amazon_3Pack_My_Little_Pony_Prince/20%Monthly2020-02-19 14:42
http://www.hotnewdeal.com/2020/02/19/332794_Kid_Trax_Fun_Chaser_6V_Battery_Powered_RideOn_Bl/20%Monthly2020-02-19 14:30
http://www.hotnewdeal.com/2020/02/19/332793_Jersey_Mikes_BOGO_219_Only/20%Monthly2020-02-19 14:28
http://www.hotnewdeal.com/2020/02/19/332792_Mollys_Game_Bluray__DVD__Digital_5__Amazon/20%Monthly2020-02-19 14:27
http://www.hotnewdeal.com/2020/02/19/332791_YI_1080p_Home_Camera_1839_with_free_shipping_for/20%Monthly2020-02-19 14:27
http://www.hotnewdeal.com/2020/02/19/332790_5lb_Optimum_Nutrition_Gold_Standard_Whey_Protein_/20%Monthly2020-02-19 14:19
http://www.hotnewdeal.com/2020/02/19/332789_Makita_18V_LXT_LithiumIon_CordlessCorded_20_LED_/20%Monthly2020-02-19 14:19
http://www.hotnewdeal.com/2020/02/19/332788_Anker_100W_4Port_TypeC_Charging_Station_with_Pow/20%Monthly2020-02-19 14:19
http://www.hotnewdeal.com/2020/02/19/332787_HyperX_Alloy_FPS__Mechanical_Gaming_Keyboard_Che/20%Monthly2020-02-19 14:08
http://www.hotnewdeal.com/2020/02/19/332786_3_pack_Biofreeze_Pain_Relief_RollOn_3_oz_RollOn_Fa/20%Monthly2020-02-19 13:39
http://www.hotnewdeal.com/2020/02/19/332784_New_Chewy_Autoship_Customers_27Oz_27Ct_Greeni/20%Monthly2020-02-19 13:24
http://www.hotnewdeal.com/2020/02/19/332783_Anker_Quick_Charge_30_515W_5Port_USB_Wall_Charg/20%Monthly2020-02-19 13:09
http://www.hotnewdeal.com/2020/02/19/332782_Ulta_Beauty_Collection_Mascara_various_styles_3_/20%Monthly2020-02-19 12:57
http://www.hotnewdeal.com/2020/02/19/332781_CALIA_by_Carrie_Underwood_Womens_Low_Support_Yoga/20%Monthly2020-02-19 12:57
http://www.hotnewdeal.com/2020/02/19/332779_Marcy_Pro_Home_Gym_Total_Body_Training_System__8/20%Monthly2020-02-19 12:41
http://www.hotnewdeal.com/2020/02/19/332778_EVGA_600_BR_100BR0600K1_600W_Power_Supply__34/20%Monthly2020-02-19 12:36
http://www.hotnewdeal.com/2020/02/19/332777_599_Acer_Predator_X34_34_Gamin_Monitor__Costco/20%Monthly2020-02-19 12:32
http://www.hotnewdeal.com/2020/02/19/332776_SanDisk_Extreme_1TB_Portable_Solid_State_Drive_SSD/20%Monthly2020-02-19 12:17
http://www.hotnewdeal.com/2020/02/19/332775_YMMV__MicroCenter_offering_Samsung_Q90R_65_1899/20%Monthly2020-02-19 11:56
http://www.hotnewdeal.com/2020/02/19/332774_Harbor_Freight_30_off_any_item_under_10_limit_/20%Monthly2020-02-19 11:56
http://www.hotnewdeal.com/2020/02/19/332773_Star_Wars_Jedi_Fallen_Order_Deluxe_Edition_Xbox_/20%Monthly2020-02-19 11:56
http://www.hotnewdeal.com/2020/02/19/332772_HyperX_Alloy_Elite_RGB__Mechanical_Gaming_Keyboad/20%Monthly2020-02-19 11:56
http://www.hotnewdeal.com/2020/02/19/332771_Costco_Members_Vizio_65quot_Class__PXSeries_/20%Monthly2020-02-19 10:48
http://www.hotnewdeal.com/2020/02/19/332770_TheraBand_Resistance_Band_Set_Professional_Elasti/20%Monthly2020-02-19 10:48
http://www.hotnewdeal.com/2020/02/19/332769_2Pack_Filtrete_20x25x4_AC_Furnace_Air_Filter_MP/20%Monthly2020-02-19 10:28
http://www.hotnewdeal.com/2020/02/19/332768_Costway_6Cubby_Kid_Storage_Bookcase_Cushioned_Rea/20%Monthly2020-02-19 10:07
http://www.hotnewdeal.com/2020/02/19/332767_5Minute_Mickey_Minnie_story_book__3_YMMV/20%Monthly2020-02-19 09:56
http://www.hotnewdeal.com/2020/02/19/332766_Crucial_MX500_2TB_3D_NAND_SATA_25_Inch_Internal_S/20%Monthly2020-02-19 09:36
http://www.hotnewdeal.com/2020/02/19/332765_Chipotle_BOGO_entree_for_hockey_fans__221/20%Monthly2020-02-19 09:24
http://www.hotnewdeal.com/2020/02/19/332764_Kreg_KMA2900_MultiMark_MultiPurpose_Marking_and_/20%Monthly2020-02-19 09:08
http://www.hotnewdeal.com/2020/02/19/332763_1TB_Western_Digital_Blue_SN550_NVMe_SSD_for_100/20%Monthly2020-02-19 09:08
http://www.hotnewdeal.com/2020/02/19/332762_Tool_Opiate_Vinyl_559__Amazon/20%Monthly2020-02-19 09:08
http://www.hotnewdeal.com/2020/02/19/332761_Nintendo_Switch_Lite__18999/20%Monthly2020-02-19 08:46
http://www.hotnewdeal.com/2020/02/19/332759_TCL_6Series_55_55R613_2018_model_back_to_399_a/20%Monthly2020-02-19 08:37
http://www.hotnewdeal.com/2020/02/19/332758_Defiant_Keypad_Deadbolt_with_Naples_Keyed_Entry_Do/20%Monthly2020-02-19 08:22
http://www.hotnewdeal.com/2020/02/19/332757_PUMA_Coupon__New_Sale_Items_Smash_v2_Mens_Shoes/20%Monthly2020-02-19 07:56
http://www.hotnewdeal.com/2020/02/19/332756_WD_5TB_Elements_Portable_External_Hard_Drive_USB_/20%Monthly2020-02-19 07:56
http://www.hotnewdeal.com/2020/02/19/332755_Martin_Dreadnought_X1AE_Style_AcousticElectric_Gu/20%Monthly2020-02-19 07:56
http://www.hotnewdeal.com/2020/02/19/332754_180_count_Trident_White_Sugar_Free_Gum_Peppermint/20%Monthly2020-02-19 07:56
http://www.hotnewdeal.com/2020/02/19/332753_eBags_Professional_Slim_Laptop_Backpack_6999__F/20%Monthly2020-02-19 07:38
http://www.hotnewdeal.com/2020/02/19/332752_Mizuno_Mens_Wave_Rider_23_Running_Shoes_7999__/20%Monthly2020-02-19 07:25
http://www.hotnewdeal.com/2020/02/19/332751_Tom_Clancys_The_Division_2_for_PC_299_Ubisoft/20%Monthly2020-02-19 06:27
http://www.hotnewdeal.com/2020/02/19/332750_RYOBI_ONE_18_Volt_18_Gauge_Cordless_Brad_Nailer_/20%Monthly2020-02-19 06:12
http://www.hotnewdeal.com/2020/02/19/332749_Lenovo_Yoga_C940_2in1_14_4K_UHD_TouchScreen_La/20%Monthly2020-02-19 05:59
http://www.hotnewdeal.com/2020/02/19/332748_Thermaltake_Core_V1_Extreme_Mini_ITX_Cube_Chassis_/20%Monthly2020-02-19 05:41
http://www.hotnewdeal.com/2020/02/19/332747_Airthereal_MA5000_Commercial_Ozone_Generator__49/20%Monthly2020-02-19 04:59
http://www.hotnewdeal.com/2020/02/19/332746_Lenovo_156_Laptop_Casual_Backpack_B210_1274__F/20%Monthly2020-02-19 04:37
http://www.hotnewdeal.com/2020/02/19/332745_Biofreeze_2Pack_4oz_Biofreeze_Pain_Relief_Spray_/20%Monthly2020-02-19 03:57
http://www.hotnewdeal.com/2020/02/19/332744_150_or_200_bonus_for_new_Discover_Bank_customers/20%Monthly2020-02-19 03:29
http://www.hotnewdeal.com/2020/02/19/332743_IKEA_Kitchen_Sale_30_off_Cabinet_Fronts_Faucets/20%Monthly2020-02-19 03:29
http://www.hotnewdeal.com/2020/02/19/332742_Peak_Design_Everyday_Messenger_15_Version_1_BH_O/20%Monthly2020-02-19 02:56
http://www.hotnewdeal.com/2020/02/19/332741_Accuteck_Allin1_Series_Digital_Postal_Scale_w_A/20%Monthly2020-02-19 02:09
http://www.hotnewdeal.com/2020/02/19/332740_8oz_Australian_Gold_SPF_30_Sunscreen_Lotion_w_Kon/20%Monthly2020-02-19 01:56
http://www.hotnewdeal.com/2020/02/19/332739_adidas_Adipower_Weightlifting_2_Shoes_84__free_s/20%Monthly2020-02-19 01:56
http://www.hotnewdeal.com/2020/02/19/332738_5oz_Mothers_Mag__Aluminum_Polish_286_w_SS__F/20%Monthly2020-02-19 01:25
http://www.hotnewdeal.com/2020/02/19/332737_Lenovo_Legion_T730_Desktop_Intel_Core_i79700K_1/20%Monthly2020-02-19 01:08
http://www.hotnewdeal.com/2020/02/19/332736_Ecovacs_Deebot_901_Robotic_Vacuum_Cleaner_170__f/20%Monthly2020-02-19 01:08
http://www.hotnewdeal.com/2020/02/18/332735_2020_F1_TV_Pro_early_bird_discount_full_season__/20%Monthly2020-02-18 23:56
http://www.hotnewdeal.com/2020/02/18/332734_adidas_Big_Kids_Duramo_9_Shoes_black_size_456/20%Monthly2020-02-18 23:56
http://www.hotnewdeal.com/2020/02/18/332732_RAV_power_power_bank_deals_between_0218__0220_Y/20%Monthly2020-02-18 23:24
http://www.hotnewdeal.com/2020/02/18/332731_Anker_Soundcore_Life_Q10_Wireless_Bluetooth_Headph/20%Monthly2020-02-18 23:24
http://www.hotnewdeal.com/2020/02/18/332730_Fosmon_Mechanical_IndoorOutdoor_Outlet_Timers_St/20%Monthly2020-02-18 23:08
http://www.hotnewdeal.com/2020/02/18/332729_Melissa__Doug_Toys_up_to_66_off/20%Monthly2020-02-18 23:08
http://www.hotnewdeal.com/2020/02/18/332728_Dell_Coupon_50_Off_Select_OptiPlex_5040_Desktops/20%Monthly2020-02-18 23:08
http://www.hotnewdeal.com/2020/02/18/332725_Weber_E470_7171001_4_Stainless_Steel_Burner_488/20%Monthly2020-02-18 22:07
http://www.hotnewdeal.com/2020/02/18/332724_Home_Expressions_Cotton_Designs_Printed_Sheet_Set_/20%Monthly2020-02-18 22:07
http://www.hotnewdeal.com/2020/02/18/332723_HP_OMEN_Obelisk_Desktop_i99900k_16GB_RAM_256GB/20%Monthly2020-02-18 22:07
http://www.hotnewdeal.com/2020/02/18/332722_6_count_Natures_Path_Heritage_Flakes_Whole_Grains/20%Monthly2020-02-18 21:39
http://www.hotnewdeal.com/2020/02/18/332721_2Xist_3Pk_Mens_VNeck_TShirt_9_3_each_3/20%Monthly2020-02-18 21:24
http://www.hotnewdeal.com/2020/02/18/332720_Lion_King_Live_Action_Sounds__Phrases_9_Bean_P/20%Monthly2020-02-18 20:55
http://www.hotnewdeal.com/2020/02/18/332719_Liquid_Nails_LN700_4Ounce_Small_Projects_and_Rep/20%Monthly2020-02-18 20:38
http://www.hotnewdeal.com/2020/02/18/332718_Rainbow_Six_Siege__704__Green_Man_Gaming_PC_/20%Monthly2020-02-18 20:38
http://www.hotnewdeal.com/2020/02/18/332717_Wilson_Blade_Team_Tennis_Racket_7999/20%Monthly2020-02-18 20:23
http://www.hotnewdeal.com/2020/02/18/332716_20oz_CamelBak_Chute_Mag_Insulated_Stainless_Steel/20%Monthly2020-02-18 20:16
http://www.hotnewdeal.com/2020/02/18/332715_Huskie_Power_Tools_by_Panasonic_w__Pair_5Ah_Batt/20%Monthly2020-02-18 20:07
http://www.hotnewdeal.com/2020/02/18/332714_Zinus_Geraldine_12_Black_Metal_Platform_Bed_Frame/20%Monthly2020-02-18 19:56
http://www.hotnewdeal.com/2020/02/18/332713_RAVPower_10000mAh_Power_Bank_Dual_USB_Ports_Ultra/20%Monthly2020-02-18 19:56
http://www.hotnewdeal.com/2020/02/18/332712_Armani_Exchange_Mens_SemiRimless_Gunmetal_Aviato/20%Monthly2020-02-18 19:56
http://www.hotnewdeal.com/2020/02/18/332711_Ravenna_Home_Classic_Wall_Sconce_9H_Satin_Brass/20%Monthly2020-02-18 19:56
http://www.hotnewdeal.com/2020/02/18/332710_Finish_JetDry_Rinse_Aid_23oz_Dishwasher_Rinse_A/20%Monthly2020-02-18 19:42
http://www.hotnewdeal.com/2020/02/18/332708_Logitech_G502_SE_Hero_via_Amazon_Deal_of_the_Day_/20%Monthly2020-02-18 19:11
http://www.hotnewdeal.com/2020/02/18/332707_ASRock_Radeon_RX_5700_XT_CHALLENGER_D_Video_Card_/20%Monthly2020-02-18 18:46
http://www.hotnewdeal.com/2020/02/18/332706_Volcom_Coupon_Extra_50_Off_Sale_Styles__Free_Sh/20%Monthly2020-02-18 18:38
http://www.hotnewdeal.com/2020/02/18/332705_24_Pack_Fancy_Feast_Gravy_Wet_Cat_Food_Variety_P/20%Monthly2020-02-18 18:31
http://www.hotnewdeal.com/2020/02/18/332704_14Count_028oz_Slim_Jim_SnackSized_Smoked_Meat_S/20%Monthly2020-02-18 17:24
http://www.hotnewdeal.com/2020/02/18/332703_Make_Magazine_for_1395yr_up_to_4_yrs/20%Monthly2020-02-18 17:10
http://www.hotnewdeal.com/2020/02/18/332702_4Ct_Febreze_Car_Air_Fresheners_2x_Gain_Original_/20%Monthly2020-02-18 17:10
http://www.hotnewdeal.com/2020/02/18/332701_Nokia_22_TA1179_32GB_Smartphone_Unlocked__Min/20%Monthly2020-02-18 16:55
http://www.hotnewdeal.com/2020/02/18/332700_Amazon_Cowboy_Bebop_Complete_Series_Digital_HD_/20%Monthly2020-02-18 16:46
http://www.hotnewdeal.com/2020/02/18/332699_Oneplus_7T__Car_Charger_500/20%Monthly2020-02-18 16:38
http://www.hotnewdeal.com/2020/02/18/332698_34oz_Nautica_Voyage_Eau_de_Toilette_Spray_for_Men/20%Monthly2020-02-18 16:30
http://www.hotnewdeal.com/2020/02/18/332697_Sonos_Move_Outdoor_and_Indoor_Smart_Speaker__60_/20%Monthly2020-02-18 16:15
http://www.hotnewdeal.com/2020/02/18/332696_Slice_10514_Mini_Cutter_with_ceramic_safety_blade_/20%Monthly2020-02-18 15:56
http://www.hotnewdeal.com/2020/02/18/332695_Ion_Audio_Offroad_50W_Wireless_Bluetooth_AllWeath/20%Monthly2020-02-18 15:56
http://www.hotnewdeal.com/2020/02/18/332694_Lowes_LED_Recessed_Lighting_Clearance_YMMV_as_low/20%Monthly2020-02-18 15:56
http://www.hotnewdeal.com/2020/02/18/332693_12_Pack_Margaritaville_Boxer_and_Bonus_Nautica_Voy/20%Monthly2020-02-18 15:38
http://www.hotnewdeal.com/2020/02/18/332692_Asus_Chromebook_C423na_14_HD_NanoEdge_Display_/20%Monthly2020-02-18 15:24
http://www.hotnewdeal.com/2020/02/18/332691_Humble_Digital_Tabletop_Bundle_2_1_Gremlims_Inc/20%Monthly2020-02-18 15:24
http://www.hotnewdeal.com/2020/02/18/332690_RAVPower_36W_Qc_30_Car_Quick_Charger_Dual_USB_Por/20%Monthly2020-02-18 15:24
http://www.hotnewdeal.com/2020/02/18/332689_Samsung_Q80_65_Class_HDR_4K_UHD_Smart_QLED_TV_20/20%Monthly2020-02-18 15:24
http://www.hotnewdeal.com/2020/02/18/332688_Dunlop_Tortex_Standard_Guitar_picks_331_shipped_/20%Monthly2020-02-18 15:24
http://www.hotnewdeal.com/2020/02/18/332687_ChefsChoice_15_XV_Electric_Knife_Sharpener__79/20%Monthly2020-02-18 15:08
http://www.hotnewdeal.com/2020/02/18/332686_Free_game_DAC_with_purchase_of_arctic_pro_179/20%Monthly2020-02-18 15:07
http://www.hotnewdeal.com/2020/02/18/332685_Digital_HDX_Films_3_for_1499_Do_the_Right_Thin/20%Monthly2020-02-18 14:54
http://www.hotnewdeal.com/2020/02/18/332684_Anker_Upgraded_10W_Max_PowerWave_Pad_Wireless_Char/20%Monthly2020-02-18 14:45
http://www.hotnewdeal.com/2020/02/18/332683_Khombu_Mens_Lucas_Slide_Sandals_5_Merrell_Women/20%Monthly2020-02-18 14:30
http://www.hotnewdeal.com/2020/02/18/332682_Woot_Aerogrow_AeroGarden_Harvest_Elite_360_for_/20%Monthly2020-02-18 14:22
http://www.hotnewdeal.com/2020/02/18/332681_LEGO_Technic_Bugatti_Chiron_Supercar_42083_289/20%Monthly2020-02-18 14:15
http://www.hotnewdeal.com/2020/02/18/332680_55_Samsung_QN55Q80RA_Q80_QLED_Smart_4K_UHD_TV_10/20%Monthly2020-02-18 14:06
http://www.hotnewdeal.com/2020/02/18/332679_Converse_Boots_50_off__Mens_or_Womens_Bosey_Wa/20%Monthly2020-02-18 13:55
http://www.hotnewdeal.com/2020/02/18/332678_YMMV__17_was_69_Better_Homes_amp_Gardens_11/20%Monthly2020-02-18 13:55
http://www.hotnewdeal.com/2020/02/18/332677_128GB_Apple_iPad_7th_Generation_Gold_WiFi_Table/20%Monthly2020-02-18 13:52
http://www.hotnewdeal.com/2020/02/18/332676_Martin_000_X1AE_Guitar_for_360/20%Monthly2020-02-18 13:38
http://www.hotnewdeal.com/2020/02/18/332675_Columbo_The_Complete_Series_DVD_34_Discs_2018_/20%Monthly2020-02-18 13:23
http://www.hotnewdeal.com/2020/02/18/332674_Dow_GREAT_STUFF_PRO_Gaps_and_Cracks_24oz_Lowes_2/20%Monthly2020-02-18 13:07
http://www.hotnewdeal.com/2020/02/18/332672_Lenovo_156_Laptop_Casual_Toploader_Bag_T210_84/20%Monthly2020-02-18 12:54
http://www.hotnewdeal.com/2020/02/18/332670_3_Months_Xbox_Game_Pass_909/20%Monthly2020-02-18 12:30
http://www.hotnewdeal.com/2020/02/18/332669_Sony_TradeIn_Trade_Up_Event_BH_Up_to_300_plus_/20%Monthly2020-02-18 12:30
http://www.hotnewdeal.com/2020/02/18/332668_JBL_ARENA_SUB100P_10_Powered_Subwoofer_for_9995/20%Monthly2020-02-18 12:30
http://www.hotnewdeal.com/2020/02/18/332667_FisherPrice__Little_People_Big_Helpers_Home_wIn/20%Monthly2020-02-18 12:06
http://www.hotnewdeal.com/2020/02/18/332666_Honest_Kitchen_Fish_Recipe_Limited_Ingredient_Dog_/20%Monthly2020-02-18 11:55
http://www.hotnewdeal.com/2020/02/18/332665_Kindle_SciFi_eBook_Sphere_by_Michael_Crichton__/20%Monthly2020-02-18 11:55
http://www.hotnewdeal.com/2020/02/18/332664_Craftsman_16_hp_6_bench_grinder_w_lamp_3994_o/20%Monthly2020-02-18 11:55
http://www.hotnewdeal.com/2020/02/18/332663_Dell_P3418HW_34_219_IPS_Curved_Monitor_469_BH/20%Monthly2020-02-18 11:55
http://www.hotnewdeal.com/2020/02/18/332662_Callaway_Superhot_Golf_Balls_15_pack__Red_Only_1/20%Monthly2020-02-18 11:52
http://www.hotnewdeal.com/2020/02/18/332661_Weiman_Complete_Cook_Top_Cleaning_Kit__Cook_Top_C/20%Monthly2020-02-18 11:38
http://www.hotnewdeal.com/2020/02/18/332660_Munki_Munki_Costco_Theme_Flannel_PJs_997__Costc/20%Monthly2020-02-18 11:07
http://www.hotnewdeal.com/2020/02/18/332659_Kindle_YA_Graphic_Novel_eBook_Nimona_by_Noelle_St/20%Monthly2020-02-18 11:07
http://www.hotnewdeal.com/2020/02/18/332658_Rikon_10305_10_13hp_band_saw_19994__shipping/20%Monthly2020-02-18 11:07
http://www.hotnewdeal.com/2020/02/18/332657_Glacier_Bay_Dorset_4_Centerset_HighArc_Bathroom_/20%Monthly2020-02-18 11:07
http://www.hotnewdeal.com/2020/02/18/332656_Logitech_G910_Orion_Spark_RGB_Mechanical_Gaming_Ke/20%Monthly2020-02-18 11:07
http://www.hotnewdeal.com/2020/02/18/332655_15oz_Tree_Hut_Soothing_Himalayan_Salt_Scrub_Cher/20%Monthly2020-02-18 10:45
http://www.hotnewdeal.com/2020/02/18/332654_128GB_Team_Color_II_microSD_XC_U3_Class_10_Memory_/20%Monthly2020-02-18 10:38
http://www.hotnewdeal.com/2020/02/18/332653_Induro_CLT104_Stealth_Carbon_Fiber_Tripod_28635/20%Monthly2020-02-18 10:37
http://www.hotnewdeal.com/2020/02/18/332652_67_Augason_Farms_Turkey_Feast_8_Person_Emergency_/20%Monthly2020-02-18 10:37
http://www.hotnewdeal.com/2020/02/18/332651_Best_Western_Hotels__Resorts_Stay_Two_Nights_Get_/20%Monthly2020-02-18 10:27
http://www.hotnewdeal.com/2020/02/18/332650_Klipsch_2x_R26FA__2x_R41M_Bookshelves__R52C_/20%Monthly2020-02-18 10:19
http://www.hotnewdeal.com/2020/02/18/332649_Doctor_Sleep_4K_UHD_10_on_Vudu/20%Monthly2020-02-18 10:09
http://www.hotnewdeal.com/2020/02/18/332648_Greenies_Large_27oz_17_Count_Dental_Dog_Treats_14/20%Monthly2020-02-18 09:58
http://www.hotnewdeal.com/2020/02/18/332647_Brita_Metro_5Cup_Pitcher_with_1_Filter_1399_at_/20%Monthly2020-02-18 09:58
http://www.hotnewdeal.com/2020/02/18/332646_Brita_18Cup_UltraMax_Water_Dispenser_w_1_Filter_/20%Monthly2020-02-18 09:58
http://www.hotnewdeal.com/2020/02/18/332645_HP_Pavilion_x360_Laptop__15t_touch_1080p_10th_gen/20%Monthly2020-02-18 09:54
http://www.hotnewdeal.com/2020/02/18/332644_Diet_Guarana_Antarctica_Brazilian_Soda_12_Pack_for/20%Monthly2020-02-18 09:41
http://www.hotnewdeal.com/2020/02/18/332643_Childs_Play_2019_Digital_HD_Movie_Rental_06/20%Monthly2020-02-18 09:41
http://www.hotnewdeal.com/2020/02/18/332642_Garden_Treasures_27_oz_Hand_Painted_Hummingbird_Fe/20%Monthly2020-02-18 09:24
http://www.hotnewdeal.com/2020/02/18/332641_Brother_MFCL2710DW_USB_Wireless_Network_Ready_B/20%Monthly2020-02-18 09:08
http://www.hotnewdeal.com/2020/02/18/332639_Acer_Aspire_5_156_FHD_IPS_i510210U_12GB_DDR/20%Monthly2020-02-18 08:31
http://www.hotnewdeal.com/2020/02/18/332638_Pack_of_12_Mentos_Clean_Breath_Hard_Mints_Sugar_Fr/20%Monthly2020-02-18 08:23
http://www.hotnewdeal.com/2020/02/18/332637_Amazon_uniball_207_Retractable_Gel_Pens_Micro_Po/20%Monthly2020-02-18 08:16
http://www.hotnewdeal.com/2020/02/18/332636_24_pack_Perrier__Juice_Drink_Lemon__Guava_Flavo/20%Monthly2020-02-18 08:16
http://www.hotnewdeal.com/2020/02/18/332635_MiddleEarth_Extended_Editions_6Film_Collection_/20%Monthly2020-02-18 08:07
http://www.hotnewdeal.com/2020/02/18/332634_Logitech_Gaming_Accessories_Logitech_G602_LWirele/20%Monthly2020-02-18 04:29
http://www.hotnewdeal.com/2020/02/18/332633_Johnsonville_BTG0498_Sizzling_Sausage_Indoor_Comp/20%Monthly2020-02-18 03:57
http://www.hotnewdeal.com/2020/02/18/332632_225Count_Clorox_Disinfecting_Wipes_Variety_Pack/20%Monthly2020-02-18 02:32
http://www.hotnewdeal.com/2020/02/18/332631_Stag_Chili_Silverado_Beef_pack_of_12/20%Monthly2020-02-18 02:32
http://www.hotnewdeal.com/2020/02/18/332630_12TB_WD_Easystore_External_USB_30_Hard_Drive_179/20%Monthly2020-02-18 02:11
http://www.hotnewdeal.com/2020/02/18/332629_RainX_Shower_Door_Water_Repellent_16_fl_oz_5/20%Monthly2020-02-18 02:10
http://www.hotnewdeal.com/2020/02/18/332628_Samsung_Galaxy_Buds__Plus_11999/20%Monthly2020-02-18 01:35
http://www.hotnewdeal.com/2020/02/18/332627_23oz_RainX_Water_Repelling_Fast_Wax_Spray_On_Car_/20%Monthly2020-02-18 01:29
http://www.hotnewdeal.com/2020/02/18/332626_512GB_iPhone_XS_for_599_at_Sprint_New/20%Monthly2020-02-18 01:13
http://www.hotnewdeal.com/2020/02/18/332622_Chewy_Presidents_Day_Deal__Extra_30_off_Americ/20%Monthly2020-02-18 00:17
http://www.hotnewdeal.com/2020/02/17/332621_12_oz_Maui_Moisture_Heal__Hydrate__Shea_Butter_H/20%Monthly2020-02-17 23:59
http://www.hotnewdeal.com/2020/02/17/332620_Plackers_Kids_Dental_Floss_Picks_75_Count_Pack_o/20%Monthly2020-02-17 23:59
http://www.hotnewdeal.com/2020/02/17/332619_Duracell_AAAAA_NIMH_Charger_With_4_AA_NIMH_Batter/20%Monthly2020-02-17 23:59
http://www.hotnewdeal.com/2020/02/17/332618_Anker_Powerline_II_Lightning_Cable_6ft_Selections/20%Monthly2020-02-17 23:54
http://www.hotnewdeal.com/2020/02/17/332617_12_oz_Aveeno_Skin_Relief_Body_Wash_with_Coconut_Sc/20%Monthly2020-02-17 23:42
http://www.hotnewdeal.com/2020/02/17/332616_3Pack_169oz_NIVEA_Men_Sensitive_3in1_Body_Wash/20%Monthly2020-02-17 23:42
http://www.hotnewdeal.com/2020/02/17/332615_18Pack_144Count_Kleenex_Trusted_Care_Everyday_Fa/20%Monthly2020-02-17 23:11
http://www.hotnewdeal.com/2020/02/17/332613_MAXFIT_Steel_Screwdriving_Bit_Set_150Piece_YMMV/20%Monthly2020-02-17 22:38
http://www.hotnewdeal.com/2020/02/17/332612_Levis_Mens_Carrier_Cargo_Short__1500_at_Amazo/20%Monthly2020-02-17 22:10
http://www.hotnewdeal.com/2020/02/17/332611_3Count_Weiman_Cook_Top_NonScratch_Scrubbing_Pads/20%Monthly2020-02-17 21:59
http://www.hotnewdeal.com/2020/02/17/332610_Lenovo_Legion_Y540_156_FHD_IPS_144hz_i79750_R/20%Monthly2020-02-17 21:59
http://www.hotnewdeal.com/2020/02/17/332609_12_count_Popchips_Potato_Chips_BBQ_Potato_Chips_5_/20%Monthly2020-02-17 21:54
http://www.hotnewdeal.com/2020/02/17/332608_Presidents_Day_Sale_Save_50_off_Beautyrest_Plat/20%Monthly2020-02-17 21:54
http://www.hotnewdeal.com/2020/02/17/332607_LG_55_C9__Costco__869_EXTREME_YMMV__Display_M/20%Monthly2020-02-17 21:43
http://www.hotnewdeal.com/2020/02/17/332606_4_Pairs_Kids_Timberland_Socks_665__Free_Shippin/20%Monthly2020-02-17 21:29
http://www.hotnewdeal.com/2020/02/17/332605_BBC_Seven_Worlds_One_Planet_4K_UHD__Region_Fre/20%Monthly2020-02-17 21:13
http://www.hotnewdeal.com/2020/02/17/332604_Ravensburger_Realm_of_The_Giants_Dinosaurs_200_P/20%Monthly2020-02-17 21:13
http://www.hotnewdeal.com/2020/02/17/332603_3Count_Affresh_Disposal_Cleaner_Tablets_Citrus_S/20%Monthly2020-02-17 20:58
http://www.hotnewdeal.com/2020/02/17/332602_SkyTech_Blaze_II_Gaming_Desktop_Ryzen_7_2700X_16/20%Monthly2020-02-17 20:54
http://www.hotnewdeal.com/2020/02/17/332601_Xbox_One_Digital_Games_Titanfall_2_Ultimate_Edit/20%Monthly2020-02-17 20:54
http://www.hotnewdeal.com/2020/02/17/332600_Weiman_Stainless_Steel_Cleaner_and_Polish_22_fl_oz/20%Monthly2020-02-17 20:54
http://www.hotnewdeal.com/2020/02/17/332599_Digital_HD_TV_Show_Legion_The_Complete_Series_Y/20%Monthly2020-02-17 20:31
http://www.hotnewdeal.com/2020/02/17/332598_24Pack_120Count_Kleenex_Ultra_Soft_Facial_Tissue/20%Monthly2020-02-17 20:26
http://www.hotnewdeal.com/2020/02/17/332597_Dell_Inspiron_3585_156quot_Touch_Screen_AMD_Ry/20%Monthly2020-02-17 20:26
http://www.hotnewdeal.com/2020/02/17/332596_Dishonored_2__529_incl_PayPal_fees__Instant/20%Monthly2020-02-17 20:25
http://www.hotnewdeal.com/2020/02/17/332595_Google_Pixel_2_64GB_Fully_Unlocked_Refurb__9/20%Monthly2020-02-17 20:12
http://www.hotnewdeal.com/2020/02/17/332594_Echo_Plus_1st_Gen_with_BuiltIn_Hub_4499__Fre/20%Monthly2020-02-17 19:59
http://www.hotnewdeal.com/2020/02/17/332593_Bulksupplements_Creatine_Monohydrate_Powder_Micron/20%Monthly2020-02-17 19:59
http://www.hotnewdeal.com/2020/02/17/332592_Eddie_Bauer_Boys__Girls_Classic_Down_2999_Ki/20%Monthly2020-02-17 19:36
http://www.hotnewdeal.com/2020/02/17/332591_20Oz_Weiman_Glass_Cooktop_Heavy_Duty_Cleaner_and_/20%Monthly2020-02-17 19:25
http://www.hotnewdeal.com/2020/02/17/332590_5Oz_Biore_Pore_Unclogging_Skin_Scrub_350_w_SS/20%Monthly2020-02-17 19:25
http://www.hotnewdeal.com/2020/02/17/332589_Stride_Rite_Kids_Lights_Raz_Sneaker_Pink_899_/20%Monthly2020-02-17 19:25
http://www.hotnewdeal.com/2020/02/17/332588_Microplane_46220_Premium_Classic_Series_Zester_Gra/20%Monthly2020-02-17 19:25
http://www.hotnewdeal.com/2020/02/17/332587_Ridgid_55_Amp_Corded_Fixed_Base_Trim_Router_with_/20%Monthly2020-02-17 19:09
http://www.hotnewdeal.com/2020/02/17/332586_Gibson_USA_Les_Paul_Tribute_DC_Guitars_and_Basses/20%Monthly2020-02-17 19:08
http://www.hotnewdeal.com/2020/02/17/332585_adidas_Mens_Essentials_3Stripes_Tricot_Track_Jac/20%Monthly2020-02-17 19:04
http://www.hotnewdeal.com/2020/02/17/332584_2Pc_Disneys_Frozen_Girls_Anna_Pom_Beanie__Glov/20%Monthly2020-02-17 18:55
http://www.hotnewdeal.com/2020/02/17/332583_58_Samsung_UN58RU710D_7_Series_4K_UHD_HDR_Smart_L/20%Monthly2020-02-17 18:46
http://www.hotnewdeal.com/2020/02/17/332582_DEWALT_DWST08204_Tough_System_Case_Extra_Large_E/20%Monthly2020-02-17 18:46
http://www.hotnewdeal.com/2020/02/17/332581_Fast_Times_at_Ridgemont_High_Bluray_5__Amazon/20%Monthly2020-02-17 18:39
http://www.hotnewdeal.com/2020/02/17/332580_Rumblestone_firepit_kit_4999/20%Monthly2020-02-17 18:31
http://www.hotnewdeal.com/2020/02/17/332579_Samsung_Q80R_65_Class_HDR_4K_UHD_Smart_QLED_TV_1/20%Monthly2020-02-17 18:23
http://www.hotnewdeal.com/2020/02/17/332578_Dewalt_DCBL772X1_60V_MAX_FLEXVOLT_3_Ah_Brushless_H/20%Monthly2020-02-17 17:59
http://www.hotnewdeal.com/2020/02/17/332577_17Ounce_Ashland_Spring_Jar_Candles_Various_Scent/20%Monthly2020-02-17 17:41
http://www.hotnewdeal.com/2020/02/17/332576_Hisense__55_Class__LED__R6070E3_Series__2160p/20%Monthly2020-02-17 17:35
http://www.hotnewdeal.com/2020/02/17/332575_Lenovo_8_32GB_Tab_M8_FHD_Android_Tablet_11999/20%Monthly2020-02-17 17:26
http://www.hotnewdeal.com/2020/02/17/332574_Home_Depot_flexvolt_120_volt_12_inch_miter_saw_wit/20%Monthly2020-02-17 17:26
http://www.hotnewdeal.com/2020/02/17/332573_Sony_WH1000XM3__Noise_Cancelling_Wireless_Bluetoo/20%Monthly2020-02-17 17:21
http://www.hotnewdeal.com/2020/02/17/332572_6Person_Coleman_Steel_Creek_Fast_Pitch_Dome_Tent_/20%Monthly2020-02-17 17:08
http://www.hotnewdeal.com/2020/02/17/332571_Brother_PTouch_CUBE_Desktop_Label_Printer_2999_/20%Monthly2020-02-17 17:04
http://www.hotnewdeal.com/2020/02/17/332570_3Pack_100oz_Persil_ProClean_PowerLiquid_Laundry_/20%Monthly2020-02-17 16:56
http://www.hotnewdeal.com/2020/02/17/332569_TWO_PACK_AMAZON_Echo_Show_8__HD_smart_display_wit/20%Monthly2020-02-17 16:56
http://www.hotnewdeal.com/2020/02/17/332568_Oliveoilcom_50_Off_EVOO_Truffle_Salt_Sauces__/20%Monthly2020-02-17 16:40
http://www.hotnewdeal.com/2020/02/17/332567_2020_Calendars_on_sale_at_Frys__under_2/20%Monthly2020-02-17 16:40
http://www.hotnewdeal.com/2020/02/17/332566_Acer_EB321HQ_UMJE1AAA01_315quot_LED_Monitor_/20%Monthly2020-02-17 16:36
http://www.hotnewdeal.com/2020/02/17/332565_32GB_LG_G7_Fit_Black_Unlocked_CDMAGSM_for_199_A/20%Monthly2020-02-17 16:27
http://www.hotnewdeal.com/2020/02/17/332564_Smith_Optics_Coupon_40_Off__Free_SH_Helps_fro/20%Monthly2020-02-17 16:27
http://www.hotnewdeal.com/2020/02/17/332563_HR_Block_Tax_Software_Deluxe_2019_Federal_Only/20%Monthly2020-02-17 16:22
http://www.hotnewdeal.com/2020/02/17/332561_adidas_Mens_OwntheGame_Shoes_cloud_white_1980/20%Monthly2020-02-17 16:09
http://www.hotnewdeal.com/2020/02/17/332560_USB_30_to_SATA_Converter_Adapter_for_25__35_In/20%Monthly2020-02-17 15:59
http://www.hotnewdeal.com/2020/02/17/332559_Garmin_Vivofit_3_Activity_Tracker_White_Regular_/20%Monthly2020-02-17 15:59
http://www.hotnewdeal.com/2020/02/17/332558_Casio_GShock_Watch_GD1001BCR_53__free_sh/20%Monthly2020-02-17 15:59
http://www.hotnewdeal.com/2020/02/17/332557_FisherPrice_Bright_Beats_Dance__Move_Juniors_Bea/20%Monthly2020-02-17 15:24
http://www.hotnewdeal.com/2020/02/17/332556_Fila_Boys_Classic_Logo_Hoodie_2_for_10/20%Monthly2020-02-17 15:08
http://www.hotnewdeal.com/2020/02/17/332555_Unreal_Deal_Pack_incl_UT99_GOTY_UT2004_Unreal/20%Monthly2020-02-17 14:58
http://www.hotnewdeal.com/2020/02/17/332554_Dell_PowerEdge_T40_Tower_Server_Xeon_E2224G_8GB/20%Monthly2020-02-17 14:51
http://www.hotnewdeal.com/2020/02/17/332553_WinnDixie_10_off_80/20%Monthly2020-02-17 14:43
http://www.hotnewdeal.com/2020/02/17/332552_Back_Affresh_3count_washing_machine_cleaner_32/20%Monthly2020-02-17 14:36
http://www.hotnewdeal.com/2020/02/17/332551_Fanatical_Killer_Bundle_12_for_399/20%Monthly2020-02-17 14:27
http://www.hotnewdeal.com/2020/02/17/332550_Milwaukee_M12_Combo_kits_with_Driver__Flashlight_/20%Monthly2020-02-17 14:26
http://www.hotnewdeal.com/2020/02/17/332549_32_Degrees_Mens_or_Womens_Baselayer_Tops__Bott/20%Monthly2020-02-17 14:18
http://www.hotnewdeal.com/2020/02/17/332548_ASRock_B450M_Pro4_mATX_AM4_Motherboard_6999/20%Monthly2020-02-17 14:09
http://www.hotnewdeal.com/2020/02/17/332547_Monk_The_Complete_Series_Box_Set_32Disc_DVD_2/20%Monthly2020-02-17 14:09
http://www.hotnewdeal.com/2020/02/17/332545_Costco_Lenovo_14_Chromebook_nontouch__Intel_/20%Monthly2020-02-17 13:59
http://www.hotnewdeal.com/2020/02/17/332544_12Pack_304oz_CORE_Hydration_Nutrient_Enhanced_W/20%Monthly2020-02-17 13:59
http://www.hotnewdeal.com/2020/02/17/332543_Weiman_Cooktop_Cleaner_Max__9_Ounce__Easily_Remo/20%Monthly2020-02-17 13:59
http://www.hotnewdeal.com/2020/02/17/332542_27_AOC_27E1H_1920x1080_IPS_LED_Monitor_Black_8/20%Monthly2020-02-17 13:42
http://www.hotnewdeal.com/2020/02/17/332541_Ace_Hardware_10_Off_Online_Purchases_of_75/20%Monthly2020-02-17 13:42
http://www.hotnewdeal.com/2020/02/17/332540_Funko_Pops__Various_Red_Rain_Batman_Shazam_Fro/20%Monthly2020-02-17 13:42
http://www.hotnewdeal.com/2020/02/17/332539_Official_SNES_Wireless_Controllers_for_Nintendo_Sw/20%Monthly2020-02-17 13:10
http://www.hotnewdeal.com/2020/02/17/332538_Xbox_One_X_1TB_Any_Style_Used__Refurbished_249/20%Monthly2020-02-17 13:10
http://www.hotnewdeal.com/2020/02/17/332537_Neatfreak_Slim_EVERFRESH_Laundry_Hamper__Macys_/20%Monthly2020-02-17 12:46
http://www.hotnewdeal.com/2020/02/17/332536_Fire_HD_8_Kids_Edition_Tablet_8_HD_Display_32_G/20%Monthly2020-02-17 12:45
http://www.hotnewdeal.com/2020/02/17/332535_Pike_Pack_for_6797/20%Monthly2020-02-17 12:31
http://www.hotnewdeal.com/2020/02/17/332534_Aopen_315in_Curved_144Hz_2560x1440_FreeSync_Gamin/20%Monthly2020-02-17 12:23
http://www.hotnewdeal.com/2020/02/17/332533_24_Dell_UltraSharp_U2412M_1920x1200_IPS_LED_Monit/20%Monthly2020-02-17 12:23
http://www.hotnewdeal.com/2020/02/17/332532_Puma_Sale_Womens_Smash_V2_Leather_Sneakers_20_/20%Monthly2020-02-17 12:16
http://www.hotnewdeal.com/2020/02/17/332531_Celestron_NexStar_6SE_150mm_f10_SchmidtCassegrai/20%Monthly2020-02-17 12:07
http://www.hotnewdeal.com/2020/02/17/332530_Lowest_ever_ZooZ_ZEN26_2195_Presidents_Day_Sa/20%Monthly2020-02-17 12:07
http://www.hotnewdeal.com/2020/02/17/332529_Simmons_Beautysleep_Memory_Foam_MattressInABox/20%Monthly2020-02-17 11:55
http://www.hotnewdeal.com/2020/02/17/332528_adidas_Mens_3Stripes_Pants_12_Mens_3Stripes_/20%Monthly2020-02-17 11:55
http://www.hotnewdeal.com/2020/02/17/332527_Mortal_Kombat_1__2__3_PC_Digital_Download_14/20%Monthly2020-02-17 11:07
http://www.hotnewdeal.com/2020/02/17/332526_Vitamix_Explorian_Blender_18995_at_Amazon_Profe/20%Monthly2020-02-17 11:07
http://www.hotnewdeal.com/2020/02/17/332525_Klein_Tools_3Piece_Tool_and_Test_Set__Home_Depot/20%Monthly2020-02-17 10:55
http://www.hotnewdeal.com/2020/02/17/332524_Samsung_UN55RU7100FXZA_Flat_55Inch_4K_UHD_7_Serie/20%Monthly2020-02-17 10:55
http://www.hotnewdeal.com/2020/02/17/332523_Wootcom_BioBidet_DIB_Special_Edition_Luxury_Bidet/20%Monthly2020-02-17 10:55
http://www.hotnewdeal.com/2020/02/17/332522_Dead_by_Daylight__509_at_CDKeys_PC__Steam_key/20%Monthly2020-02-17 10:55
http://www.hotnewdeal.com/2020/02/17/332520_Takeya_Stainless_Steel_Water_Bottles_B1G1_Free_1/20%Monthly2020-02-17 10:47
http://www.hotnewdeal.com/2020/02/17/332519_Rush_Creek_Creations_Round_Spinning_30_Fishing_Rod/20%Monthly2020-02-17 10:47
http://www.hotnewdeal.com/2020/02/17/332518_Brother_Wireless_Monochrome_Laser_Printer_Copier/20%Monthly2020-02-17 10:39
http://www.hotnewdeal.com/2020/02/17/332517_amazon_selected_blue_wilderness_cat_dry_food_on_sa/20%Monthly2020-02-17 10:39
http://www.hotnewdeal.com/2020/02/17/332516_Turtle_Wax_T240KT_Headlight_Lens_Restorer_Kit_4/20%Monthly2020-02-17 10:33
http://www.hotnewdeal.com/2020/02/17/332515_CyberPowerPC_Desktop_Gaming_Computer_Ryzen_9_390/20%Monthly2020-02-17 10:33
http://www.hotnewdeal.com/2020/02/17/332514_4Count_Duracell_AA_NiMH_Batteries_w_Ion_Speed_10/20%Monthly2020-02-17 10:24
http://www.hotnewdeal.com/2020/02/17/332513_8TB_Seagate_Expansion_Desktop_External_USB_30_Har/20%Monthly2020-02-17 10:17
http://www.hotnewdeal.com/2020/02/17/332512_3Piece_Comforter_Sets_At_Macys__Multiple_Styles/20%Monthly2020-02-17 10:17
http://www.hotnewdeal.com/2020/02/17/332511_White_Lightning_Easy_Wash_Foaming_Bike_Wash_199_/20%Monthly2020-02-17 10:08
http://www.hotnewdeal.com/2020/02/17/332510_National_Audubon_Society_40lb_Signature_Harvest_B/20%Monthly2020-02-17 10:08
http://www.hotnewdeal.com/2020/02/17/332509_Amped_Wireless_AthenaR2_High_Power_AC2600_Wireles/20%Monthly2020-02-17 10:08
http://www.hotnewdeal.com/2020/02/17/332508_Ring_Video_Doorbell_Pro_129_BH/20%Monthly2020-02-17 09:56
http://www.hotnewdeal.com/2020/02/17/332507_Roland_TD17KV_VDrums_Electronic_Drum_Set__80_R/20%Monthly2020-02-17 09:55
http://www.hotnewdeal.com/2020/02/17/332506_Mens_Croft__Barrow_ClassicFit_Easy_Care_Spread/20%Monthly2020-02-17 09:55
http://www.hotnewdeal.com/2020/02/17/332505_Microfiber_Mop_Floor_Cleaning_System_for_Hardwood/20%Monthly2020-02-17 09:37
http://www.hotnewdeal.com/2020/02/17/332504_Digital_HD_Season_1_TV_Show_What_We_Do_in_the_Sha/20%Monthly2020-02-17 09:05
http://www.hotnewdeal.com/2020/02/17/332503_The_First_Tree_PC_Digital_Download_1_via_Steam/20%Monthly2020-02-17 08:56
http://www.hotnewdeal.com/2020/02/17/332502_Sonic_Forces_Nintendo_Switch_Digital_Download_1/20%Monthly2020-02-17 08:31
http://www.hotnewdeal.com/2020/02/17/332501_AORUS_CV27F_27_Frameless_Curved_1500R_Gaming_Moni/20%Monthly2020-02-17 08:07
http://www.hotnewdeal.com/2020/02/17/332500_Kershaw_3_RJ_Martin_Tactical_30_Stainless_Steel_/20%Monthly2020-02-17 07:56
http://www.hotnewdeal.com/2020/02/17/332499_American_Eagle_Up_to_60_Off_Sitewide_Mens__Wom/20%Monthly2020-02-17 07:56
http://www.hotnewdeal.com/2020/02/17/332498_DeWALT_226pc_Mechanics_Tool_Set_w_ToughSystem_22_/20%Monthly2020-02-17 07:39
http://www.hotnewdeal.com/2020/02/17/332497_Legend_of_Heroes_Trail_of_Cold_Steel_3_PS4_30/20%Monthly2020-02-17 07:09
http://www.hotnewdeal.com/2020/02/17/332496_81Count_Tide_Pods_HE_Laundry_Detergent_Pacs_vari/20%Monthly2020-02-17 06:41
http://www.hotnewdeal.com/2020/02/17/332495_adidas_Mens_or_Womens_Ultraboost_19_Running_Shoe/20%Monthly2020-02-17 06:41
http://www.hotnewdeal.com/2020/02/17/332494_Cowboy_Bebop_The_Complete_Series_Digital_HD_Anim/20%Monthly2020-02-17 06:32
http://www.hotnewdeal.com/2020/02/17/332493_Kohls_mystery_coupon_upto_40_off__check_your_ema/20%Monthly2020-02-17 05:28
http://www.hotnewdeal.com/2020/02/17/332492_adidas_Coupon_Additional_Sitewide_Savings_40_Off/20%Monthly2020-02-17 04:35
http://www.hotnewdeal.com/2020/02/17/332490_Wyze_Cam_1080p_HD_2_Pack_Bundle_with_Echo_Show_5_/20%Monthly2020-02-17 02:29
http://www.hotnewdeal.com/2020/02/17/332489_12_Dreamworks_Trolls_Cooper_Plush_750_Brown_Be/20%Monthly2020-02-17 02:26
http://www.hotnewdeal.com/2020/02/17/332488_Loreal_Paris_Hair_Color_Colorista_Makeup_1day_fo/20%Monthly2020-02-17 02:10
http://www.hotnewdeal.com/2020/02/17/332487_067oz_Air_Wick_Essential_Mist_Oil_Diffuser_Refill/20%Monthly2020-02-17 01:57
http://www.hotnewdeal.com/2020/02/17/332486_Revlon_ColorStay_Ultimate_Suede_Lipstick_Socialit/20%Monthly2020-02-17 01:57
http://www.hotnewdeal.com/2020/02/17/332485_Watch_Dogs_2_Standard_Edition_PS4_for_999/20%Monthly2020-02-17 01:53
http://www.hotnewdeal.com/2020/02/17/332484_50Oz_Select_Purex_Liquid_Laundry_Detergent_vario/20%Monthly2020-02-17 01:28
http://www.hotnewdeal.com/2020/02/17/332482_Own_a_movie__The_Fate_of_The_Furious_F8__Vudu_/20%Monthly2020-02-17 01:11
http://www.hotnewdeal.com/2020/02/17/332481_Arm__Hammer_Clinical_Care_Dental_Gum_Health_Kit_f/20%Monthly2020-02-17 01:11
http://www.hotnewdeal.com/2020/02/17/332480_Home_Depot_Honeywell_True_HEPA_155_sq_ft_Allerg/20%Monthly2020-02-17 01:11
http://www.hotnewdeal.com/2020/02/17/332479_Rosewill_Fusion_C40_RGB_Memchanical_Gaming_Keyboa/20%Monthly2020-02-17 01:07
http://www.hotnewdeal.com/2020/02/16/332478_KH_Pet_Products_ThermoKitty_Heated_Pet_Bed_Sage/20%Monthly2020-02-16 23:56
http://www.hotnewdeal.com/2020/02/16/332477_YMMV__Lowes_Clearance__Mr_LongArm_ProPole_62/20%Monthly2020-02-16 23:56
http://www.hotnewdeal.com/2020/02/16/332476_Monoprice_Maker_Ultimate_3D_printer_13656/20%Monthly2020-02-16 23:39
http://www.hotnewdeal.com/2020/02/16/332475_Outward_Hound_HideABee_Interactive_Puzzle_Dog_To/20%Monthly2020-02-16 23:39
http://www.hotnewdeal.com/2020/02/16/332474_Body_Glove_Mens_3T_Requiem_Water_Shoes_Indigo_S/20%Monthly2020-02-16 23:24
http://www.hotnewdeal.com/2020/02/16/332473_Seachem_Prime_Fresh_and_Saltwater_Aquarium_Water_C/20%Monthly2020-02-16 22:55
http://www.hotnewdeal.com/2020/02/16/332472_KeepSolid_VPN_Unlimited_Lifetime_Subscription_15/20%Monthly2020-02-16 22:32
http://www.hotnewdeal.com/2020/02/16/332471_To_the_Moon_PC_Digital__Steam_Key_on_099/20%Monthly2020-02-16 22:16
http://www.hotnewdeal.com/2020/02/16/332470_LG_Class_UltraWide_29_2560_x_1080_LED_Monitor_2/20%Monthly2020-02-16 22:07
http://www.hotnewdeal.com/2020/02/16/332469_Allen__Roth_Metal_Gazebo_12_x_10_ft__Lowes_YMMV_/20%Monthly2020-02-16 21:56
http://www.hotnewdeal.com/2020/02/16/332468_Indianapolis_to_Honolulu_Oahu_Hawaii_or_Vice_Versa/20%Monthly2020-02-16 21:53
http://www.hotnewdeal.com/2020/02/16/332467_ADATA_XPG_GAMMIX_S11_Pro_Series_1TB_Internal_PCIe/20%Monthly2020-02-16 21:39
http://www.hotnewdeal.com/2020/02/16/332466_Samsung_QN75Q90RAFXZA_QLED_Smart_4K_UHD_TV_2019_/20%Monthly2020-02-16 21:39
http://www.hotnewdeal.com/2020/02/16/332464_18_pack_Horizon_Organic_1__Low_Fat_Milk_8Ounce_/20%Monthly2020-02-16 21:25
http://www.hotnewdeal.com/2020/02/16/332463_Razer_Nari_Ultimate_Wireless_71_Gaming_Headset__/20%Monthly2020-02-16 21:25
http://www.hotnewdeal.com/2020/02/16/332462_HP_Spectre_x360_13t_4K_OLED_Touch_i71065G7_16G/20%Monthly2020-02-16 21:25
http://www.hotnewdeal.com/2020/02/16/332461_Purina_Fancy_Feast_Chicken_24_ct_Gravy_Lovers_Adul/20%Monthly2020-02-16 20:58
http://www.hotnewdeal.com/2020/02/16/332460_6Count_75oz_Softsoap_Liquid_Hand_Soap_fresh_br/20%Monthly2020-02-16 20:38
http://www.hotnewdeal.com/2020/02/16/332459_Clinique_Full_Size_Eyeliner__Bottom_Lash_Mascara_/20%Monthly2020-02-16 20:37
http://www.hotnewdeal.com/2020/02/16/332458_Old_Navy_Toddler_FauxFur_Penguin_Trapper_Hat_19/20%Monthly2020-02-16 19:58
http://www.hotnewdeal.com/2020/02/16/332456_3Pc_Linon_Home_Pub_Set_w_Plank_Wood_Table__2_Ba/20%Monthly2020-02-16 19:42
http://www.hotnewdeal.com/2020/02/16/332455_3Feet_Draft_Stopper_Cloth_Seal_Weather_Stop_Beig/20%Monthly2020-02-16 19:27
http://www.hotnewdeal.com/2020/02/16/332454_Caress_Body_Wash_with_Pump_Daily_Silk_254_oz_P/20%Monthly2020-02-16 19:23
http://www.hotnewdeal.com/2020/02/16/332453_24_pack_Sanpellegrino_Pesca_Te_Sparkling_Organic_/20%Monthly2020-02-16 19:11
http://www.hotnewdeal.com/2020/02/16/332452_Kano_Star_Wars_The_Force_Coding_Learning_Kit_for_K/20%Monthly2020-02-16 18:11
http://www.hotnewdeal.com/2020/02/16/332451_Zero_Grid_Neck_Wallet_wRFID_Blocking_Concealed_T/20%Monthly2020-02-16 18:10
http://www.hotnewdeal.com/2020/02/16/332450_Dewalt_Atomic_14_Impact_Driver_w_Battery_Bag_/20%Monthly2020-02-16 17:59
http://www.hotnewdeal.com/2020/02/16/332449_2Pack_Furinno_Simplistic_End_Table_Columbia_Waln/20%Monthly2020-02-16 17:59
http://www.hotnewdeal.com/2020/02/16/332448_Gap_Factory_Boys_Short_Sleeve_Shirt_488_GapKi/20%Monthly2020-02-16 17:59
http://www.hotnewdeal.com/2020/02/16/332447_Ryobi_18_volt_Brushless_tools_on_sale_at_Home_Depo/20%Monthly2020-02-16 17:42
http://www.hotnewdeal.com/2020/02/16/332446_Asics_Tiger_GELLyte_V_Sanze_Shoe_H848N_various_c/20%Monthly2020-02-16 17:27
http://www.hotnewdeal.com/2020/02/16/332445_LOWES_BlueHawk_32Gallon_Black_Plastic_Wheeled_Tr/20%Monthly2020-02-16 16:48
http://www.hotnewdeal.com/2020/02/16/332444_Staplescom_Free_Ship_No_Minimum_exp_date_not_kno/20%Monthly2020-02-16 16:48
http://www.hotnewdeal.com/2020/02/16/332443_GEFORCE_RTX_2070_SUPER__499__Nvidiacom/20%Monthly2020-02-16 16:06
http://www.hotnewdeal.com/2020/02/16/332442_Abercrombie__Fitch_Womens_Fringed_Poncho_679_/20%Monthly2020-02-16 16:06
http://www.hotnewdeal.com/2020/02/16/332441_Nerf_NStrike_Elite_Trilogy_DS15_Toy_Blaster_with/20%Monthly2020-02-16 15:56
http://www.hotnewdeal.com/2020/02/16/332440_HP_Active_Backpack__Wireless_Mouse_Bundle_Red_/20%Monthly2020-02-16 15:39
http://www.hotnewdeal.com/2020/02/16/332439_Ecco_Coupon_40_Off_Sale_Styles_Mens_Collin_20/20%Monthly2020-02-16 15:39
http://www.hotnewdeal.com/2020/02/16/332438_Blood_Sweat_and_Pixels_Kindle_Edition_199__/20%Monthly2020-02-16 15:24
http://www.hotnewdeal.com/2020/02/16/332437_1000Pc_MasterPieces_Hometown_Gallery_Jigsaw_Puzzl/20%Monthly2020-02-16 15:07
http://www.hotnewdeal.com/2020/02/16/332436_Purina_ONE_SmartBlend_Natural_Sensitive_Systems_Ad/20%Monthly2020-02-16 14:45
http://www.hotnewdeal.com/2020/02/16/332435_Zukes_Lil_Links_Dog_Treats_6oz_Chicken__Apple_/20%Monthly2020-02-16 14:45
http://www.hotnewdeal.com/2020/02/16/332434_Kirkland_Signature_Drawstring_Kitchen_Trash_Bags_/20%Monthly2020-02-16 14:15
http://www.hotnewdeal.com/2020/02/16/332433_Purina_Pro_Plan_Savor_Adult_Shredded_Blend_Lamb__/20%Monthly2020-02-16 14:15
http://www.hotnewdeal.com/2020/02/16/332432_Polar_Pro_Cinema_Series_Vivid_Collection_with_ND4/20%Monthly2020-02-16 14:06
http://www.hotnewdeal.com/2020/02/16/332431_Acer__SA230_23_IPS_LED_FHD_Monitor__Black_899/20%Monthly2020-02-16 13:52
http://www.hotnewdeal.com/2020/02/16/332428_Sunham_Soft_Spun_Cotton_Washcloth_1_Hand_Towel_/20%Monthly2020-02-16 13:20
http://www.hotnewdeal.com/2020/02/16/332427_12oz_Aveeno_Diabetics_Dry_Skin_Relief_Lotion_3/20%Monthly2020-02-16 13:20
http://www.hotnewdeal.com/2020/02/16/332426_Gillette_Fusion5_ProGlide_Mens_Razor_Blades__12_/20%Monthly2020-02-16 13:07
http://www.hotnewdeal.com/2020/02/16/332425_Nintendo_Amiibo_Rerelease__Piranha_Plant_King_K/20%Monthly2020-02-16 13:07
http://www.hotnewdeal.com/2020/02/16/332424_Cardcash_Target_eGift_Cards_Digital_Delivery_Up_/20%Monthly2020-02-16 12:54
http://www.hotnewdeal.com/2020/02/16/332423_OGIO_Axle_17_Laptop_Backpack_4560__free_shippi/20%Monthly2020-02-16 12:37
http://www.hotnewdeal.com/2020/02/16/332422_Pier1_Papasan_Chair_Bowl_Base_and_Cushion_7920_/20%Monthly2020-02-16 12:37
http://www.hotnewdeal.com/2020/02/16/332421_MiracleGro_2cu_ft_Garden_Soil__600_tas_29_o/20%Monthly2020-02-16 12:34
http://www.hotnewdeal.com/2020/02/16/332420_Honeywell_Allergen_Remover_HPA204_White_115_A/20%Monthly2020-02-16 12:34
http://www.hotnewdeal.com/2020/02/16/332419_40_Onn_1080P_Roku_Smart_LED_HDTV_Refurbished_8/20%Monthly2020-02-16 12:34
http://www.hotnewdeal.com/2020/02/16/332418_4oz_Garnier_Fructis_Style_Curl_Stretch_Loosening_/20%Monthly2020-02-16 12:29
http://www.hotnewdeal.com/2020/02/16/332417_Oceans_Our_Blue_Planet_4K_Ultra_HD_BlurayBlur/20%Monthly2020-02-16 12:29
http://www.hotnewdeal.com/2020/02/16/332416_Funko_Pop_Games_Jedi_Fallen_Order__Inquisitor_/20%Monthly2020-02-16 12:29
http://www.hotnewdeal.com/2020/02/16/332415_Instant_Pot_Duo_Nova_7in1_6qt_MultiFunction_Co/20%Monthly2020-02-16 12:19
http://www.hotnewdeal.com/2020/02/16/332414_Brother_HighSpeed_Professional_Label_Printer_QL/20%Monthly2020-02-16 12:14
http://www.hotnewdeal.com/2020/02/16/332413_72Ct_Maxwell_House_Original_Roast_Keurig_KCup_Co/20%Monthly2020-02-16 12:06
http://www.hotnewdeal.com/2020/02/16/332412_12_Pack_Colgate_360_Optic_White_Platinum_Toothbrus/20%Monthly2020-02-16 12:05
http://www.hotnewdeal.com/2020/02/16/332411_18Ounce_Hartz_Groomers_Best_Conditioning_Dog_Sha/20%Monthly2020-02-16 11:55
http://www.hotnewdeal.com/2020/02/16/332410_24_pack_Sanpellegrino_Pomegranate_and_Orange_Spark/20%Monthly2020-02-16 11:55
http://www.hotnewdeal.com/2020/02/16/332409_I_Could_Pee_on_This_And_Other_Poems_by_Cats_Kindl/20%Monthly2020-02-16 11:55
http://www.hotnewdeal.com/2020/02/16/332408_Samsung_65_Class_Q60_Series_QLED_Smart_4K_UHD_TV_/20%Monthly2020-02-16 11:35
http://www.hotnewdeal.com/2020/02/16/332407_Milwaukee_M12_FUEL_Stubby_38in_Impact_Wrench_and/20%Monthly2020-02-16 11:23
http://www.hotnewdeal.com/2020/02/16/332406_12oz_Camerons_Roasted_Ground_Coffee_Kona_Blend/20%Monthly2020-02-16 11:23
http://www.hotnewdeal.com/2020/02/16/332405_2Pack_Disney_Boys_The_Lion_King_Movie_Graphic_T/20%Monthly2020-02-16 11:23
http://www.hotnewdeal.com/2020/02/16/332404_Huggies_Plus_Diapers_Newborn_Skin_Care_Essentials_/20%Monthly2020-02-16 10:54
http://www.hotnewdeal.com/2020/02/16/332403_Bosch_GBH18V20N_18V_34_in_SDSplus_Rotary_Hamme/20%Monthly2020-02-16 10:36
http://www.hotnewdeal.com/2020/02/16/332402_YI_Nightscape_Dash_Cam_W_32_GB_PNY_SD_Card_5999/20%Monthly2020-02-16 10:21
http://www.hotnewdeal.com/2020/02/16/332401_Brother_Wireless_Monochrome_Laser_Printer_Copier/20%Monthly2020-02-16 10:14
http://www.hotnewdeal.com/2020/02/16/332400_Target_Buy_1_get_1_10_off_prepaid_airtime/20%Monthly2020-02-16 09:55
http://www.hotnewdeal.com/2020/02/16/332399_Dyson_HP01_Pure_Hot__Cool_Desk_Purifier_Heater_/20%Monthly2020-02-16 09:55
http://www.hotnewdeal.com/2020/02/16/332398_4Pack_198oz_Similac_Alimentum_Hypoallergenic_Inf/20%Monthly2020-02-16 09:55
http://www.hotnewdeal.com/2020/02/16/332397_Planters_Nuts_B1G1_Free_16Oz_Cocktail_Peanuts_2_/20%Monthly2020-02-16 09:55
http://www.hotnewdeal.com/2020/02/16/332396_1Oz_Maybelline_Dream_Fresh_BB_Cream_3_shades_3/20%Monthly2020-02-16 09:52
http://www.hotnewdeal.com/2020/02/16/332395_Wyze_Cam_Pan_1080p_PanTiltZoom_Smart_Home_Camera/20%Monthly2020-02-16 09:38
http://www.hotnewdeal.com/2020/02/16/332394_05Oz_Sally_Hansen_Miracle_Gel_Nail_Polish_Lacque/20%Monthly2020-02-16 09:38
http://www.hotnewdeal.com/2020/02/16/332393_Walgreens_Photo_8x10_Wood_Panel_Print_10__Fr/20%Monthly2020-02-16 09:38
http://www.hotnewdeal.com/2020/02/16/332392_Woot_VIZIO_SB3651E6C_36_51_SmartCast_Sound_Bar/20%Monthly2020-02-16 09:23
http://www.hotnewdeal.com/2020/02/16/332391_2Piece_Martha_Stewart_Essentials_Cotton_Bath_Rug_/20%Monthly2020-02-16 09:07
http://www.hotnewdeal.com/2020/02/16/332390_Flash_Furniture_Capri_Comfortable_Sleep_12_Inch_Fo/20%Monthly2020-02-16 08:22
http://www.hotnewdeal.com/2020/02/16/332389_Cricket_Wireless_FREE_android_phone_deals_w_port/20%Monthly2020-02-16 08:06
http://www.hotnewdeal.com/2020/02/16/332388_Free_5_Fandango_or_FandangoNOW_credit_w_Purchase/20%Monthly2020-02-16 07:53
http://www.hotnewdeal.com/2020/02/16/332387_9Pack_64oz_Betty_Crocker_Baking_Mix_Banana_Nut_/20%Monthly2020-02-16 05:56
http://www.hotnewdeal.com/2020/02/16/332386_Revlon_Nail_Enamel_totally_toffee_099_w_SS_/20%Monthly2020-02-16 05:39
http://www.hotnewdeal.com/2020/02/16/332385_CORSAIR__Pro_Wired_Gaming_Bundle_with_RGB_Back_Li/20%Monthly2020-02-16 05:25
http://www.hotnewdeal.com/2020/02/16/332384_RainX_630021_Original_Glass_Treatment_Wipes_100/20%Monthly2020-02-16 04:39
http://www.hotnewdeal.com/2020/02/16/332383_Tello_6_months_of_service_with_unlimited_talktext/20%Monthly2020-02-16 04:38
http://www.hotnewdeal.com/2020/02/16/332382_Target_Circle_Members_5_Off_Storewide_Purchase_/20%Monthly2020-02-16 04:25
http://www.hotnewdeal.com/2020/02/16/332380_3Piece_OXO_Good_Grips_Mixing_Bowl_Set_1799_at_M/20%Monthly2020-02-16 03:55
http://www.hotnewdeal.com/2020/02/16/332379_Shaun_of_the_Dead__Hot_Fuzz__The_Worlds_End_Tri/20%Monthly2020-02-16 02:55
http://www.hotnewdeal.com/2020/02/16/332378_ProSense_Itch_Solutions_Hydrocortisone_Spray_for_P/20%Monthly2020-02-16 02:55
http://www.hotnewdeal.com/2020/02/16/332377_3_for_35_4K_Movies_The_Matrix_I_Am_Legend_Supe/20%Monthly2020-02-16 02:38
http://www.hotnewdeal.com/2020/02/16/332376_Doctor_Who_The_Complete_David_Tennant_Bluray_/20%Monthly2020-02-16 02:28
http://www.hotnewdeal.com/2020/02/16/332375_Tide_Liquid_Laundry_Detergent_37oz_Ultra_Stain_Re/20%Monthly2020-02-16 02:24
http://www.hotnewdeal.com/2020/02/16/332374_4Count_OralB_CrossAction_Electric_Toothbrush_Rep/20%Monthly2020-02-16 01:55
http://www.hotnewdeal.com/2020/02/16/332373_2Pack_of_Bissell_Steam_Shot_Handheld_Hard_Surface/20%Monthly2020-02-16 01:55
http://www.hotnewdeal.com/2020/02/16/332371_Kids_4piece_Pajama_Set_497__free_shipping/20%Monthly2020-02-16 01:24
http://www.hotnewdeal.com/2020/02/16/332370_Westcott_Clearance_Sale_Up_to_96_Off_Office_Supp/20%Monthly2020-02-16 01:23
http://www.hotnewdeal.com/2020/02/15/332369_Duck_Brand_EZ_Start_Packaging_Tape_188_Inches_x_/20%Monthly2020-02-15 23:38
http://www.hotnewdeal.com/2020/02/15/332368_Ecovacs_DEEBOT_OZMO_920_2in1_Vacuuming__Mopping/20%Monthly2020-02-15 23:20
http://www.hotnewdeal.com/2020/02/15/332367_BLACKDECKER_20Volt_MAX_Lithium_Cordless_Drill_/20%Monthly2020-02-15 23:06
http://www.hotnewdeal.com/2020/02/15/332366_Spam_Jalapeo_12_Ounce_Can__175/20%Monthly2020-02-15 22:44
http://www.hotnewdeal.com/2020/02/15/332365_2Piece_Toy_Story_DisneyPixar_Interactive_True_Ta/20%Monthly2020-02-15 22:44
http://www.hotnewdeal.com/2020/02/15/332364_KN_PS1008_ProSeries_Oil_Filter_319/20%Monthly2020-02-15 22:29
http://www.hotnewdeal.com/2020/02/15/332363_The_Standoff_at_Sparrow_Creek_Bluray_5__Amazo/20%Monthly2020-02-15 22:14
http://www.hotnewdeal.com/2020/02/15/332362_Fryscom_ATampT_Galaxy_and_iPhone_clearance/20%Monthly2020-02-15 21:37
http://www.hotnewdeal.com/2020/02/15/332361_20_off_with_American_Express_membership_reward_po/20%Monthly2020-02-15 21:23
http://www.hotnewdeal.com/2020/02/15/332360_adidas_Womens_Ultraboost_SL_Running_Shoes_black/20%Monthly2020-02-15 21:23
http://www.hotnewdeal.com/2020/02/15/332357_ClearStream_2MAX_UHFVHF_IndoorOutdoor_HDTV_Anten/20%Monthly2020-02-15 20:54
http://www.hotnewdeal.com/2020/02/15/332356_Black_Wireless__100_for_6_months__50GB_LTE__20/20%Monthly2020-02-15 20:45
http://www.hotnewdeal.com/2020/02/15/332355_280Ct_Ziploc_Snack_Bags_Open_BoxLike_New__1_/20%Monthly2020-02-15 20:42
http://www.hotnewdeal.com/2020/02/15/332354_Back_Again_HDX_50_ft_163_LightDuty_IndoorOutd/20%Monthly2020-02-15 20:31
http://www.hotnewdeal.com/2020/02/15/332353_22_lb_Crave_Adult_Dry_Dog_Food_With_Protein_Salmo/20%Monthly2020-02-15 20:28
http://www.hotnewdeal.com/2020/02/15/332352_32oz_Don_Franciscos_Whole_Bean_Vanilla_Nut_Flavo/20%Monthly2020-02-15 20:22
http://www.hotnewdeal.com/2020/02/15/332351_LifeBEAM_Vi_Sense_Wireless_Headphones_with_Harmon_/20%Monthly2020-02-15 20:15
http://www.hotnewdeal.com/2020/02/15/332350_EXTREME_YMMV_Security_Flood_Cam_1080p_WideAngle_S/20%Monthly2020-02-15 20:15
http://www.hotnewdeal.com/2020/02/15/332349_Neil_Gaiman_The_Sandman_Omnibus_Vol_1_Hardcover/20%Monthly2020-02-15 20:06
http://www.hotnewdeal.com/2020/02/15/332348_MALEFICENT_Bluray__DVD__Digital_693_Ac_/20%Monthly2020-02-15 19:55
http://www.hotnewdeal.com/2020/02/15/332347_2Pack_Ring_Indoor_Cam_HD_Security_Cameras__89/20%Monthly2020-02-15 19:55
http://www.hotnewdeal.com/2020/02/15/332346_Adidas_Ultraboost_18_Terrain_8155__tax__fre/20%Monthly2020-02-15 19:38
http://www.hotnewdeal.com/2020/02/15/332345_Sams_Club_Members_18Count_21oz_Think_Thin_Hig/20%Monthly2020-02-15 19:35
http://www.hotnewdeal.com/2020/02/15/332344_100Pc_Art__Cook_Food_Storage_Container_Set_15_/20%Monthly2020-02-15 19:23
http://www.hotnewdeal.com/2020/02/15/332343_12_pack_C4_Energy_drink_16oz_Cherry_Limade_Amazon_/20%Monthly2020-02-15 19:20
http://www.hotnewdeal.com/2020/02/15/332342_280Count_Ziploc_Snack_Bags_Mega_Pack_550_w_SS/20%Monthly2020-02-15 19:07
http://www.hotnewdeal.com/2020/02/15/332341_17Oz_Nair_Hair_Remover_Bikini_Cream_Sensitive_F/20%Monthly2020-02-15 18:37
http://www.hotnewdeal.com/2020/02/15/332340_Rachael_Ray_12Quart_Enamel_on_Steel_Covered_Stock/20%Monthly2020-02-15 18:12
http://www.hotnewdeal.com/2020/02/15/332339_Google_Pixel_2_XL_144_Renewed_64GB_Black_or_Whi/20%Monthly2020-02-15 18:06
http://www.hotnewdeal.com/2020/02/15/332338_Craftsman_165Piece_Mechanics_Tool_Set_70__Sear/20%Monthly2020-02-15 17:38
http://www.hotnewdeal.com/2020/02/15/332336_Lenovo_100_InEar_Wired_Headphones_Black_or_White/20%Monthly2020-02-15 17:38
http://www.hotnewdeal.com/2020/02/15/332335_adidas_Ultraboost_Uncaged_Shoes_Mens_and_Womens_/20%Monthly2020-02-15 17:35
http://www.hotnewdeal.com/2020/02/15/332334_Milwaukee_22_in_PACKOUT_Modular_Tool_Box_Storage_/20%Monthly2020-02-15 17:23
http://www.hotnewdeal.com/2020/02/15/332332_ET_The_ExtraTerrestrial_4K_Ultra_HD__Bluray_/20%Monthly2020-02-15 17:23
http://www.hotnewdeal.com/2020/02/15/332331_11lbs_Simply_Perfection_Super_Premium_Grain_Free_/20%Monthly2020-02-15 16:54
http://www.hotnewdeal.com/2020/02/15/332330_Acer_Predator_Helios_300_Laptop_i79750H_16GB_DD/20%Monthly2020-02-15 16:45
http://www.hotnewdeal.com/2020/02/15/332329_Nintendo_Switch__Legend_of_Zelda_Links_Awakening/20%Monthly2020-02-15 16:42
http://www.hotnewdeal.com/2020/02/15/332328_Vizio_65_4K_TV_39999_V655G9_CostcoTarget_en/20%Monthly2020-02-15 16:22
http://www.hotnewdeal.com/2020/02/15/332327_New_13_MacBook_Pro_with_TouchbarTouch_ID_1099/20%Monthly2020-02-15 16:22
http://www.hotnewdeal.com/2020/02/15/332326_YMMV_Chillafish_BMXie_Balance_Bike_2999__Costco/20%Monthly2020-02-15 16:19
http://www.hotnewdeal.com/2020/02/15/332325_Kohls_Cardholders_24Pc_Oneida_Chefs_Table_Flat/20%Monthly2020-02-15 16:16
http://www.hotnewdeal.com/2020/02/15/332324_3Pack_76oz_Colgate_Max_Fresh_Toothpaste_with_Min/20%Monthly2020-02-15 16:06
http://www.hotnewdeal.com/2020/02/15/332323_Casper_King_Mattress_63999/20%Monthly2020-02-15 15:55
http://www.hotnewdeal.com/2020/02/15/332322_195oz_OGX_Beauty_Radiant_Glow_Argan_Oil_Of_Morocc/20%Monthly2020-02-15 15:55
http://www.hotnewdeal.com/2020/02/15/332321_Nature_Valley_Granola_Bars_Sweet__Salty_Nut_Cas/20%Monthly2020-02-15 14:47
http://www.hotnewdeal.com/2020/02/15/332320_HP_Omen_15t_FHD_IPS_144_Hz_i79750H_16GB_DDR4_/20%Monthly2020-02-15 14:47
http://www.hotnewdeal.com/2020/02/15/332319_Disney_Princess_Cinderella_Doll_w_2_Outfits_Summ/20%Monthly2020-02-15 14:36
http://www.hotnewdeal.com/2020/02/15/332318_HP_X3000_Wireless_Mouse_Cobalt_Blue_or_Purple_7/20%Monthly2020-02-15 14:35
http://www.hotnewdeal.com/2020/02/15/332317_40_count_KIND_Simple_Crunch_Bars_Peanut_Butter_1/20%Monthly2020-02-15 14:29
http://www.hotnewdeal.com/2020/02/15/332316_Acer_Aspire_3_A31541R98U_Laptop_156_Quad_Core/20%Monthly2020-02-15 14:28
http://www.hotnewdeal.com/2020/02/15/332315_2_Pack_Wyze_Cam_1080p_HD_Indoor_Wireless_Smart_Hom/20%Monthly2020-02-15 14:21
http://www.hotnewdeal.com/2020/02/15/332314_OXO_POP_3Piece_Storage_Containers_1999_at_Macy/20%Monthly2020-02-15 14:16
http://www.hotnewdeal.com/2020/02/15/332313_Paw_Patrol_Pups_Rule_Toddler_Nap_Mat_w_Attached_P/20%Monthly2020-02-15 14:13
http://www.hotnewdeal.com/2020/02/15/332312_55_Vizio_M556G4_Quantum_4K_UHD_HDR_Smart_LED_HDT/20%Monthly2020-02-15 14:06
http://www.hotnewdeal.com/2020/02/15/332311_Brooks_Mens_Adrenaline_GTS_19_Running_Shoes_65_/20%Monthly2020-02-15 13:54
http://www.hotnewdeal.com/2020/02/15/332310_Cricket_Wireless_iPhone_deals_6s_30_6s_Plus_80/20%Monthly2020-02-15 13:22
http://www.hotnewdeal.com/2020/02/15/332309_Apple_AirPods_with_Charging_Case__2nd_Generation_/20%Monthly2020-02-15 13:22
http://www.hotnewdeal.com/2020/02/15/332308_16Pack_Scott_Natural_100_Recycled_MultiFold_Tow/20%Monthly2020-02-15 13:07
http://www.hotnewdeal.com/2020/02/15/332307_Finish_Line_50_Off_Select_Sale_Styles_Mens_The_/20%Monthly2020-02-15 13:07
http://www.hotnewdeal.com/2020/02/15/332306_18Count_065oz_Dove_100Calorie_Milk_Chocolate_Ca/20%Monthly2020-02-15 13:07
http://www.hotnewdeal.com/2020/02/15/332305_NUTRO_MAX_Adult_Mini_Chunk_Dry_Dog_Food_Chicken_25/20%Monthly2020-02-15 13:07
http://www.hotnewdeal.com/2020/02/15/332304_55_Quart_Cooks_Enameled_Cast_Iron_Dutch_Oven__I/20%Monthly2020-02-15 12:54
http://www.hotnewdeal.com/2020/02/15/332303_Lenny__Larrys_The_Complete_Cookie_Chocolate_Chi/20%Monthly2020-02-15 12:37
http://www.hotnewdeal.com/2020/02/15/332302_Multiple_large_Gedore_wrenches_in_metric_sizes_on_/20%Monthly2020-02-15 12:30
http://www.hotnewdeal.com/2020/02/15/332301_Lowes_YMMV_798_Kobalt_18mm_52Blade_Folding_Uti/20%Monthly2020-02-15 12:06
http://www.hotnewdeal.com/2020/02/15/332299_Lego_Duplo_Cargo_Train_10875/20%Monthly2020-02-15 11:55
http://www.hotnewdeal.com/2020/02/15/332298_20Lb_Flame_King_Empty_Propane_Cylinder_w_Type_1_/20%Monthly2020-02-15 11:37
http://www.hotnewdeal.com/2020/02/15/332297_576Count_Pampers_Sensitive_Water_Baby_Diaper_Wipe/20%Monthly2020-02-15 11:37
http://www.hotnewdeal.com/2020/02/15/332296_Fender_Player_Stratocaster_MIM_Electric_Guitar_Lim/20%Monthly2020-02-15 11:37
http://www.hotnewdeal.com/2020/02/15/332295_Lenovo_Ideapad_720S_14_FHD_IPS_i78550U_16GB_DD/20%Monthly2020-02-15 11:23
http://www.hotnewdeal.com/2020/02/15/332294_FastestVPN_Lifetime_account_with_10_Multi_Logins_d/20%Monthly2020-02-15 11:22
http://www.hotnewdeal.com/2020/02/15/332293_Sony_XBR65A9G_65_Bravia_4K_Ultra_High_Definition/20%Monthly2020-02-15 11:22
http://www.hotnewdeal.com/2020/02/15/332292_Funko_Pop_Pokemon__Pikachu_Waving_525__Free/20%Monthly2020-02-15 11:06
http://www.hotnewdeal.com/2020/02/15/332291_Eddie_Bauer_Big_Boys_or_Girls_Quest_Sherpa_Fleec/20%Monthly2020-02-15 10:50
http://www.hotnewdeal.com/2020/02/15/332290_Orange_Amplifiers_Brent_Hinds_Terror_15W_Tube_Guit/20%Monthly2020-02-15 10:45
http://www.hotnewdeal.com/2020/02/15/332289_17Oz_Swell_National_Geographic_Bottle_w_1Yr_Di/20%Monthly2020-02-15 10:37
http://www.hotnewdeal.com/2020/02/15/332288_50_Uber_gift_card_45_Paypal_Digital_Gifts/20%Monthly2020-02-15 10:15
http://www.hotnewdeal.com/2020/02/15/332287_Yankee_Candle_Large_Jar_Candle_Apple_Pumpkin_7/20%Monthly2020-02-15 10:15
http://www.hotnewdeal.com/2020/02/15/332286_RYOBI_ONE_18_Volt_Hybrid_Portable_Fan_ZRP3320_CE/20%Monthly2020-02-15 10:06
http://www.hotnewdeal.com/2020/02/15/332285_Amazon__Metabo_HPT_Angle_Grinder_412_Include/20%Monthly2020-02-15 09:55
http://www.hotnewdeal.com/2020/02/15/332284_Revlon_ColorStay_16hour_Eye_Shadow_Quad_Passiona/20%Monthly2020-02-15 09:55
http://www.hotnewdeal.com/2020/02/15/332283_Crayola_Air_Marker_Sprayer_Airbrush_Kit_1297__F/20%Monthly2020-02-15 09:07
http://www.hotnewdeal.com/2020/02/15/332282_Steiff__Happy_Farm_Piggilee_PullTail_Plush_Pink/20%Monthly2020-02-15 08:54
http://www.hotnewdeal.com/2020/02/15/332281_Dji_Osmo_Mobile_3__Smartphone_Gimbal_for_6999_i/20%Monthly2020-02-15 08:22
http://www.hotnewdeal.com/2020/02/15/332280_Verizon_iPhone_XR_128_GB__1662Month__Upgrade_/20%Monthly2020-02-15 08:15
http://www.hotnewdeal.com/2020/02/15/332279_2_x_JoyCons_PreOwned_for_Nintenod_Switch_for_/20%Monthly2020-02-15 07:38
http://www.hotnewdeal.com/2020/02/15/332278_Craftsman_mens_slippers_539_free_pickup_Kmart/20%Monthly2020-02-15 07:38
http://www.hotnewdeal.com/2020/02/15/332276_Keter_Resin_Technician_Portable_Tool_Box_Organizer/20%Monthly2020-02-15 07:08
http://www.hotnewdeal.com/2020/02/15/332275_Samsung_Q70_65_Class_HDR_4K_UHD_Smart_QLED_TV_20/20%Monthly2020-02-15 07:08
http://www.hotnewdeal.com/2020/02/15/332274_Skytech_Chronos_Gaming_PC_Desktop__AMD_Ryzen_9_39/20%Monthly2020-02-15 05:55
http://www.hotnewdeal.com/2020/02/15/332273_ADATA_XPG_GAMMIX_SSD_S11_Pro_Series_1TB_Internal_/20%Monthly2020-02-15 05:25
http://www.hotnewdeal.com/2020/02/15/332272_Focal_Clear_Professional_Open_Headphones_899__fr/20%Monthly2020-02-15 03:09
http://www.hotnewdeal.com/2020/02/15/332271_HP_27er__27_IPS_LED_Monitor__FullHD__Natural_S/20%Monthly2020-02-15 02:30
http://www.hotnewdeal.com/2020/02/15/332270_Xiaomi_Mi_4K_Action_Camera_24_Touchscreen_WiFi_/20%Monthly2020-02-15 02:11
http://www.hotnewdeal.com/2020/02/15/332269_Capresso_56001_Infinity_Conical_Burr_Coffee_Grind/20%Monthly2020-02-15 01:56
http://www.hotnewdeal.com/2020/02/15/332268_RAIJINTEK_AURAS_12_BLUE__2pcs_A_12025_Otype_LED/20%Monthly2020-02-15 01:56
http://www.hotnewdeal.com/2020/02/15/332267_LG_65_Class_Nano_9_Series_4K_UHD_NanoCell_Smart_T/20%Monthly2020-02-15 01:56
http://www.hotnewdeal.com/2020/02/15/332266_8Pack_1525oz_Campbells_Chunky_Soup_Sirloin_Bur/20%Monthly2020-02-15 01:39
http://www.hotnewdeal.com/2020/02/15/332265_16Count_225oz_Kelloggs_Raisin_Bran_Crunch_Brea/20%Monthly2020-02-15 01:27
http://www.hotnewdeal.com/2020/02/15/332264_Lands_End_Womens_Winter_600_Fill_Power_Down_Puff/20%Monthly2020-02-15 01:09
http://www.hotnewdeal.com/2020/02/15/332263_168Piece_DeWALT_Mechanics_Tool_Kit__Socket_Set_/20%Monthly2020-02-15 01:09
http://www.hotnewdeal.com/2020/02/15/332262_Top_Fin_Essentials_Aquarium_Starter_Kits_55102/20%Monthly2020-02-15 00:16
http://www.hotnewdeal.com/2020/02/15/332261_LEGO_Overwatch_Watchpoint_Gibraltar__21_YMMV/20%Monthly2020-02-15 00:01
http://www.hotnewdeal.com/2020/02/14/332260_Return_to_Arkham_Bundle_ps4_499/20%Monthly2020-02-14 23:44
http://www.hotnewdeal.com/2020/02/14/332259_1397__Harry_Potter_and_the_Sorcerers_Stone__I/20%Monthly2020-02-14 23:12
http://www.hotnewdeal.com/2020/02/14/332258_24_pack_Popchips_Ridges_Potato_Chips_Variety_Pack_/20%Monthly2020-02-14 22:54
http://www.hotnewdeal.com/2020/02/14/332257_16_Macbook_Pro_i9_16_GB_RAM_1_TB_Storage_2299/20%Monthly2020-02-14 22:54
http://www.hotnewdeal.com/2020/02/14/332256_Lenovo_Thinkpad_L380_133_HD_IPS_i58250U_8GB/20%Monthly2020-02-14 22:54
http://www.hotnewdeal.com/2020/02/14/332255_New_York_to_Los_Angeles_or_Vice_Versa_197_RT_Nons/20%Monthly2020-02-14 22:44
http://www.hotnewdeal.com/2020/02/14/332254_Under_Armour_Shoe_Sale_Charged_Rogue_Running_Shoe/20%Monthly2020-02-14 22:20
http://www.hotnewdeal.com/2020/02/14/332253_4D_Cityscape_950Piece_USA_History_Time_Puzzle_23/20%Monthly2020-02-14 22:07
http://www.hotnewdeal.com/2020/02/14/332252_12_Volt_Yamaha_YXZ_Battery_Powered_RideOn__119_/20%Monthly2020-02-14 21:40
http://www.hotnewdeal.com/2020/02/14/332251_Kawai_Digital_Pianos_ES110_88Key_549_or/20%Monthly2020-02-14 21:25
http://www.hotnewdeal.com/2020/02/14/332250_Fender_American_Performer_Stratocaster_or_Telecast/20%Monthly2020-02-14 21:25
http://www.hotnewdeal.com/2020/02/14/332249_4_pack_Bobs_Red_Mill_10_Grain_Hot_Cereal_25ounc/20%Monthly2020-02-14 21:09
http://www.hotnewdeal.com/2020/02/14/332248_Levis_Coupon_50_Off_Sale_Styles_Mens_Logo_Polo/20%Monthly2020-02-14 21:09
http://www.hotnewdeal.com/2020/02/14/332247_Apple_AirPods_Bluetooth_Headphones_with_Charging_C/20%Monthly2020-02-14 20:26
http://www.hotnewdeal.com/2020/02/14/332246_Carters_Animal_Plush_Security_Blanket_Lamb_Slot/20%Monthly2020-02-14 20:26
http://www.hotnewdeal.com/2020/02/14/332245_Eddie_Bauer__Womens_Luna_Peak_Down_Parka_4999_/20%Monthly2020-02-14 20:18
http://www.hotnewdeal.com/2020/02/14/332244_Nautica_Polarized_Sunglasses_24__Free_Shipping_/20%Monthly2020-02-14 20:18
http://www.hotnewdeal.com/2020/02/14/332243_150Piece_Popular_Playthings_Playstix_Building_Set/20%Monthly2020-02-14 20:08
http://www.hotnewdeal.com/2020/02/14/332242_250Ohm_BeyerDynamic_DT880_Premium_Special_Edition/20%Monthly2020-02-14 19:40
http://www.hotnewdeal.com/2020/02/14/332241_Fels_Naptha_Laundry_Bar_and_Stain_Remover_5Ounce/20%Monthly2020-02-14 19:36
http://www.hotnewdeal.com/2020/02/14/332240_Allen_Edmonds_Additional_25_Off_Select_Styles_Gr/20%Monthly2020-02-14 19:25
http://www.hotnewdeal.com/2020/02/14/332238_Timberland_Mens_Citys_Edge_Waterproof_GoreTex_/20%Monthly2020-02-14 19:09
http://www.hotnewdeal.com/2020/02/14/332237_McDonalds_app_free_dessert_with_1_purchase_coup/20%Monthly2020-02-14 19:09
http://www.hotnewdeal.com/2020/02/14/332236_VUDU__Political_Movies_and_TV_Shows_499/20%Monthly2020-02-14 19:05
http://www.hotnewdeal.com/2020/02/14/332235_3Pack_125oz_Mrs_Meyers_Clean_Day_Hand_Soap_Ho/20%Monthly2020-02-14 19:05
http://www.hotnewdeal.com/2020/02/14/332234_16Oz_Neutrogena_TGel_Original_Formula_AntiDandr/20%Monthly2020-02-14 19:05
http://www.hotnewdeal.com/2020/02/14/332233_Skytech_Blaze_II_Desktop_Ryzen_7_2700_RTX_2060_/20%Monthly2020-02-14 18:56
http://www.hotnewdeal.com/2020/02/14/332232_JBL_Boombox_Portable_Bluetooth_Speaker_26995_BH/20%Monthly2020-02-14 18:52
http://www.hotnewdeal.com/2020/02/14/332231_Huy_Fong_Chili_Garlic_Sauce_8_oz_142_or_less_w/20%Monthly2020-02-14 18:47
http://www.hotnewdeal.com/2020/02/14/332230_Avella_Porcelain_Tile_from_097sq_ft__Solid_H/20%Monthly2020-02-14 18:36
http://www.hotnewdeal.com/2020/02/14/332229_AMD_Ryzen_9_3900X_12Core_38_GHz_Socket_AM4__FS_/20%Monthly2020-02-14 18:32
http://www.hotnewdeal.com/2020/02/14/332228_24_pack_Libbys_Vienna_Sausage_in_Chicken_Broth_4/20%Monthly2020-02-14 18:08
http://www.hotnewdeal.com/2020/02/14/332227_HP_Omen_Laptop_Intel_Core_i79750H_156_1080p_1/20%Monthly2020-02-14 18:08
http://www.hotnewdeal.com/2020/02/14/332226_DOTD_GameStop_Mortal_Kombat_11_1999_each_Xbox/20%Monthly2020-02-14 18:04
http://www.hotnewdeal.com/2020/02/14/332224_500Piece_Disney_Star_Wars_The_Mandalorian_The_Chi/20%Monthly2020-02-14 17:57
http://www.hotnewdeal.com/2020/02/14/332223_82_LG_82UM8070PUA_4K_HDR_Smart_LED_IPS_TV_w_AI_T/20%Monthly2020-02-14 17:57
http://www.hotnewdeal.com/2020/02/14/332222_75_LG_75SM9070PUA_4K_HDR_Smart_LED_Nanocell_TV_w/20%Monthly2020-02-14 17:57
http://www.hotnewdeal.com/2020/02/14/332221_Mortal_Kombat_11__Nintendo_Switch_1999_FSSS_or_/20%Monthly2020-02-14 17:41
http://www.hotnewdeal.com/2020/02/14/332220_Baja_Fresh_Mexican_Grill__Buy_One_Get_One_Free_B/20%Monthly2020-02-14 17:41
http://www.hotnewdeal.com/2020/02/14/332219_20_SOG_multiaccess_bonus_kit_in_store_at_Costco_/20%Monthly2020-02-14 17:41
http://www.hotnewdeal.com/2020/02/14/332218_65_LG_OLED65E9PUA_4K_HDR_AI_Smart_OLED_HDTV_2019/20%Monthly2020-02-14 17:25
http://www.hotnewdeal.com/2020/02/14/332217_14Count_028oz_Slim_Jim_SnackSized_Smoked_Meat_S/20%Monthly2020-02-14 16:58
http://www.hotnewdeal.com/2020/02/14/332216_8Oz_Maui_Moisture_Quench__Coconut_Oil_Curl_Milk_/20%Monthly2020-02-14 16:58
http://www.hotnewdeal.com/2020/02/14/332214_Skytech_Blaze_II_Gaming_PC_Desktop_AMD_Ryzen_5_160/20%Monthly2020-02-14 16:48
http://www.hotnewdeal.com/2020/02/14/332213_34_Dell_Alienware_Curved_100Hz_3440x1440_GSync_M/20%Monthly2020-02-14 16:17
http://www.hotnewdeal.com/2020/02/14/332212_Apple_MacBook_Pro_Laptop_Late_2019_i7_16_3072/20%Monthly2020-02-14 16:08
http://www.hotnewdeal.com/2020/02/14/332211_24_Dell_SE2417HGX_1920x1080_FreeSync_LED_Monitor_/20%Monthly2020-02-14 16:08
http://www.hotnewdeal.com/2020/02/14/332210_27Oz_Lock__Lock_Food_Storage_Container_w_Divide/20%Monthly2020-02-14 16:08
http://www.hotnewdeal.com/2020/02/14/332209_Breville_the_Barista_Express_Espresso_Machine_BES/20%Monthly2020-02-14 16:04
http://www.hotnewdeal.com/2020/02/14/332208_XXL_30x40_Canvas_Print_2999_SHIPPED/20%Monthly2020-02-14 16:04
http://www.hotnewdeal.com/2020/02/14/332207_Nylabone_DuraChew_Dental_Chew_Dinosaur_Dog_Toy_Sm/20%Monthly2020-02-14 15:57
http://www.hotnewdeal.com/2020/02/14/332206_Reebok_VDay_BOGO_Free_Sale__Buy_1_Get_1_FREE_fro/20%Monthly2020-02-14 15:57
http://www.hotnewdeal.com/2020/02/14/332205_Tamron_18400mm_f3563_Di_II_VC_HLD_Lens_Canon/20%Monthly2020-02-14 15:25
http://www.hotnewdeal.com/2020/02/14/332204_Sock_Monkey_plush_dog_toy/20%Monthly2020-02-14 15:25
http://www.hotnewdeal.com/2020/02/14/332203_Home_Depot__Ryobi_Battery_Powered_Inverter__150_/20%Monthly2020-02-14 15:25
http://www.hotnewdeal.com/2020/02/14/332202_God_Of_War_509_Horizon_Zero_Dawn_369_PS4_Digi/20%Monthly2020-02-14 15:25
http://www.hotnewdeal.com/2020/02/14/332201_NEW_Dyson_V8_Animal_Pro_Cordless_Vacuum_Purple_/20%Monthly2020-02-14 15:09
http://www.hotnewdeal.com/2020/02/14/332200_TiVo_Mini_VOX_and_TiVo_WiFi_5_Adapter_bundle_90_o/20%Monthly2020-02-14 15:08
http://www.hotnewdeal.com/2020/02/14/332199_Dell_38_Ultrawide_Monitor_3840x160060Hz_U3818DW/20%Monthly2020-02-14 15:08
http://www.hotnewdeal.com/2020/02/14/332198_Heater_by_DynaGlo_10000BTU__YMMV__795/20%Monthly2020-02-14 15:05
http://www.hotnewdeal.com/2020/02/14/332197_Dell_Inspiron_17_3000_Laptop_Intel_Core_i71065G7/20%Monthly2020-02-14 14:55
http://www.hotnewdeal.com/2020/02/14/332196_Nerf_Dog_Squeak_Rubber_Football_Dog_Toy_325/20%Monthly2020-02-14 14:45
http://www.hotnewdeal.com/2020/02/14/332195_15_off_15_at_1800Flowers_through_PaypalYMMV/20%Monthly2020-02-14 14:38
http://www.hotnewdeal.com/2020/02/14/332194_Dell_34Inch_Screen_Curved_219_3440x1440_LedLit_/20%Monthly2020-02-14 14:38
http://www.hotnewdeal.com/2020/02/14/332193_32_Acer_EB321HQU_WQHD_IPS_Monitor_Newegg_19999/20%Monthly2020-02-14 14:37
http://www.hotnewdeal.com/2020/02/14/332192_Classic_Games_Collection_Vol1_Free_through_the_co/20%Monthly2020-02-14 14:31
http://www.hotnewdeal.com/2020/02/14/332191_RYOBI_ONE_18_Volt_Shears_Certified_PreOwned_42/20%Monthly2020-02-14 14:27
http://www.hotnewdeal.com/2020/02/14/332190_65_Hisense_65H6570F_4K_UHD_LED_Android_TV_w_HDR_/20%Monthly2020-02-14 14:23
http://www.hotnewdeal.com/2020/02/14/332189_Jack_in_the_Box_Coupon_Buy_One_Get_One_Free_on_R/20%Monthly2020-02-14 14:07
http://www.hotnewdeal.com/2020/02/14/332188_Eddie_Bauer_Womens_Radiator_Fleece_FullZip_or_Ho/20%Monthly2020-02-14 14:07
http://www.hotnewdeal.com/2020/02/14/332187_ASRock_X570_Pro_4_Motherboard__GSKILL_2_x_8G_RGN/20%Monthly2020-02-14 14:03
http://www.hotnewdeal.com/2020/02/14/332186_43_Vizio_M437G0_Quantum_4K_HDR_Smart_TV__100_D/20%Monthly2020-02-14 13:56
http://www.hotnewdeal.com/2020/02/14/332185_Apple_iPad_Air_105inch_WiFi_64GB__Space_Gr/20%Monthly2020-02-14 13:52
http://www.hotnewdeal.com/2020/02/14/332184_Dragon_Ball_FighterZ__Digital_PS4_or_Xbox_One_/20%Monthly2020-02-14 13:35
http://www.hotnewdeal.com/2020/02/14/332183_1000Pc_MasterPieces_Hometown_Gallery_Jigsaw_Puzzl/20%Monthly2020-02-14 13:24
http://www.hotnewdeal.com/2020/02/14/332182_Oakley_Select_Mens__Womens_Sunglasses_50__Fre/20%Monthly2020-02-14 13:24
http://www.hotnewdeal.com/2020/02/14/332181_MetaboHPT_C10FCGSM_15Amp_10_Compound_Miter_Saw_/20%Monthly2020-02-14 13:08
http://www.hotnewdeal.com/2020/02/14/332180_HDX_50_ft_163_LightDuty_IndoorOutdoor_Extensio/20%Monthly2020-02-14 13:08
http://www.hotnewdeal.com/2020/02/14/332179_LEGO_Batman_2_Xbox_360__Xbox_One_digital_249/20%Monthly2020-02-14 13:08
http://www.hotnewdeal.com/2020/02/14/332178_Yale_Push_Button_Door_Security_Bolt_Lock_w_ZWave/20%Monthly2020-02-14 13:08
http://www.hotnewdeal.com/2020/02/14/332177_New_Girl_The_Complete_Series_Digital_HD_TV_Show/20%Monthly2020-02-14 13:08
http://www.hotnewdeal.com/2020/02/14/332176_Sonic_Mania__Switch_eShop_10/20%Monthly2020-02-14 12:55
http://www.hotnewdeal.com/2020/02/14/332175_IRWIN_QUICKGRIP_8Pack_Assorted_Clamp_YMMV__149/20%Monthly2020-02-14 12:51
http://www.hotnewdeal.com/2020/02/14/332174_Classical_guitar__Lucero_LC150Sce_solid_top_acous/20%Monthly2020-02-14 12:45
http://www.hotnewdeal.com/2020/02/14/332173_Tetra_Whisper_Easy_to_Use_Air_Pump_for_Aquariums_u/20%Monthly2020-02-14 12:27
http://www.hotnewdeal.com/2020/02/14/332172_VTech_Paw_Patrol_Chase_Learning_Watch_Blue_10_/20%Monthly2020-02-14 12:22
http://www.hotnewdeal.com/2020/02/14/332171_2Pack_Hatchimals_Pixies_25_Collectible_Dolls__/20%Monthly2020-02-14 12:16
http://www.hotnewdeal.com/2020/02/14/332170_YMMV_Woot_Coupon_10_off_15_YMMV/20%Monthly2020-02-14 12:07
http://www.hotnewdeal.com/2020/02/14/332169_Williamsburg_Butcher_Block_Co_112_x_25_x_8_A/20%Monthly2020-02-14 11:56
http://www.hotnewdeal.com/2020/02/14/332168_Swann__1080p_WiFi_Wireless_Floodlight_Security_C/20%Monthly2020-02-14 11:39
http://www.hotnewdeal.com/2020/02/14/332166_Bose_QuietComfort_25_Noise_Cancelling_Headphones_/20%Monthly2020-02-14 11:21
http://www.hotnewdeal.com/2020/02/14/332165_Home_Depot__Husky_Mechanics_Tool_Set_92Piece_f/20%Monthly2020-02-14 11:21
http://www.hotnewdeal.com/2020/02/14/332164_VTech_Splash_the_Singing_Turtle_662__Amazon/20%Monthly2020-02-14 11:08
http://www.hotnewdeal.com/2020/02/14/332163_Eddie_Bauer_Girls_Lone_Peak_3in1_Jacket_1416/20%Monthly2020-02-14 11:08
http://www.hotnewdeal.com/2020/02/14/332162_4Count_25oz_EPIC_Pink_Himalayan_Salt_Pork_Rinds_/20%Monthly2020-02-14 11:08
http://www.hotnewdeal.com/2020/02/14/332161_Arcade_Archives_PS4_50_off_399/20%Monthly2020-02-14 11:08
http://www.hotnewdeal.com/2020/02/14/332160_Sports_Afield_18_gun_fireresistant_gun_safe_clear/20%Monthly2020-02-14 10:56
http://www.hotnewdeal.com/2020/02/14/332158_Google_Pixel_3_XL_64GB_Smartphone_Unlocked_400_/20%Monthly2020-02-14 10:38
http://www.hotnewdeal.com/2020/02/14/332157_Revlon_ColorStay_Lip_Liner_wine_191_w_SS__F/20%Monthly2020-02-14 10:23
http://www.hotnewdeal.com/2020/02/14/332156_Top_Fin_Enchant_Aquarium__35_Gallon_15/20%Monthly2020-02-14 10:23
http://www.hotnewdeal.com/2020/02/14/332155_Freehold_Book_1_Kindle_Free__Add_Audible_For_1/20%Monthly2020-02-14 10:16
http://www.hotnewdeal.com/2020/02/14/332154_OnePlus_7T_599_499/20%Monthly2020-02-14 10:07
http://www.hotnewdeal.com/2020/02/14/332153_Hanes_Womens_French_Terry_Shorts_250_2Pack_Gi/20%Monthly2020-02-14 09:56
http://www.hotnewdeal.com/2020/02/14/332152_LEGO_Technic_Remote_Controlled_Stunt_Racer_42095/20%Monthly2020-02-14 09:52
http://www.hotnewdeal.com/2020/02/14/332151_Sony_75_XBR75X900F_1498__Amazon/20%Monthly2020-02-14 09:39
http://www.hotnewdeal.com/2020/02/14/332150_Unlimited_Shutterfly_Personalized_Magnets_1_each_/20%Monthly2020-02-14 09:39
http://www.hotnewdeal.com/2020/02/14/332149_Microsoft_Surface_Laptop_3_starting_at_799_300_/20%Monthly2020-02-14 09:35
http://www.hotnewdeal.com/2020/02/14/332148_LA_Noire_Complete_Edition__349__CDKeys_PC_/20%Monthly2020-02-14 09:24
http://www.hotnewdeal.com/2020/02/14/332147_Perricone_MD_Advanced_Firming_Collection_for_Face_/20%Monthly2020-02-14 09:24
http://www.hotnewdeal.com/2020/02/14/332146_Seagates_Premium_File_Recovery_Software_is_free_c/20%Monthly2020-02-14 09:08
http://www.hotnewdeal.com/2020/02/14/332145_VizCon_Mens_Class_E_Pants_174_Gravel_Gear_HV_M/20%Monthly2020-02-14 08:55
http://www.hotnewdeal.com/2020/02/14/332144_Stance_Star_Wars_Floral_Chewie__Chewbacca_Kids_Cr/20%Monthly2020-02-14 08:46
http://www.hotnewdeal.com/2020/02/14/332143_Pokemon_TCG_Sword__Shield_Elite_Trainer_Box_29/20%Monthly2020-02-14 08:38
http://www.hotnewdeal.com/2020/02/14/332142_15_Off_Milwaukee_M12_FUEL_Brushless_Impact_Driver/20%Monthly2020-02-14 08:23
http://www.hotnewdeal.com/2020/02/14/332141_2TB_Seagate_FireCuda_Gaming_25_SSHD_Hybrid_Hard_/20%Monthly2020-02-14 08:16
http://www.hotnewdeal.com/2020/02/14/332140_Eddie_Bauer_Backpacks_50_off__Extra_10_off_Coup/20%Monthly2020-02-14 07:57
http://www.hotnewdeal.com/2020/02/14/332139_2_Liter_68_Fl_Oz_Colavita_Extra_Virgin_Olive_Oil/20%Monthly2020-02-14 07:57
http://www.hotnewdeal.com/2020/02/14/332138_New_Balance_Mens_Fresh_Foam_Arishi_v2_Shoes_Grey_/20%Monthly2020-02-14 07:57
http://www.hotnewdeal.com/2020/02/14/332137_Sony_X900F_Series_65_2018_greentoe_949/20%Monthly2020-02-14 07:57
http://www.hotnewdeal.com/2020/02/14/332136_Outward_Hound_Invincible_Minis_Squeaker_Dog_Toy_1/20%Monthly2020-02-14 07:09
http://www.hotnewdeal.com/2020/02/14/332135_Sprint_Unlimited_Kickstart_25_a_month_with_new_li/20%Monthly2020-02-14 06:57
http://www.hotnewdeal.com/2020/02/14/332134_Power_Tools_Ridgid_18V_Cordless_2Tool_Combo_Kit_/20%Monthly2020-02-14 06:29
http://www.hotnewdeal.com/2020/02/14/332133_Just_Cause_3__279__Fanatical_PC__Steam_key/20%Monthly2020-02-14 06:21
http://www.hotnewdeal.com/2020/02/14/332132_24Pack_1115oz_San_Pellegrino_Essenza_Mineral_Wat/20%Monthly2020-02-14 05:56
http://www.hotnewdeal.com/2020/02/14/332131_Compustar_4905SKIT_2Way_Remote_Start_System_w_T/20%Monthly2020-02-14 05:27
http://www.hotnewdeal.com/2020/02/14/332130_RYOBI_ONE_18_Volt_38_In_Right_Angle_Drill_FACTO/20%Monthly2020-02-14 05:10
http://www.hotnewdeal.com/2020/02/14/332129_Yankee_Candle_Pink_Sands_Large_Jar_Candle_9/20%Monthly2020-02-14 03:57
http://www.hotnewdeal.com/2020/02/14/332128_6Pack_of_10oz_Method_Foaming_Hand_Soap_Sea_Miner/20%Monthly2020-02-14 03:29
http://www.hotnewdeal.com/2020/02/14/332127_KidRox_RS4_Kids_Headphones_85dB_Volume_Limited_Adj/20%Monthly2020-02-14 03:10
http://www.hotnewdeal.com/2020/02/14/332126_Lenovo_81BD000SUS_IdeaPad_720S_14__659__Free_S/20%Monthly2020-02-14 02:57
http://www.hotnewdeal.com/2020/02/14/332125_30Pack_845oz_Perrier_Sparkling_Natural_Mineral_W/20%Monthly2020-02-14 02:40
http://www.hotnewdeal.com/2020/02/14/332124_Crown_Prince_Skinless__Boneless_Sardines_in_Olive/20%Monthly2020-02-14 02:28
http://www.hotnewdeal.com/2020/02/14/332123_JBL_LIVE_650BTNC_Wireless_OverEar_NoiseCanceling/20%Monthly2020-02-14 02:28
http://www.hotnewdeal.com/2020/02/14/332122_Digital_4K_UHD_Shaun_of_the_Dead_Hot_Fuzz_21_Ju/20%Monthly2020-02-14 01:28
http://www.hotnewdeal.com/2020/02/14/332121_24Pack_San_Pellegrino_Sparkling_Fruit_Beverage__/20%Monthly2020-02-14 01:10
http://www.hotnewdeal.com/2020/02/14/332120_16Oz_Mrs_Meyers_Clean_Day_Body_Wash_Lavender_/20%Monthly2020-02-14 01:10
http://www.hotnewdeal.com/2020/02/13/332119_Logitech_MX_Master_3_Advanced__7578_at_Staples/20%Monthly2020-02-13 23:56
http://www.hotnewdeal.com/2020/02/13/332118_Celestron__NexStar_Telescopes__Amazon_Warehouse_/20%Monthly2020-02-13 23:40
http://www.hotnewdeal.com/2020/02/13/332117_CRAFTSMAN_60000BTU_Portable_Forced_Air_Propane_He/20%Monthly2020-02-13 23:40
http://www.hotnewdeal.com/2020/02/13/332116_The_Beatles__All_These_Years__Extended_Special_E/20%Monthly2020-02-13 23:25
http://www.hotnewdeal.com/2020/02/13/332115_WODfitters_pull_upresistance_bands_4_piece_set_/20%Monthly2020-02-13 23:25
http://www.hotnewdeal.com/2020/02/13/332114_6Pack_50_Piece_Bottle_Mentos_Pure_Fresh_SugarFre/20%Monthly2020-02-13 22:56
http://www.hotnewdeal.com/2020/02/13/332113_Torin_15_Tons_AluminumSteel_Hydraulic_Floor_Jack/20%Monthly2020-02-13 22:56
http://www.hotnewdeal.com/2020/02/13/332112_J_Crew_Mens_770_Straightfit_Pants_Camouflage_Br/20%Monthly2020-02-13 22:47
http://www.hotnewdeal.com/2020/02/13/332111_Mongoose_Excursion_mountain_bike_26inch_wheel_2/20%Monthly2020-02-13 22:39
http://www.hotnewdeal.com/2020/02/13/332109_Hardside_CarryOn_Spinner_Luggage_Single_or_Set_wi/20%Monthly2020-02-13 22:32
http://www.hotnewdeal.com/2020/02/13/332108_20Pack_Shop_Succulents_Mini_Life_Succulent_Plants/20%Monthly2020-02-13 22:32
http://www.hotnewdeal.com/2020/02/13/332107_Sony_A7III_Used_Like_new_Amazon_warehouse_20_off/20%Monthly2020-02-13 21:58
http://www.hotnewdeal.com/2020/02/13/332106_3_Pack_Quaker_State_Ultimate_Durability_5W30_De/20%Monthly2020-02-13 21:09
http://www.hotnewdeal.com/2020/02/13/332105_10Oz_Jergens_Wet_Skin_Cherry_Almond_Oil_Moisturiz/20%Monthly2020-02-13 20:56
http://www.hotnewdeal.com/2020/02/13/332104_Breville_Barista_Express_BES870XL_Espresso_Machine/20%Monthly2020-02-13 20:24
http://www.hotnewdeal.com/2020/02/13/332103_Nintendo_Switch_Digital_Games_Runbow_299_Fe_4/20%Monthly2020-02-13 20:17
http://www.hotnewdeal.com/2020/02/13/332102_Chef_Robert_Irvine_FitCrunch_Protein_Bar_18Pack_/20%Monthly2020-02-13 20:08
http://www.hotnewdeal.com/2020/02/13/332101_Sams_Club_Nintendo_Switch_neon_red_blue_189_YM/20%Monthly2020-02-13 19:57
http://www.hotnewdeal.com/2020/02/13/332100_Several_free_after_offer_items_via_Ibotta__Incl/20%Monthly2020-02-13 19:57
http://www.hotnewdeal.com/2020/02/13/332099_24_oz_Nike_SS_HYPERCHARGE_Straw_bottles_various_c/20%Monthly2020-02-13 19:53
http://www.hotnewdeal.com/2020/02/13/332096_Kohls_Cardholders_Belle_Maison_2Piece_Weekday/20%Monthly2020-02-13 19:36
http://www.hotnewdeal.com/2020/02/13/332095_Vortex_Venom_Red_Dot_Sight_6_MOA_Dot_Reticle_17/20%Monthly2020-02-13 19:25
http://www.hotnewdeal.com/2020/02/13/332093_Nest_Detect_Sensor_for_Google_Nest_Secure_Alarm_Sy/20%Monthly2020-02-13 19:21
http://www.hotnewdeal.com/2020/02/13/332092_Terraforming_Mars_App_only_2999/20%Monthly2020-02-13 19:10
http://www.hotnewdeal.com/2020/02/13/332091_Panasonic_BQCC75ASBA_eneloop_Individual_Battery_C/20%Monthly2020-02-13 19:10
http://www.hotnewdeal.com/2020/02/13/332090_Costcocom__Tiger_55Cup_Micom_Rice_Cooker__War/20%Monthly2020-02-13 18:56
http://www.hotnewdeal.com/2020/02/13/332089_Snow_Joe_SJ618E_18_13_AMP_Electric_Snow_Thrower/20%Monthly2020-02-13 18:56
http://www.hotnewdeal.com/2020/02/13/332088_8oz_Maui_Moisture_Curl_Quench__Coconut_Oil_Curl_M/20%Monthly2020-02-13 18:52
http://www.hotnewdeal.com/2020/02/13/332087_Shop_Disney_Additional_25_27_Sorcerer_Mickey_Pl/20%Monthly2020-02-13 18:40
http://www.hotnewdeal.com/2020/02/13/332086_Verizon_Audio_Bundle_LG_Wireless_Headset__After/20%Monthly2020-02-13 18:33
http://www.hotnewdeal.com/2020/02/13/332085_100_Stick_PackIncense_Gonesh_Extra_Rich_Collecti/20%Monthly2020-02-13 17:57
http://www.hotnewdeal.com/2020/02/13/332084_Cooler_Master_Hyper_212_LED_w_4_Heatpipes_120mm_/20%Monthly2020-02-13 17:57
http://www.hotnewdeal.com/2020/02/13/332083_Costco_Apple_AirPods_Pro_235__tax/20%Monthly2020-02-13 17:39
http://www.hotnewdeal.com/2020/02/13/332082_AMD_Ryzen_5_1600_85__amazon_65W_AM4_Processor_wi/20%Monthly2020-02-13 17:24
http://www.hotnewdeal.com/2020/02/13/332081_Ebay_Refurbished_Samsung_55_Class_4K_2160p_Smar/20%Monthly2020-02-13 17:08
http://www.hotnewdeal.com/2020/02/13/332080_Philips_Sonicare_DiamondClean_Rechargeable_Toothbr/20%Monthly2020-02-13 16:55
http://www.hotnewdeal.com/2020/02/13/332078_Kohls_Cardholders_Bissell_Myair_Personal_Air_Pur/20%Monthly2020-02-13 16:46
http://www.hotnewdeal.com/2020/02/13/332077_Ring_Video_Doorbell_Pro_159_at_BH_Photo/20%Monthly2020-02-13 16:46
http://www.hotnewdeal.com/2020/02/13/332076_Suncast_Snow_Shovels_5_instore_at_Walmart_YMMV/20%Monthly2020-02-13 16:31
http://www.hotnewdeal.com/2020/02/13/332075_Coleman_Coastal_Xtreme_120Quart_Marine_Cooler_45/20%Monthly2020-02-13 16:23
http://www.hotnewdeal.com/2020/02/13/332074_Amazon__Ip_Man_Trilogy_BluRay_9/20%Monthly2020-02-13 16:16
http://www.hotnewdeal.com/2020/02/13/332073_RAVPower_2Port_30W_USBC_PD__18W_USBA_QC_30_Ca/20%Monthly2020-02-13 16:16
http://www.hotnewdeal.com/2020/02/13/332072_Under_Armour_Shoes_Extra_40_Off__Girls_Pursuit_P/20%Monthly2020-02-13 15:56
http://www.hotnewdeal.com/2020/02/13/332071_Nature_Valley_Granola_Bars_Sweet__Salty_Nut_Cas/20%Monthly2020-02-13 15:40
http://www.hotnewdeal.com/2020/02/13/332070_Sperry_Polarized_Sunglasses_Various_StylesColors/20%Monthly2020-02-13 15:40
http://www.hotnewdeal.com/2020/02/13/332068_Tamron_2875mm_F28_for_Sony_Mirrorless_Full_Fram/20%Monthly2020-02-13 15:26
http://www.hotnewdeal.com/2020/02/13/332067_DEWALT_DCS380B_20Volt_MAX_LiIon_Reciprocating_Sa/20%Monthly2020-02-13 15:26
http://www.hotnewdeal.com/2020/02/13/332066_Corner_Bakery_Cafe_Coupon_Buy_One_Get_One_Free_o/20%Monthly2020-02-13 15:21
http://www.hotnewdeal.com/2020/02/13/332065_Dell__SE2717HR_27_IPS_LED_FHD_FreeSync_Monitor_/20%Monthly2020-02-13 15:09
http://www.hotnewdeal.com/2020/02/13/332064_iBuyPower_Ryzen_7_RTX2080_SUPER_Ryzen_7_3700X_16/20%Monthly2020-02-13 15:09
http://www.hotnewdeal.com/2020/02/13/332063_BISSELL_CrossWave_MultiSurface_Wet_Dry_Vac__17/20%Monthly2020-02-13 15:09
http://www.hotnewdeal.com/2020/02/13/332062_Cat_Quest_Nintendo_Switch_on_sale_for_389_Ninten/20%Monthly2020-02-13 14:56
http://www.hotnewdeal.com/2020/02/13/332061_Unravel_2_for_Nintendo_Switch_Digital_Download_4/20%Monthly2020-02-13 14:56
http://www.hotnewdeal.com/2020/02/13/332060_DEWALT_Tough_System_Tool_Storage_Organizer_Carrier/20%Monthly2020-02-13 14:47
http://www.hotnewdeal.com/2020/02/13/332059_Tillys_Sale_RSQ_Mens_Slim_Straight_Jeans_10_W/20%Monthly2020-02-13 14:47
http://www.hotnewdeal.com/2020/02/13/332058_The_Skyrim_Library__Volumes_I_II__III_Box_Set/20%Monthly2020-02-13 14:38
http://www.hotnewdeal.com/2020/02/13/332057_12Pack_Quest_Nutrition_Protein_Bars_Maple_Waffle/20%Monthly2020-02-13 14:31
http://www.hotnewdeal.com/2020/02/13/332056_8Count_Listerine_Ready_Tabs_Chewable_Tablets_Mi/20%Monthly2020-02-13 14:31
http://www.hotnewdeal.com/2020/02/13/332055_Husky_270_Piece_Mechanics_Tool_Set_99/20%Monthly2020-02-13 14:31
http://www.hotnewdeal.com/2020/02/13/332054_Dell_Inspiron_15_5593_Laptop_Intel_Core_i51035G1/20%Monthly2020-02-13 14:31
http://www.hotnewdeal.com/2020/02/13/332053_Gamestop_Funko_2_Pack_And_Jim_Lee_Sets_5/20%Monthly2020-02-13 14:23
http://www.hotnewdeal.com/2020/02/13/332052_Philips_Digital_Air_Fryer_at_Costco_for_99/20%Monthly2020-02-13 14:16
http://www.hotnewdeal.com/2020/02/13/332051_Crocs_Sale_Kids_Crocband_Flip_749_Womens_Fre/20%Monthly2020-02-13 13:56
http://www.hotnewdeal.com/2020/02/13/332050_Soffe_50_Off_Clearance_Apparel_Shorts_Tanks_H/20%Monthly2020-02-13 13:56
http://www.hotnewdeal.com/2020/02/13/332049_Borderlands_3_for_PC__GMG_Standard_Edition__27/20%Monthly2020-02-13 13:56
http://www.hotnewdeal.com/2020/02/13/332048_15_Concessions_Voucher_with_50_Regal_Gift_Card_P/20%Monthly2020-02-13 13:38
http://www.hotnewdeal.com/2020/02/13/332047_Amtrak_Buy_One_Get_One_Free_Valentines_Day_Sale_/20%Monthly2020-02-13 13:24
http://www.hotnewdeal.com/2020/02/13/332046_Bella__Electric_Food_Slicer__Stainless_Steel__B/20%Monthly2020-02-13 13:24
http://www.hotnewdeal.com/2020/02/13/332045_Malwarebytes_AntiMalware_Premium_30__5_Devices_/20%Monthly2020-02-13 13:24
http://www.hotnewdeal.com/2020/02/13/332044_Wearable_Oversized_Cuddle_Throw_with_Sherpa_Lining/20%Monthly2020-02-13 13:24
http://www.hotnewdeal.com/2020/02/13/332043_6499_Reg_7998_Animal_Crossing_New_Horizons_/20%Monthly2020-02-13 13:08
http://www.hotnewdeal.com/2020/02/13/332042_Jamo_Studio_Series_S_803_HCS_Home_Cinema_System_Bl/20%Monthly2020-02-13 12:46
http://www.hotnewdeal.com/2020/02/13/332041_Amazon_Warehouse_20_off_Limited_time_deal/20%Monthly2020-02-13 12:32
http://www.hotnewdeal.com/2020/02/13/332040_Apple_MacBook_Air_13inch_Retina_display_16GHz_/20%Monthly2020-02-13 12:32
http://www.hotnewdeal.com/2020/02/13/332039_Nordstrom_Rack__Clear_The_Rack_25_Off_Clearance_/20%Monthly2020-02-13 12:32
http://www.hotnewdeal.com/2020/02/13/332038_Audible_2_for_1_deal_on_select_audiobooks/20%Monthly2020-02-13 12:32
http://www.hotnewdeal.com/2020/02/13/332037_Staples_25_off_100_coupon_online_only__Valid/20%Monthly2020-02-13 12:16
http://www.hotnewdeal.com/2020/02/13/332036_Panasonic_ERGK60S_3999_Lowest_price_ever/20%Monthly2020-02-13 12:16
http://www.hotnewdeal.com/2020/02/13/332035_Designers_Fountain_Light_Fixtures_1Light_Wall_Sc/20%Monthly2020-02-13 12:03
http://www.hotnewdeal.com/2020/02/13/332034_Brother_HLL2390DW_Wireless_Monochrome_AllInOne_/20%Monthly2020-02-13 11:57
http://www.hotnewdeal.com/2020/02/13/332033_Olympia_Sports__Extra_40_Off_Select_Footwear__L/20%Monthly2020-02-13 11:53
http://www.hotnewdeal.com/2020/02/13/332032_Apple_Watch_Series_5_GPS_40mm__Space_Gray_Alum/20%Monthly2020-02-13 11:40
http://www.hotnewdeal.com/2020/02/13/332031_Philips_Sonicare_Protective_Clean_6100_for_1499/20%Monthly2020-02-13 11:40
http://www.hotnewdeal.com/2020/02/13/332030_AquaTech_EZChange_Aquarium_Filter_Cartridge_for_/20%Monthly2020-02-13 11:39
http://www.hotnewdeal.com/2020/02/13/332029_Xerox_Phaser_Printer_deal_at_Staples_13999/20%Monthly2020-02-13 11:39
http://www.hotnewdeal.com/2020/02/13/332028_Surface_GO_8GB_128_SSD__New_399_FS_no_tax_some_/20%Monthly2020-02-13 11:39
http://www.hotnewdeal.com/2020/02/13/332027_Amazon_Select_Pet_Items_Buy_3_Get_1_Free/20%Monthly2020-02-13 11:35
http://www.hotnewdeal.com/2020/02/13/332026_Deco_Gear_Hard_Body_Full_Size_Headphone_Case_10_/20%Monthly2020-02-13 11:35
http://www.hotnewdeal.com/2020/02/13/332025_1TB_Western_Digital_WD_BLACK_SN750_13499/20%Monthly2020-02-13 11:08
http://www.hotnewdeal.com/2020/02/13/332024_WD__Easystore_10TB_External_USB_30_Hard_Drive__/20%Monthly2020-02-13 10:46
http://www.hotnewdeal.com/2020/02/13/332023_Bose_SoundLink_AroundEar_Wireless_Headphones_II_O/20%Monthly2020-02-13 10:46
http://www.hotnewdeal.com/2020/02/13/332022_CyberPower_SL700U_Standby_Series_UPS_55_BH/20%Monthly2020-02-13 10:46
http://www.hotnewdeal.com/2020/02/13/332021_Imazing_Portable_Car_Battery_Jump_Starter__2500A_/20%Monthly2020-02-13 10:31
http://www.hotnewdeal.com/2020/02/13/332020_Get_5_HDX_Vudu_movies_from_a_list_after_buying_1_G/20%Monthly2020-02-13 10:22
http://www.hotnewdeal.com/2020/02/13/332019_HDX_50_ft_163_LightDuty_IndoorOutdoor_Extensio/20%Monthly2020-02-13 10:16
http://www.hotnewdeal.com/2020/02/13/332018_TP_Link_Smart_Dimmer_Switch_2pack_4999/20%Monthly2020-02-13 10:16
http://www.hotnewdeal.com/2020/02/13/332017_LENOVO_C530_NVIDIA_GTX_1660_TI_I59400_8GB_DDR4/20%Monthly2020-02-13 09:55
http://www.hotnewdeal.com/2020/02/13/332016_Whitmor_6Section_Deluxe_Cube_Organizer_with_3_Fab/20%Monthly2020-02-13 09:55
http://www.hotnewdeal.com/2020/02/13/332015_Epic_Games_Kingdom_Come_Deliverance__Aztez_PC_D/20%Monthly2020-02-13 09:38
http://www.hotnewdeal.com/2020/02/13/332014_Hugo_Sidekick_SideFolding_Rollator_Rolling_Walker/20%Monthly2020-02-13 09:07
http://www.hotnewdeal.com/2020/02/13/332013_AMD_RYZEN_3_3200G_APU___Microsoft_Office_Home_an/20%Monthly2020-02-13 08:54
http://www.hotnewdeal.com/2020/02/13/332012_LEGO_Star_Wars_Kessel_Run_Millennium_Falcon__119/20%Monthly2020-02-13 08:54
http://www.hotnewdeal.com/2020/02/13/332011_3Ct_135oz_Nivea_All_Purpose_Moisturizing_Cream_/20%Monthly2020-02-13 08:46
http://www.hotnewdeal.com/2020/02/13/332010_ATT_Thanks_Customers_Fandango_BOGO_offerpromo_co/20%Monthly2020-02-13 08:30
http://www.hotnewdeal.com/2020/02/13/332009_Fruit_of_the_Loom_Mens_Classic_Midweight_Waffle_T/20%Monthly2020-02-13 08:06
http://www.hotnewdeal.com/2020/02/13/332008_Jersey_Mikes__Buy_one_regular_sub_at_menu_price/20%Monthly2020-02-13 08:06
http://www.hotnewdeal.com/2020/02/13/332007_Westinghouse_58_4K_HDR_Roku_TV__27999_with_F/20%Monthly2020-02-13 07:55
http://www.hotnewdeal.com/2020/02/13/332005_Girard_Perregaux_1966_Dual_Time_Automatic_Mens_Wa/20%Monthly2020-02-13 07:52
http://www.hotnewdeal.com/2020/02/13/332004_Samurai_Shodown_PreOwned_PS4_or_Xbox_One_8__/20%Monthly2020-02-13 07:38
http://www.hotnewdeal.com/2020/02/13/332003_Craftsman_14_pc_Tap_Set_Metric__Sears_9_w_free/20%Monthly2020-02-13 07:38
http://www.hotnewdeal.com/2020/02/13/332002_3_Bees__Me_Complete_Bracelet_Making_Kit_for_Girls/20%Monthly2020-02-13 06:55
http://www.hotnewdeal.com/2020/02/13/332001_Motile_Ryzen_5_Refurbished_281/20%Monthly2020-02-13 06:38
http://www.hotnewdeal.com/2020/02/13/332000_Sonic_Mania__FREE_Weekend_for_Gold_Members_or_o/20%Monthly2020-02-13 06:09
http://www.hotnewdeal.com/2020/02/13/331999_Atom_Tickets_Birds_of_PreyFive_Movie_Tickets_for/20%Monthly2020-02-13 05:25
http://www.hotnewdeal.com/2020/02/13/331998_Google_Pixel_4_at_Costco_Instore_only__Tmobil/20%Monthly2020-02-13 04:09
http://www.hotnewdeal.com/2020/02/13/331997_Breville_the_Barista_Express_Espresso_Machine_BES/20%Monthly2020-02-13 03:26
http://www.hotnewdeal.com/2020/02/13/331996_Visible_TradeIn_Working_Android_Phone_Get_32GB_/20%Monthly2020-02-13 03:26
http://www.hotnewdeal.com/2020/02/13/331995_Ring_Floodlight_Cam_White_159/20%Monthly2020-02-13 02:56
http://www.hotnewdeal.com/2020/02/13/331994_Walmart_has_this_Netgear_Nighthawk_AC2100_R7200N/20%Monthly2020-02-13 02:55
http://www.hotnewdeal.com/2020/02/13/331993_56Count_Hefty_Slider_Freezer_Bags_Gallon_588_/20%Monthly2020-02-13 02:24
http://www.hotnewdeal.com/2020/02/13/331992_Revolutionaries_A_New_History_of_the_Invention_of/20%Monthly2020-02-13 02:09
http://www.hotnewdeal.com/2020/02/13/331991_Yankee_Candle_Macintosh__Large_2Wick_Tumbler_Can/20%Monthly2020-02-13 01:56
http://www.hotnewdeal.com/2020/02/13/331990_HDX_5000_Lumen_Portable_LED_Work_Light/20%Monthly2020-02-13 01:29
http://www.hotnewdeal.com/2020/02/13/331989_Nest_Secure_Alarm_System_with_Google_Nest_Cam_Indo/20%Monthly2020-02-13 01:24
http://www.hotnewdeal.com/2020/02/13/331988_6Pack_12Ounce_Bear_Naked_Granola_Triple_Berry_F/20%Monthly2020-02-13 01:09
http://www.hotnewdeal.com/2020/02/13/331986_Hollister_clearance_prices__buy_2_get_1_free_for/20%Monthly2020-02-13 01:09
http://www.hotnewdeal.com/2020/02/13/331985_Monopoly_Plus__Xbox_One_Digital_Code_449__Amaz/20%Monthly2020-02-13 01:09
http://www.hotnewdeal.com/2020/02/12/331984_8Pack_4oz_Dial_Gold_Antibacterial_Bar_Soap_2__F/20%Monthly2020-02-12 23:56
http://www.hotnewdeal.com/2020/02/12/331983_CardCash_Abercrombie_gift_cards_304_off/20%Monthly2020-02-12 23:56
http://www.hotnewdeal.com/2020/02/12/331982_Instant_Pot_Duo_Evo_Plus_6_qt_in_store_7199/20%Monthly2020-02-12 23:56
http://www.hotnewdeal.com/2020/02/12/331981_Vava_USB_C_10_in_1_Hub_899/20%Monthly2020-02-12 23:39
http://www.hotnewdeal.com/2020/02/12/331980_Husky_Pneumatic_2in1_18_Gauge_2_in_Brad_Nailer_/20%Monthly2020-02-12 23:39
http://www.hotnewdeal.com/2020/02/12/331979_Dewalt_40_ft_LithiumIon_Rechargeable_Pocket_Lase/20%Monthly2020-02-12 23:08
http://www.hotnewdeal.com/2020/02/12/331978_Starbucks_will_be_offering_Happy_Hour_Buy_1_Get_1_/20%Monthly2020-02-12 22:22
http://www.hotnewdeal.com/2020/02/12/331977_Mens_Shoes_adidas_3MC_Nubuck_Sneakers_grey_17/20%Monthly2020-02-12 22:16
http://www.hotnewdeal.com/2020/02/12/331976_Eufy_Security_WiFi_Video_Doorbell__10999_AC/20%Monthly2020-02-12 22:16
http://www.hotnewdeal.com/2020/02/12/331975_Sanus_Speaker_Stands_for_Sonos_Play1_2_pack_699/20%Monthly2020-02-12 22:07
http://www.hotnewdeal.com/2020/02/12/331974_Monolith_by_Monoprice_M15S_15_THX_Ultra_Certifie/20%Monthly2020-02-12 22:07
http://www.hotnewdeal.com/2020/02/12/331973_Jackson_Guitar_Sale_26_Guitars_329_to_749__fre/20%Monthly2020-02-12 21:56
http://www.hotnewdeal.com/2020/02/12/331972_1_Gallon_Spray_Nine_26801_Heavy_Duty_CleanerDegre/20%Monthly2020-02-12 21:24
http://www.hotnewdeal.com/2020/02/12/331971_GE_30Inch_4Burner_Gas_Cooktop_w_MAX_Burner_syst/20%Monthly2020-02-12 20:55
http://www.hotnewdeal.com/2020/02/12/331970_Decluttr_Certified_Refurbished_Iphone_8_64GB_for_/20%Monthly2020-02-12 20:46
http://www.hotnewdeal.com/2020/02/12/331969_Select_Lowes_InStore_Only_Commander_Commercial_3/20%Monthly2020-02-12 20:38
http://www.hotnewdeal.com/2020/02/12/331968_LG_Gram_Laptops_133_i58265U_8GB_256GB_699_1/20%Monthly2020-02-12 20:30
http://www.hotnewdeal.com/2020/02/12/331967_All_Publix_subs_on_sale_for_599_next_week/20%Monthly2020-02-12 20:06
http://www.hotnewdeal.com/2020/02/12/331966_Expedia__20_Off_Select_Activities_and_Things_To_/20%Monthly2020-02-12 20:06
http://www.hotnewdeal.com/2020/02/12/331965_Fluval_Biomax_Filter_Media_461/20%Monthly2020-02-12 19:52
http://www.hotnewdeal.com/2020/02/12/331964_Zombieland_Double_Tap_Digital_4K_UHD_10_at_iTu/20%Monthly2020-02-12 19:38
http://www.hotnewdeal.com/2020/02/12/331963_Adventure_Motorcycle_Gas_Can_5L13gal_with_Mounti/20%Monthly2020-02-12 19:07
http://www.hotnewdeal.com/2020/02/12/331962_Dell_Vostro_7590_156quot_i79750H_16GB_DDR4_/20%Monthly2020-02-12 18:54
http://www.hotnewdeal.com/2020/02/12/331961_Zevia_Zero_Calorie_Soda_Cola_1644_Grape_1596/20%Monthly2020-02-12 18:45
http://www.hotnewdeal.com/2020/02/12/331960_70_Samsung_4K_UHD_UN70NU6900_Ultra_HD_Smart_TV_5/20%Monthly2020-02-12 18:37
http://www.hotnewdeal.com/2020/02/12/331958_Nature_Made_120Ct_Super_BComplex_237_200Ct_/20%Monthly2020-02-12 18:07
http://www.hotnewdeal.com/2020/02/12/331957_Subway_599_ANY_Footlong_Coupon_good_through_216/20%Monthly2020-02-12 17:57
http://www.hotnewdeal.com/2020/02/12/331956_Summers_Eve_Summers_Eve_Blissful_Escape_Personal/20%Monthly2020-02-12 17:57
http://www.hotnewdeal.com/2020/02/12/331954_Husky_61_in_W_10Drawer_Tool_Chest_44800/20%Monthly2020-02-12 17:53
http://www.hotnewdeal.com/2020/02/12/331953_MIDOL__24ct_274_5__40ct_434_5_AC_wss/20%Monthly2020-02-12 17:39
http://www.hotnewdeal.com/2020/02/12/331952_Phanteks_Eclipse_P300A_High_Air_Flow_Mesh_Front_Te/20%Monthly2020-02-12 17:36
http://www.hotnewdeal.com/2020/02/12/331951_HP_z3700_wireless_mouse_silver_color/20%Monthly2020-02-12 17:25
http://www.hotnewdeal.com/2020/02/12/331950_Visible_iPhone_X_64GB_PreOwned_Very_Good__200_P/20%Monthly2020-02-12 17:09
http://www.hotnewdeal.com/2020/02/12/331949_4Pc_Disney_Pixar_Toy_Story_93_Figure_Adventure_/20%Monthly2020-02-12 17:09
http://www.hotnewdeal.com/2020/02/12/331948_Funko_Pop_Games_Summoners_War__Penguin_Knight_Co/20%Monthly2020-02-12 17:09
http://www.hotnewdeal.com/2020/02/12/331947_5Pound_Bag_300Count_YumEarth_Organic_Vitamin_C/20%Monthly2020-02-12 16:38
http://www.hotnewdeal.com/2020/02/12/331946_Hisense_171cu_ft_32_Counterdepth_BottomFreeze/20%Monthly2020-02-12 16:31
http://www.hotnewdeal.com/2020/02/12/331945_Clear_Case_for_Apple_Watch_Series_4_amp_5_44mm_/20%Monthly2020-02-12 16:07
http://www.hotnewdeal.com/2020/02/12/331944_Mongoose_Expo_Scooter_49_shipped/20%Monthly2020-02-12 15:56
http://www.hotnewdeal.com/2020/02/12/331943_Banana_Republic_Factory_Mens_Brushed_Travel_Jean/20%Monthly2020-02-12 15:56
http://www.hotnewdeal.com/2020/02/12/331942_Dell_S2716DGR_2560x1440_144Hz_GSync_Gaming_Monito/20%Monthly2020-02-12 15:39
http://www.hotnewdeal.com/2020/02/12/331941_Westone_W60_Gen_2_6_Driver_Earphones_399__free_s/20%Monthly2020-02-12 15:24
http://www.hotnewdeal.com/2020/02/12/331940_Mens_Wearhouse_Touchscreen_Technology_Leather_Glo/20%Monthly2020-02-12 15:20
http://www.hotnewdeal.com/2020/02/12/331939_Lays_Classic_Potato_Chips_1_Ounce_Pack_of_104_/20%Monthly2020-02-12 15:08
http://www.hotnewdeal.com/2020/02/12/331938_Coach_Outlet_Gallery_Tote_various_stylescolors/20%Monthly2020-02-12 15:08
http://www.hotnewdeal.com/2020/02/12/331937_Optoma_Refurb_Projectors_w_1_Yr_Ext_Warranty_HD2/20%Monthly2020-02-12 15:08
http://www.hotnewdeal.com/2020/02/12/331936_The_Complete_Calvin_and_Hobbes_Box_Set_6399/20%Monthly2020-02-12 14:55
http://www.hotnewdeal.com/2020/02/12/331935_Lowepro_Drone_Guard_Case_cs_200_1499__Amazon/20%Monthly2020-02-12 14:34
http://www.hotnewdeal.com/2020/02/12/331934_Snickers_100_Calories_Chocolate_Candy_Bar_076Oun/20%Monthly2020-02-12 14:31
http://www.hotnewdeal.com/2020/02/12/331933_Skip_Hop_Toddler_Backpack_Dinosaur_Unicorn_999/20%Monthly2020-02-12 14:31
http://www.hotnewdeal.com/2020/02/12/331932_Dell_Inspiron_15_3593_Laptop_156_1080p_Intel_i/20%Monthly2020-02-12 14:16
http://www.hotnewdeal.com/2020/02/12/331931_Multiple_Statues_On_Sale_At_Gamestop_797/20%Monthly2020-02-12 14:13
http://www.hotnewdeal.com/2020/02/12/331930_Hartz_Dura_Play_Bacon_Scented_Dog_Toy_Large_Ball/20%Monthly2020-02-12 14:07
http://www.hotnewdeal.com/2020/02/12/331929_75_LG_75UM7570PUD_4K_TV__275_Dell_eGC_999__f/20%Monthly2020-02-12 14:07
http://www.hotnewdeal.com/2020/02/12/331928_Catherine_Classic_PC_Digital_Download_679_via_/20%Monthly2020-02-12 14:07
http://www.hotnewdeal.com/2020/02/12/331927_Sharp_58_Class_LED_2160p_Smart_4K_UHD_TV_with_HDR/20%Monthly2020-02-12 14:03
http://www.hotnewdeal.com/2020/02/12/331926_KY_True_Feel_845_oz__Premium_Silicone_Long_La/20%Monthly2020-02-12 13:56
http://www.hotnewdeal.com/2020/02/12/331924_AMD_Ryzen_7_2700X_8Core_37_GHz_43_GHz_Max_Boos/20%Monthly2020-02-12 13:56
http://www.hotnewdeal.com/2020/02/12/331923_55_TCL_55R615_6_Series_4K_UHD_HDR_Roku_Smart_HDTV/20%Monthly2020-02-12 13:24
http://www.hotnewdeal.com/2020/02/12/331922_KeySmart_Flex__Compact_Key_Holder_and_Keychain_Or/20%Monthly2020-02-12 13:24
http://www.hotnewdeal.com/2020/02/12/331921_Medal_of_Honor_Allied_Assault_War_Chest_249_/20%Monthly2020-02-12 13:24
http://www.hotnewdeal.com/2020/02/12/331920_Clarks_Mens_Dempsey_Top_Mahogany_Leather_54_/20%Monthly2020-02-12 13:21
http://www.hotnewdeal.com/2020/02/12/331919_Gymboree_Is_Back_25_Opening_Discount__Double_Poi/20%Monthly2020-02-12 13:08
http://www.hotnewdeal.com/2020/02/12/331918_Rubbermaid_2035896_7x7_Feet_Big_Max_Storage_Shed_w/20%Monthly2020-02-12 13:08
http://www.hotnewdeal.com/2020/02/12/331917_Shingle_clearance_at_Lowes_4050_off_1725_YMMV/20%Monthly2020-02-12 13:08
http://www.hotnewdeal.com/2020/02/12/331916_Pictionary_Game_9__free_shipping_w_Prime_or_on_/20%Monthly2020-02-12 12:38
http://www.hotnewdeal.com/2020/02/12/331915_Tom_and_Jerry_Volume_1_2_or_3_1953_Digital_SD/20%Monthly2020-02-12 12:38
http://www.hotnewdeal.com/2020/02/12/331914_RYOBI_18Volt_3Speed_12_in_Impact_Wrench_Kit_/20%Monthly2020-02-12 12:31
http://www.hotnewdeal.com/2020/02/12/331913_Crayola_48pk_Tropical_Sidewalk_Chalk_209_Free/20%Monthly2020-02-12 12:31
http://www.hotnewdeal.com/2020/02/12/331911_Samsonite_PLANO_Hard_Shell_Spinner_5520_Polycarb/20%Monthly2020-02-12 12:28
http://www.hotnewdeal.com/2020/02/12/331910_Martin_X_Series_LX_Little_Martin_Acoustic_Guitar_N/20%Monthly2020-02-12 12:07
http://www.hotnewdeal.com/2020/02/12/331909_Arlo_Pro_HD_720p_Security_Camera__Base_Station_D/20%Monthly2020-02-12 12:07
http://www.hotnewdeal.com/2020/02/12/331908_Arlo_Ultra_with_Free_Video_Doorbell_399__Free_Sh/20%Monthly2020-02-12 11:57
http://www.hotnewdeal.com/2020/02/12/331907_Gillette_Fusion_Manual_Mens_Razor_Blade_Refills_/20%Monthly2020-02-12 11:57
http://www.hotnewdeal.com/2020/02/12/331906_Aladdin_and_The_Lion_King_Retro_Editions_Nintendo/20%Monthly2020-02-12 11:57
http://www.hotnewdeal.com/2020/02/12/331905_Dewalt_DWMT75049_192piece_Mechanics_Tool_Set_for/20%Monthly2020-02-12 11:56
http://www.hotnewdeal.com/2020/02/12/331904_MuscleTech_Phase8_Whey_Protein_Powder_Blend_Susta/20%Monthly2020-02-12 11:53
http://www.hotnewdeal.com/2020/02/12/331903_Anker_PowerCore_Essential_20000_PD_USB_C_Portable_/20%Monthly2020-02-12 11:53
http://www.hotnewdeal.com/2020/02/12/331902_VALENTINES_DAY_10_Rebate_on_1001_on_Flowers_bo/20%Monthly2020-02-12 11:25
http://www.hotnewdeal.com/2020/02/12/331901_Meow_Mix_Savory_Morsels_Seafood_Favorites_Variety_/20%Monthly2020-02-12 11:25
http://www.hotnewdeal.com/2020/02/12/331900_YMMV_Greenworks_21Inch_40V_Self_Propelled_Mower_5/20%Monthly2020-02-12 11:25
http://www.hotnewdeal.com/2020/02/12/331899_Neewer_18_LED_Ring_Light_Kit_24G_Remote_Version_/20%Monthly2020-02-12 11:21
http://www.hotnewdeal.com/2020/02/12/331898_Ori_and_the_Blind_Forest_Definitive_Edition__4/20%Monthly2020-02-12 11:21
http://www.hotnewdeal.com/2020/02/12/331897_Nerf_Rival_Rechargeable_Battery_Pack_1188_at_Wal/20%Monthly2020-02-12 11:08
http://www.hotnewdeal.com/2020/02/12/331896_YMMV_Lowes_Butterball_XL_electric_fryer_clearance/20%Monthly2020-02-12 10:46
http://www.hotnewdeal.com/2020/02/12/331895_Bella_Storage_3pack_14qt_or_8pack_625qt_sto/20%Monthly2020-02-12 10:46
http://www.hotnewdeal.com/2020/02/12/331894_TMobile_Customers_0218_Free_Whopper_or_Impossib/20%Monthly2020-02-12 10:17
http://www.hotnewdeal.com/2020/02/12/331893_Rachael_Ray_Nutrish_Natural_Wet_Cat_Food_Variety_P/20%Monthly2020-02-12 10:07
http://www.hotnewdeal.com/2020/02/12/331892_Ace_Combat_7_Skies_Unknown_PC_Digital_Download_/20%Monthly2020-02-12 10:07
http://www.hotnewdeal.com/2020/02/12/331891_Quantum_Break_Xbox_One_4_YMMV_BM/20%Monthly2020-02-12 09:56
http://www.hotnewdeal.com/2020/02/12/331890_Arlo_Pro_2_1080p_Smart_Home_Security_Surveillance_/20%Monthly2020-02-12 09:24
http://www.hotnewdeal.com/2020/02/12/331889_Call_of_Duty_WWII_XB1PS4PC_1499_or_less_with/20%Monthly2020-02-12 08:43
http://www.hotnewdeal.com/2020/02/12/331888_Marmot_Trestles_30_Sleeping_Bag_Extra_Wide_5950/20%Monthly2020-02-12 08:38
http://www.hotnewdeal.com/2020/02/12/331887_Ymmv_Lodge_Cast_Iron_Logic_HibachiStyle_Grill_64/20%Monthly2020-02-12 07:57
http://www.hotnewdeal.com/2020/02/12/331886_Amex_offers__Spend_100_or_more_get_10_back_at_/20%Monthly2020-02-12 07:40
http://www.hotnewdeal.com/2020/02/12/331885_Snowpiercer_Digital_HDX_Film_499_via_VUDU/20%Monthly2020-02-12 07:24
http://www.hotnewdeal.com/2020/02/12/331884_40_off_at_Check_Out_at_Cole_Haan/20%Monthly2020-02-12 07:09
http://www.hotnewdeal.com/2020/02/12/331883_Nest_Secure_Alarm_System_for_250/20%Monthly2020-02-12 07:05
http://www.hotnewdeal.com/2020/02/12/331882_Microsoft_Xbox_One_S_1TB_All_Digital_Edition_Conso/20%Monthly2020-02-12 06:57
http://www.hotnewdeal.com/2020/02/12/331881_HOME_DEPOT_38_in_Drive_Socket_Wrench_Set_25Pie/20%Monthly2020-02-12 06:57
http://www.hotnewdeal.com/2020/02/12/331880_Dremel_33501_Plunge_Router_Attachment_at_Amazon_f/20%Monthly2020-02-12 06:27
http://www.hotnewdeal.com/2020/02/12/331879_YEMV_14_Husky38CompartmentRackwith6SmallPa/20%Monthly2020-02-12 05:57
http://www.hotnewdeal.com/2020/02/12/331878_HUSKY_HeavyDuty_Ratchet_TieDown_with_J_Hook_2_in/20%Monthly2020-02-12 05:27
http://www.hotnewdeal.com/2020/02/12/331875_12Pack_Pasta_Roni_Garlic__Olive_Oil_Vermicelli/20%Monthly2020-02-12 02:24
http://www.hotnewdeal.com/2020/02/12/331874_2Pack_OralB_Glide_3D_White_Whitening_plus_Scope_/20%Monthly2020-02-12 01:55
http://www.hotnewdeal.com/2020/02/12/331873_Pennzoil_Platinum_5W30_Full_Synthetic_Motor_Oil_/20%Monthly2020-02-12 01:25
http://www.hotnewdeal.com/2020/02/12/331871_Creality_Ender_3_Pro_3D_Printer_199__Woot/20%Monthly2020-02-12 01:10
http://www.hotnewdeal.com/2020/02/12/331870_Flood_Light_with_Smart_Camera_9999_at_Costco/20%Monthly2020-02-12 00:14
http://www.hotnewdeal.com/2020/02/11/331869_Disney_Buy_2_Get_1_Free_Select_Bluray_Movies_Th/20%Monthly2020-02-11 23:55
http://www.hotnewdeal.com/2020/02/11/331868_Members_Mark_Cheese_Sauce_Cheddar_106_Ounce_5/20%Monthly2020-02-11 23:38
http://www.hotnewdeal.com/2020/02/11/331867_Three_Ozzy_cds__766_shipped_via_Amazon/20%Monthly2020-02-11 23:38
http://www.hotnewdeal.com/2020/02/11/331866_Ashley_Furniture_Signature_Design_8_Innerspring_Q/20%Monthly2020-02-11 23:23
http://www.hotnewdeal.com/2020/02/11/331865_Childrens_Place_50_Off_Sitewide_Sale_Big_Girls/20%Monthly2020-02-11 23:23
http://www.hotnewdeal.com/2020/02/11/331864_AudioTechnica_ATHSR6BTBK_Bluetooth_OverEar_Head/20%Monthly2020-02-11 23:07
http://www.hotnewdeal.com/2020/02/11/331863_Dell_XPS_13_9380_4K_Touch_Laptop_i58265U_8GB_1/20%Monthly2020-02-11 22:22
http://www.hotnewdeal.com/2020/02/11/331862_PSI_Woodworking_LR1103_110Volt_Long_Ranger_Dust_/20%Monthly2020-02-11 22:16
http://www.hotnewdeal.com/2020/02/11/331860_HP_Spectre_x360_15t_4K_IPS_Touch_i710510U_16GB/20%Monthly2020-02-11 21:55
http://www.hotnewdeal.com/2020/02/11/331859_HDX_50_ft_163_LightDuty_IndoorOutdoor_Extensio/20%Monthly2020-02-11 21:38
http://www.hotnewdeal.com/2020/02/11/331858_DEWALT_Oscillating_Tool_Blade_for_Grout_Removal_F/20%Monthly2020-02-11 21:38
http://www.hotnewdeal.com/2020/02/11/331857_Honeywell_Home_RTH9585WF1004_WiFi_Smart_Color_The/20%Monthly2020-02-11 21:38
http://www.hotnewdeal.com/2020/02/11/331856_Lundberg_Wild_Blend_16_Ounce_Pack_of_6_Gourmet/20%Monthly2020-02-11 21:23
http://www.hotnewdeal.com/2020/02/11/331855_TEN_Romantic_movies_of_the_2000s_1999_Buy_on_Itu/20%Monthly2020-02-11 21:23
http://www.hotnewdeal.com/2020/02/11/331854_8_Bars_of_Kelloggs_NutriGrain_Soft_Baked_Breakf/20%Monthly2020-02-11 21:09
http://www.hotnewdeal.com/2020/02/11/331853_Monoprice_ZWave_Plus_Door_and_Window_Sensor_No_L/20%Monthly2020-02-11 20:57
http://www.hotnewdeal.com/2020/02/11/331852_Samsung_75_QLED_4K_Q70_with_Harmon_Kardon_Q60R_S/20%Monthly2020-02-11 20:43
http://www.hotnewdeal.com/2020/02/11/331851_Ring_Video_Doorbell_Pro_with_12_Months_Ring_Protec/20%Monthly2020-02-11 20:35
http://www.hotnewdeal.com/2020/02/11/331850_Lenovo_IdeaPad_330_156_FHD_i58300H_8GB_RAM_Gefo/20%Monthly2020-02-11 20:21
http://www.hotnewdeal.com/2020/02/11/331849_32_Degrees_Mens_or_Womens_Midweight_Cloudfill_Pu/20%Monthly2020-02-11 20:09
http://www.hotnewdeal.com/2020/02/11/331848_Black_Ops_4_PC/20%Monthly2020-02-11 20:08
http://www.hotnewdeal.com/2020/02/11/331847_Cooler_Master_CK552_Gaming_Mechanical_Keyboard_w_/20%Monthly2020-02-11 19:58
http://www.hotnewdeal.com/2020/02/11/331846_Fallout_Fusion_Core_Replica_997/20%Monthly2020-02-11 19:58
http://www.hotnewdeal.com/2020/02/11/331845_BenQ_Refurb_Monitors_24_GW2480_1080p_Eye_Care_7/20%Monthly2020-02-11 19:58
http://www.hotnewdeal.com/2020/02/11/331844_LEGO_Friends_Advent_Calendar_41382_Building_Kit_1/20%Monthly2020-02-11 19:39
http://www.hotnewdeal.com/2020/02/11/331843_CELLA_Shaving_cream_Soap__XL_GIANT_Size__One_Kil/20%Monthly2020-02-11 19:23
http://www.hotnewdeal.com/2020/02/11/331842_4_ft_16Watts_Linear_T8_LED_Tube_Light_Bulb_Shop_/20%Monthly2020-02-11 19:07
http://www.hotnewdeal.com/2020/02/11/331841_TCL_6Series_65R613_and_55R613_2018_models_499_/20%Monthly2020-02-11 19:07
http://www.hotnewdeal.com/2020/02/11/331840_Youre_the_Worst_The_Complete_Series_Bundle_Di/20%Monthly2020-02-11 19:07
http://www.hotnewdeal.com/2020/02/11/331839_Ember__10oz_Temperature_Controlled_Mug_2Pack/20%Monthly2020-02-11 18:31
http://www.hotnewdeal.com/2020/02/11/331838_Power_Rangers_Beast_Morphers_BeastX_Ultrazord_Tal/20%Monthly2020-02-11 18:19
http://www.hotnewdeal.com/2020/02/11/331836_2020_Cookbook_PIZZA_100_RECIPES_Pizza_Time_Lets/20%Monthly2020-02-11 17:59
http://www.hotnewdeal.com/2020/02/11/331835_Paw_Patrol_On_A_Roll__Nintendo_Switch__1999_A/20%Monthly2020-02-11 17:58
http://www.hotnewdeal.com/2020/02/11/331834_LG_32GK650FB_32_1440p_144Hz_monitor_W_Radeon_Fr/20%Monthly2020-02-11 17:58
http://www.hotnewdeal.com/2020/02/11/331833_Amazoncom_has_the_Large_Yankee_Candle_Apple_Pumpk/20%Monthly2020-02-11 17:41
http://www.hotnewdeal.com/2020/02/11/331832_1_Fl_Oz_Rimmel_Stay_Matte_Foundation_Fair_100_/20%Monthly2020-02-11 17:11
http://www.hotnewdeal.com/2020/02/11/331831_9Count_11_oz_Late_July_Snacks_Restaurant_Style_C/20%Monthly2020-02-11 17:11
http://www.hotnewdeal.com/2020/02/11/331830_Finishing_Touch_Flawless_Hair_Remover_Finishing_To/20%Monthly2020-02-11 16:57
http://www.hotnewdeal.com/2020/02/11/331829_Airtv2_AirtvMini__RCA_Antenna__5_on_Sling3Mont/20%Monthly2020-02-11 16:57
http://www.hotnewdeal.com/2020/02/11/331828_Samsung_Galaxy_S20S20S20_Ultra_5G_upto_200_inst/20%Monthly2020-02-11 16:49
http://www.hotnewdeal.com/2020/02/11/331827_New_Balance_680v6_Running_Shoes_2999__Free_Ship/20%Monthly2020-02-11 16:49
http://www.hotnewdeal.com/2020/02/11/331826_The_Rag_Company__Valentines_Day_BOGO_Sale_on_Mic/20%Monthly2020-02-11 16:49
http://www.hotnewdeal.com/2020/02/11/331825_5Minute_Mickey_Mouse_Stories_5Minute_Stories_/20%Monthly2020-02-11 16:37
http://www.hotnewdeal.com/2020/02/11/331824_9Quart_Igloo_Island_Breeze_Cooler_various_10_/20%Monthly2020-02-11 16:32
http://www.hotnewdeal.com/2020/02/11/331823_LG_34_Ultrawide_Curved_WQHD_IPS_Monitor_44999_/20%Monthly2020-02-11 16:28
http://www.hotnewdeal.com/2020/02/11/331822_OralB_Pro_3000_Smartseries_Electric_Toothbrush_wi/20%Monthly2020-02-11 16:23
http://www.hotnewdeal.com/2020/02/11/331821_Amazon_in_Stock_218_Morton_25_lb_of_Iodine_Free_/20%Monthly2020-02-11 16:19
http://www.hotnewdeal.com/2020/02/11/331820_Kobalt_Creeper_2239/20%Monthly2020-02-11 16:08
http://www.hotnewdeal.com/2020/02/11/331819_Grypmat_on_sale_50_off_or_more_at_napaonlinecom/20%Monthly2020-02-11 16:08
http://www.hotnewdeal.com/2020/02/11/331818_Lavazza_Caffe_Espresso_Ground_Coffee_8Ounce_Pac/20%Monthly2020-02-11 15:54
http://www.hotnewdeal.com/2020/02/11/331817_Reebok_Extra_40_off_Mens_and_Womens_Fusium_Run_/20%Monthly2020-02-11 15:54
http://www.hotnewdeal.com/2020/02/11/331816_refurb_Coupon__50_Off_Dell_Latitude_14_E7470_/20%Monthly2020-02-11 15:41
http://www.hotnewdeal.com/2020/02/11/331815_LEGO_Technic_Liebherr_R_9800_42100__Free_Shipp/20%Monthly2020-02-11 15:41
http://www.hotnewdeal.com/2020/02/11/331814_LG_65_Class__7_Series__4K_UHD_LED_LCD_TV_Model/20%Monthly2020-02-11 15:41
http://www.hotnewdeal.com/2020/02/11/331813_135oz_Dove_Mencare_Foaming_Body_Wash_Extra_Fre/20%Monthly2020-02-11 15:37
http://www.hotnewdeal.com/2020/02/11/331812_The_Outer_Worlds__2999__Epic_Games_Store_PC/20%Monthly2020-02-11 15:25
http://www.hotnewdeal.com/2020/02/11/331811_8Pack_1oz_Orchard_Valley_Harvest_Nuts__Fruit_He/20%Monthly2020-02-11 15:10
http://www.hotnewdeal.com/2020/02/11/331810_Rubios_Coastal_Gril__4_off_2_Entrees_7_off_3_/20%Monthly2020-02-11 15:10
http://www.hotnewdeal.com/2020/02/11/331809_RAVPower_60W_12A_6Port_Desktop_USB_Charging_Stati/20%Monthly2020-02-11 15:10
http://www.hotnewdeal.com/2020/02/11/331807_Ecotrition_Snak_Shak_Treat_Stuffer_as_low_as_57_p/20%Monthly2020-02-11 14:52
http://www.hotnewdeal.com/2020/02/11/331806_Humble_VR_Bundle_starting_from_1/20%Monthly2020-02-11 14:46
http://www.hotnewdeal.com/2020/02/11/331805_SVS_Presidents_Day_Outlet_Store_Sale_PB1000_and_ot/20%Monthly2020-02-11 14:35
http://www.hotnewdeal.com/2020/02/11/331804_Rigid_4_gal_WetDry_Vac_with_Car_Cleaning_Kit_49/20%Monthly2020-02-11 14:19
http://www.hotnewdeal.com/2020/02/11/331803_Purebites_Chicken_Breast__Duck_For_Cats_112Oz_/20%Monthly2020-02-11 14:14
http://www.hotnewdeal.com/2020/02/11/331802_AOC_Agon_AG352UCG6_35_Curved_Gaming_Monitor_1800/20%Monthly2020-02-11 14:09
http://www.hotnewdeal.com/2020/02/11/331801_Dell_Inspiron_15_5000_10th_Gen_Intel_i5_Processor/20%Monthly2020-02-11 14:09
http://www.hotnewdeal.com/2020/02/11/331800_BOGO_Canvas_Print/20%Monthly2020-02-11 14:09
http://www.hotnewdeal.com/2020/02/11/331799_Latitude_7390_Laptop_i58350U_8GB_256GB_SSD_13/20%Monthly2020-02-11 13:58
http://www.hotnewdeal.com/2020/02/11/331798_Logitech_M545_Wireless_Mouse_14__free_sh/20%Monthly2020-02-11 13:58
http://www.hotnewdeal.com/2020/02/11/331797_Google_Pixel_4__4_XL_Fabric_Cases_Just_Black_or_/20%Monthly2020-02-11 13:58
http://www.hotnewdeal.com/2020/02/11/331796_First_Alert_HOME1_Rechargeable_1038789_Home_Fire_/20%Monthly2020-02-11 13:58
http://www.hotnewdeal.com/2020/02/11/331795_Alaska_Airlines_Leap_Day_Buy_One_Get_One_Offer_Pa/20%Monthly2020-02-11 13:57
http://www.hotnewdeal.com/2020/02/11/331793_WiZ_72W_Equivalent_BR30_Colors_and_Tunable_White_W/20%Monthly2020-02-11 13:26
http://www.hotnewdeal.com/2020/02/11/331792_Ryobi_18v_miter_saw_P3650B__16283_AC__Direct_To/20%Monthly2020-02-11 13:26
http://www.hotnewdeal.com/2020/02/11/331791_Dell_Inspiron_15_5593_Laptop_Intel_Core_i71065G7/20%Monthly2020-02-11 13:26
http://www.hotnewdeal.com/2020/02/11/331790_Nintendo_Switch_Digital_Games_Child_of_Light_Ulti/20%Monthly2020-02-11 13:25
http://www.hotnewdeal.com/2020/02/11/331789_Tom_Clancys_Rainbow_Six_Siege_Deluxe_Edition__Xb/20%Monthly2020-02-11 13:25
http://www.hotnewdeal.com/2020/02/11/331788_Borderlands_3_PS4Xbox_One_25/20%Monthly2020-02-11 13:21
http://www.hotnewdeal.com/2020/02/11/331787_Alienware_m15_Laptop_1080p_144Hz_IPS_i79750H_1/20%Monthly2020-02-11 13:09
http://www.hotnewdeal.com/2020/02/11/331786_Star_Wars_Jedi_Fallen_Order_Deluxe_Edition_Xbox_/20%Monthly2020-02-11 13:05
http://www.hotnewdeal.com/2020/02/11/331785_Lenovo_Thinkvision_P27h10__27_1440p_USBC_Monit/20%Monthly2020-02-11 13:05
http://www.hotnewdeal.com/2020/02/11/331784_Pelican_1500_1504_Case_w_Padded_Dividers_90_/20%Monthly2020-02-11 12:56
http://www.hotnewdeal.com/2020/02/11/331783_Corsair_RMx_Series_RM750x_750_Watt_Modular_PSU_Re/20%Monthly2020-02-11 12:56
http://www.hotnewdeal.com/2020/02/11/331782_Sterilite_30Gallon_Tote_Box_Gray_350_YMMV/20%Monthly2020-02-11 12:39
http://www.hotnewdeal.com/2020/02/11/331781_Overwatch_Legendary_Edition_Holiday_Bundle__Xbox_/20%Monthly2020-02-11 12:32
http://www.hotnewdeal.com/2020/02/11/331780_Atlanta_Seasons_12_Bundle_Digital_HDX_499__/20%Monthly2020-02-11 12:32
http://www.hotnewdeal.com/2020/02/11/331779_YMMV_Anker_Soundcore_Liberty_2_Pro_99_AC/20%Monthly2020-02-11 12:32
http://www.hotnewdeal.com/2020/02/11/331778_Tom_Clancys_The_Division_2_Standard_Edition_now_a/20%Monthly2020-02-11 12:32
http://www.hotnewdeal.com/2020/02/11/331777_Sarah_Jessica_Parker_Lovely_Eau_De_Parfum_Perfume/20%Monthly2020-02-11 12:32
http://www.hotnewdeal.com/2020/02/11/331776_YMMV_Makita_Brushless_18V_LXT_Impact_Driver_XDT13_/20%Monthly2020-02-11 12:31
http://www.hotnewdeal.com/2020/02/11/331775_The_Bong_JoonHo_3Film_Collection_Digital_HD_T/20%Monthly2020-02-11 12:07
http://www.hotnewdeal.com/2020/02/11/331774_4Pack_Riedel_Bravissimo_Drinkware_various_999/20%Monthly2020-02-11 12:07
http://www.hotnewdeal.com/2020/02/11/331773_30925_DEWALT_DCH293R2_20V_Max_XR_Brushless_118/20%Monthly2020-02-11 11:57
http://www.hotnewdeal.com/2020/02/11/331772_Johnson_Level_16_x_24_Aluminum_Framing_Square_F/20%Monthly2020-02-11 11:39
http://www.hotnewdeal.com/2020/02/11/331771_Ridgid_Jobmax_Oscillation_Multi_Tool_3999_Certi/20%Monthly2020-02-11 11:25
http://www.hotnewdeal.com/2020/02/11/331770_Regal_25_Gift_Card_Email_Delivery_Newegg_20/20%Monthly2020-02-11 11:24
http://www.hotnewdeal.com/2020/02/11/331768_Makita_WT02Z_38_Impact_Wrench_TOOL_ONLY__49/20%Monthly2020-02-11 11:24
http://www.hotnewdeal.com/2020/02/11/331767_The_Vincent_Price_Collection_II_7Movie_Collection/20%Monthly2020-02-11 11:11
http://www.hotnewdeal.com/2020/02/11/331766_Coast_HP450_LED_flashlight_1400_lumen_1487_at_Ho/20%Monthly2020-02-11 11:11
http://www.hotnewdeal.com/2020/02/11/331765_48Pack_AmazonBasics_AA_Alkaline_Batteries_974_w/20%Monthly2020-02-11 10:38
http://www.hotnewdeal.com/2020/02/11/331764_Craftsman_75_pc_Combination_Tap__Die_Carbon_Stee/20%Monthly2020-02-11 10:07
http://www.hotnewdeal.com/2020/02/11/331763_Anker_Soundcore_Life_Q10_Bluetooth_Headphones_Aux/20%Monthly2020-02-11 09:57
http://www.hotnewdeal.com/2020/02/11/331762_Five_Pack_PC_Digital_Download_Bundles_LEGO_Batman/20%Monthly2020-02-11 09:40
http://www.hotnewdeal.com/2020/02/11/331761_COSTCO_ARLO_Solar_VMA4600_Bundle_2pack_COSTCO_/20%Monthly2020-02-11 09:40
http://www.hotnewdeal.com/2020/02/11/331760_Face_Wash_by_Olay_Age_Defying_Classic_Facial_Clean/20%Monthly2020-02-11 09:40
http://www.hotnewdeal.com/2020/02/11/331759_Kohls_Cardholders_So_Juniors_Puffer_Vest_vario/20%Monthly2020-02-11 09:40
http://www.hotnewdeal.com/2020/02/11/331758_Oreo_Chocolate_Sandwich_Cookies__72_Snack_Packs_/20%Monthly2020-02-11 09:25
http://www.hotnewdeal.com/2020/02/11/331757_The_Evil_Within_2__399__CDKeys_PC__Steam_key/20%Monthly2020-02-11 09:25
http://www.hotnewdeal.com/2020/02/11/331756_Hot_Wheels_Speedster_Go_Kart_Ride_On__Red_at_Walm/20%Monthly2020-02-11 09:25
http://www.hotnewdeal.com/2020/02/11/331755_Arcade1UP_Space_Invaders_Arcade_Machine_14999_/20%Monthly2020-02-11 09:24
http://www.hotnewdeal.com/2020/02/11/331754_Sunvalley_Brands_via_Amazon_HooToo_USBC_Hub_Sil/20%Monthly2020-02-11 09:24
http://www.hotnewdeal.com/2020/02/11/331753_Whole_Life_Pet_Pure_Turkey_FreezeDried_Cat_Treats/20%Monthly2020-02-11 09:08
http://www.hotnewdeal.com/2020/02/11/331752_ASUS_ROG_Strix_Radeon_RX_570_O4G_Video_Card_3_mon/20%Monthly2020-02-11 08:56
http://www.hotnewdeal.com/2020/02/11/331751_World_of_Hyatt_Bonus_Journey_2x_Bonus_Points_By_Ma/20%Monthly2020-02-11 08:56
http://www.hotnewdeal.com/2020/02/11/331750_Dungeons__Dragons_Core_Rulebooks_Gift_Set_Specia/20%Monthly2020-02-11 08:52
http://www.hotnewdeal.com/2020/02/11/331749_ebay_10_off_select_accounts/20%Monthly2020-02-11 08:42
http://www.hotnewdeal.com/2020/02/11/331748_Acer_32_Class_WQHD_IPS_FreeSync_1440p_75hz_4ms_1/20%Monthly2020-02-11 08:42
http://www.hotnewdeal.com/2020/02/11/331747_Whirlpool_48_cu_ft_HE_Top_Load_Washer_or_74_cu/20%Monthly2020-02-11 08:08
http://www.hotnewdeal.com/2020/02/11/331746_JBL_E35_Wired_OnEar_Headphones_1495__Free_Ship/20%Monthly2020-02-11 08:08
http://www.hotnewdeal.com/2020/02/11/331745_Instant_Pot__Viva_6_Quart_9in1_MultiUse_Pressu/20%Monthly2020-02-11 07:57
http://www.hotnewdeal.com/2020/02/11/331744_Galanz_76_cuft_Retro_Mini_Refrigerator_with_Dua/20%Monthly2020-02-11 07:57
http://www.hotnewdeal.com/2020/02/11/331743_Hanes_Ultimate_Mens_7Pack_Sport_Brief_981_ship/20%Monthly2020-02-11 07:57
http://www.hotnewdeal.com/2020/02/11/331742_4TB_Seagate_Backup_Plus_USB_30_Portable_Hard_Driv/20%Monthly2020-02-11 07:57
http://www.hotnewdeal.com/2020/02/11/331741_Dell_Inspiron_3585_Laptop_156_Screen_AMD_Ryze/20%Monthly2020-02-11 07:40
http://www.hotnewdeal.com/2020/02/11/331740_Sony_WF1000XM3_Bluetooth_Wireless_InEar_True_Ear/20%Monthly2020-02-11 07:40
http://www.hotnewdeal.com/2020/02/11/331739_Anker_USB_C_60W_PIQ_30__GaN_Tech_Dual_Port_Charg/20%Monthly2020-02-11 06:36
http://www.hotnewdeal.com/2020/02/11/331738_Disney_Digital_HD_Films_Mary_Poppins_1964_Beau/20%Monthly2020-02-11 06:27
http://www.hotnewdeal.com/2020/02/11/331737_NordVPN_BDay_Offer_3Year_Deal_At_70_OFF_and_Ge/20%Monthly2020-02-11 05:56
http://www.hotnewdeal.com/2020/02/11/331736_Meguiars_G12718_NXT_Generation_Tech_Wax_20_18_f/20%Monthly2020-02-11 05:56
http://www.hotnewdeal.com/2020/02/11/331735_Glad_Tall_Kitchen_Drawstring_Trash_Bags__OdorShie/20%Monthly2020-02-11 05:39
http://www.hotnewdeal.com/2020/02/11/331734_HP_Spectre_x360_131080P_IPS_Touch_i71065G7_512/20%Monthly2020-02-11 03:39
http://www.hotnewdeal.com/2020/02/11/331733_USB_Wall_Charger_RAVPower_61W_Type_C_PD_30_Power/20%Monthly2020-02-11 02:57
http://www.hotnewdeal.com/2020/02/11/331732_Suptek_Aluminum_Tablet_Desk_Stand_360_Flexible_C/20%Monthly2020-02-11 02:28
http://www.hotnewdeal.com/2020/02/11/331731_Staples_15_off_60_coupon_online_only__Expire/20%Monthly2020-02-11 02:05
http://www.hotnewdeal.com/2020/02/11/331730_Poltergeist_Bluray_666__Amazon/20%Monthly2020-02-11 01:57
http://www.hotnewdeal.com/2020/02/11/331729_274_Lenovo_ThinkBook_13sIWL_133_Notebook__19/20%Monthly2020-02-11 01:11
http://www.hotnewdeal.com/2020/02/10/331728_HP_Pavilion_15Z_156_FHD_IPS_Touch_Ryzen_7_370/20%Monthly2020-02-10 23:57
http://www.hotnewdeal.com/2020/02/10/331727_Yale_Assure_Smart_Lock_connected_by_August__Costc/20%Monthly2020-02-10 23:57
http://www.hotnewdeal.com/2020/02/10/331726_Blue_Buffalo_Wilderness_Grain_Free_SoftMoist_Cat_/20%Monthly2020-02-10 23:40
http://www.hotnewdeal.com/2020/02/10/331725_Chipotle_Guac_Mode__More_benefits_free_guac_in_F/20%Monthly2020-02-10 23:25
http://www.hotnewdeal.com/2020/02/10/331724_Dell_SE2717H_27quot1920x1080_IPS_Monitor_BestBuy/20%Monthly2020-02-10 23:25
http://www.hotnewdeal.com/2020/02/10/331723_Eddie_Bauer_50_Off_Clearance_Big_Boys_or_Big_Gi/20%Monthly2020-02-10 23:09
http://www.hotnewdeal.com/2020/02/10/331722_Mint_Mobile_Cell_Phone_SIM_Card_Starter_Kit_099_/20%Monthly2020-02-10 22:48
http://www.hotnewdeal.com/2020/02/10/331721_YMMV_Stanley_10_Gallon_60_Peak_Horse_Power_Wet/20%Monthly2020-02-10 22:48
http://www.hotnewdeal.com/2020/02/10/331720_50_Grubhub_Gift_Card_40_Email_Delivery_or_50_/20%Monthly2020-02-10 22:40
http://www.hotnewdeal.com/2020/02/10/331719_Eddie_Bauer_Boys__Girls_Powder_Search_3In1_J/20%Monthly2020-02-10 22:40
http://www.hotnewdeal.com/2020/02/10/331718_Spirit_Riding_Free_Training_Arena_5/20%Monthly2020-02-10 22:33
http://www.hotnewdeal.com/2020/02/10/331717_Fanflix_Valentines_movie_sale_3_for_5_his_and_he/20%Monthly2020-02-10 22:24
http://www.hotnewdeal.com/2020/02/10/331716_Resident_Evil_2_Xbox_One_1979__Microsoft_Store/20%Monthly2020-02-10 22:17
http://www.hotnewdeal.com/2020/02/10/331715_STEAM_Weeklong_Deals_including_Euro_Truck_Simula/20%Monthly2020-02-10 22:17
http://www.hotnewdeal.com/2020/02/10/331714_Defiant_15_Amp_7Day_InWall_Digital_CFLLED_Compa/20%Monthly2020-02-10 22:17
http://www.hotnewdeal.com/2020/02/10/331713_Mango_Mobile_Unlimited_talk_text_and_data_intern/20%Monthly2020-02-10 22:17
http://www.hotnewdeal.com/2020/02/10/331712_WowWee_Pinkfong_Baby_Shark_Fingerlings__Baby_Shar/20%Monthly2020-02-10 22:08
http://www.hotnewdeal.com/2020/02/10/331711_JBL_Link_20_Portable_Waterproof_Bluetooth_Speakers/20%Monthly2020-02-10 21:57
http://www.hotnewdeal.com/2020/02/10/331710_Anker_PowerPort_Cube_USB_Power_Strip_with_3_Outlet/20%Monthly2020-02-10 21:57
http://www.hotnewdeal.com/2020/02/10/331709_Lenovo_20R9005TUS_Thinkbook_13s_W10p_I7_8gb_256gb_/20%Monthly2020-02-10 21:25
http://www.hotnewdeal.com/2020/02/10/331708_The_Outer_Worlds_PS4_30/20%Monthly2020-02-10 21:25
http://www.hotnewdeal.com/2020/02/10/331707_Duke_Nukem_3D_20th_Anniversary_World_Tour_PS4_Di/20%Monthly2020-02-10 21:25
http://www.hotnewdeal.com/2020/02/10/331706_7_Wonders_Babel_Expansion_1594__Amazon/20%Monthly2020-02-10 21:25
http://www.hotnewdeal.com/2020/02/10/331705_Eufy_Lumi_PlugIn_Night_Light_4Pack_997__FSS/20%Monthly2020-02-10 21:12
http://www.hotnewdeal.com/2020/02/10/331704_12_count_Duracell_Optimum_15V_Alkaline_AA_Batteri/20%Monthly2020-02-10 21:12
http://www.hotnewdeal.com/2020/02/10/331703_Aftershokz_Titanium_Wireless_Bone_Conduction_Headp/20%Monthly2020-02-10 20:57
http://www.hotnewdeal.com/2020/02/10/331702_Harper__Bright_Designs_Twin_Over_Twin_Metal_Bunk_/20%Monthly2020-02-10 20:39
http://www.hotnewdeal.com/2020/02/10/331701_Cat__Jack_Toddler_Boys_Tshirts_240_and_More_a/20%Monthly2020-02-10 20:34
http://www.hotnewdeal.com/2020/02/10/331700_JBL_Studio_SUB250_10_Powered_Subwoofer_14995__/20%Monthly2020-02-10 20:17
http://www.hotnewdeal.com/2020/02/10/331699_Xbox_One_Digital_Games_Ori_and_the_Blind_Forest_/20%Monthly2020-02-10 19:57
http://www.hotnewdeal.com/2020/02/10/331698_Spectrum_Internet_Ultra_400mbps20mbps_25mo__1/20%Monthly2020-02-10 19:57
http://www.hotnewdeal.com/2020/02/10/331697_My_Hero_Academia_Two_Heroes_BluRay__DVD__Digi/20%Monthly2020-02-10 19:53
http://www.hotnewdeal.com/2020/02/10/331696_25000mAh_Smart_Power_Bank_Free_After_20_Mail_in/20%Monthly2020-02-10 19:40
http://www.hotnewdeal.com/2020/02/10/331695_Ecco_Coupon_50_Off_Sale_Boots_Mens_Soft_7_Tred_/20%Monthly2020-02-10 19:40
http://www.hotnewdeal.com/2020/02/10/331694_Mainstays_1375_NonStick_Wok_576__Free_Store_/20%Monthly2020-02-10 19:36
http://www.hotnewdeal.com/2020/02/10/331692_refurb_Coupon__60_Off_Dell_Precision_3620_Wor/20%Monthly2020-02-10 19:24
http://www.hotnewdeal.com/2020/02/10/331691_Walmart__The_Allswell_10_Inch_Bed_in_a_Box_Hybrid/20%Monthly2020-02-10 19:24
http://www.hotnewdeal.com/2020/02/10/331690_Cowboy_Bebop_The_Complete_Series_BluRay_1799/20%Monthly2020-02-10 18:43
http://www.hotnewdeal.com/2020/02/10/331689_Crayola_Glitter_Dots_Sparkle_Signs_Craft_Kit_5__/20%Monthly2020-02-10 18:41
http://www.hotnewdeal.com/2020/02/10/331688_32Ounce_Granite_Gold_Squeeze_And_Mop_Floor_Cleane/20%Monthly2020-02-10 18:40
http://www.hotnewdeal.com/2020/02/10/331687_75Pack_1oz_Crayola_Model_Magic_Modeling_Compound/20%Monthly2020-02-10 18:09
http://www.hotnewdeal.com/2020/02/10/331685_Husky_18_in_Rubber_Bottom_Tool_Backpack_in_Red_YM/20%Monthly2020-02-10 17:42
http://www.hotnewdeal.com/2020/02/10/331684_Dell__27_LED_QHD_GSYNC_Monitor_S2716DGR__1440p/20%Monthly2020-02-10 17:42
http://www.hotnewdeal.com/2020/02/10/331683_BONE_Full_Color_One_Volume_Edition_Hardcover_6/20%Monthly2020-02-10 17:42
http://www.hotnewdeal.com/2020/02/10/331682_RIDGID_12_Volt_HYPER_LithiumIon_4_Ah_Battery_Pack/20%Monthly2020-02-10 17:26
http://www.hotnewdeal.com/2020/02/10/331681_17Oz_Nair_Hair_Remover_Bikini_Cream_Sensitive_F/20%Monthly2020-02-10 17:21
http://www.hotnewdeal.com/2020/02/10/331680_Kohls_Cardholders_16oz17oz_Candle_Essentials_Se/20%Monthly2020-02-10 17:10
http://www.hotnewdeal.com/2020/02/10/331679_Sony_85_Motionflow_XR_960_4K_HDR_Smart_HDTV__XBR/20%Monthly2020-02-10 17:10
http://www.hotnewdeal.com/2020/02/10/331678_12oz_Lavazza_Sinfonico_Whole_Bean_Coffee_Blend_D/20%Monthly2020-02-10 17:10
http://www.hotnewdeal.com/2020/02/10/331677_Clearance_Extended__Kobalt_Screwdrivers_20Piece_/20%Monthly2020-02-10 17:10
http://www.hotnewdeal.com/2020/02/10/331676_refurb_Coupon_50_Off_Dell_Precision_7510_Lapto/20%Monthly2020-02-10 16:45
http://www.hotnewdeal.com/2020/02/10/331675_Evangelion_111_You_Are_Not_Alone_BluRay_9/20%Monthly2020-02-10 16:37
http://www.hotnewdeal.com/2020/02/10/331674_Google__Pixel_3a__Just_Black_Verizon_19999_N/20%Monthly2020-02-10 16:22
http://www.hotnewdeal.com/2020/02/10/331673_iPad_Latest_Model_with_WiFi_and_32GB_250/20%Monthly2020-02-10 16:16
http://www.hotnewdeal.com/2020/02/10/331672_Crucial_BX500_2TB_3D_NAND_SATA_25Inch_Internal_S/20%Monthly2020-02-10 16:06
http://www.hotnewdeal.com/2020/02/10/331671_Plants_vs_Zombies_Battle_for_Neighborville_PS4_/20%Monthly2020-02-10 16:06
http://www.hotnewdeal.com/2020/02/10/331670_Quest_Bars_Maple_Waffle_12_pack_1537_with_10_co/20%Monthly2020-02-10 15:55
http://www.hotnewdeal.com/2020/02/10/331669_KitchenAid_KSM150_Artisan_Stand_Mixer_5_quart_Ma/20%Monthly2020-02-10 15:55
http://www.hotnewdeal.com/2020/02/10/331668_Quaker_State_5W30_Full_Synthetic_Motor_Oil_5_Qua/20%Monthly2020-02-10 15:39
http://www.hotnewdeal.com/2020/02/10/331667_AGM_and_Flooded_Batteries_25_off_and_40_rebate_a/20%Monthly2020-02-10 15:39
http://www.hotnewdeal.com/2020/02/10/331666_Reebok_Mens__Womens_Astroride_Soul_2_Shoes_or_/20%Monthly2020-02-10 15:39
http://www.hotnewdeal.com/2020/02/10/331665_Samsung_HWR60CZAR_31ch_Soundbar_Wireless_Subwoo/20%Monthly2020-02-10 15:07
http://www.hotnewdeal.com/2020/02/10/331664_6Count_437m_Glide_OralB_Dental_Floss_1324_w/20%Monthly2020-02-10 15:07
http://www.hotnewdeal.com/2020/02/10/331663_50_off_HR_Block_2019_Tax_SoftwareNewegg_Deluxe_/20%Monthly2020-02-10 15:07
http://www.hotnewdeal.com/2020/02/10/331662_Logitech_Pro_MultiDevice_WirelessBluetooth_Mouse/20%Monthly2020-02-10 14:54
http://www.hotnewdeal.com/2020/02/10/331661_AKG_K845BT_Bluetooth_Wireless_Over_Ear_Headphones_/20%Monthly2020-02-10 14:54
http://www.hotnewdeal.com/2020/02/10/331660_Totally_Bamboo_Lil_Surfer_Surfboard_Shaped_Bamboo/20%Monthly2020-02-10 14:45
http://www.hotnewdeal.com/2020/02/10/331659_Canine_Carry_Outs_Dog_Treats_048/20%Monthly2020-02-10 14:36
http://www.hotnewdeal.com/2020/02/10/331658_Yankee_Candle_Large_2Wick_Tumbler_Candle_Macinto/20%Monthly2020-02-10 14:22
http://www.hotnewdeal.com/2020/02/10/331657_Friday_The_13th_Game_Ultimate_Slasher_Edition__N/20%Monthly2020-02-10 14:15
http://www.hotnewdeal.com/2020/02/10/331656_Boston_Market_BOGO_individual_meals_with_drink_pur/20%Monthly2020-02-10 14:06
http://www.hotnewdeal.com/2020/02/10/331655_CORSAIR_K95_RGB_PLATINUM__Cherry_MX_Brown__RGB_L/20%Monthly2020-02-10 13:55
http://www.hotnewdeal.com/2020/02/10/331654_Super_Impulse_Tiny_Arcade_Game_Space_Invaders_Te/20%Monthly2020-02-10 13:55
http://www.hotnewdeal.com/2020/02/10/331653_Diablo_ATB_Framing_and_Ripping_Carbide_Circular_Sa/20%Monthly2020-02-10 13:54
http://www.hotnewdeal.com/2020/02/10/331652_Jabra_Elite_65t_True_Wireless_Earbuds_Refurbished/20%Monthly2020-02-10 13:54
http://www.hotnewdeal.com/2020/02/10/331651_Otterbox_Defender_Case__Holster_for_Samsung_Galax/20%Monthly2020-02-10 13:07
http://www.hotnewdeal.com/2020/02/10/331650_RAVPower_20000mAh_Portable_Charger_Solar_Power_Ban/20%Monthly2020-02-10 13:07
http://www.hotnewdeal.com/2020/02/10/331649_Kindle_Biography_eBook_Unbroken_A_World_War_II_S/20%Monthly2020-02-10 13:07
http://www.hotnewdeal.com/2020/02/10/331648_Betrayal_At_House_On_The_Hill_Board_Game_1966_Am/20%Monthly2020-02-10 13:06
http://www.hotnewdeal.com/2020/02/10/331647_Black__Decker_Power_N_Play_Workbench__Play_Toy_/20%Monthly2020-02-10 12:53
http://www.hotnewdeal.com/2020/02/10/331646_HERSHEYS_5_Pound_Candy_Assortment_Bulk_Chocolate/20%Monthly2020-02-10 12:53
http://www.hotnewdeal.com/2020/02/10/331645_Far_Cry_5__PC__UPlay_1199/20%Monthly2020-02-10 12:36
http://www.hotnewdeal.com/2020/02/10/331644_Land_O_Lakes_Canister_Hot_Cocoa_Mix_Salted_Carame/20%Monthly2020-02-10 12:36
http://www.hotnewdeal.com/2020/02/10/331643_MSI_GL73_9SD409_Gaming_laptop_173_FHD_IPS_i7/20%Monthly2020-02-10 12:29
http://www.hotnewdeal.com/2020/02/10/331642_Dell_Inspiron_2in1_14_TouchScreen_Chromebook_I/20%Monthly2020-02-10 12:14
http://www.hotnewdeal.com/2020/02/10/331641_Klipsch_R12SW_at_Costco_for_180/20%Monthly2020-02-10 12:08
http://www.hotnewdeal.com/2020/02/10/331640_4Count_16oz_Crest_3D_Diamond_Strong_Mouthwash_1/20%Monthly2020-02-10 12:08
http://www.hotnewdeal.com/2020/02/10/331639_Benchmade_Grizzly_Ridge_7995/20%Monthly2020-02-10 12:08
http://www.hotnewdeal.com/2020/02/10/331638_The_Rolling_Stones__From_The_Vault_Hampton_Coles/20%Monthly2020-02-10 11:57
http://www.hotnewdeal.com/2020/02/10/331637_Brother_HLL2390DW_Wireless_Monochrome_AllInOne_/20%Monthly2020-02-10 11:57
http://www.hotnewdeal.com/2020/02/10/331636_Whole_Foods_Market_Prime_Members_24Stem_Rose_B/20%Monthly2020-02-10 11:40
http://www.hotnewdeal.com/2020/02/10/331635_Just_For_Men_Control_GX_Grey_Reducing_2_in_1_Shamp/20%Monthly2020-02-10 11:40
http://www.hotnewdeal.com/2020/02/10/331634_Monoprice_Certified_Premium_HDMI_Cable__Black__6/20%Monthly2020-02-10 10:53
http://www.hotnewdeal.com/2020/02/10/331633_4Piece_Wendy_Bellissimo_Walk_With_Me_Crib_Set_21/20%Monthly2020-02-10 10:53
http://www.hotnewdeal.com/2020/02/10/331631_Anker_Soundcore_Life_P2_True_Wireless_Earbuds_with/20%Monthly2020-02-10 10:22
http://www.hotnewdeal.com/2020/02/10/331630_Doctor_Who_The_Complete_David_Tennant_Collection_/20%Monthly2020-02-10 10:18
http://www.hotnewdeal.com/2020/02/10/331629_Cuisinart_Custom_14_Food_Processor_RED_13795__t/20%Monthly2020-02-10 10:08
http://www.hotnewdeal.com/2020/02/10/331628_75_LG_UM6970PUB_Series_4K_Ultra_HD_HDR_Smart_TV_/20%Monthly2020-02-10 09:54
http://www.hotnewdeal.com/2020/02/10/331627_My_Hero_Academia_Season_14_Digital_HD_Anime_TV_/20%Monthly2020-02-10 09:54
http://www.hotnewdeal.com/2020/02/10/331626_Smart_Door_Locks_Schlage_Century_Connect_Smart_Lo/20%Monthly2020-02-10 09:54
http://www.hotnewdeal.com/2020/02/10/331625_ORCHARD_VALLEY_HARVEST_Heart_Healthy_Blend_1_oz_/20%Monthly2020-02-10 09:40
http://www.hotnewdeal.com/2020/02/10/331624_WD_2TB_My_Passport_External_Hard_Drive_58_on_Amaz/20%Monthly2020-02-10 09:40
http://www.hotnewdeal.com/2020/02/10/331623_Earn_5_eBay_Bucks_No_minimum_spend_Expires_Feb/20%Monthly2020-02-10 08:39
http://www.hotnewdeal.com/2020/02/10/331622_OralB_8000_Electronic_Toothbrush_White_Powered_/20%Monthly2020-02-10 07:57
http://www.hotnewdeal.com/2020/02/10/331621_Science_Channel__Last_Days_of_Pompeii_HD_Digital/20%Monthly2020-02-10 07:57
http://www.hotnewdeal.com/2020/02/10/331620_100Oz_Tide_HE_Liquid_Laundry_Detergent_Free__Ge/20%Monthly2020-02-10 07:25
http://www.hotnewdeal.com/2020/02/10/331619_HP_X360_2in1_13_i7_10th_Gen8GB512SSD1080p_899/20%Monthly2020-02-10 07:22
http://www.hotnewdeal.com/2020/02/10/331618_Masterbuilt_Smoke_Hollow_20_Pellet_Grill_14999_/20%Monthly2020-02-10 07:09
http://www.hotnewdeal.com/2020/02/10/331617_1199_normally_2999_Transformers_BotBots_Arca/20%Monthly2020-02-10 07:05
http://www.hotnewdeal.com/2020/02/10/331616_Husky_Magnetic_Screwdriver_Set_18Piece__1400_Y/20%Monthly2020-02-10 06:57
http://www.hotnewdeal.com/2020/02/10/331615_140Ct_Pampers_Easy_Ups_Potty_Training_Underwear_f/20%Monthly2020-02-10 06:29
http://www.hotnewdeal.com/2020/02/10/331614_Theyre_Back_Again_HDX_50_ft_163_LightDuty_Ind/20%Monthly2020-02-10 06:09
http://www.hotnewdeal.com/2020/02/10/331613_Titebond_III_Ultimate_Wood_Glue_2Pack_4084_FS/20%Monthly2020-02-10 05:29
http://www.hotnewdeal.com/2020/02/10/331612_Nintendo_Switch_Killer_Queen_Black_Preowned_8/20%Monthly2020-02-10 05:10
http://www.hotnewdeal.com/2020/02/10/331611_Victor_Vran_Overkill_Edition__Nintendo_Switch_Ph/20%Monthly2020-02-10 02:57
http://www.hotnewdeal.com/2020/02/10/331610_Now_Supplements_Calcium_Citrate_with_Vitamin_D_M/20%Monthly2020-02-10 02:40
http://www.hotnewdeal.com/2020/02/10/331609_Ferrero_Rocher_Fine_Hazelnut_Milk_Chocolates_24_C/20%Monthly2020-02-10 01:57
http://www.hotnewdeal.com/2020/02/10/331608_Zukes_Mini_Naturals_Peanut_Butter__Oats_Recipe_D/20%Monthly2020-02-10 01:27
http://www.hotnewdeal.com/2020/02/10/331607_CyberPower_CP1500PFCLCD_PFC_Sinewave_UPS_130_BH/20%Monthly2020-02-10 01:10
http://www.hotnewdeal.com/2020/02/10/331606_17oz_Glass_Sea_Salt_Scented_Candle_266ea_AC__in/20%Monthly2020-02-10 01:10
http://www.hotnewdeal.com/2020/02/10/331605_Everstart_roadside_kit__5_Walmart__YMMV/20%Monthly2020-02-10 01:10
http://www.hotnewdeal.com/2020/02/10/331604_Buffalo_NY_to_Myrtle_Beach_SC_or_Vice_Versa_157_R/20%Monthly2020-02-10 01:05
http://www.hotnewdeal.com/2020/02/09/331603_Costco_MacBook_Air_13_Latest_Model_Intel_Core_i5/20%Monthly2020-02-09 23:56
http://www.hotnewdeal.com/2020/02/09/331602_Samsung_Notebook_7_Spin_2in1_156quot_TouchSc/20%Monthly2020-02-09 23:53
http://www.hotnewdeal.com/2020/02/09/331600_Funko_Pop_Funkoverse_Strategy_Game_DC_100_Base_/20%Monthly2020-02-09 22:46
http://www.hotnewdeal.com/2020/02/09/331599_Milwaukee_M12_2pack_battery_combo_48112460S_i/20%Monthly2020-02-09 22:46
http://www.hotnewdeal.com/2020/02/09/331598_Microsoft_Xbox_One_S_1TB_All_Digital_Edition_3_Gam/20%Monthly2020-02-09 22:23
http://www.hotnewdeal.com/2020/02/09/331597_Harper__Bright_Design_White_Twin_over_Twin_Solid_/20%Monthly2020-02-09 22:07
http://www.hotnewdeal.com/2020/02/09/331596_FisherPrice_Imaginext_Toy_Story_Buzz_Lightyear__/20%Monthly2020-02-09 22:07
http://www.hotnewdeal.com/2020/02/09/331595_Revlon_Super_Lustrous_Lipstick_Love_That_Red_2/20%Monthly2020-02-09 21:56
http://www.hotnewdeal.com/2020/02/09/331594_Hanes_Coupon_Extra_20_Off_Mens_Womens__Kids/20%Monthly2020-02-09 21:39
http://www.hotnewdeal.com/2020/02/09/331593_12Count_16oz_Vega_Protein_Snack_Bars_Chocolate_/20%Monthly2020-02-09 21:35
http://www.hotnewdeal.com/2020/02/09/331592_RIDGID_R9205_Gen5X_Brushless_18V_Compact_Hammer_D/20%Monthly2020-02-09 21:07
http://www.hotnewdeal.com/2020/02/09/331591_Philips_Beard_Trimmer_with_Vacuum_2995/20%Monthly2020-02-09 20:54
http://www.hotnewdeal.com/2020/02/09/331590_OralB_Pulsar_3d_White_Advanced_Vivid_Soft_Toothbr/20%Monthly2020-02-09 20:37
http://www.hotnewdeal.com/2020/02/09/331589_Cat__Jack_Toddler_Girl_Leggings_2_Pajamas_320/20%Monthly2020-02-09 20:37
http://www.hotnewdeal.com/2020/02/09/331588_2_X_125oz_Garnier_Whole_Blends_Shampoo_or_Condit/20%Monthly2020-02-09 20:30
http://www.hotnewdeal.com/2020/02/09/331586_16Oz_Calgon_Ageless_Bath_Renewing_Bath_Pearls_2/20%Monthly2020-02-09 20:22
http://www.hotnewdeal.com/2020/02/09/331585_Spinbrush_Proclean_Battery_Powered_Toothbrush_29/20%Monthly2020-02-09 20:15
http://www.hotnewdeal.com/2020/02/09/331584_nexgrill_pizza_kit_640_compared_to_2999_YMMV/20%Monthly2020-02-09 20:15
http://www.hotnewdeal.com/2020/02/09/331583_Harry_Potter_and_the_Goblet_of_Fire_The_Illustrat/20%Monthly2020-02-09 19:55
http://www.hotnewdeal.com/2020/02/09/331582_Child_of_Light_Ultimate_Edition__Valiant_Hearts_/20%Monthly2020-02-09 19:55
http://www.hotnewdeal.com/2020/02/09/331581_Black_Forest_Gummy_Bears_6lb_Bag_789_wSS/20%Monthly2020-02-09 19:38
http://www.hotnewdeal.com/2020/02/09/331580_6Pack_King_Arthur_Flour_Gluten_Free_Pancake_Mix_/20%Monthly2020-02-09 19:23
http://www.hotnewdeal.com/2020/02/09/331579_20_off_already_reduced_prices_at_Appalachian_Outd/20%Monthly2020-02-09 18:54
http://www.hotnewdeal.com/2020/02/09/331578_Adobe_Photoshop_Elements_2020__Premiere_Elements_/20%Monthly2020-02-09 18:15
http://www.hotnewdeal.com/2020/02/09/331577_12Pack_Swedish_Fish_Mini_Tropical_Fat_Free_Candy_/20%Monthly2020-02-09 18:15
http://www.hotnewdeal.com/2020/02/09/331576_Kohls_Cardholders_18x30_Mohawk_Home_Doormats_/20%Monthly2020-02-09 17:55
http://www.hotnewdeal.com/2020/02/09/331574_Walgreens_vitamins_BOGO/20%Monthly2020-02-09 17:35
http://www.hotnewdeal.com/2020/02/09/331573_Open_Box_Sony_WHH900N_Hear_on_2_Wireless_OverEar/20%Monthly2020-02-09 17:23
http://www.hotnewdeal.com/2020/02/09/331572_4_Piece_Maytag_Kitchen_Appliances_Package_Stainle/20%Monthly2020-02-09 17:23
http://www.hotnewdeal.com/2020/02/09/331571_Amazon_Get_3_for_the_price_of_2_B2G1/20%Monthly2020-02-09 17:23
http://www.hotnewdeal.com/2020/02/09/331570_Stubbs_Sticky_Sweet_BarBQ_Sauce_18_oz_Pack_of/20%Monthly2020-02-09 17:07
http://www.hotnewdeal.com/2020/02/09/331569_Stride_Rite_Little_Girls_Willow_Boot_14_Shipped_/20%Monthly2020-02-09 17:07
http://www.hotnewdeal.com/2020/02/09/331568_Kohls_Cardholders_20x20_Disney_Critter_Pillows/20%Monthly2020-02-09 17:04
http://www.hotnewdeal.com/2020/02/09/331567_Monopoly_Game_Disney_Frozen_2_Edition_Board_Game/20%Monthly2020-02-09 16:22
http://www.hotnewdeal.com/2020/02/09/331566_Southwire_Compact_Bluetooth_Digital_600Volt_Cat_I/20%Monthly2020-02-09 15:55
http://www.hotnewdeal.com/2020/02/09/331565_30oz_PBfit_AllNatural_Organic_Peanut_Butter_Powde/20%Monthly2020-02-09 15:55
http://www.hotnewdeal.com/2020/02/09/331563_Volt_King_12Gauge_Cord_Reel_123_65ft__8999_F/20%Monthly2020-02-09 15:20
http://www.hotnewdeal.com/2020/02/09/331562_Bestbuy_HORI__Screen_Protector_for_Nintendo_Swit/20%Monthly2020-02-09 15:07
http://www.hotnewdeal.com/2020/02/09/331561_18Pack_of_12oz_Bubly_Sparkling_Water_various_fla/20%Monthly2020-02-09 14:46
http://www.hotnewdeal.com/2020/02/09/331560_7oz_Aveeno_Therapeutic_Shave_Gel_w_Oat_and_Vitami/20%Monthly2020-02-09 14:38
http://www.hotnewdeal.com/2020/02/09/331559_60Pack_25oz_Grandmas_Cookies_Chocolate_Chip__/20%Monthly2020-02-09 14:31
http://www.hotnewdeal.com/2020/02/09/331558_Hot_Wheels_Batman_Vs_Superman_Batmobile_Replica_ve/20%Monthly2020-02-09 14:16
http://www.hotnewdeal.com/2020/02/09/331556_Lowepro_DroneGuard_Pro_Inspired_Backpack_for_DJI_I/20%Monthly2020-02-09 14:03
http://www.hotnewdeal.com/2020/02/09/331555_Seattle_times_Sunday_and_Digital_28_52_weeks/20%Monthly2020-02-09 13:56
http://www.hotnewdeal.com/2020/02/09/331554_Shovel_Knight_Treasure_Trove_Nintendo_Switch_20/20%Monthly2020-02-09 13:39
http://www.hotnewdeal.com/2020/02/09/331553_Snowfall_Season_12_Bundle_Digital_HD_Vudu_999/20%Monthly2020-02-09 13:39
http://www.hotnewdeal.com/2020/02/09/331552_81Count_Tide_Pods_HE_Laundry_Detergent_Pacs_149/20%Monthly2020-02-09 13:38
http://www.hotnewdeal.com/2020/02/09/331551_Minneapolis_to_Honolulu_Oahu_Hawaii_or_Vice_Versa_/20%Monthly2020-02-09 13:24
http://www.hotnewdeal.com/2020/02/09/331550_Lenovo_IdeaCentre_Desktop_i59400F_16GB_DDR4_25/20%Monthly2020-02-09 13:24
http://www.hotnewdeal.com/2020/02/09/331549_Tracfone_583_Samsung_Galaxy_A10e_Smartphone_w_1/20%Monthly2020-02-09 13:24
http://www.hotnewdeal.com/2020/02/09/331548_PowerAdd_EnergyCell_10000mAh_powerback_for_299/20%Monthly2020-02-09 12:55
http://www.hotnewdeal.com/2020/02/09/331547_POWERADD_EnergyCell_10000_Compact_Portable_Charger/20%Monthly2020-02-09 12:55
http://www.hotnewdeal.com/2020/02/09/331546_Red_Dead_Redemption_2_PC__4019__CDKeys/20%Monthly2020-02-09 12:51
http://www.hotnewdeal.com/2020/02/09/331545_DOOM_2016__399__CDKeys_PC__Steam_key/20%Monthly2020-02-09 12:45
http://www.hotnewdeal.com/2020/02/09/331544_Panasonic_arc5_5Blade_WetDry_Shaver_9999_at_Am/20%Monthly2020-02-09 12:45
http://www.hotnewdeal.com/2020/02/09/331543_Hawaiin_Mastercard_60000_bonus_miles_spend_2k_in_/20%Monthly2020-02-09 12:37
http://www.hotnewdeal.com/2020/02/09/331542_Philips_Sonicare_replacement_toothbrush_head_3pac/20%Monthly2020-02-09 12:30
http://www.hotnewdeal.com/2020/02/09/331540_Philips_Avance_SmokeLess_Indoor_Infrared_Grill_8/20%Monthly2020-02-09 12:27
http://www.hotnewdeal.com/2020/02/09/331539_7NOW_App_FREE_Pizza_on_0209_in_Eligible_Delivery/20%Monthly2020-02-09 12:06
http://www.hotnewdeal.com/2020/02/09/331538_Ring_Alarm_14Piece_Home_Security_Kit__Echo_Dot_3/20%Monthly2020-02-09 12:06
http://www.hotnewdeal.com/2020/02/09/331537_Tom_Clancys_The_Division_2__PS4__Xbox_One_5_in/20%Monthly2020-02-09 12:06
http://www.hotnewdeal.com/2020/02/09/331536_Milwaukee_M12_FUEL_Bare_Tools_10_off_1_or_20_off/20%Monthly2020-02-09 12:06
http://www.hotnewdeal.com/2020/02/09/331535_Black_Wireless_50GB_4G_Data_per_Month__20_GB_Hots/20%Monthly2020-02-09 11:55
http://www.hotnewdeal.com/2020/02/09/331534_Lowes_Google_Nest_White_Thermostat_and_Room_Sensor/20%Monthly2020-02-09 11:55
http://www.hotnewdeal.com/2020/02/09/331533_Panasonic_Arc5_Electric_WetDry_Razor_100__Free_/20%Monthly2020-02-09 11:38
http://www.hotnewdeal.com/2020/02/09/331532_Columbia_Mens_PHG_Fleece_Jacket_1592/20%Monthly2020-02-09 11:38
http://www.hotnewdeal.com/2020/02/09/331531_Fujifilm_Instax_Mini_7s_Instant_Camera_with_10pac/20%Monthly2020-02-09 11:38
http://www.hotnewdeal.com/2020/02/09/331530_4Pack_48oz_Colgate_Total_Whitening_Toothpaste_Ge/20%Monthly2020-02-09 11:23
http://www.hotnewdeal.com/2020/02/09/331529_Target_Ravensburger_JAWS_Board_Game_1199/20%Monthly2020-02-09 11:22
http://www.hotnewdeal.com/2020/02/09/331527_Lowes_repost__Royal_Oak_154lb_now_lower_price/20%Monthly2020-02-09 11:07
http://www.hotnewdeal.com/2020/02/09/331526_RAVPower_PD_Pioneer_20100mAh_45W_2Port_Power_Ban/20%Monthly2020-02-09 11:07
http://www.hotnewdeal.com/2020/02/09/331525_OXO_Good_Grips_Silicone_Baking_Mat_7__Free_Shipp/20%Monthly2020-02-09 10:53
http://www.hotnewdeal.com/2020/02/09/331524_MSI_Radeon_RX_5700_XT_EVOKE_Video_Card_Newegg_35/20%Monthly2020-02-09 10:29
http://www.hotnewdeal.com/2020/02/09/331523_Simply_Vera_Wang_Signature_Envelope_Crossbody_Bag_/20%Monthly2020-02-09 10:14
http://www.hotnewdeal.com/2020/02/09/331522_Trine_4_PreOwned_PS4_or_Xbox_One_6__Free_Stor/20%Monthly2020-02-09 10:05
http://www.hotnewdeal.com/2020/02/09/331521_3Count_36oz_Similac_ProAdvance_NonGMO_Infant_Fo/20%Monthly2020-02-09 09:54
http://www.hotnewdeal.com/2020/02/09/331520_6_pack_Nissin_Very_Veggie_Ramen_Noodle_Soup_Chick/20%Monthly2020-02-09 09:54
http://www.hotnewdeal.com/2020/02/09/331519_Costco_Members_100_Apple_App_Store__iTunes_Gift/20%Monthly2020-02-09 09:54
http://www.hotnewdeal.com/2020/02/09/331518_1Month_EA_Access_Subscription_Xbox_One_Digital_C/20%Monthly2020-02-09 09:37
http://www.hotnewdeal.com/2020/02/09/331516_Kohls_Cardholders_11Piece_Magic_Bullet_Personal_/20%Monthly2020-02-09 09:22
http://www.hotnewdeal.com/2020/02/09/331515_Secret_Antiperspirant_and_Deodorant_for_Women_Pow/20%Monthly2020-02-09 09:22
http://www.hotnewdeal.com/2020/02/09/331514_Lowes_Gift_Card_15_Off_at_Dollar_General/20%Monthly2020-02-09 09:06
http://www.hotnewdeal.com/2020/02/09/331513_AfterShokz_wireless_open_ear_headphones_30/20%Monthly2020-02-09 09:06
http://www.hotnewdeal.com/2020/02/09/331512_Target_REDcard_Holders_Joker_4K_Ultra_HD__Blur/20%Monthly2020-02-09 09:06
http://www.hotnewdeal.com/2020/02/09/331511_Rockportcom__2_for_99_outlet_Styles__Free_2_Da/20%Monthly2020-02-09 08:44
http://www.hotnewdeal.com/2020/02/09/331510_40oz_Persil_ProClean_Liquid_Laundry_Detergent_3_/20%Monthly2020-02-09 07:54
http://www.hotnewdeal.com/2020/02/09/331509_12Pack_Arm__Hammer_Odor_Allergen__Pet_Dander_Co/20%Monthly2020-02-09 07:22
http://www.hotnewdeal.com/2020/02/09/331508_Kohls_Cardholders_Keurig_K10__K15_Personal_Coffe/20%Monthly2020-02-09 06:23
http://www.hotnewdeal.com/2020/02/09/331507_3_pack_Pepperidge_Farm_Milano_Cookies_Double_M/20%Monthly2020-02-09 05:54
http://www.hotnewdeal.com/2020/02/09/331506_Godiva_24Piece_Chocolates_in_Heart_Box_1499_at_/20%Monthly2020-02-09 05:52
http://www.hotnewdeal.com/2020/02/09/331505_Target_RedCard_Holders_10_off_your_instore_or_o/20%Monthly2020-02-09 04:24
http://www.hotnewdeal.com/2020/02/09/331503_Kohls_Cardholders_Disney_Jewelry_Minnie_Mouse_T/20%Monthly2020-02-09 02:54
http://www.hotnewdeal.com/2020/02/09/331502_26oz_Arm__Hammer_Ultramax_Antiperspirant_Deodora/20%Monthly2020-02-09 02:23
http://www.hotnewdeal.com/2020/02/09/331501_New_Surface_Books_1st_gen_starting_at_549_i58GB/20%Monthly2020-02-09 02:07
http://www.hotnewdeal.com/2020/02/09/331500_135oz_Nivea_All_Purpose_Cream_401_w_SS__Fre/20%Monthly2020-02-09 01:54
http://www.hotnewdeal.com/2020/02/09/331499_Outdoor_Research_Ascendant_hoody_85_off_3735__/20%Monthly2020-02-09 01:09
http://www.hotnewdeal.com/2020/02/09/331498_4_x_Suave_Max_Hold_Unscented_Hairspray_11_oz__5/20%Monthly2020-02-09 01:09
http://www.hotnewdeal.com/2020/02/09/331497_Castrol_EDGE_0W40_Euro_Full_Synthetic_Motor_Oil/20%Monthly2020-02-09 01:09
http://www.hotnewdeal.com/2020/02/09/331496_4_x_TRESemm_TRES_TWO_Hair_Spray_Extra_Hold_42_o/20%Monthly2020-02-09 01:09
http://www.hotnewdeal.com/2020/02/09/331495_YMMV__Wild_Soil_Almonds__Distinct_and_Superior_t/20%Monthly2020-02-09 01:09
http://www.hotnewdeal.com/2020/02/09/331493_Darkest_Hour_4K_Ultra_HD__Bluray__Digital_10/20%Monthly2020-02-09 01:09
http://www.hotnewdeal.com/2020/02/09/331492_18Count_065Oz_Dove_100Calorie_Milk_Chocolate_C/20%Monthly2020-02-09 00:14
http://www.hotnewdeal.com/2020/02/09/331491_The_Angry_Birds_Movie_Bluray__DVD__Digital_/20%Monthly2020-02-09 00:14
http://www.hotnewdeal.com/2020/02/09/331490_Nexus_BD1N_Stainless_Steel_65_Hollow_Edge_Nakiri_/20%Monthly2020-02-09 00:14
http://www.hotnewdeal.com/2020/02/08/331489_1800Flowers_Two_dozen_mixed_roses_with_vase_ship/20%Monthly2020-02-08 23:55
http://www.hotnewdeal.com/2020/02/08/331488_PREMIUM_125_cu_ft_Single_Door_Commercial_Refrige/20%Monthly2020-02-08 23:38
http://www.hotnewdeal.com/2020/02/08/331487_Casper_mattresses_on_sale_at_Costcocom__480_for/20%Monthly2020-02-08 23:23
http://www.hotnewdeal.com/2020/02/08/331486_KIDROBOT_Spongebob_Squarepants_8_Patrick_Star_Pl/20%Monthly2020-02-08 22:44
http://www.hotnewdeal.com/2020/02/08/331485_Levis_Stanton_HighTop_Sneakers_1999/20%Monthly2020-02-08 22:37
http://www.hotnewdeal.com/2020/02/08/331484_Ninja_Foodi_Cold__Hot_Blender_4798_Target_Clear/20%Monthly2020-02-08 22:22
http://www.hotnewdeal.com/2020/02/08/331483_HP_21KD_207_Monitor_LED_backlight_200_nits_1920x/20%Monthly2020-02-08 22:06
http://www.hotnewdeal.com/2020/02/08/331482_DAngelico_Deluxe_SS_w_StopBar_Tailpiece_Guitar/20%Monthly2020-02-08 21:23
http://www.hotnewdeal.com/2020/02/08/331481_Patagonia_Better_Sweater_14Zip__Mens__Womens/20%Monthly2020-02-08 20:54
http://www.hotnewdeal.com/2020/02/08/331480_3L_Lexol_All_Leather_Cleaner_1697__Free_Prime_S/20%Monthly2020-02-08 20:54
http://www.hotnewdeal.com/2020/02/08/331479_Microsoft_TF500001_Xbox_One_Wireless_Controller_W/20%Monthly2020-02-08 20:45
http://www.hotnewdeal.com/2020/02/08/331478_Kohls_Cardholders_7Pack_Boys__Girls_Toddler_/20%Monthly2020-02-08 20:15
http://www.hotnewdeal.com/2020/02/08/331477_home_depot_72_in_FoldOut_Wood_Workbench_YMMV_24/20%Monthly2020-02-08 19:55
http://www.hotnewdeal.com/2020/02/08/331476_Sceptre_65_34999/20%Monthly2020-02-08 19:52
http://www.hotnewdeal.com/2020/02/08/331474_50Count_Jobes_Organics_Vegetable__Tomato_Fertil/20%Monthly2020-02-08 19:35
http://www.hotnewdeal.com/2020/02/08/331473_Valentines_Day_Decor__Party_Supplies_60_Off_Re/20%Monthly2020-02-08 19:23
http://www.hotnewdeal.com/2020/02/08/331472_Sonicare_Toothbrush_Heads_Variety_3_pack_1349_or/20%Monthly2020-02-08 19:07
http://www.hotnewdeal.com/2020/02/08/331471_5Quart_Pennzoil_Platinum_10W30_Full_Synthetic_Mo/20%Monthly2020-02-08 18:51
http://www.hotnewdeal.com/2020/02/08/331470_Kohls_Cardholders_Up_to_80_Off_Easter_Decor__E/20%Monthly2020-02-08 18:45
http://www.hotnewdeal.com/2020/02/08/331469_Resident_Evil_2_Deluxe_Edition_PS4_23_Digital/20%Monthly2020-02-08 18:37
http://www.hotnewdeal.com/2020/02/08/331468_60Count_Sundown_Melatonin_Tablets_3_mg_212__/20%Monthly2020-02-08 18:30
http://www.hotnewdeal.com/2020/02/08/331467_3_x_50_Roll_Dewitt_Tree_Wrap_White_295__Fre/20%Monthly2020-02-08 18:06
http://www.hotnewdeal.com/2020/02/08/331466_90Count_Natrol_Melatonin_1mg_TimeRelease_Tablets/20%Monthly2020-02-08 18:06
http://www.hotnewdeal.com/2020/02/08/331464_Kohls_Cardholders_AeroGarden_Harvest_360_with_Gou/20%Monthly2020-02-08 17:38
http://www.hotnewdeal.com/2020/02/08/331463_Kobalt_300_Ft_Open_Reel_Fiberglass_Tape__YMMV_4/20%Monthly2020-02-08 17:23
http://www.hotnewdeal.com/2020/02/08/331462_9Piece_Chemical_Guys_Leather_Cleaner_and_Conditio/20%Monthly2020-02-08 17:07
http://www.hotnewdeal.com/2020/02/08/331461_12_count_KIND_Bars_Peanut_Butter__Strawberry_Gl/20%Monthly2020-02-08 16:54
http://www.hotnewdeal.com/2020/02/08/331460_Craftsman_37_piece_38_drive_impact_socket_set_48/20%Monthly2020-02-08 16:54
http://www.hotnewdeal.com/2020/02/08/331459_Yankee_Candle_Home_for_The_Holidays_Scented_Premiu/20%Monthly2020-02-08 16:51
http://www.hotnewdeal.com/2020/02/08/331458_DEWALT_20V_Brushless_Orbital_Sander_Tool_Only_DC/20%Monthly2020-02-08 16:37
http://www.hotnewdeal.com/2020/02/08/331457_Sony_E_70350mm_f4563_G_OSS_Lens_775_YMMV/20%Monthly2020-02-08 16:34
http://www.hotnewdeal.com/2020/02/08/331456_Bluray_double_feature_Hostel__Hostel_2_Bluray/20%Monthly2020-02-08 16:27
http://www.hotnewdeal.com/2020/02/08/331455_1_Lb_The_Original_Williams_Sonoma_Peppermint_Bark/20%Monthly2020-02-08 16:14
http://www.hotnewdeal.com/2020/02/08/331454_Milwaukee_M12_1000_lumen_LED_plus_free_M12_20Ah_B/20%Monthly2020-02-08 16:06
http://www.hotnewdeal.com/2020/02/08/331453_Skytech_Desktop_Ryzen_5_3600_GTX_1660_6G_500GB_/20%Monthly2020-02-08 16:06
http://www.hotnewdeal.com/2020/02/08/331452_12Ct_Schick_Xtreme_2_Sensitive_Disposable_Razors_/20%Monthly2020-02-08 15:55
http://www.hotnewdeal.com/2020/02/08/331451_Orgain_collagen_peptides_16oz_as_low_as_1249tax/20%Monthly2020-02-08 15:55
http://www.hotnewdeal.com/2020/02/08/331450_YMMV_Peets_Coffee_16_Count_various_flavor_pods_as/20%Monthly2020-02-08 15:38
http://www.hotnewdeal.com/2020/02/08/331449_The_Complete_Harvard_Classics_2020_Edition_Kindle/20%Monthly2020-02-08 15:38
http://www.hotnewdeal.com/2020/02/08/331448_Suicide_Squad_2016_4k_UHD_799_from_Google_Play/20%Monthly2020-02-08 15:35
http://www.hotnewdeal.com/2020/02/08/331447_Dewalt_20Compartment_Pro_Small_Parts_Organizer_2/20%Monthly2020-02-08 15:23
http://www.hotnewdeal.com/2020/02/08/331446_Armani_Exchange_Polarized_Matte_Transparent_Smoke_/20%Monthly2020-02-08 14:42
http://www.hotnewdeal.com/2020/02/08/331445_Baldurs_Gate_1_and_2_Enhanced_Edition_Xbox_One_o/20%Monthly2020-02-08 14:30
http://www.hotnewdeal.com/2020/02/08/331444_5Gal_Charlies_Soap_Indoor__Outdoor_Surface_Clea/20%Monthly2020-02-08 14:27
http://www.hotnewdeal.com/2020/02/08/331443_32oz_PlayDoh_Putty_Goldium_Gold_Putty_559__F/20%Monthly2020-02-08 14:15
http://www.hotnewdeal.com/2020/02/08/331442_Bitdefender_Total_Security__5_Devices__1_year_Su/20%Monthly2020-02-08 13:39
http://www.hotnewdeal.com/2020/02/08/331440_ACT_FAST_amazon_offer_MORTON_Table_Salt_Bulk_Salt/20%Monthly2020-02-08 13:24
http://www.hotnewdeal.com/2020/02/08/331439_Target_Suave_ShampooConditioner_28_oz_multipl/20%Monthly2020-02-08 13:08
http://www.hotnewdeal.com/2020/02/08/331438_Bandai_Gundam_Barbados_Alps_1100_No_Grade_22_FS_/20%Monthly2020-02-08 13:08
http://www.hotnewdeal.com/2020/02/08/331437_Anker_Wireless_Charger_Powerwave_Pad_Upgraded_10W/20%Monthly2020-02-08 13:08
http://www.hotnewdeal.com/2020/02/08/331436_2_X_Zarbees_Naturals_Baby_Cough_Syrup__Mucus_N/20%Monthly2020-02-08 12:38
http://www.hotnewdeal.com/2020/02/08/331435_New_England_Coffee_Chocolate_Cappuccino__Donut_Sh/20%Monthly2020-02-08 12:17
http://www.hotnewdeal.com/2020/02/08/331434_VIZIO_SB3651E6_36_51_SmartCast_Sound_Bar_System/20%Monthly2020-02-08 11:57
http://www.hotnewdeal.com/2020/02/08/331432_24Pack_Zwipes_Microfiber_Cleaning_Cloths_650_w/20%Monthly2020-02-08 11:57
http://www.hotnewdeal.com/2020/02/08/331431_Under_Armour__UA_40_Hustle_Backpack_3199__Fre/20%Monthly2020-02-08 11:57
http://www.hotnewdeal.com/2020/02/08/331430_Kate_Spade_Card_HolderWallet_19_Bow_Meets_Girl/20%Monthly2020-02-08 11:25
http://www.hotnewdeal.com/2020/02/08/331429_Womans_motorcycle_jacket_deal_of_the_day_28_80/20%Monthly2020-02-08 11:09
http://www.hotnewdeal.com/2020/02/08/331428_File_for_10_with_TaxAct_Federal_AND_State/20%Monthly2020-02-08 10:33
http://www.hotnewdeal.com/2020/02/08/331427_LEGO_BrickHeadz_Valentines_Puppy_40349_Walmart__/20%Monthly2020-02-08 10:24
http://www.hotnewdeal.com/2020/02/08/331426_135Oz_St_Ives_Purifying_Exfoliating_Body_Wash_/20%Monthly2020-02-08 10:08
http://www.hotnewdeal.com/2020/02/08/331425_ELEMENT_70_Class_4K_UHD_LED_Roku_Smart_TV_HDR_4/20%Monthly2020-02-08 09:57
http://www.hotnewdeal.com/2020/02/08/331424_6Count_of_Pepperidge_Farm_Goldfish_Crackers_Ched/20%Monthly2020-02-08 09:57
http://www.hotnewdeal.com/2020/02/08/331423_Malwarebytes_AntiMalware_30__3_Devices_Key_Car/20%Monthly2020-02-08 09:26
http://www.hotnewdeal.com/2020/02/08/331422_18oz_Bissell_Woolite_InstaClean_Pet_w_Brush_Head_/20%Monthly2020-02-08 09:09
http://www.hotnewdeal.com/2020/02/08/331421_EXTREME_YMMV_HP_15_Graphite_Mist_Laptop__99/20%Monthly2020-02-08 09:09
http://www.hotnewdeal.com/2020/02/08/331420_ESET_Internet_Security_3_PCs_Download_Newegg_2/20%Monthly2020-02-08 09:09
http://www.hotnewdeal.com/2020/02/08/331419_12_count_of_11oz_Vega_Plant_Based_Vegan_Protein_Nu/20%Monthly2020-02-08 08:39
http://www.hotnewdeal.com/2020/02/08/331418_MMS_Milk_Chocolate_Christmas_Candy_Gift_13_Ounc/20%Monthly2020-02-08 08:39
http://www.hotnewdeal.com/2020/02/08/331417_Tile_Trackers_Tile_Mate_Tracker_2020_15_4Pac/20%Monthly2020-02-08 08:12
http://www.hotnewdeal.com/2020/02/08/331416_PJ_Masks_Hero_Boost_Figure_Set__Catboy_316/20%Monthly2020-02-08 08:12
http://www.hotnewdeal.com/2020/02/08/331415_3_towards_a_selection_of_Kindle_books_YMMV/20%Monthly2020-02-08 07:28
http://www.hotnewdeal.com/2020/02/08/331414_30Count_125oz_Cracker_Jack_Original_Caramel_Coat/20%Monthly2020-02-08 07:08
http://www.hotnewdeal.com/2020/02/08/331413_St_Noire_Alexa_Hosted_Cinematic_Board_Game_11/20%Monthly2020-02-08 05:42
http://www.hotnewdeal.com/2020/02/08/331412_67oz_Neutrogena_Hydro_Boost_Hydrating_Whipped_Bo/20%Monthly2020-02-08 05:32
http://www.hotnewdeal.com/2020/02/08/331411_Walmart_Foosball_REG_699_clearance_129__999_/20%Monthly2020-02-08 04:30
http://www.hotnewdeal.com/2020/02/08/331410_6Pack_26oz_Degree_Women_Dry_Protection_Antipersp/20%Monthly2020-02-08 04:30
http://www.hotnewdeal.com/2020/02/08/331409_Doom_I_and_II_1993_4player_split_screen_249/20%Monthly2020-02-08 04:30
http://www.hotnewdeal.com/2020/02/08/331408_Ocean_Spray_CranEnergy_Cranberry_Raspberry_Energ/20%Monthly2020-02-08 04:25
http://www.hotnewdeal.com/2020/02/08/331407_Ultimate_Marvel_Vs_Capcom_3_and_Marvel_Vs_Capcom/20%Monthly2020-02-08 03:10
http://www.hotnewdeal.com/2020/02/08/331406_On_The_Go_Diaper_Changing_Clutch_6__Free_shippin/20%Monthly2020-02-08 02:57
http://www.hotnewdeal.com/2020/02/08/331405_5lbs_Optimum_Nutrition_100_Whey_Protein_Powder_/20%Monthly2020-02-08 02:35
http://www.hotnewdeal.com/2020/02/08/331404_4Qt_Hoffman_Organic_Cactus_and_Succulent_Soil_Mix/20%Monthly2020-02-08 02:31
http://www.hotnewdeal.com/2020/02/08/331403_Joanns_Place__Time_Spring_Decor__Entertaining_/20%Monthly2020-02-08 02:10
http://www.hotnewdeal.com/2020/02/08/331402_Nissin_Raoh_Soy_Sauce_377_Ounce_Pack_of_6_1/20%Monthly2020-02-08 01:57
http://www.hotnewdeal.com/2020/02/08/331401_Briggs__Riley_Kinzie_Street_Large_Backpack_1999/20%Monthly2020-02-08 01:57
http://www.hotnewdeal.com/2020/02/08/331400_adidas_Mens_Originals_Trevoil_Snapback_or_Kaval_A/20%Monthly2020-02-08 01:29
http://www.hotnewdeal.com/2020/02/08/331399_RIDGID_14_Gal_60Peak_HP_NXT_WetDry_Shop_Vacuum/20%Monthly2020-02-08 01:28
http://www.hotnewdeal.com/2020/02/08/331398_9_Johnson_Level__Tool_Orange_Torpedo_Level_1402/20%Monthly2020-02-08 01:12
http://www.hotnewdeal.com/2020/02/08/331397_82_LG_82UM8070PUA_4K_HDR_Smart_LED_IPS_TV_w_AI_T/20%Monthly2020-02-08 01:11
http://www.hotnewdeal.com/2020/02/08/331396_86_LG_86SM9070PUA_4K_HDR_Smart_LED_NanoCell_TV_w/20%Monthly2020-02-08 00:17
http://www.hotnewdeal.com/2020/02/07/331394_Champs_CSG_Mens_Basic_Tee_Shirt_various_up_to_4/20%Monthly2020-02-07 23:40
http://www.hotnewdeal.com/2020/02/07/331393_Catan_Strategy_Board_Game_5th_Edition_21/20%Monthly2020-02-07 23:26
http://www.hotnewdeal.com/2020/02/07/331392_Ozark_Trail_73qt_Cooler_119_Wheel_Kit_8_Walmart_/20%Monthly2020-02-07 23:26
http://www.hotnewdeal.com/2020/02/07/331391_Humble_Choice_February_Bundle_pick_4_games_for_/20%Monthly2020-02-07 23:26
http://www.hotnewdeal.com/2020/02/07/331390_Ring_Spotlight_Cam_Wired_White_50_YMMV_Office_De/20%Monthly2020-02-07 22:33
http://www.hotnewdeal.com/2020/02/07/331389_Funko_POP_Movies_Big__Zoltar_6_625/20%Monthly2020-02-07 21:58
http://www.hotnewdeal.com/2020/02/07/331388_PEI_WEI__5_Regular_Rice_Bowls_Minimum_2_or_more/20%Monthly2020-02-07 21:58
http://www.hotnewdeal.com/2020/02/07/331387_Eric_Clapton__Complete_Clapton_4LP_Vinyl_FS_w/20%Monthly2020-02-07 21:40
http://www.hotnewdeal.com/2020/02/07/331386_12Piece_Martha_Stewart_Essentials_Glassware_Sets/20%Monthly2020-02-07 21:26
http://www.hotnewdeal.com/2020/02/07/331385_16Piece_Tabletops_Unlimited_Dinnerware_Set_Servi/20%Monthly2020-02-07 21:26
http://www.hotnewdeal.com/2020/02/07/331384_Fiji_Airways_Sale__HNL_LAX_or_SFO_to_Fiji_Austra/20%Monthly2020-02-07 21:10
http://www.hotnewdeal.com/2020/02/07/331383_Funko_Pop_Rides_Lord_of_The_Rings__Witch_King_w/20%Monthly2020-02-07 20:42
http://www.hotnewdeal.com/2020/02/07/331382_Asus_VivoBook_F510QA_156_WideView_FHD_Laptop_AMD/20%Monthly2020-02-07 20:34
http://www.hotnewdeal.com/2020/02/07/331381_Mrs_Meyers_Clean_Day_Kitchen_Basics_Set_Lemon_V/20%Monthly2020-02-07 20:28
http://www.hotnewdeal.com/2020/02/07/331380_New_SNES_Classic__Walmart_for_7996/20%Monthly2020-02-07 20:01
http://www.hotnewdeal.com/2020/02/07/331379_2Pack_Stalwart_Shovel_Rake_and_Tool_Wall_Mounted/20%Monthly2020-02-07 20:01
http://www.hotnewdeal.com/2020/02/07/331378_DAngelico_Premier_DC_Electric_guitar_29999/20%Monthly2020-02-07 20:00
http://www.hotnewdeal.com/2020/02/07/331377_all_9_Ryobi_Free_Battery_Promotions_99299/20%Monthly2020-02-07 20:00
http://www.hotnewdeal.com/2020/02/07/331376_auth_dealer_65_LG_OLED65C9PUA_4K_Ultra_HD_HDR_O/20%Monthly2020-02-07 19:41
http://www.hotnewdeal.com/2020/02/07/331375_Columbia_Pocket_Daypack_10_Urban_Lifestyle_25L_B/20%Monthly2020-02-07 19:41
http://www.hotnewdeal.com/2020/02/07/331374_adidas_Mens_Galaxy_4_Shoes_white_2_for_3748_/20%Monthly2020-02-07 19:41
http://www.hotnewdeal.com/2020/02/07/331373_Amazon_Tide_Laundry_Detergent_Liquid_Original_Sce/20%Monthly2020-02-07 19:26
http://www.hotnewdeal.com/2020/02/07/331372_Officemate_Magnet_Plus_Magnetic_Organizer_White_/20%Monthly2020-02-07 19:10
http://www.hotnewdeal.com/2020/02/07/331371_Yamaha_Keyboard_Bundle__PSREW300_18991/20%Monthly2020-02-07 18:48
http://www.hotnewdeal.com/2020/02/07/331370_PlayStation_4_Pro_1TB_Console_285_eBay_Daily_De/20%Monthly2020-02-07 18:35
http://www.hotnewdeal.com/2020/02/07/331369_Columbia_Sale_Mens_Steens_Mountain_Half_Snap_Fle/20%Monthly2020-02-07 18:30
http://www.hotnewdeal.com/2020/02/07/331368_Disneys_Frozen_2_Fun_On_The_Go_Activity_Kit_2_/20%Monthly2020-02-07 17:58
http://www.hotnewdeal.com/2020/02/07/331367_3Months_Free_Trial_of_SiriusXM_Premier_Streaming_/20%Monthly2020-02-07 17:58
http://www.hotnewdeal.com/2020/02/07/331366_RIDGID_18Volt_LithiumIon_Cordless_DrillDriver_a/20%Monthly2020-02-07 17:58
http://www.hotnewdeal.com/2020/02/07/331365_Mega_Man_11_Nintendo_Switch_1684__Walmart_YMMV/20%Monthly2020-02-07 17:41
http://www.hotnewdeal.com/2020/02/07/331364_Nioh__PlayStation_4_999/20%Monthly2020-02-07 17:41
http://www.hotnewdeal.com/2020/02/07/331363_11lbs_2_x_55lbs_Impact_Whey_Isolate_Various_Fl/20%Monthly2020-02-07 16:58
http://www.hotnewdeal.com/2020/02/07/331362_5_Credit_w_Purchase_of_50_Amazon_GC_by_text_YM/20%Monthly2020-02-07 16:48
http://www.hotnewdeal.com/2020/02/07/331361_Spyro_Reignited_Trilogy_Nintendo_Switch_Digital_D/20%Monthly2020-02-07 16:48
http://www.hotnewdeal.com/2020/02/07/331360_Outback__Flemings_Carrabbas_and_BoneFish_Grill/20%Monthly2020-02-07 16:38
http://www.hotnewdeal.com/2020/02/07/331359_NuWave_Bravo_XL_Air_Fryer_Toaster_Oven_Jcpenney_6/20%Monthly2020-02-07 16:23
http://www.hotnewdeal.com/2020/02/07/331358_Popular_Mechanincs_575_Readers_Digest_595/20%Monthly2020-02-07 16:23
http://www.hotnewdeal.com/2020/02/07/331357_16oz_Vanicream_Moisturizing_Skin_Cream_with_Pump_/20%Monthly2020-02-07 16:15
http://www.hotnewdeal.com/2020/02/07/331356_Asics_GEL_Nimbus_21_Running_Shoes_6950__Free_Sh/20%Monthly2020-02-07 16:11
http://www.hotnewdeal.com/2020/02/07/331355_Led_Zeppelin_Led_Zeppelin_II_Vinyl_Target_128/20%Monthly2020-02-07 16:00
http://www.hotnewdeal.com/2020/02/07/331354_Costcocom_Members_500_Delta_Air_Lines_Gift_Card/20%Monthly2020-02-07 16:00
http://www.hotnewdeal.com/2020/02/07/331353_5Pc_Mickeys_Christmas_Carol_Figure_Set_6_21Pc/20%Monthly2020-02-07 16:00
http://www.hotnewdeal.com/2020/02/07/331352_Columbia_Shoes_Mens_Gunner_Laker_Boot_64_Women/20%Monthly2020-02-07 15:54
http://www.hotnewdeal.com/2020/02/07/331351_DJI_Osmo_Pocket_Handheld_3_Axis_Gimbal_Stabilizer_/20%Monthly2020-02-07 15:26
http://www.hotnewdeal.com/2020/02/07/331349_Uniden_R7_Long_Range_Laser__Radar_Detector_with_A/20%Monthly2020-02-07 15:10
http://www.hotnewdeal.com/2020/02/07/331348_Royal_Caribbean_Cruise_Line_WOW_Sale_on_All_Cruise/20%Monthly2020-02-07 15:10
http://www.hotnewdeal.com/2020/02/07/331347_Kohls_Cardholders_5x7_Sonoma_Goods_For_Life_In/20%Monthly2020-02-07 14:58
http://www.hotnewdeal.com/2020/02/07/331346_Xbox_One_X_Star_Wars_Jedi_Fallen_Order__Extra_Xb/20%Monthly2020-02-07 14:58
http://www.hotnewdeal.com/2020/02/07/331345_4Pc_Armor_All_Complete_Car_Kit_555_w_SS__Fre/20%Monthly2020-02-07 14:48
http://www.hotnewdeal.com/2020/02/07/331344_27_Acer_VG270U_2560x1440_QHD_75Hz_IPS_FreeSync_LE/20%Monthly2020-02-07 14:48
http://www.hotnewdeal.com/2020/02/07/331343_Boost_Mobile_Samsung_Galaxy_A10E_32_GB_Prepaid_Sma/20%Monthly2020-02-07 14:48
http://www.hotnewdeal.com/2020/02/07/331342_Seagate_8TB_Backup_Plus_Hub__Costco_11999/20%Monthly2020-02-07 14:44
http://www.hotnewdeal.com/2020/02/07/331341_Columbia_Kids_Apparel_Boys_Glacial_14_Zip_Flee/20%Monthly2020-02-07 14:28
http://www.hotnewdeal.com/2020/02/07/331340_Highland_40_in_Media_Console_Electric_Fireplace_T/20%Monthly2020-02-07 14:22
http://www.hotnewdeal.com/2020/02/07/331338_Rado_HyperChrome_Automatic_His_or_Hers_Watch_449_/20%Monthly2020-02-07 14:19
http://www.hotnewdeal.com/2020/02/07/331337_Royal_Luxe_Lightweight_Microfiber_Color_Down_Alter/20%Monthly2020-02-07 14:19
http://www.hotnewdeal.com/2020/02/07/331336_Round_Trip_Travel_From_US_Cities_to_Los_Angeles_fo/20%Monthly2020-02-07 14:09
http://www.hotnewdeal.com/2020/02/07/331335_12_Genuine_Joe_HeavyDuty_Plastic_Dust_Pan_288_/20%Monthly2020-02-07 14:09
http://www.hotnewdeal.com/2020/02/07/331334_Cardcash_Target_eGift_Card_Sale_810_Off__Addit/20%Monthly2020-02-07 13:41
http://www.hotnewdeal.com/2020/02/07/331333_Kohls_Cardholders_5Pack_Carters_Short_Sleeve_B/20%Monthly2020-02-07 13:41
http://www.hotnewdeal.com/2020/02/07/331332_Reebok_Mens__Womens_Club_C_85_Shoes_35_Class/20%Monthly2020-02-07 13:41
http://www.hotnewdeal.com/2020/02/07/331330_Rockler_3_SwivelingBraking_Caster_Set_999/20%Monthly2020-02-07 12:57
http://www.hotnewdeal.com/2020/02/07/331329_StarKist_Tuna_4_cans_150_Solid_White_Albacore/20%Monthly2020-02-07 12:57
http://www.hotnewdeal.com/2020/02/07/331328_Columbia_Mens_Voodoo_Falls_590_Turbodown_Jacket_/20%Monthly2020-02-07 12:57
http://www.hotnewdeal.com/2020/02/07/331327_20Pack_Shop_Succulents_Mini_Life_Succulent_Plants/20%Monthly2020-02-07 12:57
http://www.hotnewdeal.com/2020/02/07/331326_Lenovo_IdeaPad_S340_156_Touchscreen_Laptop__10t/20%Monthly2020-02-07 12:53
http://www.hotnewdeal.com/2020/02/07/331325_Nintendo_Switch_Digital_GameThief_Simulator_199/20%Monthly2020-02-07 12:46
http://www.hotnewdeal.com/2020/02/07/331324_True_Utility_Jackknife_Pocketknife__Stashlite_Poc/20%Monthly2020-02-07 12:41
http://www.hotnewdeal.com/2020/02/07/331323_Samsung_Q70_65_Class_HDR_4K_UHD_Smart_QLED_TV_20/20%Monthly2020-02-07 12:41
http://www.hotnewdeal.com/2020/02/07/331322_adidas_Mens_Essentials_3Stripes_Track_Jacket_Gr/20%Monthly2020-02-07 12:41
http://www.hotnewdeal.com/2020/02/07/331320_Amazon_Digital_HD_Schindlers_List_5_The_Silenc/20%Monthly2020-02-07 12:25
http://www.hotnewdeal.com/2020/02/07/331319_Incasecom_Select_Duffle_and_Messenger_Bags_Start/20%Monthly2020-02-07 12:15
http://www.hotnewdeal.com/2020/02/07/331318_Kindle_YA_2016_Newbery_award_eBook_Echo_by_Pam_Mu/20%Monthly2020-02-07 12:09
http://www.hotnewdeal.com/2020/02/07/331317_Instant_Pot_Duo_Crisp_for__11304_11304/20%Monthly2020-02-07 11:58
http://www.hotnewdeal.com/2020/02/07/331316_Kohls_Cardholders_LEGO_Kids_Minifigure_Interchan/20%Monthly2020-02-07 11:58
http://www.hotnewdeal.com/2020/02/07/331315_Kohls_Cardholders_Yankee_Candle_Large_Jar_Candles/20%Monthly2020-02-07 11:58
http://www.hotnewdeal.com/2020/02/07/331314_Dyson_AM09_Hot__Cool_Heater__Fan__IronRed__Ne/20%Monthly2020-02-07 11:41
http://www.hotnewdeal.com/2020/02/07/331313_Alen_BreatheSmart_FLEX_Air_Purifier_149/20%Monthly2020-02-07 11:41
http://www.hotnewdeal.com/2020/02/07/331312_4Count_28oz_TRESemma_AntiBreakage_Shampoo_1050/20%Monthly2020-02-07 11:26
http://www.hotnewdeal.com/2020/02/07/331310_Lords_of_the_Fallen_Digital_Deluxe_Edition__17/20%Monthly2020-02-07 11:26
http://www.hotnewdeal.com/2020/02/07/331309_RYOBI_ONE_18_Volt_6_gallon_WetDry_Vacuum_5599_/20%Monthly2020-02-07 11:10
http://www.hotnewdeal.com/2020/02/07/331308_DC_Animated_Digital_4K_UHD_Batman_Ninja_Batman_/20%Monthly2020-02-07 10:48
http://www.hotnewdeal.com/2020/02/07/331307_5_x_Tide_Original_Liquid_Laundry_Detergent_100_fl_/20%Monthly2020-02-07 10:44
http://www.hotnewdeal.com/2020/02/07/331306_2_pack_32_oz_Members_Mark_91_Isopropyl_Alcohol/20%Monthly2020-02-07 10:40
http://www.hotnewdeal.com/2020/02/07/331305_Funko_Pop_Marvel_Avengers_Endgame__Captain_Marv/20%Monthly2020-02-07 10:36
http://www.hotnewdeal.com/2020/02/07/331304_Amazon__Samsung_860_EVO_2TB_25_Inch_SATA_III_Int/20%Monthly2020-02-07 10:27
http://www.hotnewdeal.com/2020/02/07/331303_2TB_Crucial_MX500_25_SSD_BH__Newegg_19999/20%Monthly2020-02-07 10:19
http://www.hotnewdeal.com/2020/02/07/331302_Frontier_Airlines__90_Off_Promotional_Code_for_S/20%Monthly2020-02-07 10:05
http://www.hotnewdeal.com/2020/02/07/331301_Kohls_Cardholders_Keurig_KElite_SingleServe_Co/20%Monthly2020-02-07 09:57
http://www.hotnewdeal.com/2020/02/07/331300_OutdoorMaster_via_Amazon_Ski_Masks_for_769_Ski/20%Monthly2020-02-07 09:53
http://www.hotnewdeal.com/2020/02/07/331299_Alienware_m15_156_FHD_144_Hz_IPS_i79750H_16/20%Monthly2020-02-07 09:40
http://www.hotnewdeal.com/2020/02/07/331298_HoneyCanDo_Folding_Step_Stool_with_AntiSlip_Sur/20%Monthly2020-02-07 09:40
http://www.hotnewdeal.com/2020/02/07/331297_32GB_2x_16_Ballistix_Sport_LT_DDR4_3200_Desktop_/20%Monthly2020-02-07 09:40
http://www.hotnewdeal.com/2020/02/07/331296_5_quart_jug_Pennzoil_Platinum_High_Mileage_Full_Sy/20%Monthly2020-02-07 09:25
http://www.hotnewdeal.com/2020/02/07/331295_Kohls_Cardholders_8Qt_Instant_Pot_Duo_Nova_7in/20%Monthly2020-02-07 09:25
http://www.hotnewdeal.com/2020/02/07/331294_Kohls_Cardholders_12Piece_Rachael_Ray_Cucina_Har/20%Monthly2020-02-07 09:25
http://www.hotnewdeal.com/2020/02/07/331293_Back_6Pack_10oz_Method_Foaming_Hand_Soap_Sea_M/20%Monthly2020-02-07 09:21
http://www.hotnewdeal.com/2020/02/07/331292_Manna_Stainless_Steel_64_oz_Convoy_Bottle_1799/20%Monthly2020-02-07 08:47
http://www.hotnewdeal.com/2020/02/07/331291_LG_55_Class_C9_Series_4K_OLED_Smart_TV_w_AI_Thin/20%Monthly2020-02-07 08:44
http://www.hotnewdeal.com/2020/02/07/331290_BISSELL_ProHeat_2X_Revolution_Pet_Pro_Carpet_Clean/20%Monthly2020-02-07 08:39
http://www.hotnewdeal.com/2020/02/07/331289_Waterpik_Body_Wand_Spa_Shower_Head_System_with_Any/20%Monthly2020-02-07 08:29
http://www.hotnewdeal.com/2020/02/07/331288_Kohls_Cardholders_12Piece_Libbey_Stackable_Glass/20%Monthly2020-02-07 08:24
http://www.hotnewdeal.com/2020/02/07/331287_James_Taylors_Break_Shot_My_First_21_Years_An_A/20%Monthly2020-02-07 08:08
http://www.hotnewdeal.com/2020/02/07/331285_Asus_Chromebook_C425_Chromebook_14_FHD_m38100/20%Monthly2020-02-07 07:40
http://www.hotnewdeal.com/2020/02/07/331284_HP__Spectre_x360_2in1_133_Laptop__Intel_Core/20%Monthly2020-02-07 06:57
http://www.hotnewdeal.com/2020/02/07/331283_Peets_Coffee_Espresso_Capsules_Variety_Pack_40_C/20%Monthly2020-02-07 06:27
http://www.hotnewdeal.com/2020/02/07/331282_Military_and_Veterans__40mm_Apple_Watch_Nike_S/20%Monthly2020-02-07 05:40
http://www.hotnewdeal.com/2020/02/07/331281_White_Collar_The_Complete_Seasons_16_Digital_HD/20%Monthly2020-02-07 04:40
http://www.hotnewdeal.com/2020/02/07/331280_Bad_Boys_I__II_Best_Buy_Exclusive_Steelbook_4K_U/20%Monthly2020-02-07 03:11
http://www.hotnewdeal.com/2020/02/07/331279_Clorox_ToiletWand_Disposable_Toilet_Cleaning_Syste/20%Monthly2020-02-07 02:57
http://www.hotnewdeal.com/2020/02/07/331278_Pinkalicious_Eggstraordinary_Easter_Paperback_/20%Monthly2020-02-07 02:53
http://www.hotnewdeal.com/2020/02/07/331275_3Pack_44oz_Nivea_Men_Maximum_Hydration_Deep_Clea/20%Monthly2020-02-07 02:10
http://www.hotnewdeal.com/2020/02/07/331274_3Month_Mint_Mobile_8GB_4G_LTE_Prepaid_SIM_Card_Ki/20%Monthly2020-02-07 01:57
http://www.hotnewdeal.com/2020/02/07/331273_15Oz_Suave_Men_Body_Wash_Refresh__1_Digital_C/20%Monthly2020-02-07 01:12
http://www.hotnewdeal.com/2020/02/07/331272_heated_throw_blanket/20%Monthly2020-02-07 01:12
http://www.hotnewdeal.com/2020/02/07/331270_My_Little_Pony_Rainbow_Lights_Fluttershy_purple_/20%Monthly2020-02-07 01:11
http://www.hotnewdeal.com/2020/02/07/331269_3Pack_1275Oz_Everyone_Hand_Soap_Meyer_Lemon_an/20%Monthly2020-02-07 00:15
http://www.hotnewdeal.com/2020/02/06/331268_ASRock_MiniITX_B450_GamingITXAC_Motherboard__9/20%Monthly2020-02-06 23:56
http://www.hotnewdeal.com/2020/02/06/331267_Hartz_Chew_n_Clean_Bacon_Flavored_Dog_Chew_Toy_D/20%Monthly2020-02-06 23:40
http://www.hotnewdeal.com/2020/02/06/331266_Nintendo_Switch_ASCENDANCE_On_Sale/20%Monthly2020-02-06 23:40
http://www.hotnewdeal.com/2020/02/06/331265_Jig_Pocket_Hole_System_1318/20%Monthly2020-02-06 22:56
http://www.hotnewdeal.com/2020/02/06/331264_Lands_End_50_x_70_Plush_Fleece_Throw_Blanket_va/20%Monthly2020-02-06 22:56
http://www.hotnewdeal.com/2020/02/06/331262_RIDGID_18Volt_OCTANE_LithiumIon_Cordless_Brushle/20%Monthly2020-02-06 22:55
http://www.hotnewdeal.com/2020/02/06/331261_Eddie_Bauer_Big_Girls_Ultrasoft_LongSleeve_Hoodi/20%Monthly2020-02-06 22:46
http://www.hotnewdeal.com/2020/02/06/331260_Clarks_Mens_Shoes_Vargo_Plain_Atticus_Vibe_Flow/20%Monthly2020-02-06 22:31
http://www.hotnewdeal.com/2020/02/06/331259_Lowes__Cowboy_Lump_Charcoal_18_pounds_bag__479/20%Monthly2020-02-06 22:23
http://www.hotnewdeal.com/2020/02/06/331258_Lenovo_100e_Chromebook_116_HD_Display_Mediatek_/20%Monthly2020-02-06 22:16
http://www.hotnewdeal.com/2020/02/06/331257_Electric_Fireplace_in_cherry_68/20%Monthly2020-02-06 22:07
http://www.hotnewdeal.com/2020/02/06/331256_Ridgid_Oscillating_EdgeBelt_Spindle_Sander_Facto/20%Monthly2020-02-06 21:10
http://www.hotnewdeal.com/2020/02/06/331255_Lands_End_Coupon_Up_to_50_Off_Regular__Sale_Pr/20%Monthly2020-02-06 21:10
http://www.hotnewdeal.com/2020/02/06/331254_335lbs_Optimum_Nutrition_Performance_Whey_Isolat/20%Monthly2020-02-06 21:05
http://www.hotnewdeal.com/2020/02/06/331253_Vega_Protein__Greens_Vanilla_25_Servings_268_o/20%Monthly2020-02-06 20:58
http://www.hotnewdeal.com/2020/02/06/331252_3Piece_Kay_Diamond_Accent_Heart_Sterling_Silver_E/20%Monthly2020-02-06 20:39
http://www.hotnewdeal.com/2020/02/06/331251_Shun_Classic_35_Paring_Knife__52/20%Monthly2020-02-06 20:39
http://www.hotnewdeal.com/2020/02/06/331250_Lenovo_Flex_2_in_1_touchscreen10th_gen_i7Mx2301/20%Monthly2020-02-06 20:39
http://www.hotnewdeal.com/2020/02/06/331248_Regal_Cinemas_Free_popcorn_from_email_links_poss/20%Monthly2020-02-06 20:07
http://www.hotnewdeal.com/2020/02/06/331246_Yokus_Island_Express_Nintendo_Switch_Digital_Dow/20%Monthly2020-02-06 19:56
http://www.hotnewdeal.com/2020/02/06/331245_Rocklers_Complete_Dovetail_Jig_with_Dovetail_Jig_/20%Monthly2020-02-06 19:56
http://www.hotnewdeal.com/2020/02/06/331244_Target_Buy_2_Get_1_Free_Board_Games_Video_Games/20%Monthly2020-02-06 19:39
http://www.hotnewdeal.com/2020/02/06/331243_EVGA_CLC_AIO_coolers_for_120mm_40_240mm_86_28/20%Monthly2020-02-06 19:39
http://www.hotnewdeal.com/2020/02/06/331242_2Pack_Kidde_5BC_Marine_Fire_Extinguishers_186/20%Monthly2020-02-06 19:39
http://www.hotnewdeal.com/2020/02/06/331241_2x5lbs_Optimum_Nutrition_Gold_Standard_100_Whey_P/20%Monthly2020-02-06 19:24
http://www.hotnewdeal.com/2020/02/06/331240_Nintendo_2DS_XL_White__Orange_Latest_Model__R/20%Monthly2020-02-06 19:08
http://www.hotnewdeal.com/2020/02/06/331239_4Count_23_Oz_SlimFast_Bakeshop_Meal_Replacement_/20%Monthly2020-02-06 19:08
http://www.hotnewdeal.com/2020/02/06/331238_Wen_2307_Variable_Speed_Rotary_Tool_Kit_No_Flex_Sh/20%Monthly2020-02-06 18:55
http://www.hotnewdeal.com/2020/02/06/331237_AXE_BODY_WASH_PHOENIX_4Pack/20%Monthly2020-02-06 18:31
http://www.hotnewdeal.com/2020/02/06/331236_Wusthof_WU406609_Clasic_Paring_Knife_Stainless_St/20%Monthly2020-02-06 18:16
http://www.hotnewdeal.com/2020/02/06/331235_AMD_Ryzen_5_2600_Processor_with_Wraith_Stealth_Coo/20%Monthly2020-02-06 18:16
http://www.hotnewdeal.com/2020/02/06/331234_Puma_on_Rakuten_60_OFF_SELECT_STYLES_and_Free_shi/20%Monthly2020-02-06 18:08
http://www.hotnewdeal.com/2020/02/06/331233_Dewalt_6pc_Brushless_XR_kit_DCK684D2_55920/20%Monthly2020-02-06 18:08
http://www.hotnewdeal.com/2020/02/06/331232_Gears_of_War_4_PC__Xbox_One__380__Instant_G/20%Monthly2020-02-06 17:39
http://www.hotnewdeal.com/2020/02/06/331231_Microcenter_instore_only_AMD_2600X_80_3700X_26/20%Monthly2020-02-06 17:25
http://www.hotnewdeal.com/2020/02/06/331230_4Pack_887Oz_Dove_Promises_Valentine_Dark_Chocol/20%Monthly2020-02-06 17:25
http://www.hotnewdeal.com/2020/02/06/331229_Concrete_Genie_20/20%Monthly2020-02-06 17:25
http://www.hotnewdeal.com/2020/02/06/331228_Hefty_Slider_Jumbo_Food_Storage_Bags__25_Gallon_/20%Monthly2020-02-06 17:09
http://www.hotnewdeal.com/2020/02/06/331227_Kindle_Ebooks_The_Ultimate_Personal_Development_C/20%Monthly2020-02-06 17:09
http://www.hotnewdeal.com/2020/02/06/331226_Intex_Twin_Air_Mattress__5__Walmart_BM_Clearan/20%Monthly2020-02-06 16:42
http://www.hotnewdeal.com/2020/02/06/331225_The_Elder_Scrolls_V_Skyrim_Legendary_Edition__7/20%Monthly2020-02-06 16:08
http://www.hotnewdeal.com/2020/02/06/331224_Makita_XT333X1_18V_LXT_LithiumIon_Brushless_Cordl/20%Monthly2020-02-06 15:57
http://www.hotnewdeal.com/2020/02/06/331223_Amazon_Audible__Kindle_Edgar_Allan_Poe__Complet/20%Monthly2020-02-06 15:57
http://www.hotnewdeal.com/2020/02/06/331222_Bluray_1299__3_movie_Doris_Day_and_Rock_Hudso/20%Monthly2020-02-06 15:57
http://www.hotnewdeal.com/2020/02/06/331221_Crayola_Model_Magic_White_Clay_75_Single_1oz_Pack/20%Monthly2020-02-06 15:39
http://www.hotnewdeal.com/2020/02/06/331220_KitchenAid_24In_Top_Control_BuiltIn_Dishwasher_i/20%Monthly2020-02-06 15:39
http://www.hotnewdeal.com/2020/02/06/331219_SiliconDust_HD_HomeRun__CONNECT_QUATRO_Solution_f/20%Monthly2020-02-06 15:39
http://www.hotnewdeal.com/2020/02/06/331218_Everyone_3in1_Soap_Coconut_and_Lemon_32_Fl_Oz/20%Monthly2020-02-06 15:24
http://www.hotnewdeal.com/2020/02/06/331217_18Count_065oz_Dove_100Calorie_Milk_Chocolate_Ca/20%Monthly2020-02-06 15:24
http://www.hotnewdeal.com/2020/02/06/331216_Pick_and_Mix__Build_a_Bundle_249499_Steam_Ga/20%Monthly2020-02-06 15:24
http://www.hotnewdeal.com/2020/02/06/331214_Milwaukee_M12_DrillDriver_Impact_Combo_with_Free/20%Monthly2020-02-06 14:46
http://www.hotnewdeal.com/2020/02/06/331213_Acer_Predator_Triton_500_i78750H__GTX_2080_MaxQ/20%Monthly2020-02-06 14:24
http://www.hotnewdeal.com/2020/02/06/331212_EVH_Guitar_Sale_16_Guitars_379_to_1049__free_s/20%Monthly2020-02-06 14:16
http://www.hotnewdeal.com/2020/02/06/331210_PECHAM_3mm_Extended_High_Precise_Large_Gaming_Mous/20%Monthly2020-02-06 14:04
http://www.hotnewdeal.com/2020/02/06/331209_The_Assassination_of_Gianni_Versace_American_Crim/20%Monthly2020-02-06 13:57
http://www.hotnewdeal.com/2020/02/06/331208_Swingline_Stapler_Commercial_Desk_Stapler_407_A/20%Monthly2020-02-06 13:56
http://www.hotnewdeal.com/2020/02/06/331207_Google_Store__Pixel_44XL_499_after_300_Verizon/20%Monthly2020-02-06 13:24
http://www.hotnewdeal.com/2020/02/06/331206_LG_52CuFt_Mega_Capacity_Washer_with_TurboWash_Tec/20%Monthly2020-02-06 13:24
http://www.hotnewdeal.com/2020/02/06/331205_Hartz_Groomers_Best_Dog_Shampoo_18_oz_Whitening_/20%Monthly2020-02-06 12:56
http://www.hotnewdeal.com/2020/02/06/331204_105Oz_Tide_Liquid_Laundry_Detergent_EcoBox_Orig/20%Monthly2020-02-06 12:48
http://www.hotnewdeal.com/2020/02/06/331203_268oz_Maxwell_House_Master_Blend_Ground_Coffee_L/20%Monthly2020-02-06 12:48
http://www.hotnewdeal.com/2020/02/06/331202_HDX_50_ft_163_LightDuty_IndoorOutdoor_Extensio/20%Monthly2020-02-06 12:41
http://www.hotnewdeal.com/2020/02/06/331201_6x13_Guardian_Platinum_Indoor_Wiper_Floor_Mat_R/20%Monthly2020-02-06 12:37
http://www.hotnewdeal.com/2020/02/06/331200_Rylo_360_VideoAction_Camera_Shooting_Grip_and_Ad/20%Monthly2020-02-06 12:28
http://www.hotnewdeal.com/2020/02/06/331199_Metro_by_TMobile_Two_iPhone_7__1_month_service_w/20%Monthly2020-02-06 12:27
http://www.hotnewdeal.com/2020/02/06/331197_Milwaukee_M12_400_Lumen_Lantern__Flood_Light__2/20%Monthly2020-02-06 12:09
http://www.hotnewdeal.com/2020/02/06/331195_Anvil_71_Piece_Screwdriver_and_Bit_set_488__Hom/20%Monthly2020-02-06 11:43
http://www.hotnewdeal.com/2020/02/06/331194_Lucid_Comfort_Collection_10_Memory_Foam_Mattress/20%Monthly2020-02-06 11:29
http://www.hotnewdeal.com/2020/02/06/331193_Star_Wars_The_Dark_Lord_Trilogy_Kindle_Edition_/20%Monthly2020-02-06 11:10
http://www.hotnewdeal.com/2020/02/06/331192_Shun_Cutlery_Premier_7_Santoku_Knife_100/20%Monthly2020-02-06 11:10
http://www.hotnewdeal.com/2020/02/06/331191_OLOy_32GB_2_x_16GB_288Pin_DDR4_SDRAM_DDR4_3200_/20%Monthly2020-02-06 11:10
http://www.hotnewdeal.com/2020/02/06/331190_Hearts_of_Iron_Mystery_Bundle_Hearts_of_Iron_IV_/20%Monthly2020-02-06 11:09
http://www.hotnewdeal.com/2020/02/06/331189_18Oz_Stanley_Master_Vacuum_Mug_w_QuickSip_1673/20%Monthly2020-02-06 11:05
http://www.hotnewdeal.com/2020/02/06/331188_16GB_2x8GB_Crucial_Ballistix_Sport_LT_DDR4_3200_/20%Monthly2020-02-06 10:56
http://www.hotnewdeal.com/2020/02/06/331187_Xcellon_Wireless_Aluminum_Keyboard_15_BH/20%Monthly2020-02-06 10:56
http://www.hotnewdeal.com/2020/02/06/331186_INSTORE_VERY_LIMITED_Starbucks_Pike_Place_Roast/20%Monthly2020-02-06 10:47
http://www.hotnewdeal.com/2020/02/06/331185_Bluetooth_WIFI_speaker_with_alexa_builtin_20W_po/20%Monthly2020-02-06 10:47
http://www.hotnewdeal.com/2020/02/06/331183_Red_Dead_Redemption_2_PS4Xbox_One_30/20%Monthly2020-02-06 10:25
http://www.hotnewdeal.com/2020/02/06/331182_Fujifilm_GFX_50R_medium_format_body_349995/20%Monthly2020-02-06 10:08
http://www.hotnewdeal.com/2020/02/06/331181_Sealy_10_Hybrid_Memory_Foam_Mattress_In_Box_Medi/20%Monthly2020-02-06 09:57
http://www.hotnewdeal.com/2020/02/06/331180_NuWallpaper_Peel__Stick_Wallpaper_Grey__White_B/20%Monthly2020-02-06 09:40
http://www.hotnewdeal.com/2020/02/06/331179_15Pack_132_oz_Mentos_Chewy_Mint_Candy_Roll_Rai/20%Monthly2020-02-06 09:26
http://www.hotnewdeal.com/2020/02/06/331178_Presidents_Day_Event_Save_46_Get_your_first_4_m/20%Monthly2020-02-06 09:26
http://www.hotnewdeal.com/2020/02/06/331177_Amazon_Save_20_when_you_spend_50_across_various/20%Monthly2020-02-06 09:08
http://www.hotnewdeal.com/2020/02/06/331176_100_count_Astra_Platinum_Double_Edge_Safety_Razor_/20%Monthly2020-02-06 08:47
http://www.hotnewdeal.com/2020/02/06/331175_Colgate_Max_Fresh_Toothpaste_with_Mini_Breath_Stri/20%Monthly2020-02-06 08:39
http://www.hotnewdeal.com/2020/02/06/331174_LG_OLED_B9PUA_65_inch_FOR_1599_at_Greentoe/20%Monthly2020-02-06 08:24
http://www.hotnewdeal.com/2020/02/06/331173_Step2_My_First_Christmas_Tree_WHITE_2541__Ama/20%Monthly2020-02-06 08:13
http://www.hotnewdeal.com/2020/02/06/331172_Subway_any_6quot_Sub_299_possibly_new_customer/20%Monthly2020-02-06 07:09
http://www.hotnewdeal.com/2020/02/06/331171_Lenovo_Thinkpad_L380_133_FHD_IPS_Touch_i5825/20%Monthly2020-02-06 06:57
http://www.hotnewdeal.com/2020/02/06/331170_Dell_G3_15_156_FHD_IPS_i59300H_8GB_DDR4_12/20%Monthly2020-02-06 06:39
http://www.hotnewdeal.com/2020/02/06/331169_Saints_Row_The_Third_The_Full_Package_PC_Digita/20%Monthly2020-02-06 06:32
http://www.hotnewdeal.com/2020/02/06/331168_Hotwheels_Official_50_Car_Display_Case_3099_with_/20%Monthly2020-02-06 05:57
http://www.hotnewdeal.com/2020/02/06/331167_HDX_15Compartment_Interlocking_Small_Parts_Organi/20%Monthly2020-02-06 05:41
http://www.hotnewdeal.com/2020/02/06/331166_SHARP_SSC3088AS_SuperSteam_Superheated_Steam_Bui/20%Monthly2020-02-06 05:32
http://www.hotnewdeal.com/2020/02/06/331165_YMMV_Energizer_CR2032_Lithium_3V_batteries__6_cou/20%Monthly2020-02-06 04:57
http://www.hotnewdeal.com/2020/02/06/331164_24Ct_Box_Annies_Organic_Bunny_Fruit_Snacks_Var/20%Monthly2020-02-06 04:28
http://www.hotnewdeal.com/2020/02/06/331163_8oz_Eucerin_Relief_Cream_for_Eczema_597_169o/20%Monthly2020-02-06 03:31
http://www.hotnewdeal.com/2020/02/06/331161_The_North_Face_Ultra_110_GTX_TrailRunning_Shoes_/20%Monthly2020-02-06 02:58
http://www.hotnewdeal.com/2020/02/06/331160_110669_Lenovo_Y740_15_300_nits_Gaming_Lapto/20%Monthly2020-02-06 02:41
http://www.hotnewdeal.com/2020/02/06/331159_AOC_G2590FX_25_Framless_Gaming_Monitor_TN_Panel_/20%Monthly2020-02-06 02:30
http://www.hotnewdeal.com/2020/02/06/331157_Costco_Members_Valentines_Day_Roses_50Count_va/20%Monthly2020-02-06 02:12
http://www.hotnewdeal.com/2020/02/06/331150_Aquaphor_14oz_Healing_Ointment_773_AC_no_SS_re/20%Monthly2020-02-06 01:43
http://www.hotnewdeal.com/2020/02/06/331149_Mens_Under_Armour_Ripple_Elevated_Sneaker_Mod_Gr/20%Monthly2020-02-06 01:35
http://www.hotnewdeal.com/2020/02/06/331148_Flash_Sale_Club_Room_Mens_Solid_VNeck_Merino_Wo/20%Monthly2020-02-06 01:35
http://www.hotnewdeal.com/2020/02/06/331147_Dove_MenCare_Deodorant_Stick_Clean_Comfort_3_Ou/20%Monthly2020-02-06 01:13
http://www.hotnewdeal.com/2020/02/06/331146_Lenovo_IdeaPad_Flex_Pro_2in1_Laptop_Intel_Core_/20%Monthly2020-02-06 01:07
http://www.hotnewdeal.com/2020/02/06/331145_15Qt_Ecolution_Original_Microwave_MicroPop_Popc/20%Monthly2020-02-06 00:18
http://www.hotnewdeal.com/2020/02/06/331144_NEW_Beats_Solo3_Wireless_OnEar_Headphones_Your_C/20%Monthly2020-02-06 00:14
http://www.hotnewdeal.com/2020/02/06/331143_RYOBI_18Volt_ONE_Dual_Function_InflatorDeflator/20%Monthly2020-02-06 00:00
http://www.hotnewdeal.com/2020/02/06/331142_AAFES_Military_Only_LG_55_in_4K_OLED_HDR_Smar/20%Monthly2020-02-06 00:00
http://www.hotnewdeal.com/2020/02/06/331141_Disney_Cruise_Line_Save_Up_To_20_on_5Night_Pacif/20%Monthly2020-02-06 00:00
http://www.hotnewdeal.com/2020/02/06/331140_Wsthof_Classic_IKON_Seven_Piece_knife_Block_Set_/20%Monthly2020-02-06 00:00
http://www.hotnewdeal.com/2020/02/05/331139_Select_Amazon_Accounts_5_Kindle_eBook_Credit/20%Monthly2020-02-05 23:27
http://www.hotnewdeal.com/2020/02/05/331138_Sony_WH1000XM3_Bluetooth_Noise_Canceling_Headphone/20%Monthly2020-02-05 23:27
http://www.hotnewdeal.com/2020/02/05/331137_RedHead_Mens_Blue_Ridge_Mid_Hiking_Boots_3997_/20%Monthly2020-02-05 23:27
http://www.hotnewdeal.com/2020/02/05/331136_Mitutoyo_8_Inch_Digital_Caliper_13760_free_shipp/20%Monthly2020-02-05 23:23
http://www.hotnewdeal.com/2020/02/05/331135_Kwikset_905_Keywayless_Touchpad_Satin_Nickel_Singl/20%Monthly2020-02-05 23:11
http://www.hotnewdeal.com/2020/02/05/331134_Original_Trailer_Valet_5X_for_the_Best_Price_Ever_/20%Monthly2020-02-05 23:11
http://www.hotnewdeal.com/2020/02/05/331133_Nite_Ize_Steelie_HobKnob_Tablet_Kit_1373__Free_/20%Monthly2020-02-05 22:57
http://www.hotnewdeal.com/2020/02/05/331131_Makita_RT0701CX7_114_HP_Compact_Router_Kit_Kit_/20%Monthly2020-02-05 22:19
http://www.hotnewdeal.com/2020/02/05/331130_Mens_adidas_ultraboost_19_100/20%Monthly2020-02-05 22:19
http://www.hotnewdeal.com/2020/02/05/331129_10_towards_any_Kindle_book_YMMV/20%Monthly2020-02-05 22:09
http://www.hotnewdeal.com/2020/02/05/331128_2Piece_Disney_Toddler_Boys_Mickey_Mouse_Hat__Mi/20%Monthly2020-02-05 21:58
http://www.hotnewdeal.com/2020/02/05/331127_Back_Again_5oz_Blue_Diamond_Gourmet_Almonds_Ros/20%Monthly2020-02-05 21:41
http://www.hotnewdeal.com/2020/02/05/331126_27_HP_27f_Full_HD_IPS_UltraSlim_Backlit_LED_Moni/20%Monthly2020-02-05 21:41
http://www.hotnewdeal.com/2020/02/05/331125_Mug_Root_Beer_12_Fl_Oz_cans_Pack_of_18_As_low_a/20%Monthly2020-02-05 21:26
http://www.hotnewdeal.com/2020/02/05/331124_Clinique_4Pc_Step_Into_The_Spotlight_Set_975_/20%Monthly2020-02-05 21:26
http://www.hotnewdeal.com/2020/02/05/331123_Mad_Max__329__CDKeys_Steam_key/20%Monthly2020-02-05 21:26
http://www.hotnewdeal.com/2020/02/05/331122_Natures_Path_Love_Crunch_Organic_Granola_Dark_Choc/20%Monthly2020-02-05 21:11
http://www.hotnewdeal.com/2020/02/05/331121_TPLink_Deco_Whole_Home_Mesh_WiFi_System_Up_to_4_/20%Monthly2020-02-05 21:11
http://www.hotnewdeal.com/2020/02/05/331120_AMD_Ryzen_5_3600_17499/20%Monthly2020-02-05 20:58
http://www.hotnewdeal.com/2020/02/05/331119_Vitamix_A2300_Ascent_Series_Smart_Blender_w_64oz/20%Monthly2020-02-05 20:48
http://www.hotnewdeal.com/2020/02/05/331117_Sams_Club_Members_Masterbuilt_24_Pellet_Grill_/20%Monthly2020-02-05 20:41
http://www.hotnewdeal.com/2020/02/05/331116_Beats_by_Dr_Dre_Powerbeats3_Wireless_Black_In_Ear/20%Monthly2020-02-05 20:34
http://www.hotnewdeal.com/2020/02/05/331115_Walmart__Golds_Gym_XR_55_Home_Gym_with_330_Lbs_o/20%Monthly2020-02-05 20:28
http://www.hotnewdeal.com/2020/02/05/331114_Mobil_1_Extended_Performance_Full_Synthetic_Motor_/20%Monthly2020-02-05 20:26
http://www.hotnewdeal.com/2020/02/05/331113_Costco_Members_150_off_Michelin_Tires/20%Monthly2020-02-05 20:25
http://www.hotnewdeal.com/2020/02/05/331112_PEAK_Mens_Comfortable_Running_Shoes_5449_AC__F/20%Monthly2020-02-05 20:20
http://www.hotnewdeal.com/2020/02/05/331111_Save_14_on_Activities_on_Expedia/20%Monthly2020-02-05 19:40
http://www.hotnewdeal.com/2020/02/05/331110_Arkham_Horror_Third_Edition_Strategy_Board_Game_3/20%Monthly2020-02-05 19:25
http://www.hotnewdeal.com/2020/02/05/331109_M12_FUEL_12Volt_LithiumIon_Brushless_Cordless_St/20%Monthly2020-02-05 19:21
http://www.hotnewdeal.com/2020/02/05/331108_18Count_15oz_Reeses_TAKE5_Peanut_Butter_Milk_C/20%Monthly2020-02-05 19:09
http://www.hotnewdeal.com/2020/02/05/331107_42oz_Burts_Bees_Kids_Toothpaste_Fluoride_Free_/20%Monthly2020-02-05 19:05
http://www.hotnewdeal.com/2020/02/05/331106_Dyson_Ball_MultiFloor_Bagless_Upright_Vacuum_200_/20%Monthly2020-02-05 18:33
http://www.hotnewdeal.com/2020/02/05/331105_Free_Ring_Solar_Sign_with_Any_Camera_Purchase/20%Monthly2020-02-05 18:24
http://www.hotnewdeal.com/2020/02/05/331103_Goodfellas_25th_Anniversary_Edition_Remastered_Blu/20%Monthly2020-02-05 18:08
http://www.hotnewdeal.com/2020/02/05/331102__S10_Bookshelves_pair_109_S30_Center_129_S6/20%Monthly2020-02-05 17:57
http://www.hotnewdeal.com/2020/02/05/331101_9_Shun_Classic_Bread_Knife_DM0705_82_w_Prime_/20%Monthly2020-02-05 17:57
http://www.hotnewdeal.com/2020/02/05/331100_Oakley_Standard_Issue_Up_to_70_Off_Clearance_App/20%Monthly2020-02-05 17:39
http://www.hotnewdeal.com/2020/02/05/331099_StriVectin_TL_Advanced_Tightening_Neck_Cream_Plus_/20%Monthly2020-02-05 17:39
http://www.hotnewdeal.com/2020/02/05/331098_16oz_FURminator_deShedding_Ultra_Premium_Dog_Sham/20%Monthly2020-02-05 17:39
http://www.hotnewdeal.com/2020/02/05/331097_Gretsch_G5622T_Electromatic_Center_Block_Double_Cu/20%Monthly2020-02-05 17:24
http://www.hotnewdeal.com/2020/02/05/331096_Frederique_Constant_Slimline_Silver_Dial_Gold_Plat/20%Monthly2020-02-05 17:09
http://www.hotnewdeal.com/2020/02/05/331095_40Oz_All_Liquid_Laundry_Detergent_Free__Clear_2/20%Monthly2020-02-05 16:55
http://www.hotnewdeal.com/2020/02/05/331094_LG_7_Series_4K_UHD_HDR__55_350__65_580/20%Monthly2020-02-05 16:38
http://www.hotnewdeal.com/2020/02/05/331093_CalDigit_TS3_Plus_Thunderbolt_3_Dock_from_Amazon_/20%Monthly2020-02-05 16:24
http://www.hotnewdeal.com/2020/02/05/331092_PORTERCABLE_PCC601LB_20V_Max_12Inch_Lithium_Ion/20%Monthly2020-02-05 16:07
http://www.hotnewdeal.com/2020/02/05/331091_Secret_Antiperspirant_and_Deodorant_for_Women_Pow/20%Monthly2020-02-05 15:57
http://www.hotnewdeal.com/2020/02/05/331090_Microsoft_Surface_Pro_6_123_Tablet__Intel_i582/20%Monthly2020-02-05 15:57
http://www.hotnewdeal.com/2020/02/05/331089_1TB_Sony_PlayStation_4_Pro_Console__29999__Fre/20%Monthly2020-02-05 15:57
http://www.hotnewdeal.com/2020/02/05/331088_Samsung_65_Class_Q80R_QLED_Smart_4K_UHD_TV_QN65Q8/20%Monthly2020-02-05 15:25
http://www.hotnewdeal.com/2020/02/05/331087_Easy_Spirit_Womens_Leather_Clogs_Equip_Clog_Ers/20%Monthly2020-02-05 15:25
http://www.hotnewdeal.com/2020/02/05/331086_Roborock_S4_Robot_Vacuum_with_Selective_Cleaning_/20%Monthly2020-02-05 14:55
http://www.hotnewdeal.com/2020/02/05/331085_22Oz_Yankee_Candle_Large_Jar_Candle_select_scent/20%Monthly2020-02-05 14:47
http://www.hotnewdeal.com/2020/02/05/331084_Mohawk_Home_Colorstone_Beige_and_Tan_Indoor_Area_R/20%Monthly2020-02-05 14:38
http://www.hotnewdeal.com/2020/02/05/331083_Klipsch_2x_R625FA__2x_R41M_Bookshelves__R52C/20%Monthly2020-02-05 14:31
http://www.hotnewdeal.com/2020/02/05/331082_Kroger_2_day_sale_Friday_and_Saturday_99_Post/20%Monthly2020-02-05 14:23
http://www.hotnewdeal.com/2020/02/05/331081_Gretsch_Electrics_Guitars_G6609_Players_Edition_B/20%Monthly2020-02-05 13:57
http://www.hotnewdeal.com/2020/02/05/331079_252_Count_Cottonelle_FreshCare_Flushable_Wipes_Al/20%Monthly2020-02-05 13:40
http://www.hotnewdeal.com/2020/02/05/331078_Shun_Premier_Chef_Knife_6_inch_free_shipping_92/20%Monthly2020-02-05 13:40
http://www.hotnewdeal.com/2020/02/05/331077_Samsonite_EcoNu_19_Expandable_Spinner_Luggage_b/20%Monthly2020-02-05 13:09
http://www.hotnewdeal.com/2020/02/05/331076_StriVectin_MultiAction_RR_Eye_Cream_3_for_49_/20%Monthly2020-02-05 13:09
http://www.hotnewdeal.com/2020/02/05/331074_Free_Spotify_Premium_for_6_months_for_Samsung_Gala/20%Monthly2020-02-05 12:56
http://www.hotnewdeal.com/2020/02/05/331073_BuildABear_Powerpuff_Girls_Buttercup_Plush_1/20%Monthly2020-02-05 12:56
http://www.hotnewdeal.com/2020/02/05/331072_NETGEAR_Nighthawk_AC1750_Smart_Dual_Band_WiFi_Rout/20%Monthly2020-02-05 12:39
http://www.hotnewdeal.com/2020/02/05/331071_Stanley_SL184028B_8_Gallon_60_Peak_HP_Stainles/20%Monthly2020-02-05 12:32
http://www.hotnewdeal.com/2020/02/05/331070_Borderlands_3__PreOwned_Xbox_One_or_PS4_1799/20%Monthly2020-02-05 12:32
http://www.hotnewdeal.com/2020/02/05/331069_Asus_Vivobook_15_Laptop_156_FHD_Ryzen_7_3700u_/20%Monthly2020-02-05 12:16
http://www.hotnewdeal.com/2020/02/05/331068_Reebok_Coupon_40_Off_Select_Styles_Little_Kids/20%Monthly2020-02-05 12:16
http://www.hotnewdeal.com/2020/02/05/331067_Huggies_Plus_Diapers_Sizes_1__6_3699/20%Monthly2020-02-05 12:07
http://www.hotnewdeal.com/2020/02/05/331066_Nordic_Ware_Microwave_2_Cavity_Egg_Poacher_White/20%Monthly2020-02-05 12:07
http://www.hotnewdeal.com/2020/02/05/331065_RavPower_45W_USBC_Power_Delivery_Ultra_Slim_Charg/20%Monthly2020-02-05 11:59
http://www.hotnewdeal.com/2020/02/05/331064_Rocketbook_2998/20%Monthly2020-02-05 11:58
http://www.hotnewdeal.com/2020/02/05/331063_168_piece_DEWALT_Mechanics_Tools_Kit_and_Socket_Se/20%Monthly2020-02-05 11:39
http://www.hotnewdeal.com/2020/02/05/331062_Train_Simulator_2020_Bundle_as_low_as_1_on_Humble/20%Monthly2020-02-05 11:25
http://www.hotnewdeal.com/2020/02/05/331061_Hugo_Boss_Sunglasses_Polarized__nonPolarized_f/20%Monthly2020-02-05 11:25
http://www.hotnewdeal.com/2020/02/05/331060_The_Wonder_Years_complete_dvd_set_2999_FS_with_/20%Monthly2020-02-05 11:25
http://www.hotnewdeal.com/2020/02/05/331059_Bella__Pro_Series_6Slice_Toaster_Oven_Air_Fryer_/20%Monthly2020-02-05 11:25
http://www.hotnewdeal.com/2020/02/05/331058_MSI_PS63_Modern091_156_FHD_IPS_i78565U_16G/20%Monthly2020-02-05 11:25
http://www.hotnewdeal.com/2020/02/05/331057_Notting_Hill_BluRay__Digital_499_via_Amazon/20%Monthly2020-02-05 11:25
http://www.hotnewdeal.com/2020/02/05/331056_Canine_Carry_Outs_Dog_Treats_Sausage_Links_080/20%Monthly2020-02-05 11:09
http://www.hotnewdeal.com/2020/02/05/331055_TempurPedic_TEMPURNeck_Pillow_Firm_Support_Medi/20%Monthly2020-02-05 10:56
http://www.hotnewdeal.com/2020/02/05/331054_Street_Fighter_V_PS4_Digital_Download_799_via_/20%Monthly2020-02-05 10:34
http://www.hotnewdeal.com/2020/02/05/331053_DeWalt_12_in_MultiMaterial_Bit_Extension_14_in/20%Monthly2020-02-05 10:18
http://www.hotnewdeal.com/2020/02/05/331052_Honeywell_TrueEase_12_gallon_Whole_House_Bypass_Hu/20%Monthly2020-02-05 10:18
http://www.hotnewdeal.com/2020/02/05/331050_REI_Winter_Clearance_Up_to_50__Save_50_or_More/20%Monthly2020-02-05 10:08
http://www.hotnewdeal.com/2020/02/05/331049_CRKT_Squid_Folding_Carry_Knife_10/20%Monthly2020-02-05 09:57
http://www.hotnewdeal.com/2020/02/05/331048_Sprint_S10_5G/20%Monthly2020-02-05 09:41
http://www.hotnewdeal.com/2020/02/05/331047_HP_Chromebook_Intel_Core_i58250U_156_1080p_IP/20%Monthly2020-02-05 09:25
http://www.hotnewdeal.com/2020/02/05/331046_ZhiyunTech_CRANE_3_LAB_Handheld_Stabilizer_BH_4/20%Monthly2020-02-05 09:25
http://www.hotnewdeal.com/2020/02/05/331045_RainX_RX30214_Weatherbeater_nonbeam_14_Wiper_/20%Monthly2020-02-05 09:21
http://www.hotnewdeal.com/2020/02/05/331043_RAVPower_27000mAh_Universal_Power_Bank_with_AC_Ou/20%Monthly2020-02-05 08:57
http://www.hotnewdeal.com/2020/02/05/331042_TMobile_Customers_0211_4_Sonic_The_Hedgehog_mo/20%Monthly2020-02-05 08:57
http://www.hotnewdeal.com/2020/02/05/331041_2Pack_TAL_24oz_Ranger_Sport_Stainless_Steel_Wate/20%Monthly2020-02-05 08:57
http://www.hotnewdeal.com/2020/02/05/331040_Walgreens_Photo_11_x_14_Custom_Photo_Poster_2_/20%Monthly2020-02-05 08:38
http://www.hotnewdeal.com/2020/02/05/331039_Amazon_Save_20_when_you_spend_100_or_more_on_se/20%Monthly2020-02-05 08:32
http://www.hotnewdeal.com/2020/02/05/331038_Colgate_360_Advanced_Whitening_Electric_Toothbrush/20%Monthly2020-02-05 08:25
http://www.hotnewdeal.com/2020/02/05/331037_Lenovo_Flex_5_2in1_Laptop_Intel_Core_i58250U_/20%Monthly2020-02-05 08:24
http://www.hotnewdeal.com/2020/02/05/331036_Delta_Faucet_HydroRain_5Spray_TouchClean_2in1_/20%Monthly2020-02-05 08:24
http://www.hotnewdeal.com/2020/02/05/331035_Toddler_Horse_Hopper__Bouncer_red_10__free_sh/20%Monthly2020-02-05 08:24
http://www.hotnewdeal.com/2020/02/05/331034_Weatherproof_Vintage_Mens_Waterproof_Boots_18_C/20%Monthly2020-02-05 07:57
http://www.hotnewdeal.com/2020/02/05/331032_WB_Movies_Buy_2_for_999__MoviesAnywhere/20%Monthly2020-02-05 05:26
http://www.hotnewdeal.com/2020/02/05/331031_Snowpiercer_2014_bluray_500_with_Prime_at_Ama/20%Monthly2020-02-05 04:28
http://www.hotnewdeal.com/2020/02/05/331030_MeFoto_UV_Filter_67mm_55mm_or_49mm_2_each__sh/20%Monthly2020-02-05 04:10
http://www.hotnewdeal.com/2020/02/05/331029_Dyson_Cyclone_V10_Animal_plus_Free_Tools_worth_up_/20%Monthly2020-02-05 03:05
http://www.hotnewdeal.com/2020/02/05/331028_CyberPower_3Outlet_Surge_Protector_w_2x_USB_Port/20%Monthly2020-02-05 02:41
http://www.hotnewdeal.com/2020/02/05/331027_Beverly_Hills_Cop_3Movie_Collection_Bluray_16/20%Monthly2020-02-05 02:21
http://www.hotnewdeal.com/2020/02/05/331026_Samsung_UN65NU6900FXZA_65_Class_645_Diag_4K_/20%Monthly2020-02-05 01:58
http://www.hotnewdeal.com/2020/02/05/331025_Levis_Mens_511_Slim_Fit_Jeans_or_Levis_LowBall/20%Monthly2020-02-05 01:40
http://www.hotnewdeal.com/2020/02/05/331024_Brother_HLL2390DW_Wireless_Monochrome_AllInOne_/20%Monthly2020-02-05 01:40
http://www.hotnewdeal.com/2020/02/05/331023_7oz_RainX_Original_Glass_Water_Repellent_321_o/20%Monthly2020-02-05 01:27
http://www.hotnewdeal.com/2020/02/05/331022_AXE_Body_Wash_for_Men_Dark_Temptation_16_Fl_Oz_/20%Monthly2020-02-05 01:11
http://www.hotnewdeal.com/2020/02/04/331020_LG_55_C9P_OLED_TV_for_1249_on_Greentoe/20%Monthly2020-02-04 23:43
http://www.hotnewdeal.com/2020/02/04/331019_Wine_Decanter_EraVino_Premium_Horn_Wine_Decanter_/20%Monthly2020-02-04 23:09
http://www.hotnewdeal.com/2020/02/04/331018_Reebok_Mens_Rise_Supreme_RG_Shoe_25_Kids_Flexa/20%Monthly2020-02-04 23:09
http://www.hotnewdeal.com/2020/02/04/331017_Sony_65_Class_X800G_Series_4K_UHD_Smart_TV_XBR65X/20%Monthly2020-02-04 22:56
http://www.hotnewdeal.com/2020/02/04/331016_5oz_Blue_Diamond_Gourmet_Almonds_Garlic_Herb_an/20%Monthly2020-02-04 22:48
http://www.hotnewdeal.com/2020/02/04/331015_Canon_EOS_M100_Mirrorless_Camera_w_1545mm_Lens_/20%Monthly2020-02-04 22:48
http://www.hotnewdeal.com/2020/02/04/331014_Anker_Bolder_UV_Flashlight_Rechargeable_1499__F/20%Monthly2020-02-04 22:41
http://www.hotnewdeal.com/2020/02/04/331013_Superdry_Gym_Tech_Colour_Block_Zip_Hoodie_3XL_Onl/20%Monthly2020-02-04 22:16
http://www.hotnewdeal.com/2020/02/04/331012_48Ct_KCup_Coffee_Pods_Mix__Match_Newmans_Ow/20%Monthly2020-02-04 22:16
http://www.hotnewdeal.com/2020/02/04/331010_The_Four_The_Hidden_DNA_of_Amazon_Apple_Faceboo/20%Monthly2020-02-04 21:39
http://www.hotnewdeal.com/2020/02/04/331009_Dell_Inspiron_14_5000_2in1_Laptop_Ryzen_5_3500U/20%Monthly2020-02-04 21:25
http://www.hotnewdeal.com/2020/02/04/331008_Hurt_Locker_digital_4K_at_iTunes_for_499/20%Monthly2020-02-04 21:21
http://www.hotnewdeal.com/2020/02/04/331007_WowWee_Fingerlings_Hugs_Nikki_the_Interactive_Nar/20%Monthly2020-02-04 20:48
http://www.hotnewdeal.com/2020/02/04/331006_Costco_beauty_sale/20%Monthly2020-02-04 20:41
http://www.hotnewdeal.com/2020/02/04/331005_Prime_Exclusive_Get_4_Months_of_The_New_Yorker_/20%Monthly2020-02-04 20:34
http://www.hotnewdeal.com/2020/02/04/331004_Judy_Digital_4K_UHD_10_at_FandangoNOW_GooglePl/20%Monthly2020-02-04 20:08
http://www.hotnewdeal.com/2020/02/04/331003_Southwest_Airlines_2Days_of_California_Love_Sprin/20%Monthly2020-02-04 19:54
http://www.hotnewdeal.com/2020/02/04/331002_Skullcandy_Crusher_Wireless_Bluetooth_Headphones_w/20%Monthly2020-02-04 19:27
http://www.hotnewdeal.com/2020/02/04/331001_32Ounce_Snyders_of_Hanover_Mini_Canister_Pretzel/20%Monthly2020-02-04 19:27
http://www.hotnewdeal.com/2020/02/04/331000_35999_120_off_Apple_Watch_Series_4_GPS__Ce/20%Monthly2020-02-04 18:52
http://www.hotnewdeal.com/2020/02/04/330999_P1936N_Includes_P261_AND_P737_18Volt_ONE_Cordl/20%Monthly2020-02-04 18:36
http://www.hotnewdeal.com/2020/02/04/330998_Consumer_Reports_1599_Smithsonian_775_Bon_/20%Monthly2020-02-04 18:35
http://www.hotnewdeal.com/2020/02/04/330997_Osprey_Ultralight_Stuff_Pack_various_colors_21/20%Monthly2020-02-04 18:11
http://www.hotnewdeal.com/2020/02/04/330996_TravelPro_Crew_11_22_Expandable_Rollaboard_Suiter/20%Monthly2020-02-04 18:00
http://www.hotnewdeal.com/2020/02/04/330995_Nvidia_GeForceNOW_Cloud_Gaming_Service_499mo_f/20%Monthly2020-02-04 18:00
http://www.hotnewdeal.com/2020/02/04/330994_Levis_Warehouse_Sale_Mens_511_Slim_Fit_Cool_Jea/20%Monthly2020-02-04 18:00
http://www.hotnewdeal.com/2020/02/04/330993_Gusto_Kids_Breakfast_Activity_Set_420__Free_Sh/20%Monthly2020-02-04 18:00
http://www.hotnewdeal.com/2020/02/04/330992_PEAK_Womens_Lightweight_Walking_Shoes_Pink_199/20%Monthly2020-02-04 17:55
http://www.hotnewdeal.com/2020/02/04/330991_True_Chews_Premium_Grillers_Made_with_Real_Steak_3/20%Monthly2020-02-04 17:55
http://www.hotnewdeal.com/2020/02/04/330990_Kwikset_Smartkey_Deadbolts_as_low_as_9129_YMMV_/20%Monthly2020-02-04 17:39
http://www.hotnewdeal.com/2020/02/04/330989_Linens__Hutch_Down_Alternative_Reversible_Comfort/20%Monthly2020-02-04 17:27
http://www.hotnewdeal.com/2020/02/04/330988_Lenovo_100e_116_Chromebook_on_sale_bestbuy_99/20%Monthly2020-02-04 17:23
http://www.hotnewdeal.com/2020/02/04/330987_Lowes_1Wick_Metal_Tabletop_Citronella_Candle_YMM/20%Monthly2020-02-04 17:22
http://www.hotnewdeal.com/2020/02/04/330986_Anker_USB_Surge_Protector_3Outlet_and_3_PowerIQ_/20%Monthly2020-02-04 16:55
http://www.hotnewdeal.com/2020/02/04/330985_Sennheiser_HDVD_800_Headphone_Dac__Amplifier_100/20%Monthly2020-02-04 16:39
http://www.hotnewdeal.com/2020/02/04/330984_JBL_SP8II_8_Inch_In_Wall_Speaker_Pair_Refurbished_/20%Monthly2020-02-04 16:35
http://www.hotnewdeal.com/2020/02/04/330983_KidKraft_Devonshire_SwingsetPlayset_F29000_11/20%Monthly2020-02-04 16:17
http://www.hotnewdeal.com/2020/02/04/330982_IHop_Buy_25_GC_get_two_5_GC_Free/20%Monthly2020-02-04 15:56
http://www.hotnewdeal.com/2020/02/04/330981_Superdry_via_Ebay_Damon_Side_Messenger_Bag_For_1/20%Monthly2020-02-04 15:56
http://www.hotnewdeal.com/2020/02/04/330980_Gary_Compact_Trim_Safe__Office_Depot_YMMV_2794_/20%Monthly2020-02-04 15:56
http://www.hotnewdeal.com/2020/02/04/330979_iTunes_Movie_Bundle_Braveheart_Forrest_Gump_Ame/20%Monthly2020-02-04 15:39
http://www.hotnewdeal.com/2020/02/04/330978_KitchenAid_Professional_5_Qt_Mixer__19999__Tar/20%Monthly2020-02-04 15:39
http://www.hotnewdeal.com/2020/02/04/330977_Community_Coffee_40_off_code_CUPID/20%Monthly2020-02-04 15:24
http://www.hotnewdeal.com/2020/02/04/330976_Wellness_Natural_Grain_Free_Puppy_Training_Treats_/20%Monthly2020-02-04 15:24
http://www.hotnewdeal.com/2020/02/04/330975_New_Dyson_AM06_Bladeless_Desk_Fan_IRONBLUE_9999/20%Monthly2020-02-04 15:08
http://www.hotnewdeal.com/2020/02/04/330974_Discover_Card_holders__Save_20_at_Amazoncom_YM/20%Monthly2020-02-04 14:46
http://www.hotnewdeal.com/2020/02/04/330973_3Pack_169oz_NIVEA_Skin_Firming_Hydrating_Body_Lo/20%Monthly2020-02-04 14:46
http://www.hotnewdeal.com/2020/02/04/330972_Elite_Bicycle_Bottle_Cage_1260_shipped_via_Prime/20%Monthly2020-02-04 14:46
http://www.hotnewdeal.com/2020/02/04/330971_FisherPrice_Bright_Beats_Dance__Move_Juniors_Bea/20%Monthly2020-02-04 14:46
http://www.hotnewdeal.com/2020/02/04/330970_refurbed_Ego_backpack_blower_w_5ah_batt_and_charge/20%Monthly2020-02-04 14:38
http://www.hotnewdeal.com/2020/02/04/330969_Anker_PowerCore_10000_PD_Redux_Portable_Charger_2/20%Monthly2020-02-04 14:38
http://www.hotnewdeal.com/2020/02/04/330968_Lansinoh_SmartPump_20_Double_Electric_Breast_Pump/20%Monthly2020-02-04 14:18
http://www.hotnewdeal.com/2020/02/04/330967_Natrel_Lactose_Free_Milk_2_32_Ounce_Pack_of_6_/20%Monthly2020-02-04 14:13
http://www.hotnewdeal.com/2020/02/04/330966_Dead_Island_Definitive_Edition__249__GMG_act/20%Monthly2020-02-04 14:13
http://www.hotnewdeal.com/2020/02/04/330965_Samsung_27_Monitor__144hz__1440p__239_amazon/20%Monthly2020-02-04 14:06
http://www.hotnewdeal.com/2020/02/04/330964_Civilization_VI_Platinum_Edition_All_expansions_a/20%Monthly2020-02-04 14:05
http://www.hotnewdeal.com/2020/02/04/330963_Pepperidge_Farm_Goldfish_Cheddar_Crackers_60_oz_/20%Monthly2020-02-04 13:58
http://www.hotnewdeal.com/2020/02/04/330962_CORSAIR__VOID_PRO_RGB_Wireless_Dolby_71Channel_/20%Monthly2020-02-04 13:58
http://www.hotnewdeal.com/2020/02/04/330960_Lyft__free_or_discounted_rides_to_the_polls_throu/20%Monthly2020-02-04 13:58
http://www.hotnewdeal.com/2020/02/04/330959_Duracell_Procell_AAA_24_count__Free_shipping_w_A/20%Monthly2020-02-04 13:41
http://www.hotnewdeal.com/2020/02/04/330958_Select_Ryobi_Brushless_Tool_and_Receive_FREE_ONE_L/20%Monthly2020-02-04 13:41
http://www.hotnewdeal.com/2020/02/04/330957_Metro_Exodus_Windows_version__Microsoft_Store_f/20%Monthly2020-02-04 13:41
http://www.hotnewdeal.com/2020/02/04/330955_Meguiars_G190526_Hybrid_Ceramic_Wax_26_oz_Amazon/20%Monthly2020-02-04 13:26
http://www.hotnewdeal.com/2020/02/04/330954_Affresh_3count_washing_machine_cleaner_325_at_H/20%Monthly2020-02-04 13:09
http://www.hotnewdeal.com/2020/02/04/330952_6Pack_10oz_Method_Foaming_Hand_Soap_Sea_Minerals/20%Monthly2020-02-04 12:59
http://www.hotnewdeal.com/2020/02/04/330951_LEGO_Mindstorms_EV3_Robot_Building_Kit_31313_/20%Monthly2020-02-04 12:59
http://www.hotnewdeal.com/2020/02/04/330950_M18_18Volt_LithiumIon_XC_Extended_Capacity_Batte/20%Monthly2020-02-04 12:59
http://www.hotnewdeal.com/2020/02/04/330949_1TB_Western_Digital_Blue_SN550_NVMe_M2_2280_SSD_/20%Monthly2020-02-04 12:59
http://www.hotnewdeal.com/2020/02/04/330948_Kodiak_Cakes_Pancake_On_the_Go_Buttermilk_and_Map/20%Monthly2020-02-04 12:35
http://www.hotnewdeal.com/2020/02/04/330947_Apple_iPad_Air__A12_Chip__64GB_Latest_Model_2019/20%Monthly2020-02-04 12:35
http://www.hotnewdeal.com/2020/02/04/330946_Amazon_Digital_HD_Requiem_for_a_Dream_5/20%Monthly2020-02-04 12:35
http://www.hotnewdeal.com/2020/02/04/330945_3800x_on_sale_at_the_old_Microcenter_29999/20%Monthly2020-02-04 12:26
http://www.hotnewdeal.com/2020/02/04/330944_TPLink_Archer_C4000_triband_WiFi_router_for_130/20%Monthly2020-02-04 12:25
http://www.hotnewdeal.com/2020/02/04/330943_Home_Depot__125_Reconditioned_Ego_15_in_56V_Lit/20%Monthly2020-02-04 12:18
http://www.hotnewdeal.com/2020/02/04/330942_Logitech_G502_SE_Hero_sensor__Best_Buy_in_store/20%Monthly2020-02-04 12:18
http://www.hotnewdeal.com/2020/02/04/330941_Yeti_18Oz_Rambler_Bottle_2037_26Oz_Rambler_B/20%Monthly2020-02-04 12:08
http://www.hotnewdeal.com/2020/02/04/330940_JBL_Inspire_100_In_Ear_Wired_Headphones_495__Fr/20%Monthly2020-02-04 12:04
http://www.hotnewdeal.com/2020/02/04/330939_Reebok_Mens__Womens_Flexagon_Force_20_Training/20%Monthly2020-02-04 12:04
http://www.hotnewdeal.com/2020/02/04/330938_Yeti_Tundra_45_20534_with_coupon_code_free_shi/20%Monthly2020-02-04 11:58
http://www.hotnewdeal.com/2020/02/04/330936_100_servings_Amazing_Grass_Green_Superfood_Organ/20%Monthly2020-02-04 11:58
http://www.hotnewdeal.com/2020/02/04/330935_Apple_Watch_Nike_Series_4_GPS_Only_44mm_Silver/20%Monthly2020-02-04 11:40
http://www.hotnewdeal.com/2020/02/04/330934_2530_off_Fresh_Step_Advanced_cat_litter_1014/20%Monthly2020-02-04 11:40
http://www.hotnewdeal.com/2020/02/04/330933_1Mii_2020_Expert_TV_Bluetooth_Audio_Transmitter_fo/20%Monthly2020-02-04 11:09
http://www.hotnewdeal.com/2020/02/04/330932_Nuby_NoSpill_Easy_Grip_Cup_10_OZ_197/20%Monthly2020-02-04 11:05
http://www.hotnewdeal.com/2020/02/04/330931_JBL_Duet_BT_for_30_at_JBL_with_free_shipping/20%Monthly2020-02-04 10:38
http://www.hotnewdeal.com/2020/02/04/330930_Spam_Black_Pepper_12_Ounce_Can_175_or_less_wS/20%Monthly2020-02-04 10:07
http://www.hotnewdeal.com/2020/02/04/330929_Greenworks_Pro_60Volt_Cordless_Electric_Leaf_Blow/20%Monthly2020-02-04 10:07
http://www.hotnewdeal.com/2020/02/04/330928_17_oz_Hempz_Natural_Herbal_Body_Moisturizer_Fresh/20%Monthly2020-02-04 09:56
http://www.hotnewdeal.com/2020/02/04/330927_Logitech__G332_SE_Wired_Stereo_Gaming_Headset__W/20%Monthly2020-02-04 09:56
http://www.hotnewdeal.com/2020/02/04/330926_DEWALT_DWMT75049_Mechanics_Tools_Set_192_Piece_/20%Monthly2020-02-04 09:39
http://www.hotnewdeal.com/2020/02/04/330925_Exhart_Large_Hand_Tuned_Metal_Wind_Chime_w_Natural/20%Monthly2020-02-04 09:39
http://www.hotnewdeal.com/2020/02/04/330924_Joker_4K_UHD_1299/20%Monthly2020-02-04 09:25
http://www.hotnewdeal.com/2020/02/04/330923_8Lbs_Osmocote_Plus_Outdoor__Indoor_SmartRelease/20%Monthly2020-02-04 09:25
http://www.hotnewdeal.com/2020/02/04/330922_Malwarebytes_AntiMalware_30_3_Devices1Year_K/20%Monthly2020-02-04 09:08
http://www.hotnewdeal.com/2020/02/04/330921_EGO_Reconditioned_145_MPH_600_CFM_56Volt_LithIon/20%Monthly2020-02-04 08:55
http://www.hotnewdeal.com/2020/02/04/330920_DEWALT_DWST08260_Tough_System_Workshop_Racking_Sys/20%Monthly2020-02-04 08:51
http://www.hotnewdeal.com/2020/02/04/330919_27_Heavy_Duty_Corona_Compound_Bypass_Loppers_14/20%Monthly2020-02-04 08:23
http://www.hotnewdeal.com/2020/02/04/330918_Chicken_of_the_Sea_Infusions_Tuna_Basil_28_Oz_C/20%Monthly2020-02-04 08:16
http://www.hotnewdeal.com/2020/02/04/330917_27_AOC_27B1H_1080p_IPS_LED_Monitor_9499_AC__Fr/20%Monthly2020-02-04 08:12
http://www.hotnewdeal.com/2020/02/04/330916_Select_RIDGID_Power_Tools_Up_to_50_Off_18V_Brus/20%Monthly2020-02-04 07:56
http://www.hotnewdeal.com/2020/02/04/330915_Scary_Stories_to_Tell_in_the_Dark_Digital_HD_Movi/20%Monthly2020-02-04 07:56
http://www.hotnewdeal.com/2020/02/04/330914_NuForce_BE_Free5_Wireless_Earbuds_1995/20%Monthly2020-02-04 07:39
http://www.hotnewdeal.com/2020/02/04/330913_Lorell_Tempered_Glass_Chair_Mat_36x46_for_42/20%Monthly2020-02-04 06:40
http://www.hotnewdeal.com/2020/02/04/330911_21_bridges_vudu_sd_preorder_5/20%Monthly2020-02-04 05:12
http://www.hotnewdeal.com/2020/02/04/330910_Best_Buy_Amazon_Kindle_SALE_AllNew_Kindle_4GB_6/20%Monthly2020-02-04 04:58
http://www.hotnewdeal.com/2020/02/04/330909_refurb_AudioTechnica_ATHSR6BTBK_Wireless_Bluet/20%Monthly2020-02-04 03:42
http://www.hotnewdeal.com/2020/02/04/330908_24_Count_3oz_Maruchan_Ramen_Creamy_Chicken_Orie/20%Monthly2020-02-04 02:41
http://www.hotnewdeal.com/2020/02/04/330907_GaN_Tech_RAVPower_61W_Wall_Charger_PD_30_27_new/20%Monthly2020-02-04 02:41
http://www.hotnewdeal.com/2020/02/04/330906_Craftsman_Evolv_40_piece_12_drive_ultimate_impac/20%Monthly2020-02-04 02:30
http://www.hotnewdeal.com/2020/02/04/330905_HALO_3Inch_Recessed_Trims_35_Adjustable_Slot_Ap/20%Monthly2020-02-04 02:30
http://www.hotnewdeal.com/2020/02/04/330904_The_Jerk_Bluray_5__AmazonBest_Buy/20%Monthly2020-02-04 02:30
http://www.hotnewdeal.com/2020/02/04/330903_Nespresso_website__10_off_your_next_purchase_US/20%Monthly2020-02-04 02:13
http://www.hotnewdeal.com/2020/02/04/330902_Philips_Hue_White_and_Color_Ambiance_A19_60W_Equiv/20%Monthly2020-02-04 01:59
http://www.hotnewdeal.com/2020/02/03/330901_750_shipped_Coleman_Powersports_Off_Road_Go_Kart/20%Monthly2020-02-03 23:59
http://www.hotnewdeal.com/2020/02/03/330900_Fluval_407_Performance_Canister_Filter_120Vac_60H/20%Monthly2020-02-03 23:26
http://www.hotnewdeal.com/2020/02/03/330899_218oz_Vega_Protein__Greens_PlantBased_Protein_P/20%Monthly2020-02-03 23:05
http://www.hotnewdeal.com/2020/02/03/330898_eufy_BoostIQ_RoboVac_30C_Robot_Vacuum_Cleaner__/20%Monthly2020-02-03 22:58
http://www.hotnewdeal.com/2020/02/03/330897_Nintendo_Switch_Digital_Games_SteinsGate_Elite_/20%Monthly2020-02-03 22:58
http://www.hotnewdeal.com/2020/02/03/330896_Early_Riser_Espresso_Ground_Coffee_24_Ounce_SUB/20%Monthly2020-02-03 22:30
http://www.hotnewdeal.com/2020/02/03/330895_KitchenAid_Professional_500_5QT_Mixer_at_Best_Buy_/20%Monthly2020-02-03 22:30
http://www.hotnewdeal.com/2020/02/03/330894_Salomon_Womens_Trailster_Trail_Running_Shoes_blu/20%Monthly2020-02-03 22:22
http://www.hotnewdeal.com/2020/02/03/330892_Apple_Watch_series_4_gps_40mm_open_box_excellent/20%Monthly2020-02-03 22:10
http://www.hotnewdeal.com/2020/02/03/330891_Select_Amazon_Accounts_40lbs_Dr_Elseys_Ultra_Pr/20%Monthly2020-02-03 21:58
http://www.hotnewdeal.com/2020/02/03/330890_ACDelco_Cabin_Air_filter_rebate_475_5_rebate/20%Monthly2020-02-03 21:58
http://www.hotnewdeal.com/2020/02/03/330889_102Pce_FYX_Allinone_Household_Drill_and_Drive_/20%Monthly2020-02-03 21:43
http://www.hotnewdeal.com/2020/02/03/330888_Ibanez_Guitars_29_Guitars_from_110_to_1599__fr/20%Monthly2020-02-03 21:43
http://www.hotnewdeal.com/2020/02/03/330887_Monster_Jam_Official_Max_D_Monster_Truck_DieCas/20%Monthly2020-02-03 21:43
http://www.hotnewdeal.com/2020/02/03/330886_All_Purpose_Gillette_Styler_Beard_Trimmer_Mens_/20%Monthly2020-02-03 21:26
http://www.hotnewdeal.com/2020/02/03/330885_Garmin_eTrex_20x_Handheld_GPS_Navigator_119__Fr/20%Monthly2020-02-03 21:26
http://www.hotnewdeal.com/2020/02/03/330884_Arlo_Outdoor_Security_Camera_2Pack__Lowes_89/20%Monthly2020-02-03 21:17
http://www.hotnewdeal.com/2020/02/03/330883_Xbox_One_Digital_Games_Metro_Redux_Bundle_599_/20%Monthly2020-02-03 21:17
http://www.hotnewdeal.com/2020/02/03/330882_Disney_Moana_Girls_Adventure_Moana_Outfit_Outfit_/20%Monthly2020-02-03 21:17
http://www.hotnewdeal.com/2020/02/03/330881_Total_Wireless_Hotspot_Now_Available_on_35_plan_a/20%Monthly2020-02-03 21:17
http://www.hotnewdeal.com/2020/02/03/330880_6Ct_Crayola_Washable_Kids_Paint_Classic_Colors_/20%Monthly2020-02-03 21:17
http://www.hotnewdeal.com/2020/02/03/330879_MacBook_Pro_9th_Gen_Core_i7_256GB__4GB_GPU__154/20%Monthly2020-02-03 20:47
http://www.hotnewdeal.com/2020/02/03/330878_Robin_Hobb_Assassins_Apprentice_The_Farseer_Tri/20%Monthly2020-02-03 20:45
http://www.hotnewdeal.com/2020/02/03/330877_Annie_Chuns_Sweet_Chili_Noodle_Bowl_NonGMO_Veg/20%Monthly2020-02-03 20:41
http://www.hotnewdeal.com/2020/02/03/330876_Free_season_Dragon_Ball_Super__70_Individual_Se/20%Monthly2020-02-03 20:32
http://www.hotnewdeal.com/2020/02/03/330875_LifeSpan_TR1200DT3_Under_Desk_Treadmill_lifetime/20%Monthly2020-02-03 20:29
http://www.hotnewdeal.com/2020/02/03/330874_Milwaukee_Hole_Dozer_General_Purpose_BiMetal_Hole/20%Monthly2020-02-03 20:19
http://www.hotnewdeal.com/2020/02/03/330873_90Piece_DeWALT_Maxfit_Screwdriving_Set_1497__F/20%Monthly2020-02-03 20:09
http://www.hotnewdeal.com/2020/02/03/330872_3_pack_of_NIVEA_Men_Sensitive_Post_Shave_Balm__So/20%Monthly2020-02-03 20:04
http://www.hotnewdeal.com/2020/02/03/330871_Learning_Resources_Botley_the_Coding_Robot_Action_/20%Monthly2020-02-03 19:58
http://www.hotnewdeal.com/2020/02/03/330870_eBay_Coupon_5_off_50_Ends_27/20%Monthly2020-02-03 19:41
http://www.hotnewdeal.com/2020/02/03/330869_5_in_Swanson_Speedlite_Magnetic_Post_Level_231_/20%Monthly2020-02-03 19:41
http://www.hotnewdeal.com/2020/02/03/330868_SWITCH_GAME_NINE_PARCHMENTS_for_6_4_player_loca/20%Monthly2020-02-03 19:41
http://www.hotnewdeal.com/2020/02/03/330867_Tonight_only_Flash_Sale_1395_Candles_1394/20%Monthly2020-02-03 19:36
http://www.hotnewdeal.com/2020/02/03/330866_Deal_of_the_day__Buy_a_smart_home_starter_kit_and/20%Monthly2020-02-03 19:27
http://www.hotnewdeal.com/2020/02/03/330865_10Ream_85x11_Hammermill_Copy_Plus_Paper_1000/20%Monthly2020-02-03 19:27
http://www.hotnewdeal.com/2020/02/03/330864_225oz_Hempz_Herbal_Body_Moisturizer_314_w_SS/20%Monthly2020-02-03 19:22
http://www.hotnewdeal.com/2020/02/03/330863_Lionel_Northern_Star_Miniature_Batterypowered_Mo/20%Monthly2020-02-03 19:14
http://www.hotnewdeal.com/2020/02/03/330861_240Count_Ice_Breakers_Ice_Cubes_Sugar_Free_Gum_K/20%Monthly2020-02-03 19:07
http://www.hotnewdeal.com/2020/02/03/330860_AOC_AGON_AG322QC4_315ampquot_Curved_Framless_G/20%Monthly2020-02-03 18:54
http://www.hotnewdeal.com/2020/02/03/330859_10Pack_Justins_Chocolate_Hazelnut__Almond_Butte/20%Monthly2020-02-03 18:54
http://www.hotnewdeal.com/2020/02/03/330858_Rollplay_24Volt_Wave_Catcher_Electric_Scooter_39/20%Monthly2020-02-03 18:54
http://www.hotnewdeal.com/2020/02/03/330857_12_count_California_Scents_SpillProof_Organic_Air/20%Monthly2020-02-03 18:46
http://www.hotnewdeal.com/2020/02/03/330856_Canon_imageCLASS_MF743CDW_AllinOne_Wireless_Colo/20%Monthly2020-02-03 18:22
http://www.hotnewdeal.com/2020/02/03/330854_Capsule_Chix_Giga_Glam_45_Doll_w_Machine__5_Su/20%Monthly2020-02-03 18:10
http://www.hotnewdeal.com/2020/02/03/330853_Thames__Kosmos_Physics_Workshop_1999/20%Monthly2020-02-03 17:59
http://www.hotnewdeal.com/2020/02/03/330852_Shop_Disney_60_x_50_Fleece_Throw_various_2_fo/20%Monthly2020-02-03 17:59
http://www.hotnewdeal.com/2020/02/03/330851_Staples_15_off_60_coupon_online_only__Expire/20%Monthly2020-02-03 17:43
http://www.hotnewdeal.com/2020/02/03/330850_AE__Spend_75_on_gift_cards_get_25_for_free/20%Monthly2020-02-03 17:42
http://www.hotnewdeal.com/2020/02/03/330849_WHIMZEES_Natural_Grain_Free_Dental_Dog_Treats_Var/20%Monthly2020-02-03 17:42
http://www.hotnewdeal.com/2020/02/03/330848_RYOBI_ONE_18_Volt_Hybrid_Drain_Auger_Tool_Only_/20%Monthly2020-02-03 17:25
http://www.hotnewdeal.com/2020/02/03/330847_YMMV_Verizon_Fios_new_customer_pricing_without_mov/20%Monthly2020-02-03 17:25
http://www.hotnewdeal.com/2020/02/03/330845_Anker_Soundcore_Life_Q20_Hybrid_Active_Noise_Cance/20%Monthly2020-02-03 17:08
http://www.hotnewdeal.com/2020/02/03/330844_5oz_Bottle_NIVEA_Men_Sensitive_Face_Wash__Cleanse/20%Monthly2020-02-03 17:08
http://www.hotnewdeal.com/2020/02/03/330843_Mainstays_Twin_Over_Twin_Metal_Bunk_Bed_Black_or_/20%Monthly2020-02-03 17:08
http://www.hotnewdeal.com/2020/02/03/330842_Blue_Diamond_Almonds_Various_Flavors_2_for_459/20%Monthly2020-02-03 16:42
http://www.hotnewdeal.com/2020/02/03/330841_M18_FUEL_18Volt_LithiumIon_Brushless_Cordless_De/20%Monthly2020-02-03 16:31
http://www.hotnewdeal.com/2020/02/03/330840_Acer_Aspire_5_14_Full_HD_8th_Gen_Intel_Core_i7/20%Monthly2020-02-03 16:19
http://www.hotnewdeal.com/2020/02/03/330839_ASUS_VC239H_23_Full_HD_Monitor__9999_Shipped/20%Monthly2020-02-03 16:08
http://www.hotnewdeal.com/2020/02/03/330838_Premier_Comfort_Reversible_Micro_Velvet_And_Faux_S/20%Monthly2020-02-03 15:57
http://www.hotnewdeal.com/2020/02/03/330837_Columbia_Mens_PFG_Bahama_II_Short_Sleeve_Shirt_Wh/20%Monthly2020-02-03 15:41
http://www.hotnewdeal.com/2020/02/03/330836_LifeBEAM_Vi_Sense_Wireless_Headphones_with_OnDema/20%Monthly2020-02-03 15:25
http://www.hotnewdeal.com/2020/02/03/330834_24oz_Arm__Hammer_InWash_Scent_Booster_Tropical_/20%Monthly2020-02-03 15:25
http://www.hotnewdeal.com/2020/02/03/330833_Rheem_Hybrid_Water_Heater_50Gal_1169_DEAD_65Gal/20%Monthly2020-02-03 15:08
http://www.hotnewdeal.com/2020/02/03/330832_August_Smart_Lock__Connect_13999_on_Costcocom/20%Monthly2020-02-03 14:49
http://www.hotnewdeal.com/2020/02/03/330830_PC_Digital__Risk_of_Rain_2__cdkeys_939/20%Monthly2020-02-03 14:44
http://www.hotnewdeal.com/2020/02/03/330828_Pixel_Junk_Monsters_2__both_DLCs__497_Nintend/20%Monthly2020-02-03 14:09
http://www.hotnewdeal.com/2020/02/03/330827_Sony_WF1000XM3_True_Wireless_NoiseCanceling_Earb/20%Monthly2020-02-03 14:05
http://www.hotnewdeal.com/2020/02/03/330826_Powerbeats_Pro_Black_199_at_Kohls_plus_get_40_K/20%Monthly2020-02-03 14:05
http://www.hotnewdeal.com/2020/02/03/330825_Lenovo_Smart_Clock_with_Google_Assistant_Refurb_/20%Monthly2020-02-03 13:58
http://www.hotnewdeal.com/2020/02/03/330824_15Rolls_Mentos_Chewy_Candy_Mint_Flavor_673__/20%Monthly2020-02-03 13:54
http://www.hotnewdeal.com/2020/02/03/330823_KEF_LS50_Speakers_Piano_Black_White_LE_900__/20%Monthly2020-02-03 13:44
http://www.hotnewdeal.com/2020/02/03/330822_12Count_11oz_Vega_PlantBased_Protein_Nutrition_S/20%Monthly2020-02-03 13:44
http://www.hotnewdeal.com/2020/02/03/330821_RYOBI_ONE_18_Volt_3_Gallon_Project_WetDry_Vacuum/20%Monthly2020-02-03 13:44
http://www.hotnewdeal.com/2020/02/03/330820_WORKPRO_100piece_screwdriver_100Piece_Rubber_Han/20%Monthly2020-02-03 13:39
http://www.hotnewdeal.com/2020/02/03/330819_nuLOOM_Area_Rugs_Flash_Sale_2_x_3_Sarina_Tribal/20%Monthly2020-02-03 13:38
http://www.hotnewdeal.com/2020/02/03/330818_AmazonBasics_AAA_15_Volt_Performance_Alkaline_Bat/20%Monthly2020-02-03 13:30
http://www.hotnewdeal.com/2020/02/03/330817_Move2Play_Talkin_Animals_Coco_the_Interactive_Pl/20%Monthly2020-02-03 13:12
http://www.hotnewdeal.com/2020/02/03/330816_Shun_Premier_Nakiri_Knife_55_124/20%Monthly2020-02-03 12:57
http://www.hotnewdeal.com/2020/02/03/330815_New_Chewy_Autoship_Customers_60Lbs_Canidae_All_L/20%Monthly2020-02-03 12:53
http://www.hotnewdeal.com/2020/02/03/330814_Logitech_MX_Master_3_Wireless_Mouse_75__Free_Shi/20%Monthly2020-02-03 12:53
http://www.hotnewdeal.com/2020/02/03/330813_Nintendo_Switch_Digital_Games_Snake_Pass_599_T/20%Monthly2020-02-03 12:52
http://www.hotnewdeal.com/2020/02/03/330812_Hanes_Mens_Full_Zip_Ultimate_Heavyweight_Fleece_H/20%Monthly2020-02-03 12:38
http://www.hotnewdeal.com/2020/02/03/330810_Mandy_Bluray_Nicholas_Cage__5__Walmart__Ama/20%Monthly2020-02-03 12:25
http://www.hotnewdeal.com/2020/02/03/330809_Atom_Tickets_5x_Birds_of_Prey_Movie_Tickets_for_/20%Monthly2020-02-03 11:40
http://www.hotnewdeal.com/2020/02/03/330808_Garmin_Vivoactive_4_GPS_smartwatch_26999/20%Monthly2020-02-03 11:40
http://www.hotnewdeal.com/2020/02/03/330807_GEDORE_252_mm_to_400_mm_Circlip_pliers_for_externa/20%Monthly2020-02-03 11:25
http://www.hotnewdeal.com/2020/02/03/330806_adidas_Glider_2_Ball_size_3_or_4_630_UCL_Fina/20%Monthly2020-02-03 11:22
http://www.hotnewdeal.com/2020/02/03/330805_KC_Tool_Co_15_Off_Purchase/20%Monthly2020-02-03 11:09
http://www.hotnewdeal.com/2020/02/03/330804_Feedback_Sports_Bike_Storage_Solutions_Velo_Wall_/20%Monthly2020-02-03 11:09
http://www.hotnewdeal.com/2020/02/03/330803_3_Monoprice_Palette_Series_USB_TypeC_to_TypeC_2/20%Monthly2020-02-03 10:52
http://www.hotnewdeal.com/2020/02/03/330802_Kershaw_Clash_Pocket_Knife_15_amazon/20%Monthly2020-02-03 10:39
http://www.hotnewdeal.com/2020/02/03/330801_Champion_Mens_Jersey_Shorts_5_Nike_Mens_Supers/20%Monthly2020-02-03 10:32
http://www.hotnewdeal.com/2020/02/03/330800_14oz_Aquaphor_Healing_Ointment_721_37oz_Aquaph/20%Monthly2020-02-03 10:24
http://www.hotnewdeal.com/2020/02/03/330799_game_of_thrones_board_game_second_edition_28__am/20%Monthly2020-02-03 10:24
http://www.hotnewdeal.com/2020/02/03/330798_63lb_Purina_Friskies_Tender__Crunchy_Combo_Dry_/20%Monthly2020-02-03 10:20
http://www.hotnewdeal.com/2020/02/03/330797_ASUS_AM4_TUF_Gaming_X570Plus_Wifi_Motherboard_Ne/20%Monthly2020-02-03 10:14
http://www.hotnewdeal.com/2020/02/03/330796_adidas_Coupon_Additional_Savings_on_Select_Sale_I/20%Monthly2020-02-03 10:14
http://www.hotnewdeal.com/2020/02/03/330795_Weatherproof_Vintage_Mens_ZipFront_Vest_10_Per/20%Monthly2020-02-03 10:07
http://www.hotnewdeal.com/2020/02/03/330794_Hitman_2_PS4_or_Xbox_One_1499_via_AmazonBest_/20%Monthly2020-02-03 09:56
http://www.hotnewdeal.com/2020/02/03/330793_Huy_Fong_Chili_Garlic_Sauce_8_oz_179_or_less_w/20%Monthly2020-02-03 09:39
http://www.hotnewdeal.com/2020/02/03/330792_20Count_32Oz_GoGo_squeeZ_Applesauce_on_the_Go_/20%Monthly2020-02-03 09:27
http://www.hotnewdeal.com/2020/02/03/330791_500GB_WD_Blue_SN550_NVMe_M2_2280_SSD_Newegg_59/20%Monthly2020-02-03 09:27
http://www.hotnewdeal.com/2020/02/03/330790_DeWalt_DWARA120_Impact_Ready_Metal_Right_Angle_Dri/20%Monthly2020-02-03 09:27
http://www.hotnewdeal.com/2020/02/03/330789_AMD_Ryzen_5_3400G_Processor_Newegg_13999/20%Monthly2020-02-03 09:08
http://www.hotnewdeal.com/2020/02/03/330788_adidas_Mens_Tiro_19_Training_Pants_carbon_camo_/20%Monthly2020-02-03 09:08
http://www.hotnewdeal.com/2020/02/03/330786_Beverly_Hills_Cop_Trilogy_4K_UHD_Digital_Films_/20%Monthly2020-02-03 08:38
http://www.hotnewdeal.com/2020/02/03/330785_2_X_Soft_Scrub_All_Purpose_Surface_Cleanser_Lemon/20%Monthly2020-02-03 08:19
http://www.hotnewdeal.com/2020/02/03/330784_DeWALT__Milwaukee_Tools_DeWALT_20V_MAX_Liion_Co/20%Monthly2020-02-03 07:57
http://www.hotnewdeal.com/2020/02/03/330783_Gapcom_Boys_JerseyLined_Joggers_Cargo_898_/20%Monthly2020-02-03 07:53
http://www.hotnewdeal.com/2020/02/03/330782_Sprint_Customers_Fandango_Now_Digital_SD_Movie_Re/20%Monthly2020-02-03 07:26
http://www.hotnewdeal.com/2020/02/03/330781_1TB_Seagate_BarraCuda_25_SSD_Newegg_9999/20%Monthly2020-02-03 07:26
http://www.hotnewdeal.com/2020/02/03/330780_adidas_Mens_3Stripes_Pants_or_Womens_Tricot_Ope/20%Monthly2020-02-03 07:26
http://www.hotnewdeal.com/2020/02/03/330779_adidas_Shoes_Mens_OwntheGame_2310_Womens_VS_/20%Monthly2020-02-03 07:26
http://www.hotnewdeal.com/2020/02/03/330778_4Count_Teacher_Created_Resources_Sand_Timers_Comb/20%Monthly2020-02-03 07:22
http://www.hotnewdeal.com/2020/02/03/330777_Monoprice_Select_Speed_Plus_20100mAh_3Port_Up_to/20%Monthly2020-02-03 04:56
http://www.hotnewdeal.com/2020/02/03/330776_adidas_Mens_Adilette_Cloudfoam_Slide_Sandals_91/20%Monthly2020-02-03 04:26
http://www.hotnewdeal.com/2020/02/03/330775_Fitbit_Charge_3_Activity_Tracker_Bundle_Graphite_/20%Monthly2020-02-03 03:53
http://www.hotnewdeal.com/2020/02/03/330773_Samsonite_Tectonic_Lifestyle_Crossfire_Business_Ba/20%Monthly2020-02-03 03:09
http://www.hotnewdeal.com/2020/02/03/330772_5oz_Blue_Diamond_Gourmet_Almonds_Rosemary_and_Se/20%Monthly2020-02-03 02:56
http://www.hotnewdeal.com/2020/02/03/330771_Fila_Mens_Boots_Edgewater_Boots_2350_Weathert/20%Monthly2020-02-03 02:55
http://www.hotnewdeal.com/2020/02/03/330770_Ring_Spotlight_Cam_1080p_Outdoor_WiFi_Camera_with/20%Monthly2020-02-03 02:28
http://www.hotnewdeal.com/2020/02/03/330769_Instant_Ocean_Reef_Crystals_Reef_Salt_For_160_Gall/20%Monthly2020-02-03 01:29
http://www.hotnewdeal.com/2020/02/03/330768_POSTMATES_free_540_off_ends_tonight/20%Monthly2020-02-03 01:12
http://www.hotnewdeal.com/2020/02/03/330767_Free_Pepsi_Zero_Sugarup_to_250_after_reimburse/20%Monthly2020-02-03 01:11
http://www.hotnewdeal.com/2020/02/03/330766_Pot_Racks_Range_Kleen_40_x_2_Stainless_Steel_2/20%Monthly2020-02-03 01:11
http://www.hotnewdeal.com/2020/02/03/330765_Milwaukee_Jobsite_Backpack_6499/20%Monthly2020-02-03 01:11
http://www.hotnewdeal.com/2020/02/03/330764_Sears_Craftsman_208CC_24_quiet_2_stage_snowblower/20%Monthly2020-02-03 00:14
http://www.hotnewdeal.com/2020/02/03/330763_5Oz_Biore_Pore_Unclogging_Scrub_Cleanser_350_w/20%Monthly2020-02-03 00:14
http://www.hotnewdeal.com/2020/02/02/330761_12_oz_Camerons_Roasted_Ground_Coffee_Bag_Kona_B/20%Monthly2020-02-02 23:24
http://www.hotnewdeal.com/2020/02/02/330760_DEWALT_20V_MAX_714Inch_Miter_Saw_Tool_Only_DC/20%Monthly2020-02-02 22:54
http://www.hotnewdeal.com/2020/02/02/330759_Yeti_Rambler_18oz_Bottle_2249__Amazon/20%Monthly2020-02-02 22:37
http://www.hotnewdeal.com/2020/02/02/330758_Shure_SE215CLBT1_Wireless_Earphones_with_Bluetoo/20%Monthly2020-02-02 22:15
http://www.hotnewdeal.com/2020/02/02/330757_Dewalt_20v_Max_60Ah_2_Pack_129/20%Monthly2020-02-02 22:08
http://www.hotnewdeal.com/2020/02/02/330756_082_Audible_Collections_on_Amazon/20%Monthly2020-02-02 21:35
http://www.hotnewdeal.com/2020/02/02/330755_4Pack_500Count_Qtips_Cotton_Swabs_768_or_less/20%Monthly2020-02-02 21:24
http://www.hotnewdeal.com/2020/02/02/330754_Today_0202_only_penzeyscom_50_Penzeys_gift_/20%Monthly2020-02-02 20:45
http://www.hotnewdeal.com/2020/02/02/330753_17oz_Hempz_Triple_Moisture_Herbal_Whipped_Body_Cr/20%Monthly2020-02-02 20:23
http://www.hotnewdeal.com/2020/02/02/330752_Makita_116_Qt_L_Insulated_Cooler_Box_4373__Fr/20%Monthly2020-02-02 20:23
http://www.hotnewdeal.com/2020/02/02/330751_Uniden_R7_Extreme_Long_Range_LaserRadar_Detector_/20%Monthly2020-02-02 20:23
http://www.hotnewdeal.com/2020/02/02/330750_Makita_XT268T_18V_LXT_Brushless_2Pc_Kit_50Ah_/20%Monthly2020-02-02 19:35
http://www.hotnewdeal.com/2020/02/02/330749_33Oz_JR_Watkins_Natural_Moisturizing_Hand_Crea/20%Monthly2020-02-02 19:10
http://www.hotnewdeal.com/2020/02/02/330748_Ravensburger_New_Neighbors_60_Piece_Jigsaw_Puzzle_/20%Monthly2020-02-02 18:47
http://www.hotnewdeal.com/2020/02/02/330747_Kreg_R3_Jr_Pocket_Hole_Jig_System_in_stock_on_Ama/20%Monthly2020-02-02 18:31
http://www.hotnewdeal.com/2020/02/02/330746_Shea_Moisture_13oz_Raw_Shea_Butter_RestorativeM/20%Monthly2020-02-02 18:16
http://www.hotnewdeal.com/2020/02/02/330745_Williams_Sonoma_Open_Kitchen_StainlessSteel_10Pi/20%Monthly2020-02-02 18:07
http://www.hotnewdeal.com/2020/02/02/330744_Apple_Watch_Series_5_44_mm_GPS_38499_40_mm_GPS_/20%Monthly2020-02-02 17:55
http://www.hotnewdeal.com/2020/02/02/330743_Star_Wars_The_Black_Series_Titanium_Series_Luke_S/20%Monthly2020-02-02 17:55
http://www.hotnewdeal.com/2020/02/02/330742_Ziploc_sandwich_bag_002_each_57280_pack_gal/20%Monthly2020-02-02 17:55
http://www.hotnewdeal.com/2020/02/02/330741_2Pack_Nuby_Tub_Tugs_Floating_Boat_Bath_Toys_473/20%Monthly2020-02-02 17:39
http://www.hotnewdeal.com/2020/02/02/330740_Korin_x_BlueApron_Togiharu_58_Japanese_Petty_Kn/20%Monthly2020-02-02 17:39
http://www.hotnewdeal.com/2020/02/02/330739_Powerbeats_Pro_all_four_colors_19995_Amazon_an/20%Monthly2020-02-02 17:24
http://www.hotnewdeal.com/2020/02/02/330738_Vanguard_VEO_2_AM264TR_Aluminum_Monopod_with_3_Le/20%Monthly2020-02-02 16:48
http://www.hotnewdeal.com/2020/02/02/330737_Apple_Watch_Series_5_GPS_44mm__Space_Gray_Alum/20%Monthly2020-02-02 16:31
http://www.hotnewdeal.com/2020/02/02/330736_32Count_AlkaSeltzer_Heartburn__Gas_Relief_Chews/20%Monthly2020-02-02 16:23
http://www.hotnewdeal.com/2020/02/02/330735_LG_Premier_Pro_53_HD_16GB_Tracfone_with_1500_Min/20%Monthly2020-02-02 16:23
http://www.hotnewdeal.com/2020/02/02/330734_Old_Navy_Womens_MockNeck_Pointelle_Sweater_65/20%Monthly2020-02-02 15:56
http://www.hotnewdeal.com/2020/02/02/330732_Blue_Diamond_Gluten_Free_Almonds_Bold_Sriracha_6/20%Monthly2020-02-02 15:09
http://www.hotnewdeal.com/2020/02/02/330731_Apple_iPad_Mini_WiFi_Only_2019_Model_350/20%Monthly2020-02-02 15:09
http://www.hotnewdeal.com/2020/02/02/330730_Anker_Elite_USB_Charger_Dual_Port_24W_Wall_Charge/20%Monthly2020-02-02 14:40
http://www.hotnewdeal.com/2020/02/02/330729_Bluray_movies_Seabiscuit_Everest_The_Purge_Un/20%Monthly2020-02-02 14:39
http://www.hotnewdeal.com/2020/02/02/330728_Bottle_of_Lies_The_Inside_Story_of_the_Generic_Dr/20%Monthly2020-02-02 14:32
http://www.hotnewdeal.com/2020/02/02/330727_Prepaid_Phone_Airtime_Cards__5_off_50_Before_R/20%Monthly2020-02-02 14:24
http://www.hotnewdeal.com/2020/02/02/330726_New_Chewy_Autoship_Customers_56Lbs_Rachael_Ray_N/20%Monthly2020-02-02 14:24
http://www.hotnewdeal.com/2020/02/02/330725_Shoprite_February_5__6_only_7_free_items_with_/20%Monthly2020-02-02 14:24
http://www.hotnewdeal.com/2020/02/02/330724_The_Sky_Below_A_True_Story_of_Summits_Space_and/20%Monthly2020-02-02 14:24
http://www.hotnewdeal.com/2020/02/02/330723_Veterinary_Clinical_Care_Antiseptic_and_Antifungal/20%Monthly2020-02-02 14:17
http://www.hotnewdeal.com/2020/02/02/330722_Deco_Glass_Geometric_Terrarium_Succulent__Air_Pl/20%Monthly2020-02-02 13:58
http://www.hotnewdeal.com/2020/02/02/330721_1000Count_Splenda_No_Calorie_Sweetener_Value_Pack/20%Monthly2020-02-02 13:58
http://www.hotnewdeal.com/2020/02/02/330720_Sylvania_Smart_ZigBee_LED_Lightstrip_Starter_Kit_/20%Monthly2020-02-02 13:54
http://www.hotnewdeal.com/2020/02/02/330719_My_Protein_50_site_Super_Bowl_24_hour_sale/20%Monthly2020-02-02 13:39
http://www.hotnewdeal.com/2020/02/02/330718_Receive_a_22_Shell_Gift_Card_after_buying_5Quart/20%Monthly2020-02-02 13:26
http://www.hotnewdeal.com/2020/02/02/330717_155oz_NIVEA_Cocoa_Butter_Body_Cream_or_169oz_NIV/20%Monthly2020-02-02 13:26
http://www.hotnewdeal.com/2020/02/02/330716_Samsung_Q80_75_aafes_1699_No_tax_and_free_shippi/20%Monthly2020-02-02 13:10
http://www.hotnewdeal.com/2020/02/02/330715_LEGO_Movie_PopUp_Party_Bus_70828_3499/20%Monthly2020-02-02 13:06
http://www.hotnewdeal.com/2020/02/02/330714_Buy_50_worth_of_PG_products_get_15_back/20%Monthly2020-02-02 12:58
http://www.hotnewdeal.com/2020/02/02/330713_Burts_Bees_Beeswax_Bounty_Classic_Set_4_Count_/20%Monthly2020-02-02 12:53
http://www.hotnewdeal.com/2020/02/02/330712_Yes4All_slam_balls_at_Walmart_less_than_1_per_po/20%Monthly2020-02-02 12:47
http://www.hotnewdeal.com/2020/02/02/330711_Macys__Select_Clinique_Urban_Decay__Smashbox_50/20%Monthly2020-02-02 12:47
http://www.hotnewdeal.com/2020/02/02/330710_Zukes_Natural_Training_Dog_Treats_Rabbit_recipe/20%Monthly2020-02-02 12:39
http://www.hotnewdeal.com/2020/02/02/330709_200Sq_ft_Reynolds_Wrap_Aluminum_Foil_712_or_/20%Monthly2020-02-02 12:39
http://www.hotnewdeal.com/2020/02/02/330708_Pizza_Hut_Large_Meat_Lovers_Pizza__10/20%Monthly2020-02-02 12:31
http://www.hotnewdeal.com/2020/02/02/330707_MICHAEL_KORS_Kelsey_Medium_Leopard_Nylon_Tote__Mi/20%Monthly2020-02-02 12:28
http://www.hotnewdeal.com/2020/02/02/330706_LG_SK9Y_512_500W_Sound_Bar_with_Wireless_Subwoof/20%Monthly2020-02-02 12:19
http://www.hotnewdeal.com/2020/02/02/330705_Dr_Elseys_Litter_Free_after_Rebate_Up_to_20/20%Monthly2020-02-02 12:12
http://www.hotnewdeal.com/2020/02/02/330704_5Pack_Gildan_Mens_Assorted_VNeck_TShirts_5/20%Monthly2020-02-02 12:09
http://www.hotnewdeal.com/2020/02/02/330703_CRAVE_Grain_Free_High_Protein_Dry_Cat_Food_salmon/20%Monthly2020-02-02 11:57
http://www.hotnewdeal.com/2020/02/02/330702_New_QVC_Customers_7Pc_Clinique_Great_Skin_Anywhe/20%Monthly2020-02-02 11:56
http://www.hotnewdeal.com/2020/02/02/330701_Disney_James__The_Giant_Peach_Special_Edition_B/20%Monthly2020-02-02 10:54
http://www.hotnewdeal.com/2020/02/02/330700_4Piece_IRWIN_VISEGRIP_Adjustable_Wrench_Set_15_/20%Monthly2020-02-02 10:47
http://www.hotnewdeal.com/2020/02/02/330698_Spindrift_Sparkling_Water_Grapefruit_Flavored_Ma/20%Monthly2020-02-02 10:47
http://www.hotnewdeal.com/2020/02/02/330697_Worx_Electric_Pole_Saw_4469_at_Lowes/20%Monthly2020-02-02 10:46
http://www.hotnewdeal.com/2020/02/02/330696_12pack_of_375oz_Crown_Prince_Skinless__Boneless/20%Monthly2020-02-02 10:38
http://www.hotnewdeal.com/2020/02/02/330695_250_Sq_Ft_Reynolds_Kitchens_Quick_Cut_Plastic_Wrap/20%Monthly2020-02-02 10:31
http://www.hotnewdeal.com/2020/02/02/330694_1031_Bluray_Triple_Feature__Blazing_Saddles__/20%Monthly2020-02-02 10:23
http://www.hotnewdeal.com/2020/02/02/330693_Focusrite_Scarlett_8i6_3rd_Gen_for_22849__ta/20%Monthly2020-02-02 10:22
http://www.hotnewdeal.com/2020/02/02/330692_975oz_to_105oz_Doritos_Chips_various_163_/20%Monthly2020-02-02 10:16
http://www.hotnewdeal.com/2020/02/02/330691_Gotham_Steel_Indoor_Electric_Smokeless_Grill/20%Monthly2020-02-02 10:16
http://www.hotnewdeal.com/2020/02/02/330690_Amazon_Echo_Input_White_10_or_Black_instock_Marc/20%Monthly2020-02-02 10:07
http://www.hotnewdeal.com/2020/02/02/330689_12_pack_Coke_products_237/20%Monthly2020-02-02 09:57
http://www.hotnewdeal.com/2020/02/02/330688_4Count_16oz_Vega_Vegan_Protein_Snack_Bars_Choco/20%Monthly2020-02-02 09:57
http://www.hotnewdeal.com/2020/02/02/330687_Hydro_Flask_Backpack_Cooler_70_off_82_REI/20%Monthly2020-02-02 09:57
http://www.hotnewdeal.com/2020/02/02/330686_Coleman_Xtreme_50Quart_Wheeled_Cooler_Keeps_Ice_/20%Monthly2020-02-02 09:24
http://www.hotnewdeal.com/2020/02/02/330685_Kate_Spade_Kelsey_Tote_79_Joeley_Small_Satchel_/20%Monthly2020-02-02 09:09
http://www.hotnewdeal.com/2020/02/02/330684_Quest_Nutrition_Vanilla_Caramel_Hero_Protein_Bar_/20%Monthly2020-02-02 08:44
http://www.hotnewdeal.com/2020/02/02/330683_60Count_Starbucks_Sumatra_or_French_Roast_KCups_/20%Monthly2020-02-02 08:34
http://www.hotnewdeal.com/2020/02/02/330682_Diaper_Genie_Playtex_Carbon_Filter_Refill_Tray_for/20%Monthly2020-02-02 08:06
http://www.hotnewdeal.com/2020/02/02/330681_JC_Penney__Honey_Can_Do_Food_Storage_8_Piece_Set_/20%Monthly2020-02-02 07:55
http://www.hotnewdeal.com/2020/02/02/330680_4Ct_Febreze_Car_Air_Fresheners_2x_Gain_Original_/20%Monthly2020-02-02 06:11
http://www.hotnewdeal.com/2020/02/02/330679_Dying_Light_PS4_or_Xbox_One_and_Dead_Rising_4_X/20%Monthly2020-02-02 05:41
http://www.hotnewdeal.com/2020/02/02/330678_12oz_Bausch__Lomb_ReNu_Advanced_Formula_Contact_L/20%Monthly2020-02-02 04:24
http://www.hotnewdeal.com/2020/02/02/330677_Quaker_Chewy_Granola_Bars_25_Less_Sugar_Chocola/20%Monthly2020-02-02 03:29
http://www.hotnewdeal.com/2020/02/02/330676_Wonderful_Pistachios_Roasted__Salted_32_oz_Bag/20%Monthly2020-02-02 02:26
http://www.hotnewdeal.com/2020/02/02/330675_4K_Steelbook_Bluray_Movies_Alien_40th_Anniversar/20%Monthly2020-02-02 02:26
http://www.hotnewdeal.com/2020/02/02/330674_Insignia_6Quart_MultiFunction_Stainless_Steel_Pr/20%Monthly2020-02-02 01:39
http://www.hotnewdeal.com/2020/02/02/330672_SAPPHIRE_PULSE_Radeon_RX_5700_XT_Video_Card_for_3/20%Monthly2020-02-02 01:05
http://www.hotnewdeal.com/2020/02/02/330671_Target_YMMV_Suitcases_backpacks_accessories_meg/20%Monthly2020-02-02 00:14
http://www.hotnewdeal.com/2020/02/01/330670_MK1_PC_Mechanical_Gaming_Keyboards__2999_80_o/20%Monthly2020-02-01 23:55
http://www.hotnewdeal.com/2020/02/01/330669_Massage_Chairs_OSAKI_4000LS_156702_Pro_Jupite/20%Monthly2020-02-01 23:55
http://www.hotnewdeal.com/2020/02/01/330668_Walmart_In_Store_Only_Stanley_Tools_on_Clearance_/20%Monthly2020-02-01 23:38
http://www.hotnewdeal.com/2020/02/01/330667_Jane_Austen__Complete_Novels_Amazon_Audiobook_0/20%Monthly2020-02-01 23:38
http://www.hotnewdeal.com/2020/02/01/330666_Jessem_RoutRLift_for_3_12_Diameter_Router_Body/20%Monthly2020-02-01 23:23
http://www.hotnewdeal.com/2020/02/01/330665_Ginkgo_Starlight_1810_42_pc_Flatware_Set_4079_/20%Monthly2020-02-01 22:54
http://www.hotnewdeal.com/2020/02/01/330664_ShopRite_BM_Royal_Dansk_Danish_Butter_Cookies_4oz/20%Monthly2020-02-01 22:07
http://www.hotnewdeal.com/2020/02/01/330663_Big_Agnes_Two_Track_Sleeping_Pad__car_camping_26/20%Monthly2020-02-01 22:07
http://www.hotnewdeal.com/2020/02/01/330662_Costco_Members_Bio_Bidet_USPA_6800U_Luxury_Bidet_/20%Monthly2020-02-01 22:07
http://www.hotnewdeal.com/2020/02/01/330661_Wells_Fargo_Checking_Account_400_Bonus_after_Depo/20%Monthly2020-02-01 21:08
http://www.hotnewdeal.com/2020/02/01/330660_Garden_Treasures_Black_Tube_Bird_Feeder_125__Mo/20%Monthly2020-02-01 20:46
http://www.hotnewdeal.com/2020/02/01/330659_Bone_Tomahawk_Bluray_5/20%Monthly2020-02-01 20:31
http://www.hotnewdeal.com/2020/02/01/330658_Armor_All_Original_Protectant_1_gallon_1206_with/20%Monthly2020-02-01 20:05
http://www.hotnewdeal.com/2020/02/01/330657_Lenovo_Thinkpad_T480s_i58250U_8GB_256GB_SSD_140/20%Monthly2020-02-01 19:59
http://www.hotnewdeal.com/2020/02/01/330656_Fitbit_Versa_2_Special_edition_gray_or_rose_gold/20%Monthly2020-02-01 19:54
http://www.hotnewdeal.com/2020/02/01/330655_Disney_Lotso_Cuddleez_Large_Plush_from_Toy_Story_/20%Monthly2020-02-01 19:54
http://www.hotnewdeal.com/2020/02/01/330654_Buy_3_Eligible_Dr_Pepper_Products_Get_Lil_Sweet_/20%Monthly2020-02-01 19:25
http://www.hotnewdeal.com/2020/02/01/330653_Giant_Tumbling_Stacking_Game__60pc_Jumbo_Set_w_Ca/20%Monthly2020-02-01 19:25
http://www.hotnewdeal.com/2020/02/01/330652_Joanns_Valentines_Day_Decor_Crafts__Fabrics_/20%Monthly2020-02-01 19:25
http://www.hotnewdeal.com/2020/02/01/330651_Countryside_Flower_Box_planter_in_Brown_or_Terraco/20%Monthly2020-02-01 19:21
http://www.hotnewdeal.com/2020/02/01/330649_YouTube_TV__Premium_Channels__Free_2_Week_Trial_/20%Monthly2020-02-01 19:09
http://www.hotnewdeal.com/2020/02/01/330648_Nutri_Ninja_with_FreshVac_Technology_3998/20%Monthly2020-02-01 19:09
http://www.hotnewdeal.com/2020/02/01/330647_Puzzle_Floor_Mat_12_pcs_24x24_48_sqf/20%Monthly2020-02-01 18:56
http://www.hotnewdeal.com/2020/02/01/330646_DIYPC_DIYA1BK_Black_Tempered_Glass_Computer_Case/20%Monthly2020-02-01 18:52
http://www.hotnewdeal.com/2020/02/01/330645_3Pack_Renuzit_Snuggle_Scented_Oil_Refill_for_Plug/20%Monthly2020-02-01 18:48
http://www.hotnewdeal.com/2020/02/01/330644_5Quart_Mobil_One_Full_Synthetic_5w30_Truck__SUV_/20%Monthly2020-02-01 18:29
http://www.hotnewdeal.com/2020/02/01/330643_Amazon_16_Oz_Wonderful_Pistachios_Roasted__Salte/20%Monthly2020-02-01 18:08
http://www.hotnewdeal.com/2020/02/01/330642_San_Diego_Wild_Animal_Park_free_for_seniors_65_and/20%Monthly2020-02-01 17:57
http://www.hotnewdeal.com/2020/02/01/330641_Fallout_SPECIAL_Bobbleheads_Set_of_7_5250__Ship/20%Monthly2020-02-01 17:57
http://www.hotnewdeal.com/2020/02/01/330640_LG_OLED65C9PUA_65_HDR_4K_UHD_Smart_OLED_TV_2019_Mo/20%Monthly2020-02-01 17:37
http://www.hotnewdeal.com/2020/02/01/330639_Coleman_Rolling_Cooler__50_Quart_Xtreme_5_Day_Coo/20%Monthly2020-02-01 17:25
http://www.hotnewdeal.com/2020/02/01/330638_CRAFTSMAN_Automotive_Fender_Cover_5_Free_ship_to_/20%Monthly2020-02-01 16:56
http://www.hotnewdeal.com/2020/02/01/330637_Wyze_Smart_Home_Starter_Pack__Free_Google_Home_Mi/20%Monthly2020-02-01 16:34
http://www.hotnewdeal.com/2020/02/01/330636_3Pack_125oz_Mrs_Meyers_Clean_Day_Hand_Soap_Ho/20%Monthly2020-02-01 16:27
http://www.hotnewdeal.com/2020/02/01/330635_Gym_Membership_for_25mo_25_Enrollment_Waived_w/20%Monthly2020-02-01 16:17
http://www.hotnewdeal.com/2020/02/01/330634_Battlestar_Galactica_Razor__Battlestar_Galactica/20%Monthly2020-02-01 16:08
http://www.hotnewdeal.com/2020/02/01/330633_Dial_Liquid_Hand_Soaps_75_oz_pump__99_cents_or/20%Monthly2020-02-01 16:08
http://www.hotnewdeal.com/2020/02/01/330632_7Qt_Crockpot_SCV700KCC_Slow_Cooker_1999__Ama/20%Monthly2020-02-01 15:58
http://www.hotnewdeal.com/2020/02/01/330631_Serta_Perfect_Sleeper_Ashbrook_Eurotop_Plush_Queen/20%Monthly2020-02-01 15:58
http://www.hotnewdeal.com/2020/02/01/330629_YMMV_Home_Depot_Clearance_Ryobi_20_in_40Volt_Br/20%Monthly2020-02-01 15:26
http://www.hotnewdeal.com/2020/02/01/330628_Tic_Tac_Toy_XOXO_Light_Up_White_Unicorn_Hugs__Gli/20%Monthly2020-02-01 15:26
http://www.hotnewdeal.com/2020/02/01/330627_VIZIO_65_Class_4K_UHD_Quantum_Smart_TV_HDR_MSeri/20%Monthly2020-02-01 15:10
http://www.hotnewdeal.com/2020/02/01/330626_8_ft_Firewood_Rack_2998/20%Monthly2020-02-01 15:06
http://www.hotnewdeal.com/2020/02/01/330625_Earn_25gal_at_Shell_when_you_link_your_DD_Perks/20%Monthly2020-02-01 14:57
http://www.hotnewdeal.com/2020/02/01/330624_PSA_HTC_Deluxe_Audio_Strap_back_in_stock/20%Monthly2020-02-01 14:57
http://www.hotnewdeal.com/2020/02/01/330623_ADATA_SE800_512GB_USB_32_Gen_2_TypeC_External_SS/20%Monthly2020-02-01 14:53
http://www.hotnewdeal.com/2020/02/01/330622_Short_flexible_braided_charging_cable_portable_bat/20%Monthly2020-02-01 14:48
http://www.hotnewdeal.com/2020/02/01/330621_Nostalgia_Appliances_Retro_07_Cubic_Foot_700Wat/20%Monthly2020-02-01 14:44
http://www.hotnewdeal.com/2020/02/01/330620_Disney_Pixar_Toy_Story_4_Barbie_Doll_640__Amazo/20%Monthly2020-02-01 14:29
http://www.hotnewdeal.com/2020/02/01/330619_John_Hughes_Yearbook_Collection_Bluray__Digital/20%Monthly2020-02-01 14:25
http://www.hotnewdeal.com/2020/02/01/330618_Motor_Trend_4Piece_Car_Floor_Mats_w_Trunk_Cargo_/20%Monthly2020-02-01 13:58
http://www.hotnewdeal.com/2020/02/01/330617_18Pc_Chicago_Cutlery_Insignia_2_Knife_Block_Set_/20%Monthly2020-02-01 13:55
http://www.hotnewdeal.com/2020/02/01/330616_Samsung_Galaxy_Note9_Blue__128GB_unlocked__399/20%Monthly2020-02-01 13:40
http://www.hotnewdeal.com/2020/02/01/330615_New_Platinum_Delta_Credit_Card_offer_up_to_100000/20%Monthly2020-02-01 13:26
http://www.hotnewdeal.com/2020/02/01/330614_50Count_Jobes_Organics_Vegetable__Tomato_Fertil/20%Monthly2020-02-01 13:26
http://www.hotnewdeal.com/2020/02/01/330613_ASRock_B450_Steel_Legend_Motherboard_9499__FS/20%Monthly2020-02-01 13:22
http://www.hotnewdeal.com/2020/02/01/330612_Amazon__Save_2040_When_You_Spend_50100_with/20%Monthly2020-02-01 13:07
http://www.hotnewdeal.com/2020/02/01/330611_Tetra_Whisper_EX_70_Silent_MultiStage_Power_Filte/20%Monthly2020-02-01 13:07
http://www.hotnewdeal.com/2020/02/01/330610_6Piece_Remy_Cotton_Super_Soft_100_Cotton_Quick_D/20%Monthly2020-02-01 12:45
http://www.hotnewdeal.com/2020/02/01/330609_The_Honest_Kitchen_Human_Grade_Dehydrated_Organic_/20%Monthly2020-02-01 12:38
http://www.hotnewdeal.com/2020/02/01/330608_Home_Depot__Milwaukee_M18M12_1218Volt_Lithium/20%Monthly2020-02-01 12:38
http://www.hotnewdeal.com/2020/02/01/330607_KitchenAid_Custom_Pour_Over_Coffee_Brewer_3_color/20%Monthly2020-02-01 12:38
http://www.hotnewdeal.com/2020/02/01/330605_Big_Boss_OilLess_Air_Fryer_3614_shipped/20%Monthly2020-02-01 11:56
http://www.hotnewdeal.com/2020/02/01/330604_6Piece_Madison_Park_Signature_100_Turkish_Cotton/20%Monthly2020-02-01 11:56
http://www.hotnewdeal.com/2020/02/01/330603_8Piece_Madison_Park_Signature_800GSM_100_Cotton_/20%Monthly2020-02-01 11:56
http://www.hotnewdeal.com/2020/02/01/330602_16Count_225oz_Kelloggs_Raisin_Bran_Crunch_Brea/20%Monthly2020-02-01 11:42
http://www.hotnewdeal.com/2020/02/01/330601_Elkay_Lustertone_DropIn_Single_Bowl_Sinks_17_3/20%Monthly2020-02-01 11:41
http://www.hotnewdeal.com/2020/02/01/330600_Vinyl__Traveling_Wilburys_Volume_1_Picture_Disk_/20%Monthly2020-02-01 11:24
http://www.hotnewdeal.com/2020/02/01/330599_BLACK__DECKER_14Inch_Sheet_Orbital_Sander_2Am/20%Monthly2020-02-01 11:08
http://www.hotnewdeal.com/2020/02/01/330598_Crafstman_ProSeries_3_stage_Snowblowers_on_Sale_/20%Monthly2020-02-01 11:08
http://www.hotnewdeal.com/2020/02/01/330597_Nuwave_Appliances_10Cu_Ft_Bravo_Air_Fryer_Toaste/20%Monthly2020-02-01 10:55
http://www.hotnewdeal.com/2020/02/01/330596_BulbHead_11850_Copper_Flipwich_NonStick_Grilled_S/20%Monthly2020-02-01 10:31
http://www.hotnewdeal.com/2020/02/01/330595_Kavu_Rope_Bag_Meteor_Blue_Herringbone_Plaid_26/20%Monthly2020-02-01 10:31
http://www.hotnewdeal.com/2020/02/01/330594_Hape_Rocker_Puppy_RideOn_Solid_Wood_Rocker_40__/20%Monthly2020-02-01 10:31
http://www.hotnewdeal.com/2020/02/01/330593_Fitbit_Versa_Smartwatch_Peach__Nordstrom_Rack_/20%Monthly2020-02-01 10:24
http://www.hotnewdeal.com/2020/02/01/330592_GE_3Pack_Reveal_65Watt_Equivalent_White_Dimmable/20%Monthly2020-02-01 10:24
http://www.hotnewdeal.com/2020/02/01/330591_Hot_Wheels_Stunt__Go_Track_Set_With_Hauler_10_Ca/20%Monthly2020-02-01 10:19
http://www.hotnewdeal.com/2020/02/01/330590_480_count_Dixie_8_12_inch_paper_plates_2000_or_l/20%Monthly2020-02-01 10:17
http://www.hotnewdeal.com/2020/02/01/330589_Osprey_laptop_back_pack_Flare_22_pack/20%Monthly2020-02-01 10:17
http://www.hotnewdeal.com/2020/02/01/330588_14Count_028oz_Slim_Jim_SnackSized_Smoked_Meat_S/20%Monthly2020-02-01 09:57
http://www.hotnewdeal.com/2020/02/01/330587_LEGO_BrickHeadz_Halloween_Witch_Building_Kit_4027/20%Monthly2020-02-01 09:40
http://www.hotnewdeal.com/2020/02/01/330586_Keurig_KElite_SingleServeod_Coffee_Brewer_Bundl/20%Monthly2020-02-01 09:40
http://www.hotnewdeal.com/2020/02/01/330585_3lbs_Optimum_Nutrition_Whey_Protein_Isolate_Choc/20%Monthly2020-02-01 09:40
http://www.hotnewdeal.com/2020/02/01/330584_Costo_Member__Google_Nest_Hello_Video_Doorbell_wi/20%Monthly2020-02-01 09:36
http://www.hotnewdeal.com/2020/02/01/330583_Yi_H30_Wired_Outdoor_Bullet_Wifi_Security_Camera_/20%Monthly2020-02-01 09:26
http://www.hotnewdeal.com/2020/02/01/330582_GSKILL_Ripjaws_V_Series_32GB_DDR4_3600_PC4_28800/20%Monthly2020-02-01 09:26
http://www.hotnewdeal.com/2020/02/01/330581_Neewer_Upgraded_660_LED_Panel_Video_Light__5599/20%Monthly2020-02-01 09:09
http://www.hotnewdeal.com/2020/02/01/330580_RIDGID_18Volt_OCTANE_90_Ah_LithiumIon_Battery_a/20%Monthly2020-02-01 08:47
http://www.hotnewdeal.com/2020/02/01/330579_Porsche_70_Years_There_Is_No_Substitute_Book/20%Monthly2020-02-01 08:39
http://www.hotnewdeal.com/2020/02/01/330578_Dremel_250001_Rotary_Tool_MultiVise_1504__Ama/20%Monthly2020-02-01 08:27
http://www.hotnewdeal.com/2020/02/01/330577_Hamilton_Beach_and_Cuisinart_clearance_in_JCPenny/20%Monthly2020-02-01 08:27
http://www.hotnewdeal.com/2020/02/01/330576_Franklin_Sports_GripRite_100_Junior_Rubber_Footba/20%Monthly2020-02-01 08:21
http://www.hotnewdeal.com/2020/02/01/330575_24Ounce_Early_Riser_Ground_Coffee_House_Blend_H/20%Monthly2020-02-01 08:13
http://www.hotnewdeal.com/2020/02/01/330574_4_oz_Boudreauxs_Butt_Paste_Diaper_Rash_Ointment_/20%Monthly2020-02-01 08:04
http://www.hotnewdeal.com/2020/02/01/330573_LG_OLED65B9PUA_65_4K_OLED_TV__3_year_SquareTrad/20%Monthly2020-02-01 07:58
http://www.hotnewdeal.com/2020/02/01/330572_Hartz_Groomers_Best_Shampoos_Whitening_18oz_1/20%Monthly2020-02-01 07:58
http://www.hotnewdeal.com/2020/02/01/330571_Salomon_Mens_Odyssey_Pro_Hiking_Shoe_4173_Men/20%Monthly2020-02-01 07:41
http://www.hotnewdeal.com/2020/02/01/330570_Nostalgia_Bacon_Express_Crispy_Bacon_Grill_12__f/20%Monthly2020-02-01 07:09
http://www.hotnewdeal.com/2020/02/01/330569_Nostalgia_Electrics_HotAir_Popcorn_Popper_764_/20%Monthly2020-02-01 06:32
http://www.hotnewdeal.com/2020/02/01/330568_Ryobi_18V_ONE_5Tool_Combo_Kit_w_Brad_Nailer_18/20%Monthly2020-02-01 06:32
http://www.hotnewdeal.com/2020/02/01/330567_18Volt_ONE_LithiumIon_Cordless_AirStrike_18Gau/20%Monthly2020-02-01 06:10
http://www.hotnewdeal.com/2020/02/01/330566_Cuisinart_Digital_Convection_Toaster_Oven_5584_/20%Monthly2020-02-01 05:33
http://www.hotnewdeal.com/2020/02/01/330565_SanDisk_1TB_Extreme_PRO_Portable_External_SSD__Up/20%Monthly2020-02-01 04:31
http://www.hotnewdeal.com/2020/02/01/330564_Shark_DuoClean_UltraLight_Upright_Vacuum_NV201/20%Monthly2020-02-01 04:31
http://www.hotnewdeal.com/2020/02/01/330563_KitchenAid_MultiCooker_with_Stir_Tower_Accessory_/20%Monthly2020-02-01 04:31
http://www.hotnewdeal.com/2020/02/01/330562_Apple__Apple_Watch_Nike_Series_4_GPS_44mm_Spac/20%Monthly2020-02-01 02:29
http://www.hotnewdeal.com/2020/02/01/330561_6Pack_Sky_Organics_Lip_Balm_Assorted_Flavors__/20%Monthly2020-02-01 02:00
http://www.hotnewdeal.com/2020/02/01/330560_Cannondale_Airport_CarryOn_Floor_Pump_at_REI_for_/20%Monthly2020-02-01 02:00
http://www.hotnewdeal.com/2020/02/01/330559_XFX_AMD_Radeon_RX_5700_XT_8GB_GDDR6_THICC_III_Ult/20%Monthly2020-02-01 02:00
http://www.hotnewdeal.com/2020/02/01/330558_Instant_Pot_Ace_60_Cooking_Blender_4496__FS/20%Monthly2020-02-01 01:40
http://www.hotnewdeal.com/2020/02/01/330557_3_count_Got2b_Ultra_Glued_Invincible_Styling_Hair_/20%Monthly2020-02-01 01:40
http://www.hotnewdeal.com/2020/02/01/330556_Makita_18V_LXT_brushless_12in_impact_wrench_and_i/20%Monthly2020-02-01 01:12
http://www.hotnewdeal.com/2020/02/01/330555_Amazon_Degbit_Rechargeable_Hand_Warmer_5200mAh_E/20%Monthly2020-02-01 01:04